<?xml version='1.0' encoding='UTF-8'?><gpx version="1.1" creator="JPX - https://github.com/jenetics/jpx" xmlns="http://www.topografix.com/GPX/1/1"><trk><trkseg><trkpt lat="41.21206119385446" lon="9.392816365440867"><ele>3.9999999999999996</ele><time>2026-05-01T08:19:01Z</time></trkpt><trkpt lat="41.21208793327852" lon="9.392911247841235"><ele>4.0</ele><time>2026-05-01T08:19:19Z</time></trkpt><trkpt lat="41.2121587792013" lon="9.39292826406669"><ele>4.0</ele><time>2026-05-01T08:19:21Z</time></trkpt><trkpt lat="41.2122238365954" lon="9.392873201296455"><ele>4.0</ele><time>2026-05-01T08:19:23Z</time></trkpt><trkpt lat="41.21232627234262" lon="9.39282890692989"><ele>3.9999999999999996</ele><time>2026-05-01T08:19:25Z</time></trkpt><trkpt lat="41.21238569940757" lon="9.392791834967346"><ele>4.0</ele><time>2026-05-01T08:19:26Z</time></trkpt><trkpt lat="41.212527596674946" lon="9.392753961694249"><ele>4.6</ele><time>2026-05-01T08:19:27.999Z</time></trkpt><trkpt lat="41.212588138501104" lon="9.392726429481439"><ele>5.2</ele><time>2026-05-01T08:19:28.999Z</time></trkpt><trkpt lat="41.212711353419074" lon="9.392652855583657"><ele>5.799999999999999</ele><time>2026-05-01T08:19:30.999Z</time></trkpt><trkpt lat="41.2127907204804" lon="9.392627134596154"><ele>6.3999999999999995</ele><time>2026-05-01T08:19:31.999Z</time></trkpt><trkpt lat="41.21287161566713" lon="9.392587812195424"><ele>7.0</ele><time>2026-05-01T08:19:32.999Z</time></trkpt><trkpt lat="41.21295418947711" lon="9.39254642198803"><ele>7.000000000000001</ele><time>2026-05-01T08:19:33.999Z</time></trkpt><trkpt lat="41.213031656504555" lon="9.392507815562718"><ele>7.0</ele><time>2026-05-01T08:19:34.999Z</time></trkpt><trkpt lat="41.213096899184116" lon="9.392502311883286"><ele>7.0</ele><time>2026-05-01T08:19:35.999Z</time></trkpt><trkpt lat="41.21320824800102" lon="9.392460352450275"><ele>7.0</ele><time>2026-05-01T08:19:37.999Z</time></trkpt><trkpt lat="41.21326972484993" lon="9.3924343715853"><ele>7.000000000000001</ele><time>2026-05-01T08:19:38.999Z</time></trkpt><trkpt lat="41.21332937400176" lon="9.392387059374094"><ele>7.0</ele><time>2026-05-01T08:19:39.999Z</time></trkpt><trkpt lat="41.213401028810985" lon="9.392371672623135"><ele>7.500000000000001</ele><time>2026-05-01T08:19:40.999Z</time></trkpt><trkpt lat="41.21347953154166" lon="9.392333132176342"><ele>8.0</ele><time>2026-05-01T08:19:41.999Z</time></trkpt><trkpt lat="41.2135579897085" lon="9.392295084388305"><ele>8.5</ele><time>2026-05-01T08:19:42.999Z</time></trkpt><trkpt lat="41.213631618162296" lon="9.39225964629906"><ele>9.0</ele><time>2026-05-01T08:19:43.999Z</time></trkpt><trkpt lat="41.21370140683134" lon="9.392214199748699"><ele>9.5</ele><time>2026-05-01T08:19:44.999Z</time></trkpt><trkpt lat="41.213772546211175" lon="9.392176140125658"><ele>10.0</ele><time>2026-05-01T08:19:45.999Z</time></trkpt><trkpt lat="41.21384686377152" lon="9.392156865320707"><ele>10.0</ele><time>2026-05-01T08:19:46.999Z</time></trkpt><trkpt lat="41.213921760859336" lon="9.392120137726472"><ele>10.0</ele><time>2026-05-01T08:19:47.999Z</time></trkpt><trkpt lat="41.21399825427883" lon="9.39208336547263"><ele>10.0</ele><time>2026-05-01T08:19:48.999Z</time></trkpt><trkpt lat="41.21406907124602" lon="9.392036336669351"><ele>10.0</ele><time>2026-05-01T08:19:49.999Z</time></trkpt><trkpt lat="41.21414074917794" lon="9.39199516879267"><ele>10.0</ele><time>2026-05-01T08:19:50.999Z</time></trkpt><trkpt lat="41.21420324599089" lon="9.391966632938857"><ele>10.0</ele><time>2026-05-01T08:19:51.999Z</time></trkpt><trkpt lat="41.214259444911605" lon="9.391909606030689"><ele>11.166666666666668</ele><time>2026-05-01T08:19:52.999Z</time></trkpt><trkpt lat="41.2143122431674" lon="9.391828217275739"><ele>12.333333333333334</ele><time>2026-05-01T08:19:53.999Z</time></trkpt><trkpt lat="41.21435905357242" lon="9.391737031837271"><ele>13.5</ele><time>2026-05-01T08:19:54.999Z</time></trkpt><trkpt lat="41.2143811264744" lon="9.391657567789025"><ele>14.666666666666668</ele><time>2026-05-01T08:19:55.999Z</time></trkpt><trkpt lat="41.21439920459468" lon="9.391519130001196"><ele>15.833333333333334</ele><time>2026-05-01T08:19:57.999Z</time></trkpt><trkpt lat="41.214395773688786" lon="9.391433655974154"><ele>17.0</ele><time>2026-05-01T08:19:58.999Z</time></trkpt><trkpt lat="41.21438413955014" lon="9.391329456575738"><ele>18.2</ele><time>2026-05-01T08:20:00.999Z</time></trkpt><trkpt lat="41.21424517066958" lon="9.391238929231635"><ele>19.4</ele><time>2026-05-01T08:20:02.999Z</time></trkpt><trkpt lat="41.214196352155014" lon="9.391160027285542"><ele>20.599999999999998</ele><time>2026-05-01T08:20:03.999Z</time></trkpt><trkpt lat="41.21413332532996" lon="9.391086094798581"><ele>21.799999999999997</ele><time>2026-05-01T08:20:04.999Z</time></trkpt><trkpt lat="41.21408763748855" lon="9.391004929837015"><ele>23.0</ele><time>2026-05-01T08:20:05.999Z</time></trkpt><trkpt lat="41.21404379231781" lon="9.39092698642595"><ele>22.166666666666668</ele><time>2026-05-01T08:20:06.999Z</time></trkpt><trkpt lat="41.213972753886495" lon="9.390852575879386"><ele>21.333333333333336</ele><time>2026-05-01T08:20:07.999Z</time></trkpt><trkpt lat="41.21392340575158" lon="9.390760354732329"><ele>20.5</ele><time>2026-05-01T08:20:08.999Z</time></trkpt><trkpt lat="41.2138616235665" lon="9.390675402221577"><ele>19.666666666666668</ele><time>2026-05-01T08:20:09.999Z</time></trkpt><trkpt lat="41.213785106409574" lon="9.39060074502234"><ele>18.833333333333332</ele><time>2026-05-01T08:20:10.999Z</time></trkpt><trkpt lat="41.213722340721795" lon="9.390518432297153"><ele>18.0</ele><time>2026-05-01T08:20:11.999Z</time></trkpt><trkpt lat="41.21362865719906" lon="9.390329074791655"><ele>18.0</ele><time>2026-05-01T08:20:13.999Z</time></trkpt><trkpt lat="41.21355207269652" lon="9.390276344711431"><ele>18.0</ele><time>2026-05-01T08:20:14.999Z</time></trkpt><trkpt lat="41.21350322470515" lon="9.390209559159898"><ele>18.0</ele><time>2026-05-01T08:20:15.999Z</time></trkpt><trkpt lat="41.213444236584365" lon="9.390153274539307"><ele>18.0</ele><time>2026-05-01T08:20:16.999Z</time></trkpt><trkpt lat="41.21338610153914" lon="9.390085860292391"><ele>18.0</ele><time>2026-05-01T08:20:17.999Z</time></trkpt><trkpt lat="41.21331069930304" lon="9.39003578260726"><ele>18.0</ele><time>2026-05-01T08:20:18.999Z</time></trkpt><trkpt lat="41.2132390608474" lon="9.389995358326406"><ele>18.0</ele><time>2026-05-01T08:20:19.999Z</time></trkpt><trkpt lat="41.21316018154656" lon="9.389970416870804"><ele>18.0</ele><time>2026-05-01T08:20:20.999Z</time></trkpt><trkpt lat="41.21309650757643" lon="9.389946486936513"><ele>18.0</ele><time>2026-05-01T08:20:21.999Z</time></trkpt><trkpt lat="41.21298719452564" lon="9.389903267604916"><ele>18.0</ele><time>2026-05-01T08:20:23.999Z</time></trkpt><trkpt lat="41.21290323220377" lon="9.389864998766372"><ele>18.0</ele><time>2026-05-01T08:20:25.999Z</time></trkpt><trkpt lat="41.212839120487224" lon="9.389843545176296"><ele>18.0</ele><time>2026-05-01T08:20:27.999Z</time></trkpt><trkpt lat="41.21282089043114" lon="9.389938724977139"><ele>18.0</ele><time>2026-05-01T08:20:29.999Z</time></trkpt><trkpt lat="41.21288974304491" lon="9.389967535454742"><ele>18.0</ele><time>2026-05-01T08:20:32.999Z</time></trkpt><trkpt lat="41.212994047295865" lon="9.389922925457416"><ele>18.0</ele><time>2026-05-01T08:20:34.999Z</time></trkpt><trkpt lat="41.21306504275543" lon="9.389919971092676"><ele>18.0</ele><time>2026-05-01T08:20:35.999Z</time></trkpt><trkpt lat="41.21313865426856" lon="9.389946206190677"><ele>18.0</ele><time>2026-05-01T08:20:36.999Z</time></trkpt><trkpt lat="41.21320653019163" lon="9.390024961967574"><ele>18.0</ele><time>2026-05-01T08:20:37.999Z</time></trkpt><trkpt lat="41.213286481561376" lon="9.390062819719398"><ele>18.0</ele><time>2026-05-01T08:20:38.999Z</time></trkpt><trkpt lat="41.21336562891422" lon="9.390120335313362"><ele>18.0</ele><time>2026-05-01T08:20:39.999Z</time></trkpt><trkpt lat="41.21343436458285" lon="9.390192847938234"><ele>18.0</ele><time>2026-05-01T08:20:40.999Z</time></trkpt><trkpt lat="41.2134979129495" lon="9.390274056963602"><ele>18.0</ele><time>2026-05-01T08:20:41.999Z</time></trkpt><trkpt lat="41.21356537740775" lon="9.390361815450749"><ele>18.0</ele><time>2026-05-01T08:20:42.999Z</time></trkpt><trkpt lat="41.21363122794794" lon="9.390446415107755"><ele>19.0</ele><time>2026-05-01T08:20:43.999Z</time></trkpt><trkpt lat="41.21370201288234" lon="9.390532615148741"><ele>20.0</ele><time>2026-05-01T08:20:44.999Z</time></trkpt><trkpt lat="41.2137763407393" lon="9.390625180985777"><ele>21.0</ele><time>2026-05-01T08:20:45.999Z</time></trkpt><trkpt lat="41.21385272148941" lon="9.390726346570114"><ele>22.0</ele><time>2026-05-01T08:20:46.999Z</time></trkpt><trkpt lat="41.213928242026746" lon="9.390831368663537"><ele>23.0</ele><time>2026-05-01T08:20:47.999Z</time></trkpt><trkpt lat="41.21399590382616" lon="9.39092619076847"><ele>23.0</ele><time>2026-05-01T08:20:48.999Z</time></trkpt><trkpt lat="41.21405693968288" lon="9.391011727209438"><ele>23.0</ele><time>2026-05-01T08:20:49.999Z</time></trkpt><trkpt lat="41.2141312278412" lon="9.39108804495396"><ele>23.0</ele><time>2026-05-01T08:20:50.999Z</time></trkpt><trkpt lat="41.21418376883443" lon="9.391165114224645"><ele>23.0</ele><time>2026-05-01T08:20:51.999Z</time></trkpt><trkpt lat="41.214229032403075" lon="9.39123556952174"><ele>23.0</ele><time>2026-05-01T08:20:52.999Z</time></trkpt><trkpt lat="41.21429256033096" lon="9.391338837844803"><ele>23.0</ele><time>2026-05-01T08:20:54.999Z</time></trkpt><trkpt lat="41.214345835918294" lon="9.391196533184567"><ele>23.0</ele><time>2026-05-01T08:21:03.999Z</time></trkpt><trkpt lat="41.214306181265094" lon="9.391085329515777"><ele>23.0</ele><time>2026-05-01T08:21:04.999Z</time></trkpt><trkpt lat="41.214268462505785" lon="9.391006255455059"><ele>23.0</ele><time>2026-05-01T08:21:05.999Z</time></trkpt><trkpt lat="41.21423980147149" lon="9.390902940556641"><ele>23.0</ele><time>2026-05-01T08:21:06.999Z</time></trkpt><trkpt lat="41.21420271317225" lon="9.390781661116614"><ele>23.0</ele><time>2026-05-01T08:21:07.999Z</time></trkpt><trkpt lat="41.214168902689636" lon="9.390676915120844"><ele>23.0</ele><time>2026-05-01T08:21:08.999Z</time></trkpt><trkpt lat="41.214140375565556" lon="9.39056522595641"><ele>24.166666666666668</ele><time>2026-05-01T08:21:09.999Z</time></trkpt><trkpt lat="41.21412403512898" lon="9.390459065547816"><ele>25.333333333333336</ele><time>2026-05-01T08:21:10.999Z</time></trkpt><trkpt lat="41.214087070449324" lon="9.390378806041673"><ele>26.5</ele><time>2026-05-01T08:21:11.999Z</time></trkpt><trkpt lat="41.214069421985585" lon="9.390284833719079"><ele>27.666666666666668</ele><time>2026-05-01T08:21:12.999Z</time></trkpt><trkpt lat="41.21407402006111" lon="9.390123124466491"><ele>28.833333333333332</ele><time>2026-05-01T08:21:14.999Z</time></trkpt><trkpt lat="41.21410079973743" lon="9.390044617416912"><ele>30.0</ele><time>2026-05-01T08:21:15.999Z</time></trkpt><trkpt lat="41.21414895502274" lon="9.38996746838949"><ele>30.0</ele><time>2026-05-01T08:21:16.999Z</time></trkpt><trkpt lat="41.214207024555144" lon="9.389889199921999"><ele>30.0</ele><time>2026-05-01T08:21:17.999Z</time></trkpt><trkpt lat="41.21426610392378" lon="9.389816574523651"><ele>30.0</ele><time>2026-05-01T08:21:18.999Z</time></trkpt><trkpt lat="41.21431851734742" lon="9.389738236272942"><ele>30.0</ele><time>2026-05-01T08:21:19.999Z</time></trkpt><trkpt lat="41.214365396072544" lon="9.389651578403196"><ele>30.0</ele><time>2026-05-01T08:21:20.999Z</time></trkpt><trkpt lat="41.214394791936485" lon="9.389541655225024"><ele>30.0</ele><time>2026-05-01T08:21:21.999Z</time></trkpt><trkpt lat="41.214410774108586" lon="9.389423471036242"><ele>29.833333333333332</ele><time>2026-05-01T08:21:22.999Z</time></trkpt><trkpt lat="41.21441208082124" lon="9.389311851519603"><ele>29.666666666666664</ele><time>2026-05-01T08:21:23.999Z</time></trkpt><trkpt lat="41.21439495940724" lon="9.389197533081333"><ele>29.5</ele><time>2026-05-01T08:21:24.999Z</time></trkpt><trkpt lat="41.21437638912757" lon="9.389075323985196"><ele>29.333333333333332</ele><time>2026-05-01T08:21:25.999Z</time></trkpt><trkpt lat="41.214353687118084" lon="9.388972341262829"><ele>29.166666666666664</ele><time>2026-05-01T08:21:26.999Z</time></trkpt><trkpt lat="41.214329187404005" lon="9.388869920212718"><ele>29.0</ele><time>2026-05-01T08:21:27.999Z</time></trkpt><trkpt lat="41.214309360604474" lon="9.388778702867349"><ele>28.499999999999996</ele><time>2026-05-01T08:21:28.999Z</time></trkpt><trkpt lat="41.21428409448635" lon="9.388687185119442"><ele>28.0</ele><time>2026-05-01T08:21:29.999Z</time></trkpt><trkpt lat="41.21426139790366" lon="9.388603472662247"><ele>27.5</ele><time>2026-05-01T08:21:30.999Z</time></trkpt><trkpt lat="41.2142340601607" lon="9.388527867995004"><ele>27.0</ele><time>2026-05-01T08:21:31.999Z</time></trkpt><trkpt lat="41.21418836952526" lon="9.388378281405771"><ele>26.499999999999996</ele><time>2026-05-01T08:21:33.999Z</time></trkpt><trkpt lat="41.21414079791471" lon="9.388237087367871"><ele>26.0</ele><time>2026-05-01T08:21:35.999Z</time></trkpt><trkpt lat="41.21407957188595" lon="9.388079679869328"><ele>25.6</ele><time>2026-05-01T08:21:37.999Z</time></trkpt><trkpt lat="41.21403474371184" lon="9.38797610367739"><ele>25.200000000000003</ele><time>2026-05-01T08:21:38.999Z</time></trkpt><trkpt lat="41.21398885977941" lon="9.387853156838512"><ele>24.799999999999997</ele><time>2026-05-01T08:21:39.999Z</time></trkpt><trkpt lat="41.213946300196554" lon="9.387733367289712"><ele>24.4</ele><time>2026-05-01T08:21:40.999Z</time></trkpt><trkpt lat="41.213905860532684" lon="9.387610353016298"><ele>24.0</ele><time>2026-05-01T08:21:41.999Z</time></trkpt><trkpt lat="41.213872064783544" lon="9.38748673621019"><ele>23.799999999999997</ele><time>2026-05-01T08:21:42.999Z</time></trkpt><trkpt lat="41.21384504615976" lon="9.387360530660153"><ele>23.599999999999998</ele><time>2026-05-01T08:21:43.999Z</time></trkpt><trkpt lat="41.213823820956364" lon="9.387232460286489"><ele>23.4</ele><time>2026-05-01T08:21:44.999Z</time></trkpt><trkpt lat="41.213809112446036" lon="9.387106854096613"><ele>23.2</ele><time>2026-05-01T08:21:45.999Z</time></trkpt><trkpt lat="41.21379779957501" lon="9.386981298059032"><ele>23.0</ele><time>2026-05-01T08:21:46.999Z</time></trkpt><trkpt lat="41.21379389477874" lon="9.386855485539288"><ele>21.833333333333336</ele><time>2026-05-01T08:21:47.999Z</time></trkpt><trkpt lat="41.21379263316448" lon="9.386743246080936"><ele>20.666666666666668</ele><time>2026-05-01T08:21:48.999Z</time></trkpt><trkpt lat="41.213798295228905" lon="9.386652158362185"><ele>19.5</ele><time>2026-05-01T08:21:49.999Z</time></trkpt><trkpt lat="41.21384437874409" lon="9.386515390595463"><ele>18.333333333333332</ele><time>2026-05-01T08:21:51.999Z</time></trkpt><trkpt lat="41.213921043437416" lon="9.386433276478357"><ele>17.166666666666664</ele><time>2026-05-01T08:21:53.999Z</time></trkpt><trkpt lat="41.21398520655087" lon="9.386394514494347"><ele>16.0</ele><time>2026-05-01T08:21:55.999Z</time></trkpt><trkpt lat="41.21400120079927" lon="9.38630535755807"><ele>14.499999999999998</ele><time>2026-05-01T08:21:59.999Z</time></trkpt><trkpt lat="41.21389959145396" lon="9.386266863340905"><ele>13.0</ele><time>2026-05-01T08:22:03.999Z</time></trkpt><trkpt lat="41.213824248093275" lon="9.386281989025353"><ele>11.5</ele><time>2026-05-01T08:22:04.999Z</time></trkpt><trkpt lat="41.21374663840854" lon="9.386307315889365"><ele>10.0</ele><time>2026-05-01T08:22:05.999Z</time></trkpt><trkpt lat="41.2136819107644" lon="9.386302693728892"><ele>8.5</ele><time>2026-05-01T08:22:06.999Z</time></trkpt><trkpt lat="41.213612007448965" lon="9.386286350422232"><ele>7.0</ele><time>2026-05-01T08:22:07.999Z</time></trkpt><trkpt lat="41.213524439915844" lon="9.38627366260532"><ele>7.000000000000001</ele><time>2026-05-01T08:22:08.999Z</time></trkpt><trkpt lat="41.21344866608206" lon="9.386252566072576"><ele>7.0</ele><time>2026-05-01T08:22:09.999Z</time></trkpt><trkpt lat="41.21337620040079" lon="9.386234418223124"><ele>7.0</ele><time>2026-05-01T08:22:10.999Z</time></trkpt><trkpt lat="41.213294008710896" lon="9.386210373796194"><ele>7.0</ele><time>2026-05-01T08:22:11.999Z</time></trkpt><trkpt lat="41.213196966501236" lon="9.386191539267292"><ele>7.000000000000001</ele><time>2026-05-01T08:22:12.999Z</time></trkpt><trkpt lat="41.21309825814849" lon="9.386173962819402"><ele>7.0</ele><time>2026-05-01T08:22:13.999Z</time></trkpt><trkpt lat="41.2130045980837" lon="9.386156793331475"><ele>6.8</ele><time>2026-05-01T08:22:14.999Z</time></trkpt><trkpt lat="41.21291286405872" lon="9.386140674025862"><ele>6.6</ele><time>2026-05-01T08:22:15.999Z</time></trkpt><trkpt lat="41.21282310216238" lon="9.386118500661917"><ele>6.3999999999999995</ele><time>2026-05-01T08:22:16.999Z</time></trkpt><trkpt lat="41.212730604769426" lon="9.386098473200429"><ele>6.199999999999999</ele><time>2026-05-01T08:22:17.999Z</time></trkpt><trkpt lat="41.21264295098229" lon="9.386084312448444"><ele>6.0</ele><time>2026-05-01T08:22:18.999Z</time></trkpt><trkpt lat="41.21255227723832" lon="9.386063377928334"><ele>6.0</ele><time>2026-05-01T08:22:19.999Z</time></trkpt><trkpt lat="41.21245822998923" lon="9.386042790365169"><ele>6.0</ele><time>2026-05-01T08:22:20.999Z</time></trkpt><trkpt lat="41.212358725813985" lon="9.386018092872591"><ele>6.0</ele><time>2026-05-01T08:22:21.999Z</time></trkpt><trkpt lat="41.21225687004917" lon="9.385991595003274"><ele>6.0</ele><time>2026-05-01T08:22:22.999Z</time></trkpt><trkpt lat="41.212145549354524" lon="9.385971593580852"><ele>6.0</ele><time>2026-05-01T08:22:23.999Z</time></trkpt><trkpt lat="41.21203521941439" lon="9.385953037069848"><ele>5.6</ele><time>2026-05-01T08:22:24.999Z</time></trkpt><trkpt lat="41.211930883214904" lon="9.385944322944875"><ele>5.199999999999999</ele><time>2026-05-01T08:22:25.999Z</time></trkpt><trkpt lat="41.21183273995348" lon="9.385945900692485"><ele>4.800000000000001</ele><time>2026-05-01T08:22:26.999Z</time></trkpt><trkpt lat="41.21173233317408" lon="9.385961517120165"><ele>4.4</ele><time>2026-05-01T08:22:27.999Z</time></trkpt><trkpt lat="41.2116326422045" lon="9.38599046566128"><ele>4.0</ele><time>2026-05-01T08:22:28.999Z</time></trkpt><trkpt lat="41.21153469797052" lon="9.386032855153957"><ele>3.4000000000000004</ele><time>2026-05-01T08:22:29.999Z</time></trkpt><trkpt lat="41.21143663000476" lon="9.386086829779295"><ele>2.8000000000000003</ele><time>2026-05-01T08:22:30.999Z</time></trkpt><trkpt lat="41.211334312476986" lon="9.386117722398899"><ele>2.2</ele><time>2026-05-01T08:22:31.999Z</time></trkpt><trkpt lat="41.21124465686608" lon="9.38618501142943"><ele>1.6</ele><time>2026-05-01T08:22:32.999Z</time></trkpt><trkpt lat="41.211148766608865" lon="9.386232299423808"><ele>1.0</ele><time>2026-05-01T08:22:33.999Z</time></trkpt><trkpt lat="41.21105785186219" lon="9.386285975667464"><ele>2.0</ele><time>2026-05-01T08:22:34.999Z</time></trkpt><trkpt lat="41.21097523702682" lon="9.386355394505424"><ele>3.0</ele><time>2026-05-01T08:22:35.999Z</time></trkpt><trkpt lat="41.210909355088354" lon="9.386437569046715"><ele>3.9999999999999996</ele><time>2026-05-01T08:22:36.999Z</time></trkpt><trkpt lat="41.21085207100324" lon="9.386542201909633"><ele>5.0</ele><time>2026-05-01T08:22:37.999Z</time></trkpt><trkpt lat="41.210800327043906" lon="9.38666115116252"><ele>6.0</ele><time>2026-05-01T08:22:38.999Z</time></trkpt><trkpt lat="41.2107537656998" lon="9.386786462786633"><ele>6.0</ele><time>2026-05-01T08:22:39.999Z</time></trkpt><trkpt lat="41.210708068423614" lon="9.386915269703357"><ele>6.0</ele><time>2026-05-01T08:22:40.999Z</time></trkpt><trkpt lat="41.21066188086619" lon="9.387045749724427"><ele>6.0</ele><time>2026-05-01T08:22:41.999Z</time></trkpt><trkpt lat="41.210615805955754" lon="9.387174966829411"><ele>6.0</ele><time>2026-05-01T08:22:42.999Z</time></trkpt><trkpt lat="41.21056911226495" lon="9.387300583823057"><ele>6.0</ele><time>2026-05-01T08:22:43.999Z</time></trkpt><trkpt lat="41.21052925879403" lon="9.387420028539161"><ele>5.6</ele><time>2026-05-01T08:22:44.998Z</time></trkpt><trkpt lat="41.2105050711161" lon="9.387547213689842"><ele>5.199999999999999</ele><time>2026-05-01T08:22:45.998Z</time></trkpt><trkpt lat="41.21050332968302" lon="9.387678794802293"><ele>4.800000000000001</ele><time>2026-05-01T08:22:46.998Z</time></trkpt><trkpt lat="41.210520413583" lon="9.387813366447086"><ele>4.4</ele><time>2026-05-01T08:22:47.998Z</time></trkpt><trkpt lat="41.21054813441925" lon="9.387945693204642"><ele>4.0</ele><time>2026-05-01T08:22:48.998Z</time></trkpt><trkpt lat="41.21058401858918" lon="9.388074626281474"><ele>4.0</ele><time>2026-05-01T08:22:49.998Z</time></trkpt><trkpt lat="41.210624275447906" lon="9.388199726969026"><ele>4.0</ele><time>2026-05-01T08:22:50.998Z</time></trkpt><trkpt lat="41.210675866756674" lon="9.388318223824529"><ele>4.0</ele><time>2026-05-01T08:22:51.998Z</time></trkpt><trkpt lat="41.21073891917519" lon="9.388425862374495"><ele>4.0</ele><time>2026-05-01T08:22:52.998Z</time></trkpt><trkpt lat="41.21081464709741" lon="9.388522586408614"><ele>4.0</ele><time>2026-05-01T08:22:53.998Z</time></trkpt><trkpt lat="41.21089879266632" lon="9.388606415042217"><ele>5.0</ele><time>2026-05-01T08:22:54.998Z</time></trkpt><trkpt lat="41.2109873015825" lon="9.388684605655452"><ele>6.0</ele><time>2026-05-01T08:22:55.998Z</time></trkpt><trkpt lat="41.211076745689496" lon="9.388758609708674"><ele>7.0</ele><time>2026-05-01T08:22:56.998Z</time></trkpt><trkpt lat="41.21116945885122" lon="9.388835528439612"><ele>8.0</ele><time>2026-05-01T08:22:57.998Z</time></trkpt><trkpt lat="41.21125909948923" lon="9.388923095143237"><ele>9.0</ele><time>2026-05-01T08:22:58.998Z</time></trkpt><trkpt lat="41.21133946843069" lon="9.389028258276442"><ele>9.0</ele><time>2026-05-01T08:22:59.998Z</time></trkpt><trkpt lat="41.21140488820046" lon="9.389133146567357"><ele>9.0</ele><time>2026-05-01T08:23:00.998Z</time></trkpt><trkpt lat="41.21145946585472" lon="9.389245337207566"><ele>9.0</ele><time>2026-05-01T08:23:01.998Z</time></trkpt><trkpt lat="41.21150517052444" lon="9.389356073429035"><ele>9.0</ele><time>2026-05-01T08:23:02.999Z</time></trkpt><trkpt lat="41.21153256027677" lon="9.389471561837269"><ele>9.0</ele><time>2026-05-01T08:23:03.999Z</time></trkpt><trkpt lat="41.21154860126758" lon="9.38959091868032"><ele>9.0</ele><time>2026-05-01T08:23:04.999Z</time></trkpt><trkpt lat="41.21155177753818" lon="9.389713147232756"><ele>9.0</ele><time>2026-05-01T08:23:05.999Z</time></trkpt><trkpt lat="41.211538927578516" lon="9.389837461917496"><ele>9.0</ele><time>2026-05-01T08:23:06.999Z</time></trkpt><trkpt lat="41.21149398908863" lon="9.389952388001495"><ele>9.0</ele><time>2026-05-01T08:23:07.999Z</time></trkpt><trkpt lat="41.211453102218265" lon="9.390072845618148"><ele>9.0</ele><time>2026-05-01T08:23:08.999Z</time></trkpt><trkpt lat="41.211417045689615" lon="9.390193931412387"><ele>8.0</ele><time>2026-05-01T08:23:09.999Z</time></trkpt><trkpt lat="41.21138575379382" lon="9.390319328666386"><ele>7.0</ele><time>2026-05-01T08:23:10.999Z</time></trkpt><trkpt lat="41.211379781646734" lon="9.390453476205497"><ele>6.0</ele><time>2026-05-01T08:23:11.999Z</time></trkpt><trkpt lat="41.21137233074255" lon="9.390590582619984"><ele>5.0</ele><time>2026-05-01T08:23:12.999Z</time></trkpt><trkpt lat="41.211376450801936" lon="9.390727805616002"><ele>4.0</ele><time>2026-05-01T08:23:13.999Z</time></trkpt><trkpt lat="41.21138710010937" lon="9.390865359685918"><ele>3.4000000000000004</ele><time>2026-05-01T08:23:14.999Z</time></trkpt><trkpt lat="41.21139948264344" lon="9.39100312209007"><ele>2.8000000000000003</ele><time>2026-05-01T08:23:15.999Z</time></trkpt><trkpt lat="41.21141312294117" lon="9.391142934784869"><ele>2.2</ele><time>2026-05-01T08:23:16.999Z</time></trkpt><trkpt lat="41.21142887968829" lon="9.391279868364963"><ele>1.6</ele><time>2026-05-01T08:23:17.999Z</time></trkpt><trkpt lat="41.211439380361675" lon="9.391414152833896"><ele>1.0</ele><time>2026-05-01T08:23:18.999Z</time></trkpt><trkpt lat="41.21144970245306" lon="9.39153502652904"><ele>0.8333333333333333</ele><time>2026-05-01T08:23:19.999Z</time></trkpt><trkpt lat="41.211459347533534" lon="9.391650793918236"><ele>0.6666666666666666</ele><time>2026-05-01T08:23:20.999Z</time></trkpt><trkpt lat="41.21146983657497" lon="9.391755956502037"><ele>0.5</ele><time>2026-05-01T08:23:21.999Z</time></trkpt><trkpt lat="41.21146376725088" lon="9.391870129218754"><ele>0.3333333333333333</ele><time>2026-05-01T08:23:22.999Z</time></trkpt><trkpt lat="41.21146024238767" lon="9.391986763539958"><ele>0.16666666666666666</ele><time>2026-05-01T08:23:23.999Z</time></trkpt><trkpt lat="41.21146783091018" lon="9.392109941144403"><ele>0.0</ele><time>2026-05-01T08:23:24.999Z</time></trkpt><trkpt lat="41.21144737294113" lon="9.392235773303355"><ele>0.0</ele><time>2026-05-01T08:23:25.999Z</time></trkpt><trkpt lat="41.211412269086594" lon="9.392362513601633"><ele>0.0</ele><time>2026-05-01T08:23:26.999Z</time></trkpt><trkpt lat="41.21137480899586" lon="9.392496006943661"><ele>0.0</ele><time>2026-05-01T08:23:27.999Z</time></trkpt><trkpt lat="41.21133660191842" lon="9.392633304969195"><ele>0.0</ele><time>2026-05-01T08:23:28.999Z</time></trkpt><trkpt lat="41.21128008165182" lon="9.392757029859922"><ele>0.0</ele><time>2026-05-01T08:23:29.999Z</time></trkpt><trkpt lat="41.21124025912113" lon="9.392894882341254"><ele>0.2</ele><time>2026-05-01T08:23:30.999Z</time></trkpt><trkpt lat="41.21119885837106" lon="9.393042058800525"><ele>0.4</ele><time>2026-05-01T08:23:31.999Z</time></trkpt><trkpt lat="41.21116819285272" lon="9.393163410945633"><ele>0.6000000000000001</ele><time>2026-05-01T08:23:32.999Z</time></trkpt><trkpt lat="41.211138256615804" lon="9.393288234686775"><ele>0.8</ele><time>2026-05-01T08:23:33.999Z</time></trkpt><trkpt lat="41.2111176449075" lon="9.393422233101218"><ele>1.0</ele><time>2026-05-01T08:23:34.999Z</time></trkpt><trkpt lat="41.21107629757486" lon="9.393558418847018"><ele>1.0</ele><time>2026-05-01T08:23:35.999Z</time></trkpt><trkpt lat="41.211025536319866" lon="9.393676867567448"><ele>1.0</ele><time>2026-05-01T08:23:36.999Z</time></trkpt><trkpt lat="41.21098656259295" lon="9.393814183650848"><ele>1.0</ele><time>2026-05-01T08:23:37.999Z</time></trkpt><trkpt lat="41.210951862521966" lon="9.393942588891697"><ele>1.0</ele><time>2026-05-01T08:23:38.999Z</time></trkpt><trkpt lat="41.210919862992974" lon="9.394061000949803"><ele>1.0</ele><time>2026-05-01T08:23:39.999Z</time></trkpt><trkpt lat="41.210887850216665" lon="9.394176012084113"><ele>1.6</ele><time>2026-05-01T08:23:40.999Z</time></trkpt><trkpt lat="41.21085423573823" lon="9.394296655945633"><ele>2.2</ele><time>2026-05-01T08:23:41.999Z</time></trkpt><trkpt lat="41.210824346801424" lon="9.394407575210904"><ele>2.8000000000000003</ele><time>2026-05-01T08:23:42.999Z</time></trkpt><trkpt lat="41.210808764432876" lon="9.394530717413728"><ele>3.4000000000000004</ele><time>2026-05-01T08:23:43.999Z</time></trkpt><trkpt lat="41.21078123476743" lon="9.394656056039906"><ele>4.0</ele><time>2026-05-01T08:23:44.999Z</time></trkpt><trkpt lat="41.21074263135264" lon="9.394782943658788"><ele>4.2</ele><time>2026-05-01T08:23:45.999Z</time></trkpt><trkpt lat="41.210739112394286" lon="9.39492523870876"><ele>4.4</ele><time>2026-05-01T08:23:46.999Z</time></trkpt><trkpt lat="41.21072331424448" lon="9.395058310553562"><ele>4.6</ele><time>2026-05-01T08:23:47.999Z</time></trkpt><trkpt lat="41.210713028508756" lon="9.395192228408435"><ele>4.8</ele><time>2026-05-01T08:23:48.999Z</time></trkpt><trkpt lat="41.21068345176655" lon="9.39532444949921"><ele>5.0</ele><time>2026-05-01T08:23:49.999Z</time></trkpt><trkpt lat="41.21067030351132" lon="9.39545998906338"><ele>4.0</ele><time>2026-05-01T08:23:50.999Z</time></trkpt><trkpt lat="41.21065474040123" lon="9.395593596831556"><ele>3.0</ele><time>2026-05-01T08:23:51.999Z</time></trkpt><trkpt lat="41.21063947478264" lon="9.395723706210047"><ele>2.0</ele><time>2026-05-01T08:23:52.999Z</time></trkpt><trkpt lat="41.21062623082807" lon="9.395853515726142"><ele>1.0</ele><time>2026-05-01T08:23:53.999Z</time></trkpt><trkpt lat="41.21061603601031" lon="9.395977562075002"><ele>0.0</ele><time>2026-05-01T08:23:54.999Z</time></trkpt><trkpt lat="41.21061031782358" lon="9.39610460359543"><ele>0.0</ele><time>2026-05-01T08:23:55.999Z</time></trkpt><trkpt lat="41.210631806099904" lon="9.396236865114927"><ele>0.0</ele><time>2026-05-01T08:23:56.999Z</time></trkpt><trkpt lat="41.21064843267953" lon="9.396369400173981"><ele>0.0</ele><time>2026-05-01T08:23:57.999Z</time></trkpt><trkpt lat="41.21065106673395" lon="9.396500340377731"><ele>0.0</ele><time>2026-05-01T08:23:58.999Z</time></trkpt><trkpt lat="41.21066891224171" lon="9.396626276100605"><ele>0.0</ele><time>2026-05-01T08:23:59.999Z</time></trkpt><trkpt lat="41.21069899414823" lon="9.396749124091334"><ele>1.0</ele><time>2026-05-01T08:24:00.999Z</time></trkpt><trkpt lat="41.21071516211951" lon="9.396871383412819"><ele>2.0</ele><time>2026-05-01T08:24:01.999Z</time></trkpt><trkpt lat="41.21073125919016" lon="9.396981274137746"><ele>3.0</ele><time>2026-05-01T08:24:02.999Z</time></trkpt><trkpt lat="41.210746340382435" lon="9.397084767903442"><ele>4.0</ele><time>2026-05-01T08:24:03.999Z</time></trkpt><trkpt lat="41.21075590208118" lon="9.39718350418077"><ele>5.0</ele><time>2026-05-01T08:24:04.999Z</time></trkpt><trkpt lat="41.21076589942584" lon="9.397270933486642"><ele>6.0</ele><time>2026-05-01T08:24:05.999Z</time></trkpt><trkpt lat="41.2107770046417" lon="9.397356740767266"><ele>5.999999999999999</ele><time>2026-05-01T08:24:06.999Z</time></trkpt><trkpt lat="41.21079015144184" lon="9.397446706872591"><ele>6.0</ele><time>2026-05-01T08:24:07.999Z</time></trkpt><trkpt lat="41.2108030343936" lon="9.397543900124079"><ele>6.0</ele><time>2026-05-01T08:24:08.999Z</time></trkpt><trkpt lat="41.21081815457989" lon="9.397641660088489"><ele>6.0</ele><time>2026-05-01T08:24:09.999Z</time></trkpt><trkpt lat="41.210836254549626" lon="9.39774630572189"><ele>6.0</ele><time>2026-05-01T08:24:10.999Z</time></trkpt><trkpt lat="41.21084774299477" lon="9.397838870362067"><ele>5.999999999999999</ele><time>2026-05-01T08:24:11.999Z</time></trkpt><trkpt lat="41.21085887495688" lon="9.397925045339148"><ele>6.0</ele><time>2026-05-01T08:24:12.999Z</time></trkpt><trkpt lat="41.210872986751745" lon="9.398076077355913"><ele>6.6</ele><time>2026-05-01T08:24:14.999Z</time></trkpt><trkpt lat="41.2108506681358" lon="9.398196701990555"><ele>7.199999999999999</ele><time>2026-05-01T08:24:16.999Z</time></trkpt><trkpt lat="41.2107654931124" lon="9.398297647185556"><ele>7.800000000000001</ele><time>2026-05-01T08:24:18.999Z</time></trkpt><trkpt lat="41.21069046468987" lon="9.398318452165682"><ele>8.4</ele><time>2026-05-01T08:24:19.999Z</time></trkpt><trkpt lat="41.21061193301334" lon="9.398344404664657"><ele>9.0</ele><time>2026-05-01T08:24:20.999Z</time></trkpt><trkpt lat="41.21052646085129" lon="9.398371660834862"><ele>7.833333333333333</ele><time>2026-05-01T08:24:21.999Z</time></trkpt><trkpt lat="41.21044362477662" lon="9.398401707940664"><ele>6.666666666666667</ele><time>2026-05-01T08:24:22.999Z</time></trkpt><trkpt lat="41.21036881879871" lon="9.398434273191153"><ele>5.5</ele><time>2026-05-01T08:24:23.999Z</time></trkpt><trkpt lat="41.210309414749105" lon="9.3984933653005"><ele>4.333333333333333</ele><time>2026-05-01T08:24:24.999Z</time></trkpt><trkpt lat="41.2102603813982" lon="9.39856029917343"><ele>3.1666666666666665</ele><time>2026-05-01T08:24:25.999Z</time></trkpt><trkpt lat="41.210256785425244" lon="9.398659564010458"><ele>2.0</ele><time>2026-05-01T08:24:26.999Z</time></trkpt><trkpt lat="41.210316778105046" lon="9.398743728423755"><ele>2.0</ele><time>2026-05-01T08:24:27.999Z</time></trkpt><trkpt lat="41.21038898740733" lon="9.398823306216942"><ele>2.0</ele><time>2026-05-01T08:24:28.999Z</time></trkpt><trkpt lat="41.21047235236336" lon="9.398904056643353"><ele>2.0</ele><time>2026-05-01T08:24:29.999Z</time></trkpt><trkpt lat="41.21056344194808" lon="9.398988804306269"><ele>2.0</ele><time>2026-05-01T08:24:30.999Z</time></trkpt><trkpt lat="41.210645373236176" lon="9.399065475526871"><ele>2.0</ele><time>2026-05-01T08:24:31.999Z</time></trkpt><trkpt lat="41.210727543920264" lon="9.399147563637273"><ele>4.2</ele><time>2026-05-01T08:24:32.999Z</time></trkpt><trkpt lat="41.21080890161523" lon="9.399234363314134"><ele>6.4</ele><time>2026-05-01T08:24:33.999Z</time></trkpt><trkpt lat="41.210886326209454" lon="9.399313117198302"><ele>8.600000000000001</ele><time>2026-05-01T08:24:34.999Z</time></trkpt><trkpt lat="41.21096290434509" lon="9.399391375896691"><ele>10.8</ele><time>2026-05-01T08:24:35.999Z</time></trkpt><trkpt lat="41.2110378495391" lon="9.399468493490113"><ele>13.0</ele><time>2026-05-01T08:24:36.999Z</time></trkpt><trkpt lat="41.21111149883302" lon="9.399541492704003"><ele>12.999999999999998</ele><time>2026-05-01T08:24:37.999Z</time></trkpt><trkpt lat="41.21118114638587" lon="9.399609984826277"><ele>13.0</ele><time>2026-05-01T08:24:38.999Z</time></trkpt><trkpt lat="41.21124253473431" lon="9.399668887064704"><ele>13.0</ele><time>2026-05-01T08:24:39.999Z</time></trkpt><trkpt lat="41.21130137144313" lon="9.399727314658914"><ele>13.0</ele><time>2026-05-01T08:24:40.999Z</time></trkpt><trkpt lat="41.21135346976416" lon="9.399785681870947"><ele>12.999999999999998</ele><time>2026-05-01T08:24:41.999Z</time></trkpt><trkpt lat="41.211433494236886" lon="9.399870217846566"><ele>13.0</ele><time>2026-05-01T08:24:43.999Z</time></trkpt><trkpt lat="41.211458902664425" lon="9.399954105162251"><ele>11.6</ele><time>2026-05-01T08:24:45.999Z</time></trkpt><trkpt lat="41.211387419104064" lon="9.400026871920547"><ele>10.200000000000001</ele><time>2026-05-01T08:24:47.999Z</time></trkpt><trkpt lat="41.21128229671756" lon="9.400023705857969"><ele>8.8</ele><time>2026-05-01T08:24:49.999Z</time></trkpt><trkpt lat="41.21116185288798" lon="9.400001068859357"><ele>7.4</ele><time>2026-05-01T08:24:51.998Z</time></trkpt><trkpt lat="41.21105226544461" lon="9.399938261255686"><ele>6.0</ele><time>2026-05-01T08:24:53.998Z</time></trkpt><trkpt lat="41.210994802237416" lon="9.399874407233057"><ele>6.0</ele><time>2026-05-01T08:24:54.998Z</time></trkpt><trkpt lat="41.21094850135602" lon="9.399801705432562"><ele>6.0</ele><time>2026-05-01T08:24:55.998Z</time></trkpt><trkpt lat="41.21089954697019" lon="9.399735322121916"><ele>6.0</ele><time>2026-05-01T08:24:56.998Z</time></trkpt><trkpt lat="41.21085590032451" lon="9.39967340168459"><ele>6.0</ele><time>2026-05-01T08:24:57.998Z</time></trkpt><trkpt lat="41.210762873424784" lon="9.399625007218976"><ele>6.0</ele><time>2026-05-01T08:24:59.999Z</time></trkpt><trkpt lat="41.210687272998406" lon="9.399692023281528"><ele>6.0</ele><time>2026-05-01T08:25:01.999Z</time></trkpt><trkpt lat="41.21068695441529" lon="9.399844912952592"><ele>6.0</ele><time>2026-05-01T08:25:03.999Z</time></trkpt><trkpt lat="41.21071170418311" lon="9.399929246443302"><ele>6.0</ele><time>2026-05-01T08:25:04.999Z</time></trkpt><trkpt lat="41.21076183735549" lon="9.400075569123821"><ele>6.0</ele><time>2026-05-01T08:25:06.999Z</time></trkpt><trkpt lat="41.21078478316783" lon="9.400154782581188"><ele>6.0</ele><time>2026-05-01T08:25:07.999Z</time></trkpt><trkpt lat="41.2108096762177" lon="9.400238584493422"><ele>6.0</ele><time>2026-05-01T08:25:08.999Z</time></trkpt><trkpt lat="41.21083285865536" lon="9.400337921936703"><ele>6.0</ele><time>2026-05-01T08:25:09.999Z</time></trkpt><trkpt lat="41.21085379002168" lon="9.40045762088623"><ele>5.666666666666667</ele><time>2026-05-01T08:25:10.999Z</time></trkpt><trkpt lat="41.210861502069555" lon="9.400566405936427"><ele>5.333333333333333</ele><time>2026-05-01T08:25:11.999Z</time></trkpt><trkpt lat="41.21086832143674" lon="9.400682240712188"><ele>5.0</ele><time>2026-05-01T08:25:12.999Z</time></trkpt><trkpt lat="41.21087393779354" lon="9.400802145354234"><ele>4.666666666666666</ele><time>2026-05-01T08:25:13.999Z</time></trkpt><trkpt lat="41.21087730756985" lon="9.400917689670612"><ele>4.333333333333333</ele><time>2026-05-01T08:25:14.999Z</time></trkpt><trkpt lat="41.210880204333485" lon="9.401024717368077"><ele>4.0</ele><time>2026-05-01T08:25:15.999Z</time></trkpt><trkpt lat="41.21088831417818" lon="9.401133929051632"><ele>3.9999999999999996</ele><time>2026-05-01T08:25:16.999Z</time></trkpt><trkpt lat="41.210900826670894" lon="9.401247357089389"><ele>4.0</ele><time>2026-05-01T08:25:17.999Z</time></trkpt><trkpt lat="41.21091049236221" lon="9.401358899543418"><ele>4.0</ele><time>2026-05-01T08:25:18.999Z</time></trkpt><trkpt lat="41.210918355622816" lon="9.401468530117663"><ele>4.0</ele><time>2026-05-01T08:25:19.999Z</time></trkpt><trkpt lat="41.21092558601271" lon="9.401578674370136"><ele>3.9999999999999996</ele><time>2026-05-01T08:25:20.999Z</time></trkpt><trkpt lat="41.210938713765714" lon="9.401694085531375"><ele>4.0</ele><time>2026-05-01T08:25:21.999Z</time></trkpt><trkpt lat="41.21095151622391" lon="9.401797334731874"><ele>3.8000000000000003</ele><time>2026-05-01T08:25:22.999Z</time></trkpt><trkpt lat="41.21097750059068" lon="9.401967818299031"><ele>3.6000000000000005</ele><time>2026-05-01T08:25:24.999Z</time></trkpt><trkpt lat="41.21102073219486" lon="9.402039185704634"><ele>3.4</ele><time>2026-05-01T08:25:25.999Z</time></trkpt><trkpt lat="41.21108260546151" lon="9.402091244089776"><ele>3.2</ele><time>2026-05-01T08:25:26.999Z</time></trkpt><trkpt lat="41.21114839043325" lon="9.402129597709308"><ele>3.0</ele><time>2026-05-01T08:25:27.999Z</time></trkpt><trkpt lat="41.211266164882375" lon="9.402184159016457"><ele>2.714285714285714</ele><time>2026-05-01T08:25:29.999Z</time></trkpt><trkpt lat="41.21132167067072" lon="9.40222494128947"><ele>2.4285714285714284</ele><time>2026-05-01T08:25:30.999Z</time></trkpt><trkpt lat="41.21135038005719" lon="9.402309206366837"><ele>2.142857142857143</ele><time>2026-05-01T08:25:31.999Z</time></trkpt><trkpt lat="41.21138030060771" lon="9.402395045250696"><ele>1.857142857142857</ele><time>2026-05-01T08:25:32.999Z</time></trkpt><trkpt lat="41.21141650097611" lon="9.402483143016243"><ele>1.5714285714285712</ele><time>2026-05-01T08:25:33.999Z</time></trkpt><trkpt lat="41.211452147095635" lon="9.402578672472231"><ele>1.2857142857142856</ele><time>2026-05-01T08:25:34.999Z</time></trkpt><trkpt lat="41.21148193840697" lon="9.402672388875304"><ele>1.0</ele><time>2026-05-01T08:25:35.999Z</time></trkpt><trkpt lat="41.21150678745183" lon="9.40276508269824"><ele>1.0</ele><time>2026-05-01T08:25:36.999Z</time></trkpt><trkpt lat="41.211486906434715" lon="9.402855247137168"><ele>0.9999999999999999</ele><time>2026-05-01T08:25:38Z</time></trkpt><trkpt lat="41.211499498505106" lon="9.402948675124009"><ele>1.0</ele><time>2026-05-01T08:25:39Z</time></trkpt><trkpt lat="41.211495934544914" lon="9.403037336954478"><ele>1.0</ele><time>2026-05-01T08:25:40Z</time></trkpt><trkpt lat="41.211485484228916" lon="9.403130391090453"><ele>0.9999999999999999</ele><time>2026-05-01T08:25:41Z</time></trkpt><trkpt lat="41.21150389632502" lon="9.403218134320586"><ele>1.0</ele><time>2026-05-01T08:25:42Z</time></trkpt><trkpt lat="41.21154184502184" lon="9.403302791428535"><ele>1.0</ele><time>2026-05-01T08:25:43Z</time></trkpt><trkpt lat="41.21159178401616" lon="9.403377934379243"><ele>0.9999999999999999</ele><time>2026-05-01T08:25:44Z</time></trkpt><trkpt lat="41.211667072149666" lon="9.403433636117867"><ele>1.0</ele><time>2026-05-01T08:25:45Z</time></trkpt><trkpt lat="41.2117486926225" lon="9.403440836780849"><ele>1.0</ele><time>2026-05-01T08:25:46Z</time></trkpt><trkpt lat="41.211825678721624" lon="9.40345721324453"><ele>1.0</ele><time>2026-05-01T08:25:47Z</time></trkpt><trkpt lat="41.21190183537459" lon="9.403460739957202"><ele>0.9999999999999999</ele><time>2026-05-01T08:25:48Z</time></trkpt><trkpt lat="41.21197655682943" lon="9.40345428406105"><ele>1.0</ele><time>2026-05-01T08:25:49Z</time></trkpt><trkpt lat="41.212046169538354" lon="9.403441235363692"><ele>1.0</ele><time>2026-05-01T08:25:50Z</time></trkpt><trkpt lat="41.21212210959074" lon="9.403422949171318"><ele>0.9999999999999999</ele><time>2026-05-01T08:25:51Z</time></trkpt><trkpt lat="41.212188774216216" lon="9.403404853733294"><ele>1.0</ele><time>2026-05-01T08:25:52Z</time></trkpt><trkpt lat="41.212256517257394" lon="9.403407126328934"><ele>1.0</ele><time>2026-05-01T08:25:53Z</time></trkpt><trkpt lat="41.21232863044065" lon="9.403389544479191"><ele>0.9999999999999999</ele><time>2026-05-01T08:25:54Z</time></trkpt><trkpt lat="41.21240120769408" lon="9.403342321362299"><ele>1.0</ele><time>2026-05-01T08:25:55Z</time></trkpt><trkpt lat="41.21247592580483" lon="9.40331970987336"><ele>1.0</ele><time>2026-05-01T08:25:56Z</time></trkpt><trkpt lat="41.21254640057141" lon="9.403297844947348"><ele>1.1666666666666665</ele><time>2026-05-01T08:25:57Z</time></trkpt><trkpt lat="41.21261401405443" lon="9.403277981316474"><ele>1.3333333333333333</ele><time>2026-05-01T08:25:58Z</time></trkpt><trkpt lat="41.21268319665097" lon="9.403259566932322"><ele>1.5</ele><time>2026-05-01T08:25:59Z</time></trkpt><trkpt lat="41.21275276445297" lon="9.403241652165942"><ele>1.6666666666666665</ele><time>2026-05-01T08:26:00Z</time></trkpt><trkpt lat="41.212817649512175" lon="9.40322525841461"><ele>1.8333333333333333</ele><time>2026-05-01T08:26:01Z</time></trkpt><trkpt lat="41.21292736069439" lon="9.403207288821013"><ele>2.0</ele><time>2026-05-01T08:26:03Z</time></trkpt><trkpt lat="41.21302680696772" lon="9.403209385894495"><ele>1.9999999999999998</ele><time>2026-05-01T08:26:05Z</time></trkpt><trkpt lat="41.21309093878635" lon="9.40328694832205"><ele>2.0</ele><time>2026-05-01T08:26:07Z</time></trkpt><trkpt lat="41.21312586897035" lon="9.403359134914343"><ele>2.0</ele><time>2026-05-01T08:26:08Z</time></trkpt><trkpt lat="41.21317046695201" lon="9.403498504966747"><ele>2.0</ele><time>2026-05-01T08:26:10Z</time></trkpt><trkpt lat="41.2131922122265" lon="9.40358237955305"><ele>1.9999999999999998</ele><time>2026-05-01T08:26:12Z</time></trkpt><trkpt lat="41.21325629061531" lon="9.403639031446144"><ele>2.0</ele><time>2026-05-01T08:26:15Z</time></trkpt><trkpt lat="41.21331386872996" lon="9.403541818836056"><ele>2.0</ele><time>2026-05-01T08:26:18Z</time></trkpt><trkpt lat="41.21328190287201" lon="9.403385137460694"><ele>2.0</ele><time>2026-05-01T08:26:20Z</time></trkpt><trkpt lat="41.213236547428714" lon="9.403235908792292"><ele>2.0</ele><time>2026-05-01T08:26:22Z</time></trkpt><trkpt lat="41.21317536416737" lon="9.403119035698513"><ele>2.0</ele><time>2026-05-01T08:26:24Z</time></trkpt><trkpt lat="41.213084236777355" lon="9.403061587096989"><ele>2.0</ele><time>2026-05-01T08:26:26Z</time></trkpt><trkpt lat="41.2129949505095" lon="9.403005389831172"><ele>2.0</ele><time>2026-05-01T08:26:28Z</time></trkpt><trkpt lat="41.212926456365324" lon="9.402970263698228"><ele>2.0</ele><time>2026-05-01T08:26:31Z</time></trkpt><trkpt lat="41.21294992762795" lon="9.402777075214125"><ele>2.0</ele><time>2026-05-01T08:26:34Z</time></trkpt><trkpt lat="41.21288802840024" lon="9.402672170716023"><ele>2.0</ele><time>2026-05-01T08:26:38Z</time></trkpt><trkpt lat="41.212816274906295" lon="9.402702690323895"><ele>3.8000000000000003</ele><time>2026-05-01T08:26:40Z</time></trkpt><trkpt lat="41.21275091649765" lon="9.40264896455046"><ele>5.6000000000000005</ele><time>2026-05-01T08:26:44Z</time></trkpt><trkpt lat="41.21274605246284" lon="9.402465984987353"><ele>7.4</ele><time>2026-05-01T08:26:48Z</time></trkpt><trkpt lat="41.21272784437217" lon="9.402353520559258"><ele>9.200000000000001</ele><time>2026-05-01T08:26:51Z</time></trkpt><trkpt lat="41.21261344434972" lon="9.402327527223068"><ele>11.0</ele><time>2026-05-01T08:26:52Z</time></trkpt><trkpt lat="41.21256811124858" lon="9.402238421241636"><ele>11.8</ele><time>2026-05-01T08:26:54Z</time></trkpt><trkpt lat="41.21252092302535" lon="9.402129216179649"><ele>12.600000000000001</ele><time>2026-05-01T08:26:56Z</time></trkpt><trkpt lat="41.21252418545956" lon="9.40204013823076"><ele>13.4</ele><time>2026-05-01T08:26:57.999Z</time></trkpt><trkpt lat="41.21250953415149" lon="9.401930006172165"><ele>14.2</ele><time>2026-05-01T08:26:59.999Z</time></trkpt><trkpt lat="41.21248297038706" lon="9.40179260768649"><ele>15.0</ele><time>2026-05-01T08:27:01.999Z</time></trkpt><trkpt lat="41.212450714512165" lon="9.401654654982178"><ele>15.0</ele><time>2026-05-01T08:27:03.999Z</time></trkpt><trkpt lat="41.21243602921089" lon="9.401546517619868"><ele>15.0</ele><time>2026-05-01T08:27:05.999Z</time></trkpt><trkpt lat="41.21242637357627" lon="9.401437948583316"><ele>15.0</ele><time>2026-05-01T08:27:07.999Z</time></trkpt><trkpt lat="41.21241587378383" lon="9.401337452006267"><ele>15.0</ele><time>2026-05-01T08:27:16.999Z</time></trkpt><trkpt lat="41.212418930193564" lon="9.401234032891002"><ele>15.0</ele><time>2026-05-01T08:27:18.999Z</time></trkpt><trkpt lat="41.212422259861135" lon="9.401149451858021"><ele>15.0</ele><time>2026-05-01T08:27:19.999Z</time></trkpt><trkpt lat="41.21240585805043" lon="9.40099852019641"><ele>15.0</ele><time>2026-05-01T08:27:21.999Z</time></trkpt><trkpt lat="41.212351019993555" lon="9.400870117673044"><ele>15.0</ele><time>2026-05-01T08:27:23.999Z</time></trkpt><trkpt lat="41.2122813587525" lon="9.400778203736232"><ele>15.0</ele><time>2026-05-01T08:27:25.999Z</time></trkpt><trkpt lat="41.21221080594162" lon="9.400683934403126"><ele>15.0</ele><time>2026-05-01T08:27:27.999Z</time></trkpt><trkpt lat="41.21212869030782" lon="9.400560728978537"><ele>15.0</ele><time>2026-05-01T08:27:30Z</time></trkpt><trkpt lat="41.21207398390248" lon="9.400488003939202"><ele>15.0</ele><time>2026-05-01T08:27:31Z</time></trkpt><trkpt lat="41.21201940633904" lon="9.400428124196631"><ele>15.0</ele><time>2026-05-01T08:27:32Z</time></trkpt><trkpt lat="41.21196337778933" lon="9.400368827066238"><ele>15.0</ele><time>2026-05-01T08:27:33Z</time></trkpt><trkpt lat="41.211908218681096" lon="9.40031268102433"><ele>15.0</ele><time>2026-05-01T08:27:34Z</time></trkpt><trkpt lat="41.21185298753012" lon="9.400255259939026"><ele>15.0</ele><time>2026-05-01T08:27:35Z</time></trkpt><trkpt lat="41.211765798821475" lon="9.400162805802921"><ele>15.0</ele><time>2026-05-01T08:27:37Z</time></trkpt><trkpt lat="41.21168210199961" lon="9.400069716546945"><ele>15.0</ele><time>2026-05-01T08:27:39Z</time></trkpt><trkpt lat="41.21158922677758" lon="9.399977107324975"><ele>15.0</ele><time>2026-05-01T08:27:41Z</time></trkpt><trkpt lat="41.21150055981994" lon="9.399894769786707"><ele>15.0</ele><time>2026-05-01T08:27:43Z</time></trkpt><trkpt lat="41.21142251705762" lon="9.399813780777524"><ele>15.0</ele><time>2026-05-01T08:27:45Z</time></trkpt><trkpt lat="41.21132581421218" lon="9.399721006299448"><ele>15.0</ele><time>2026-05-01T08:27:47Z</time></trkpt><trkpt lat="41.211272409098164" lon="9.399665523004629"><ele>14.6</ele><time>2026-05-01T08:27:48Z</time></trkpt><trkpt lat="41.21121180550896" lon="9.399605094283546"><ele>14.2</ele><time>2026-05-01T08:27:49Z</time></trkpt><trkpt lat="41.21114115456289" lon="9.399544794107852"><ele>13.8</ele><time>2026-05-01T08:27:50Z</time></trkpt><trkpt lat="41.211063268756234" lon="9.39946037253992"><ele>13.4</ele><time>2026-05-01T08:27:51Z</time></trkpt><trkpt lat="41.21098046589162" lon="9.399372980740036"><ele>13.0</ele><time>2026-05-01T08:27:52Z</time></trkpt><trkpt lat="41.21089756260164" lon="9.399288435361626"><ele>13.0</ele><time>2026-05-01T08:27:53Z</time></trkpt><trkpt lat="41.21080971457749" lon="9.399203077696304"><ele>13.0</ele><time>2026-05-01T08:27:54Z</time></trkpt><trkpt lat="41.210722567617296" lon="9.399120817236904"><ele>13.0</ele><time>2026-05-01T08:27:55Z</time></trkpt><trkpt lat="41.210644461320776" lon="9.39903459291927"><ele>13.0</ele><time>2026-05-01T08:27:56Z</time></trkpt><trkpt lat="41.21056497429802" lon="9.39895499786742"><ele>13.0</ele><time>2026-05-01T08:27:57Z</time></trkpt><trkpt lat="41.210482648142374" lon="9.398874887355692"><ele>11.166666666666666</ele><time>2026-05-01T08:27:58Z</time></trkpt><trkpt lat="41.21040749215258" lon="9.398803284126396"><ele>9.333333333333332</ele><time>2026-05-01T08:27:59Z</time></trkpt><trkpt lat="41.21034937565979" lon="9.398738277926643"><ele>7.5</ele><time>2026-05-01T08:28:00Z</time></trkpt><trkpt lat="41.21030403836943" lon="9.39861782206947"><ele>5.666666666666666</ele><time>2026-05-01T08:28:02Z</time></trkpt><trkpt lat="41.21034648371188" lon="9.398496767112903"><ele>3.833333333333333</ele><time>2026-05-01T08:28:04Z</time></trkpt><trkpt lat="41.210411578100064" lon="9.398454221768427"><ele>2.0</ele><time>2026-05-01T08:28:05Z</time></trkpt><trkpt lat="41.21050533423485" lon="9.398426470974869"><ele>1.9999999999999998</ele><time>2026-05-01T08:28:06Z</time></trkpt><trkpt lat="41.21059344794369" lon="9.398394027784022"><ele>2.0</ele><time>2026-05-01T08:28:07Z</time></trkpt><trkpt lat="41.21067588490371" lon="9.398364883209236"><ele>2.0</ele><time>2026-05-01T08:28:08Z</time></trkpt><trkpt lat="41.21074988692348" lon="9.398331118832445"><ele>2.0</ele><time>2026-05-01T08:28:09Z</time></trkpt><trkpt lat="41.2108112404598" lon="9.398284848040177"><ele>1.9999999999999998</ele><time>2026-05-01T08:28:10Z</time></trkpt><trkpt lat="41.210902750280944" lon="9.398203509529349"><ele>2.0</ele><time>2026-05-01T08:28:12Z</time></trkpt><trkpt lat="41.21099237490475" lon="9.398221613642306"><ele>3.4000000000000004</ele><time>2026-05-01T08:28:14Z</time></trkpt><trkpt lat="41.21106683929171" lon="9.398205669262785"><ele>4.800000000000001</ele><time>2026-05-01T08:28:15Z</time></trkpt><trkpt lat="41.21114844842993" lon="9.3982098090545"><ele>6.2</ele><time>2026-05-01T08:28:16Z</time></trkpt><trkpt lat="41.21124723924896" lon="9.398213910683218"><ele>7.6000000000000005</ele><time>2026-05-01T08:28:17Z</time></trkpt><trkpt lat="41.21135315810079" lon="9.398221726773038"><ele>9.0</ele><time>2026-05-01T08:28:18Z</time></trkpt><trkpt lat="41.21145217827393" lon="9.398233252524218"><ele>10.0</ele><time>2026-05-01T08:28:19Z</time></trkpt><trkpt lat="41.21154498163998" lon="9.39824000909954"><ele>11.0</ele><time>2026-05-01T08:28:20Z</time></trkpt><trkpt lat="41.21163588465527" lon="9.39824322224512"><ele>11.999999999999998</ele><time>2026-05-01T08:28:21Z</time></trkpt><trkpt lat="41.211729008135045" lon="9.398244145399499"><ele>13.0</ele><time>2026-05-01T08:28:22Z</time></trkpt><trkpt lat="41.21181731035325" lon="9.39826259733559"><ele>14.0</ele><time>2026-05-01T08:28:23Z</time></trkpt><trkpt lat="41.211900949784635" lon="9.398306447163392"><ele>14.0</ele><time>2026-05-01T08:28:24Z</time></trkpt><trkpt lat="41.21197735966781" lon="9.398392127359417"><ele>13.999999999999998</ele><time>2026-05-01T08:28:25Z</time></trkpt><trkpt lat="41.212062619155134" lon="9.39847383232646"><ele>13.999999999999998</ele><time>2026-05-01T08:28:26Z</time></trkpt><trkpt lat="41.212152009190774" lon="9.398552058170647"><ele>14.0</ele><time>2026-05-01T08:28:27Z</time></trkpt><trkpt lat="41.21223776062702" lon="9.398591892543049"><ele>14.0</ele><time>2026-05-01T08:28:28Z</time></trkpt><trkpt lat="41.212312105673064" lon="9.398628761385877"><ele>15.000000000000002</ele><time>2026-05-01T08:28:29Z</time></trkpt><trkpt lat="41.21238488294015" lon="9.398625922952233"><ele>16.0</ele><time>2026-05-01T08:28:30Z</time></trkpt><trkpt lat="41.21245465583819" lon="9.398593785420534"><ele>17.0</ele><time>2026-05-01T08:28:31Z</time></trkpt><trkpt lat="41.21251503682396" lon="9.398534795694777"><ele>18.0</ele><time>2026-05-01T08:28:32Z</time></trkpt><trkpt lat="41.21255919228249" lon="9.39845577667395"><ele>19.0</ele><time>2026-05-01T08:28:33Z</time></trkpt><trkpt lat="41.212581804491215" lon="9.398356111855394"><ele>20.0</ele><time>2026-05-01T08:28:34Z</time></trkpt><trkpt lat="41.212582886480234" lon="9.398242944352141"><ele>20.0</ele><time>2026-05-01T08:28:35Z</time></trkpt><trkpt lat="41.21256187751775" lon="9.39811536194952"><ele>20.0</ele><time>2026-05-01T08:28:36Z</time></trkpt><trkpt lat="41.21252566461412" lon="9.397982613194008"><ele>20.0</ele><time>2026-05-01T08:28:37Z</time></trkpt><trkpt lat="41.21248407343872" lon="9.39785071305598"><ele>20.0</ele><time>2026-05-01T08:28:38Z</time></trkpt><trkpt lat="41.212453163701355" lon="9.397724948113124"><ele>20.0</ele><time>2026-05-01T08:28:39Z</time></trkpt><trkpt lat="41.21244138154276" lon="9.39760296102377"><ele>21.0</ele><time>2026-05-01T08:28:40Z</time></trkpt><trkpt lat="41.21245500127307" lon="9.397474973323144"><ele>22.0</ele><time>2026-05-01T08:28:41Z</time></trkpt><trkpt lat="41.212491559144304" lon="9.397362021070245"><ele>23.0</ele><time>2026-05-01T08:28:42Z</time></trkpt><trkpt lat="41.21255269954044" lon="9.397253233878446"><ele>24.0</ele><time>2026-05-01T08:28:43Z</time></trkpt><trkpt lat="41.212624192493976" lon="9.397138105631317"><ele>25.0</ele><time>2026-05-01T08:28:44Z</time></trkpt><trkpt lat="41.212677333095385" lon="9.39704435211305"><ele>25.833333333333336</ele><time>2026-05-01T08:28:45Z</time></trkpt><trkpt lat="41.21271485201114" lon="9.396974494932216"><ele>26.666666666666668</ele><time>2026-05-01T08:28:46Z</time></trkpt><trkpt lat="41.212759132013694" lon="9.396863961467156"><ele>27.5</ele><time>2026-05-01T08:28:48Z</time></trkpt><trkpt lat="41.21277144515317" lon="9.396776448032574"><ele>28.333333333333336</ele><time>2026-05-01T08:28:51Z</time></trkpt><trkpt lat="41.21275238605775" lon="9.39668991676146"><ele>29.166666666666668</ele><time>2026-05-01T08:29:30Z</time></trkpt><trkpt lat="41.21267948098659" lon="9.396561561101846"><ele>30.0</ele><time>2026-05-01T08:29:32Z</time></trkpt><trkpt lat="41.2126354797784" lon="9.396497971741047"><ele>30.0</ele><time>2026-05-01T08:29:33Z</time></trkpt><trkpt lat="41.21257051132134" lon="9.396430393695413"><ele>30.0</ele><time>2026-05-01T08:29:34Z</time></trkpt><trkpt lat="41.21248801114183" lon="9.396357080931573"><ele>30.0</ele><time>2026-05-01T08:29:35Z</time></trkpt><trkpt lat="41.21240533779764" lon="9.396294563677024"><ele>30.0</ele><time>2026-05-01T08:29:36Z</time></trkpt><trkpt lat="41.21232680792955" lon="9.396229345299428"><ele>30.0</ele><time>2026-05-01T08:29:37Z</time></trkpt><trkpt lat="41.212258830188745" lon="9.396167372054295"><ele>29.42857142857143</ele><time>2026-05-01T08:29:38Z</time></trkpt><trkpt lat="41.21221140350624" lon="9.396089548258798"><ele>28.857142857142854</ele><time>2026-05-01T08:29:39Z</time></trkpt><trkpt lat="41.21217775293468" lon="9.395999869645658"><ele>28.285714285714285</ele><time>2026-05-01T08:29:40Z</time></trkpt><trkpt lat="41.212167649382344" lon="9.395899014583552"><ele>27.714285714285715</ele><time>2026-05-01T08:29:41Z</time></trkpt><trkpt lat="41.212184717834994" lon="9.395810766660153"><ele>27.142857142857146</ele><time>2026-05-01T08:29:42Z</time></trkpt><trkpt lat="41.21222812545973" lon="9.395730119502277"><ele>26.57142857142857</ele><time>2026-05-01T08:29:43Z</time></trkpt><trkpt lat="41.21228848980835" lon="9.395668385239517"><ele>26.0</ele><time>2026-05-01T08:29:44Z</time></trkpt><trkpt lat="41.21235654070873" lon="9.395636895071924"><ele>28.166666666666664</ele><time>2026-05-01T08:29:45Z</time></trkpt><trkpt lat="41.212431503026735" lon="9.395640293652889"><ele>30.333333333333332</ele><time>2026-05-01T08:29:46Z</time></trkpt><trkpt lat="41.21250310333547" lon="9.3956740376555"><ele>32.5</ele><time>2026-05-01T08:29:47Z</time></trkpt><trkpt lat="41.212568408190656" lon="9.395723806391988"><ele>34.666666666666664</ele><time>2026-05-01T08:29:48Z</time></trkpt><trkpt lat="41.2126387913681" lon="9.395781098328277"><ele>36.833333333333336</ele><time>2026-05-01T08:29:49Z</time></trkpt><trkpt lat="41.212719808665504" lon="9.395848794610162"><ele>39.0</ele><time>2026-05-01T08:29:50Z</time></trkpt><trkpt lat="41.2128126009377" lon="9.39591939957655"><ele>39.0</ele><time>2026-05-01T08:29:51Z</time></trkpt><trkpt lat="41.21290938971456" lon="9.396007119773952"><ele>39.0</ele><time>2026-05-01T08:29:52Z</time></trkpt><trkpt lat="41.213000948682065" lon="9.396125161982125"><ele>39.0</ele><time>2026-05-01T08:29:53Z</time></trkpt><trkpt lat="41.213092214608075" lon="9.396279991434097"><ele>39.0</ele><time>2026-05-01T08:29:54Z</time></trkpt><trkpt lat="41.213177145647514" lon="9.396460045268672"><ele>42.33333333333333</ele><time>2026-05-01T08:29:55Z</time></trkpt><trkpt lat="41.21327251533506" lon="9.396650729458418"><ele>45.666666666666664</ele><time>2026-05-01T08:29:56Z</time></trkpt><trkpt lat="41.21337495970634" lon="9.396841180942783"><ele>49.0</ele><time>2026-05-01T08:29:57Z</time></trkpt><trkpt lat="41.21347474548917" lon="9.39704249667432"><ele>48.0</ele><time>2026-05-01T08:29:58Z</time></trkpt><trkpt lat="41.21355327484568" lon="9.397234426348064"><ele>47.0</ele><time>2026-05-01T08:29:59Z</time></trkpt><trkpt lat="41.2136184185655" lon="9.39739891284673"><ele>46.0</ele><time>2026-05-01T08:30:00Z</time></trkpt><trkpt lat="41.213673535916634" lon="9.39756291383983"><ele>45.0</ele><time>2026-05-01T08:30:01Z</time></trkpt><trkpt lat="41.21375178066313" lon="9.397687882673043"><ele>45.0</ele><time>2026-05-01T08:30:02Z</time></trkpt><trkpt lat="41.21383955561116" lon="9.397805384183231"><ele>45.0</ele><time>2026-05-01T08:30:03Z</time></trkpt><trkpt lat="41.21394699472931" lon="9.397901969512802"><ele>45.0</ele><time>2026-05-01T08:30:04Z</time></trkpt><trkpt lat="41.214029087727376" lon="9.398003706582653"><ele>45.0</ele><time>2026-05-01T08:30:05Z</time></trkpt><trkpt lat="41.21412928754307" lon="9.398058705465878"><ele>47.6</ele><time>2026-05-01T08:30:06Z</time></trkpt><trkpt lat="41.214226675732206" lon="9.398090482789554"><ele>50.2</ele><time>2026-05-01T08:30:07Z</time></trkpt><trkpt lat="41.21432173252901" lon="9.398082697039058"><ele>52.8</ele><time>2026-05-01T08:30:08Z</time></trkpt><trkpt lat="41.21442032465282" lon="9.398045664913981"><ele>55.4</ele><time>2026-05-01T08:30:09Z</time></trkpt><trkpt lat="41.2145276042524" lon="9.398053626238623"><ele>58.0</ele><time>2026-05-01T08:30:10Z</time></trkpt><trkpt lat="41.214620327929474" lon="9.39805939978908"><ele>58.0</ele><time>2026-05-01T08:30:11Z</time></trkpt><trkpt lat="41.21470519409332" lon="9.398085249604408"><ele>58.0</ele><time>2026-05-01T08:30:12Z</time></trkpt><trkpt lat="41.21478043864842" lon="9.398134252288115"><ele>58.0</ele><time>2026-05-01T08:30:13Z</time></trkpt><trkpt lat="41.21487016464649" lon="9.398170081080085"><ele>58.0</ele><time>2026-05-01T08:30:14Z</time></trkpt><trkpt lat="41.21494303684333" lon="9.3982528627954"><ele>58.0</ele><time>2026-05-01T08:30:15Z</time></trkpt><trkpt lat="41.215026112576844" lon="9.398320915546455"><ele>61.25</ele><time>2026-05-01T08:30:16Z</time></trkpt><trkpt lat="41.21507975175426" lon="9.398434316664652"><ele>64.5</ele><time>2026-05-01T08:30:17Z</time></trkpt><trkpt lat="41.21510630839836" lon="9.398571744974209"><ele>67.75</ele><time>2026-05-01T08:30:18Z</time></trkpt><trkpt lat="41.21511441636149" lon="9.398742113633437"><ele>71.0</ele><time>2026-05-01T08:30:19Z</time></trkpt><trkpt lat="41.21508439389913" lon="9.398922582519027"><ele>71.0</ele><time>2026-05-01T08:30:20Z</time></trkpt><trkpt lat="41.2150975934728" lon="9.3990935049021"><ele>71.0</ele><time>2026-05-01T08:30:21Z</time></trkpt><trkpt lat="41.21511575588077" lon="9.39925352802234"><ele>71.0</ele><time>2026-05-01T08:30:22Z</time></trkpt><trkpt lat="41.21514019555441" lon="9.399410613150977"><ele>71.0</ele><time>2026-05-01T08:30:23Z</time></trkpt><trkpt lat="41.2151985071099" lon="9.399551177886627"><ele>71.0</ele><time>2026-05-01T08:30:24Z</time></trkpt><trkpt lat="41.21528972941548" lon="9.399665945613208"><ele>71.0</ele><time>2026-05-01T08:30:25Z</time></trkpt><trkpt lat="41.21538233353036" lon="9.399785610813481"><ele>71.0</ele><time>2026-05-01T08:30:26Z</time></trkpt><trkpt lat="41.215472252189485" lon="9.39990840131885"><ele>71.0</ele><time>2026-05-01T08:30:27Z</time></trkpt><trkpt lat="41.21558793881122" lon="9.399991613522014"><ele>74.66666666666667</ele><time>2026-05-01T08:30:28Z</time></trkpt><trkpt lat="41.21572608730764" lon="9.400050199839791"><ele>78.33333333333333</ele><time>2026-05-01T08:30:29Z</time></trkpt><trkpt lat="41.21588306567389" lon="9.400060575945448"><ele>82.0</ele><time>2026-05-01T08:30:30.001Z</time></trkpt><trkpt lat="41.21604305852135" lon="9.400090068515262"><ele>82.0</ele><time>2026-05-01T08:30:31.001Z</time></trkpt><trkpt lat="41.21619413373454" lon="9.40011694933383"><ele>82.0</ele><time>2026-05-01T08:30:32.001Z</time></trkpt><trkpt lat="41.21632434407596" lon="9.400145527361435"><ele>82.0</ele><time>2026-05-01T08:30:33.001Z</time></trkpt><trkpt lat="41.216455287543695" lon="9.400172748169394"><ele>82.0</ele><time>2026-05-01T08:30:34.001Z</time></trkpt><trkpt lat="41.216582247498515" lon="9.400191746590991"><ele>83.25</ele><time>2026-05-01T08:30:35.001Z</time></trkpt><trkpt lat="41.21669998248364" lon="9.400200456519286"><ele>84.5</ele><time>2026-05-01T08:30:36.001Z</time></trkpt><trkpt lat="41.21681736208625" lon="9.400187096845533"><ele>85.75</ele><time>2026-05-01T08:30:37.001Z</time></trkpt><trkpt lat="41.21692900338874" lon="9.400144660918473"><ele>87.0</ele><time>2026-05-01T08:30:38.001Z</time></trkpt><trkpt lat="41.21703684220304" lon="9.400073611844585"><ele>87.0</ele><time>2026-05-01T08:30:39.001Z</time></trkpt><trkpt lat="41.21714712293601" lon="9.399979254789972"><ele>87.0</ele><time>2026-05-01T08:30:40.001Z</time></trkpt><trkpt lat="41.217268561535995" lon="9.399867982366382"><ele>87.0</ele><time>2026-05-01T08:30:41.001Z</time></trkpt><trkpt lat="41.217386728181026" lon="9.399755160379687"><ele>87.0</ele><time>2026-05-01T08:30:42.001Z</time></trkpt><trkpt lat="41.21749589515846" lon="9.399652302574044"><ele>87.75</ele><time>2026-05-01T08:30:43.001Z</time></trkpt><trkpt lat="41.21760775540531" lon="9.399548669449914"><ele>88.5</ele><time>2026-05-01T08:30:44.001Z</time></trkpt><trkpt lat="41.217713593266545" lon="9.399446283257262"><ele>89.25</ele><time>2026-05-01T08:30:45.001Z</time></trkpt><trkpt lat="41.21782039041143" lon="9.399347780503287"><ele>90.0</ele><time>2026-05-01T08:30:46.001Z</time></trkpt><trkpt lat="41.21792946581978" lon="9.399256865194525"><ele>90.0</ele><time>2026-05-01T08:30:47.001Z</time></trkpt><trkpt lat="41.218046799864254" lon="9.399178538929851"><ele>90.0</ele><time>2026-05-01T08:30:48.001Z</time></trkpt><trkpt lat="41.218160482891314" lon="9.399120164888009"><ele>90.0</ele><time>2026-05-01T08:30:49.001Z</time></trkpt><trkpt lat="41.21827282981569" lon="9.399081455116532"><ele>90.0</ele><time>2026-05-01T08:30:50.001Z</time></trkpt><trkpt lat="41.21838344155536" lon="9.399050128797448"><ele>90.0</ele><time>2026-05-01T08:30:51.001Z</time></trkpt><trkpt lat="41.218489008261855" lon="9.39901660347211"><ele>90.0</ele><time>2026-05-01T08:30:52.001Z</time></trkpt><trkpt lat="41.218587922054475" lon="9.398987677559171"><ele>90.0</ele><time>2026-05-01T08:30:53.001Z</time></trkpt><trkpt lat="41.21867816148579" lon="9.398957882336457"><ele>90.0</ele><time>2026-05-01T08:30:54.001Z</time></trkpt><trkpt lat="41.218761697223954" lon="9.398939386405821"><ele>90.0</ele><time>2026-05-01T08:30:55.001Z</time></trkpt><trkpt lat="41.21883838972608" lon="9.39895633086171"><ele>90.0</ele><time>2026-05-01T08:30:56.001Z</time></trkpt><trkpt lat="41.21890775531842" lon="9.399010282655242"><ele>90.0</ele><time>2026-05-01T08:30:57.001Z</time></trkpt><trkpt lat="41.2189670193303" lon="9.399105921329435"><ele>90.0</ele><time>2026-05-01T08:30:58.001Z</time></trkpt><trkpt lat="41.21900620341633" lon="9.399220216724947"><ele>90.0</ele><time>2026-05-01T08:30:59.001Z</time></trkpt><trkpt lat="41.21903741036343" lon="9.399331345070673"><ele>90.0</ele><time>2026-05-01T08:31:00.001Z</time></trkpt><trkpt lat="41.21906149656723" lon="9.399430062252208"><ele>90.0</ele><time>2026-05-01T08:31:01.001Z</time></trkpt><trkpt lat="41.21908475297154" lon="9.399523217179942"><ele>90.83333333333333</ele><time>2026-05-01T08:31:02.001Z</time></trkpt><trkpt lat="41.21909090930061" lon="9.39962063923034"><ele>91.66666666666667</ele><time>2026-05-01T08:31:03.001Z</time></trkpt><trkpt lat="41.21910891800994" lon="9.399707857784282"><ele>92.5</ele><time>2026-05-01T08:31:04.001Z</time></trkpt><trkpt lat="41.21914173729491" lon="9.399792161998834"><ele>93.33333333333334</ele><time>2026-05-01T08:31:05.001Z</time></trkpt><trkpt lat="41.219147170603385" lon="9.399879174434002"><ele>94.16666666666667</ele><time>2026-05-01T08:31:06.001Z</time></trkpt><trkpt lat="41.21912808662889" lon="9.400021692347552"><ele>95.0</ele><time>2026-05-01T08:31:08.001Z</time></trkpt><trkpt lat="41.219080937587954" lon="9.400143385143256"><ele>95.0</ele><time>2026-05-01T08:31:10Z</time></trkpt><trkpt lat="41.21904090569667" lon="9.400279510984467"><ele>95.0</ele><time>2026-05-01T08:31:12Z</time></trkpt><trkpt lat="41.21914899803854" lon="9.400451845645243"><ele>95.0</ele><time>2026-05-01T08:31:14Z</time></trkpt><trkpt lat="41.21920831414672" lon="9.400519280496352"><ele>95.0</ele><time>2026-05-01T08:31:15Z</time></trkpt><trkpt lat="41.219283836912815" lon="9.400571845206336"><ele>95.0</ele><time>2026-05-01T08:31:16Z</time></trkpt><trkpt lat="41.21936856124267" lon="9.400616615320944"><ele>97.0</ele><time>2026-05-01T08:31:17Z</time></trkpt><trkpt lat="41.219462990077226" lon="9.400646326451566"><ele>99.0</ele><time>2026-05-01T08:31:18Z</time></trkpt><trkpt lat="41.21957176510205" lon="9.400675300156"><ele>101.0</ele><time>2026-05-01T08:31:19Z</time></trkpt><trkpt lat="41.219691609675245" lon="9.400713875441173"><ele>103.0</ele><time>2026-05-01T08:31:20Z</time></trkpt><trkpt lat="41.219819219158005" lon="9.400769829882064"><ele>103.0</ele><time>2026-05-01T08:31:21Z</time></trkpt><trkpt lat="41.219948756290066" lon="9.400837805749395"><ele>103.0</ele><time>2026-05-01T08:31:22Z</time></trkpt><trkpt lat="41.22007368038351" lon="9.400902069438537"><ele>103.0</ele><time>2026-05-01T08:31:23Z</time></trkpt><trkpt lat="41.22018826423191" lon="9.400961117596298"><ele>103.0</ele><time>2026-05-01T08:31:24Z</time></trkpt><trkpt lat="41.220294884653505" lon="9.401001792838079"><ele>103.0</ele><time>2026-05-01T08:31:25Z</time></trkpt><trkpt lat="41.22039953298485" lon="9.401021995127628"><ele>103.0</ele><time>2026-05-01T08:31:26Z</time></trkpt><trkpt lat="41.22050779418404" lon="9.401012271412096"><ele>103.0</ele><time>2026-05-01T08:31:27Z</time></trkpt><trkpt lat="41.220618078620866" lon="9.40096622805141"><ele>103.0</ele><time>2026-05-01T08:31:28Z</time></trkpt><trkpt lat="41.22073502342705" lon="9.400893420554894"><ele>105.25</ele><time>2026-05-01T08:31:29Z</time></trkpt><trkpt lat="41.2208451841596" lon="9.400833775866225"><ele>107.5</ele><time>2026-05-01T08:31:30Z</time></trkpt><trkpt lat="41.22096714111638" lon="9.400812866654633"><ele>109.75</ele><time>2026-05-01T08:31:31Z</time></trkpt><trkpt lat="41.22109641940929" lon="9.400842620057706"><ele>112.0</ele><time>2026-05-01T08:31:32Z</time></trkpt><trkpt lat="41.22121925163408" lon="9.400911392445895"><ele>112.0</ele><time>2026-05-01T08:31:33Z</time></trkpt><trkpt lat="41.22134923345011" lon="9.40096335760673"><ele>112.0</ele><time>2026-05-01T08:31:34Z</time></trkpt><trkpt lat="41.22147153221845" lon="9.400975533187331"><ele>112.0</ele><time>2026-05-01T08:31:35Z</time></trkpt><trkpt lat="41.221588930489226" lon="9.400946163392812"><ele>112.0</ele><time>2026-05-01T08:31:36Z</time></trkpt><trkpt lat="41.22168413582593" lon="9.400883962513221"><ele>112.83333333333334</ele><time>2026-05-01T08:31:37Z</time></trkpt><trkpt lat="41.221754708617446" lon="9.400805275331368"><ele>113.66666666666667</ele><time>2026-05-01T08:31:38Z</time></trkpt><trkpt lat="41.221805039485034" lon="9.400735521560987"><ele>114.5</ele><time>2026-05-01T08:31:39Z</time></trkpt><trkpt lat="41.22184893346643" lon="9.400633508049266"><ele>115.33333333333334</ele><time>2026-05-01T08:31:41Z</time></trkpt><trkpt lat="41.221786877762284" lon="9.400555472300164"><ele>116.16666666666667</ele><time>2026-05-01T08:31:44Z</time></trkpt><trkpt lat="41.22169134257628" lon="9.400534313966416"><ele>117.0</ele><time>2026-05-01T08:31:46Z</time></trkpt><trkpt lat="41.22157567874294" lon="9.400544388023054"><ele>117.0</ele><time>2026-05-01T08:31:48Z</time></trkpt><trkpt lat="41.22150334786773" lon="9.400530116040084"><ele>117.0</ele><time>2026-05-01T08:31:49Z</time></trkpt><trkpt lat="41.221414297419074" lon="9.400506032142758"><ele>117.0</ele><time>2026-05-01T08:31:50Z</time></trkpt><trkpt lat="41.221321528284086" lon="9.400476353844482"><ele>117.0</ele><time>2026-05-01T08:31:51Z</time></trkpt><trkpt lat="41.22123295487935" lon="9.40045589465061"><ele>117.0</ele><time>2026-05-01T08:31:52Z</time></trkpt><trkpt lat="41.22114854593772" lon="9.400437776347838"><ele>117.0</ele><time>2026-05-01T08:31:53Z</time></trkpt><trkpt lat="41.22105782759967" lon="9.400418342623913"><ele>116.16666666666667</ele><time>2026-05-01T08:31:54Z</time></trkpt><trkpt lat="41.22096896917542" lon="9.40039708293749"><ele>115.33333333333334</ele><time>2026-05-01T08:31:55Z</time></trkpt><trkpt lat="41.220884223949845" lon="9.400366162340353"><ele>114.5</ele><time>2026-05-01T08:31:56Z</time></trkpt><trkpt lat="41.2208071444097" lon="9.400324413730248"><ele>113.66666666666667</ele><time>2026-05-01T08:31:57Z</time></trkpt><trkpt lat="41.2207368433835" lon="9.400266677458667"><ele>112.83333333333334</ele><time>2026-05-01T08:31:58Z</time></trkpt><trkpt lat="41.22067273193712" lon="9.400198366582838"><ele>112.0</ele><time>2026-05-01T08:31:59Z</time></trkpt><trkpt lat="41.220611709121194" lon="9.400119350475084"><ele>112.00000000000001</ele><time>2026-05-01T08:32:00Z</time></trkpt><trkpt lat="41.220550298300324" lon="9.400034447454994"><ele>112.0</ele><time>2026-05-01T08:32:01Z</time></trkpt><trkpt lat="41.22049457856794" lon="9.399944267129424"><ele>112.0</ele><time>2026-05-01T08:32:02Z</time></trkpt><trkpt lat="41.22044331846769" lon="9.399842503839608"><ele>112.0</ele><time>2026-05-01T08:32:03Z</time></trkpt><trkpt lat="41.22041447594207" lon="9.399730049159412"><ele>112.00000000000001</ele><time>2026-05-01T08:32:04Z</time></trkpt><trkpt lat="41.220394022756324" lon="9.399615038694483"><ele>112.0</ele><time>2026-05-01T08:32:05Z</time></trkpt><trkpt lat="41.22038279376771" lon="9.399497446207462"><ele>112.8</ele><time>2026-05-01T08:32:06Z</time></trkpt><trkpt lat="41.22037626352183" lon="9.399374693855997"><ele>113.6</ele><time>2026-05-01T08:32:07Z</time></trkpt><trkpt lat="41.220378347823505" lon="9.39924080892818"><ele>114.39999999999999</ele><time>2026-05-01T08:32:08Z</time></trkpt><trkpt lat="41.22040128553211" lon="9.399109244192044"><ele>115.19999999999999</ele><time>2026-05-01T08:32:09Z</time></trkpt><trkpt lat="41.22043657192928" lon="9.3989787266401"><ele>116.0</ele><time>2026-05-01T08:32:10Z</time></trkpt><trkpt lat="41.22048226519166" lon="9.398843835977242"><ele>115.75</ele><time>2026-05-01T08:32:11Z</time></trkpt><trkpt lat="41.22054735864639" lon="9.398697454253332"><ele>115.5</ele><time>2026-05-01T08:32:12Z</time></trkpt><trkpt lat="41.22062127060983" lon="9.398549176943575"><ele>115.25</ele><time>2026-05-01T08:32:13Z</time></trkpt><trkpt lat="41.22070130931205" lon="9.398407285977402"><ele>115.0</ele><time>2026-05-01T08:32:14Z</time></trkpt><trkpt lat="41.22079746447782" lon="9.398272968333632"><ele>116.25</ele><time>2026-05-01T08:32:15Z</time></trkpt><trkpt lat="41.220906233367145" lon="9.398176876428794"><ele>117.5</ele><time>2026-05-01T08:32:16Z</time></trkpt><trkpt lat="41.221014443605874" lon="9.398084033303933"><ele>118.75</ele><time>2026-05-01T08:32:17Z</time></trkpt><trkpt lat="41.221128261758885" lon="9.397999793800563"><ele>120.0</ele><time>2026-05-01T08:32:18Z</time></trkpt><trkpt lat="41.22124379663644" lon="9.397947200696077"><ele>120.0</ele><time>2026-05-01T08:32:19Z</time></trkpt><trkpt lat="41.22137493855132" lon="9.39792131777347"><ele>120.0</ele><time>2026-05-01T08:32:20Z</time></trkpt><trkpt lat="41.22152549970451" lon="9.397914350058802"><ele>120.0</ele><time>2026-05-01T08:32:21.001Z</time></trkpt><trkpt lat="41.22169099097117" lon="9.39791796165905"><ele>120.0</ele><time>2026-05-01T08:32:22.001Z</time></trkpt><trkpt lat="41.22186507792928" lon="9.397918348153434"><ele>120.5</ele><time>2026-05-01T08:32:23.001Z</time></trkpt><trkpt lat="41.2220236526327" lon="9.397916468403729"><ele>121.0</ele><time>2026-05-01T08:32:24.001Z</time></trkpt><trkpt lat="41.22217142274542" lon="9.397911805622098"><ele>121.5</ele><time>2026-05-01T08:32:25.001Z</time></trkpt><trkpt lat="41.22230493243339" lon="9.397907491902165"><ele>122.0</ele><time>2026-05-01T08:32:26.001Z</time></trkpt><trkpt lat="41.22241453675467" lon="9.397890670572778"><ele>122.8</ele><time>2026-05-01T08:32:27.001Z</time></trkpt><trkpt lat="41.2225100555254" lon="9.397841707147215"><ele>123.6</ele><time>2026-05-01T08:32:28.001Z</time></trkpt><trkpt lat="41.222598071366164" lon="9.397756338510161"><ele>124.39999999999999</ele><time>2026-05-01T08:32:29.001Z</time></trkpt><trkpt lat="41.222664920771535" lon="9.397647503496563"><ele>125.19999999999999</ele><time>2026-05-01T08:32:30.001Z</time></trkpt><trkpt lat="41.222712508462436" lon="9.397514413680796"><ele>126.0</ele><time>2026-05-01T08:32:31.001Z</time></trkpt><trkpt lat="41.22273864155773" lon="9.397364904968263"><ele>126.0</ele><time>2026-05-01T08:32:32.001Z</time></trkpt><trkpt lat="41.22275033142238" lon="9.397196603298692"><ele>126.0</ele><time>2026-05-01T08:32:33.001Z</time></trkpt><trkpt lat="41.222751139204036" lon="9.397011804730342"><ele>126.0</ele><time>2026-05-01T08:32:34.001Z</time></trkpt><trkpt lat="41.22274621372709" lon="9.396822210348798"><ele>126.0</ele><time>2026-05-01T08:32:35.001Z</time></trkpt><trkpt lat="41.22272500232788" lon="9.396630389479355"><ele>126.0</ele><time>2026-05-01T08:32:36.001Z</time></trkpt><trkpt lat="41.22268756188108" lon="9.396448039875475"><ele>126.0</ele><time>2026-05-01T08:32:37.001Z</time></trkpt><trkpt lat="41.222641732823575" lon="9.396279136094744"><ele>126.0</ele><time>2026-05-01T08:32:38.001Z</time></trkpt><trkpt lat="41.22258856977335" lon="9.396118502242041"><ele>126.0</ele><time>2026-05-01T08:32:39.001Z</time></trkpt><trkpt lat="41.2225360688135" lon="9.395965191291891"><ele>127.75</ele><time>2026-05-01T08:32:40.001Z</time></trkpt><trkpt lat="41.22249074079015" lon="9.395820372597539"><ele>129.5</ele><time>2026-05-01T08:32:41.001Z</time></trkpt><trkpt lat="41.222462126572275" lon="9.395669720120143"><ele>131.25</ele><time>2026-05-01T08:32:42.001Z</time></trkpt><trkpt lat="41.22246038011275" lon="9.395507392653956"><ele>133.0</ele><time>2026-05-01T08:32:43.001Z</time></trkpt><trkpt lat="41.222483070337084" lon="9.39534516839449"><ele>133.25</ele><time>2026-05-01T08:32:44.001Z</time></trkpt><trkpt lat="41.22252255336404" lon="9.395194087318103"><ele>133.5</ele><time>2026-05-01T08:32:45.001Z</time></trkpt><trkpt lat="41.22258951804335" lon="9.395057905879193"><ele>133.75</ele><time>2026-05-01T08:32:46.001Z</time></trkpt><trkpt lat="41.22267667557514" lon="9.394938133935039"><ele>134.0</ele><time>2026-05-01T08:32:47.001Z</time></trkpt><trkpt lat="41.222772779209336" lon="9.394835436677335"><ele>134.0</ele><time>2026-05-01T08:32:48.001Z</time></trkpt><trkpt lat="41.22287556093613" lon="9.394747799370542"><ele>134.0</ele><time>2026-05-01T08:32:49.001Z</time></trkpt><trkpt lat="41.222988520771324" lon="9.394683803305337"><ele>134.0</ele><time>2026-05-01T08:32:50.001Z</time></trkpt><trkpt lat="41.22311229091304" lon="9.394632181432636"><ele>134.0</ele><time>2026-05-01T08:32:51.001Z</time></trkpt><trkpt lat="41.2232469129119" lon="9.394572189355792"><ele>134.5</ele><time>2026-05-01T08:32:52.001Z</time></trkpt><trkpt lat="41.22337679849851" lon="9.394509599333624"><ele>135.0</ele><time>2026-05-01T08:32:53.001Z</time></trkpt><trkpt lat="41.223514875042774" lon="9.394440907042782"><ele>135.5</ele><time>2026-05-01T08:32:54.001Z</time></trkpt><trkpt lat="41.22365139816105" lon="9.394375633917372"><ele>136.0</ele><time>2026-05-01T08:32:55.001Z</time></trkpt><trkpt lat="41.223778889087555" lon="9.394318496834067"><ele>136.0</ele><time>2026-05-01T08:32:56.001Z</time></trkpt><trkpt lat="41.2238994106594" lon="9.394264062367752"><ele>136.0</ele><time>2026-05-01T08:32:57.001Z</time></trkpt><trkpt lat="41.22400785192175" lon="9.394206486175955"><ele>136.0</ele><time>2026-05-01T08:32:58.001Z</time></trkpt><trkpt lat="41.224096382733144" lon="9.394141789345516"><ele>136.0</ele><time>2026-05-01T08:32:59.001Z</time></trkpt><trkpt lat="41.22416819268156" lon="9.394054745356176"><ele>136.0</ele><time>2026-05-01T08:33:00.001Z</time></trkpt><trkpt lat="41.22421892240755" lon="9.393946664258438"><ele>132.25</ele><time>2026-05-01T08:33:01.001Z</time></trkpt><trkpt lat="41.22424108488216" lon="9.393824259278459"><ele>128.5</ele><time>2026-05-01T08:33:02.001Z</time></trkpt><trkpt lat="41.22423117460708" lon="9.393688540892114"><ele>124.75</ele><time>2026-05-01T08:33:03.001Z</time></trkpt><trkpt lat="41.22419191398242" lon="9.39353251909508"><ele>121.0</ele><time>2026-05-01T08:33:04.001Z</time></trkpt><trkpt lat="41.22414112979723" lon="9.393356522826707"><ele>121.0</ele><time>2026-05-01T08:33:05.001Z</time></trkpt><trkpt lat="41.22410574487369" lon="9.393177074087902"><ele>121.0</ele><time>2026-05-01T08:33:06.001Z</time></trkpt><trkpt lat="41.224098019748645" lon="9.39299585258071"><ele>121.0</ele><time>2026-05-01T08:33:07.001Z</time></trkpt><trkpt lat="41.2241220137552" lon="9.392819392752811"><ele>121.0</ele><time>2026-05-01T08:33:08.001Z</time></trkpt><trkpt lat="41.22417563913751" lon="9.392663752275642"><ele>120.0</ele><time>2026-05-01T08:33:09.001Z</time></trkpt><trkpt lat="41.224241074554236" lon="9.392531243854402"><ele>119.0</ele><time>2026-05-01T08:33:10.001Z</time></trkpt><trkpt lat="41.22432601034442" lon="9.392405391135286"><ele>118.0</ele><time>2026-05-01T08:33:11.001Z</time></trkpt><trkpt lat="41.22443040586859" lon="9.392295254092442"><ele>117.0</ele><time>2026-05-01T08:33:12.001Z</time></trkpt><trkpt lat="41.22454530147404" lon="9.392190204389955"><ele>117.5</ele><time>2026-05-01T08:33:13.001Z</time></trkpt><trkpt lat="41.224656062414105" lon="9.392077016512243"><ele>118.0</ele><time>2026-05-01T08:33:14.001Z</time></trkpt><trkpt lat="41.224761468345676" lon="9.391946506727688"><ele>118.5</ele><time>2026-05-01T08:33:14.999Z</time></trkpt><trkpt lat="41.22486265345106" lon="9.391793863589205"><ele>119.0</ele><time>2026-05-01T08:33:15.999Z</time></trkpt><trkpt lat="41.22495600330888" lon="9.391642856043292"><ele>119.0</ele><time>2026-05-01T08:33:16.999Z</time></trkpt><trkpt lat="41.22506699816349" lon="9.391500759683296"><ele>119.0</ele><time>2026-05-01T08:33:17.999Z</time></trkpt><trkpt lat="41.225202148947105" lon="9.391367670192082"><ele>119.0</ele><time>2026-05-01T08:33:18.999Z</time></trkpt><trkpt lat="41.22534238425844" lon="9.391261437329321"><ele>119.25</ele><time>2026-05-01T08:33:19.999Z</time></trkpt><trkpt lat="41.22547944020221" lon="9.391181628043055"><ele>119.5</ele><time>2026-05-01T08:33:20.999Z</time></trkpt><trkpt lat="41.22561538296088" lon="9.391135506830995"><ele>119.75</ele><time>2026-05-01T08:33:21.999Z</time></trkpt><trkpt lat="41.225756838428936" lon="9.39111955348853"><ele>120.0</ele><time>2026-05-01T08:33:22.999Z</time></trkpt><trkpt lat="41.22589668333509" lon="9.391126447948434"><ele>120.0</ele><time>2026-05-01T08:33:23.999Z</time></trkpt><trkpt lat="41.22602972566758" lon="9.391144905820008"><ele>120.0</ele><time>2026-05-01T08:33:24.999Z</time></trkpt><trkpt lat="41.22614772303236" lon="9.391161704668159"><ele>120.0</ele><time>2026-05-01T08:33:25.999Z</time></trkpt><trkpt lat="41.226254797087115" lon="9.391177932865963"><ele>120.0</ele><time>2026-05-01T08:33:26.999Z</time></trkpt><trkpt lat="41.22634771848142" lon="9.391188333231876"><ele>120.0</ele><time>2026-05-01T08:33:27.999Z</time></trkpt><trkpt lat="41.22642129254504" lon="9.391194697166211"><ele>120.0</ele><time>2026-05-01T08:33:28.999Z</time></trkpt><trkpt lat="41.22652099300708" lon="9.391201574128527"><ele>120.0</ele><time>2026-05-01T08:33:30.999Z</time></trkpt><trkpt lat="41.22659390189715" lon="9.391208770981008"><ele>120.0</ele><time>2026-05-01T08:33:32.999Z</time></trkpt><trkpt lat="41.226666923307896" lon="9.39121669344446"><ele>120.0</ele><time>2026-05-01T08:33:35.999Z</time></trkpt><trkpt lat="41.22673924569492" lon="9.391213630655134"><ele>120.0</ele><time>2026-05-01T08:33:38.999Z</time></trkpt><trkpt lat="41.22680981315395" lon="9.391205041261273"><ele>118.83333333333333</ele><time>2026-05-01T08:33:44Z</time></trkpt><trkpt lat="41.226929734829426" lon="9.391153437106349"><ele>117.66666666666666</ele><time>2026-05-01T08:34:42.001Z</time></trkpt><trkpt lat="41.226988727936615" lon="9.39112300719124"><ele>116.5</ele><time>2026-05-01T08:34:43.001Z</time></trkpt><trkpt lat="41.2270481957699" lon="9.39106836703756"><ele>115.33333333333333</ele><time>2026-05-01T08:34:44.001Z</time></trkpt><trkpt lat="41.227113766698444" lon="9.390994193462797"><ele>114.16666666666666</ele><time>2026-05-01T08:34:45.001Z</time></trkpt><trkpt lat="41.22717787791221" lon="9.39090101078596"><ele>113.0</ele><time>2026-05-01T08:34:46.001Z</time></trkpt><trkpt lat="41.227248521401606" lon="9.390795664623898"><ele>112.5</ele><time>2026-05-01T08:34:47.001Z</time></trkpt><trkpt lat="41.227327178393914" lon="9.390677235845512"><ele>112.0</ele><time>2026-05-01T08:34:48.001Z</time></trkpt><trkpt lat="41.22741415612773" lon="9.39053968518288"><ele>111.5</ele><time>2026-05-01T08:34:49.001Z</time></trkpt><trkpt lat="41.2275002580502" lon="9.390411979999751"><ele>111.0</ele><time>2026-05-01T08:34:50.001Z</time></trkpt><trkpt lat="41.22759070239537" lon="9.390280412835287"><ele>111.0</ele><time>2026-05-01T08:34:51.001Z</time></trkpt><trkpt lat="41.22768334422116" lon="9.390146710905782"><ele>111.0</ele><time>2026-05-01T08:34:52.001Z</time></trkpt><trkpt lat="41.22776815490089" lon="9.390021377300235"><ele>111.0</ele><time>2026-05-01T08:34:53.001Z</time></trkpt><trkpt lat="41.22784498929047" lon="9.389902691557912"><ele>111.0</ele><time>2026-05-01T08:34:54.001Z</time></trkpt><trkpt lat="41.22790665834077" lon="9.389786287523805"><ele>112.8</ele><time>2026-05-01T08:34:55.001Z</time></trkpt><trkpt lat="41.22794851423691" lon="9.389665684374433"><ele>114.6</ele><time>2026-05-01T08:34:56.001Z</time></trkpt><trkpt lat="41.22797658567772" lon="9.389537203933365"><ele>116.4</ele><time>2026-05-01T08:34:57.001Z</time></trkpt><trkpt lat="41.227994382654686" lon="9.389405385893324"><ele>118.2</ele><time>2026-05-01T08:34:58.001Z</time></trkpt><trkpt lat="41.22800580915343" lon="9.389272568457322"><ele>120.0</ele><time>2026-05-01T08:34:59.001Z</time></trkpt><trkpt lat="41.22801339845171" lon="9.389145021716924"><ele>120.0</ele><time>2026-05-01T08:35:00.001Z</time></trkpt><trkpt lat="41.22802335783719" lon="9.389012496732404"><ele>120.0</ele><time>2026-05-01T08:35:01.001Z</time></trkpt><trkpt lat="41.22804766689167" lon="9.388886284100156"><ele>120.0</ele><time>2026-05-01T08:35:02.001Z</time></trkpt><trkpt lat="41.22809363203454" lon="9.388753176694571"><ele>120.0</ele><time>2026-05-01T08:35:03.001Z</time></trkpt><trkpt lat="41.22816723075712" lon="9.388628242616486"><ele>120.0</ele><time>2026-05-01T08:35:04.001Z</time></trkpt><trkpt lat="41.22826310450727" lon="9.388532420507289"><ele>119.0</ele><time>2026-05-01T08:35:05.001Z</time></trkpt><trkpt lat="41.228377787470365" lon="9.388455661962631"><ele>118.0</ele><time>2026-05-01T08:35:06.001Z</time></trkpt><trkpt lat="41.22850805505484" lon="9.388373032324067"><ele>117.0</ele><time>2026-05-01T08:35:07.001Z</time></trkpt><trkpt lat="41.22863863919492" lon="9.388266228997615"><ele>116.0</ele><time>2026-05-01T08:35:08.001Z</time></trkpt><trkpt lat="41.22875162908364" lon="9.388141197815855"><ele>116.0</ele><time>2026-05-01T08:35:09.001Z</time></trkpt><trkpt lat="41.22884207240617" lon="9.388018387392398"><ele>116.0</ele><time>2026-05-01T08:35:10.001Z</time></trkpt><trkpt lat="41.22892468558041" lon="9.3879102958412"><ele>116.0</ele><time>2026-05-01T08:35:11.001Z</time></trkpt><trkpt lat="41.229016261507276" lon="9.387820659207568"><ele>116.0</ele><time>2026-05-01T08:35:12.001Z</time></trkpt><trkpt lat="41.22911760034479" lon="9.387754388359907"><ele>115.0</ele><time>2026-05-01T08:35:13.001Z</time></trkpt><trkpt lat="41.22924542262493" lon="9.387711155707574"><ele>114.0</ele><time>2026-05-01T08:35:14.001Z</time></trkpt><trkpt lat="41.22937882918129" lon="9.387679095948481"><ele>113.0</ele><time>2026-05-01T08:35:15.001Z</time></trkpt><trkpt lat="41.229507097064776" lon="9.387642882271546"><ele>112.0</ele><time>2026-05-01T08:35:16.001Z</time></trkpt><trkpt lat="41.22963070301074" lon="9.387610094780145"><ele>112.0</ele><time>2026-05-01T08:35:17.001Z</time></trkpt><trkpt lat="41.22974584840591" lon="9.387577321313179"><ele>111.99999999999999</ele><time>2026-05-01T08:35:18.001Z</time></trkpt><trkpt lat="41.22984924337181" lon="9.387526214990082"><ele>111.99999999999999</ele><time>2026-05-01T08:35:19.001Z</time></trkpt><trkpt lat="41.22993493769957" lon="9.387461598876152"><ele>112.0</ele><time>2026-05-01T08:35:20.001Z</time></trkpt><trkpt lat="41.22999915825808" lon="9.387392753641992"><ele>112.0</ele><time>2026-05-01T08:35:21Z</time></trkpt><trkpt lat="41.23005571101767" lon="9.38731995581023"><ele>110.85714285714286</ele><time>2026-05-01T08:35:22Z</time></trkpt><trkpt lat="41.230104593452204" lon="9.38724828774532"><ele>109.71428571428572</ele><time>2026-05-01T08:35:23Z</time></trkpt><trkpt lat="41.230141497403466" lon="9.38716673906572"><ele>108.57142857142857</ele><time>2026-05-01T08:35:24Z</time></trkpt><trkpt lat="41.23017621029456" lon="9.387085784052227"><ele>107.42857142857143</ele><time>2026-05-01T08:35:25Z</time></trkpt><trkpt lat="41.23020363094535" lon="9.386998449434673"><ele>106.28571428571429</ele><time>2026-05-01T08:35:26Z</time></trkpt><trkpt lat="41.230222527940434" lon="9.386901980401248"><ele>105.14285714285714</ele><time>2026-05-01T08:35:27Z</time></trkpt><trkpt lat="41.230246844787" lon="9.386789080330079"><ele>104.0</ele><time>2026-05-01T08:35:28Z</time></trkpt><trkpt lat="41.23026291298274" lon="9.386669362059735"><ele>103.80000000000001</ele><time>2026-05-01T08:35:29Z</time></trkpt><trkpt lat="41.23026472377612" lon="9.38653543596902"><ele>103.60000000000001</ele><time>2026-05-01T08:35:30Z</time></trkpt><trkpt lat="41.23025784050741" lon="9.386395399547768"><ele>103.4</ele><time>2026-05-01T08:35:31Z</time></trkpt><trkpt lat="41.230243238604224" lon="9.386253943585887"><ele>103.2</ele><time>2026-05-01T08:35:32Z</time></trkpt><trkpt lat="41.23021778385068" lon="9.386108109355984"><ele>103.0</ele><time>2026-05-01T08:35:33Z</time></trkpt><trkpt lat="41.23018580756721" lon="9.385965563844715"><ele>102.4</ele><time>2026-05-01T08:35:34Z</time></trkpt><trkpt lat="41.23014438387611" lon="9.385817922984717"><ele>101.80000000000001</ele><time>2026-05-01T08:35:35Z</time></trkpt><trkpt lat="41.23010013988549" lon="9.385677037308689"><ele>101.2</ele><time>2026-05-01T08:35:36Z</time></trkpt><trkpt lat="41.23005343198103" lon="9.385549004435022"><ele>100.6</ele><time>2026-05-01T08:35:37Z</time></trkpt><trkpt lat="41.230004347825506" lon="9.385443195187529"><ele>100.0</ele><time>2026-05-01T08:35:38Z</time></trkpt><trkpt lat="41.22994406536548" lon="9.38535947738526"><ele>97.6</ele><time>2026-05-01T08:35:39Z</time></trkpt><trkpt lat="41.22987183747859" lon="9.385296757012343"><ele>95.2</ele><time>2026-05-01T08:35:40Z</time></trkpt><trkpt lat="41.22979225895644" lon="9.385246290506911"><ele>92.80000000000001</ele><time>2026-05-01T08:35:41Z</time></trkpt><trkpt lat="41.22969881364363" lon="9.385209296192027"><ele>90.4</ele><time>2026-05-01T08:35:42Z</time></trkpt><trkpt lat="41.22959446351323" lon="9.38519594580959"><ele>88.0</ele><time>2026-05-01T08:35:43Z</time></trkpt><trkpt lat="41.22948517785518" lon="9.385194397325161"><ele>88.0</ele><time>2026-05-01T08:35:44Z</time></trkpt><trkpt lat="41.22936967606018" lon="9.385196420400291"><ele>88.0</ele><time>2026-05-01T08:35:45Z</time></trkpt><trkpt lat="41.22924833778269" lon="9.385202743801727"><ele>88.0</ele><time>2026-05-01T08:35:46Z</time></trkpt><trkpt lat="41.22912439810165" lon="9.385205782380886"><ele>88.0</ele><time>2026-05-01T08:35:47Z</time></trkpt><trkpt lat="41.228995384913766" lon="9.385208233585463"><ele>87.0</ele><time>2026-05-01T08:35:48Z</time></trkpt><trkpt lat="41.22885696362219" lon="9.38521129850622"><ele>86.0</ele><time>2026-05-01T08:35:49Z</time></trkpt><trkpt lat="41.22872815996992" lon="9.385208144144798"><ele>85.0</ele><time>2026-05-01T08:35:50Z</time></trkpt><trkpt lat="41.22859627802182" lon="9.385210602763662"><ele>84.0</ele><time>2026-05-01T08:35:51Z</time></trkpt><trkpt lat="41.22846143253434" lon="9.385219674033394"><ele>84.0</ele><time>2026-05-01T08:35:52Z</time></trkpt><trkpt lat="41.228326297073444" lon="9.385252814056484"><ele>84.0</ele><time>2026-05-01T08:35:53Z</time></trkpt><trkpt lat="41.228197108252395" lon="9.385300686363523"><ele>84.0</ele><time>2026-05-01T08:35:54Z</time></trkpt><trkpt lat="41.22807296052058" lon="9.385351055535365"><ele>84.0</ele><time>2026-05-01T08:35:55Z</time></trkpt><trkpt lat="41.227952097555445" lon="9.38540924512022"><ele>82.25</ele><time>2026-05-01T08:35:56Z</time></trkpt><trkpt lat="41.22783639399274" lon="9.385457224756626"><ele>80.5</ele><time>2026-05-01T08:35:57Z</time></trkpt><trkpt lat="41.22772377077864" lon="9.385502976609878"><ele>78.75</ele><time>2026-05-01T08:35:58Z</time></trkpt><trkpt lat="41.22761308138472" lon="9.385532893771371"><ele>77.0</ele><time>2026-05-01T08:35:59Z</time></trkpt><trkpt lat="41.22750518015937" lon="9.385545457477127"><ele>77.8</ele><time>2026-05-01T08:36:00Z</time></trkpt><trkpt lat="41.22739934556014" lon="9.385533920462102"><ele>78.6</ele><time>2026-05-01T08:36:01Z</time></trkpt><trkpt lat="41.2273011837223" lon="9.38549878106347"><ele>79.39999999999999</ele><time>2026-05-01T08:36:02Z</time></trkpt><trkpt lat="41.22720194117729" lon="9.385438809772157"><ele>80.2</ele><time>2026-05-01T08:36:03Z</time></trkpt><trkpt lat="41.22711186823284" lon="9.385376580505826"><ele>81.0</ele><time>2026-05-01T08:36:04Z</time></trkpt><trkpt lat="41.22702282697693" lon="9.385332714114698"><ele>81.0</ele><time>2026-05-01T08:36:05Z</time></trkpt><trkpt lat="41.226925579557324" lon="9.385309595389696"><ele>81.0</ele><time>2026-05-01T08:36:06Z</time></trkpt><trkpt lat="41.22682493975686" lon="9.385305586140527"><ele>81.0</ele><time>2026-05-01T08:36:07Z</time></trkpt><trkpt lat="41.226722752490765" lon="9.385305063381693"><ele>81.0</ele><time>2026-05-01T08:36:08Z</time></trkpt><trkpt lat="41.22662225408203" lon="9.385288186991229"><ele>81.0</ele><time>2026-05-01T08:36:09Z</time></trkpt><trkpt lat="41.22652951565725" lon="9.385234845867577"><ele>80.39999999999999</ele><time>2026-05-01T08:36:10Z</time></trkpt><trkpt lat="41.2264554087582" lon="9.385145639560319"><ele>79.8</ele><time>2026-05-01T08:36:11Z</time></trkpt><trkpt lat="41.2264035105468" lon="9.385030189190775"><ele>79.19999999999999</ele><time>2026-05-01T08:36:12Z</time></trkpt><trkpt lat="41.22637085232219" lon="9.384897787021742"><ele>78.6</ele><time>2026-05-01T08:36:13Z</time></trkpt><trkpt lat="41.226357951295554" lon="9.384759543287219"><ele>78.0</ele><time>2026-05-01T08:36:14Z</time></trkpt><trkpt lat="41.22636854150572" lon="9.38463312350927"><ele>76.6</ele><time>2026-05-01T08:36:15Z</time></trkpt><trkpt lat="41.226395997443184" lon="9.384521625666734"><ele>75.19999999999999</ele><time>2026-05-01T08:36:16Z</time></trkpt><trkpt lat="41.22644862977223" lon="9.384426321729052"><ele>73.8</ele><time>2026-05-01T08:36:17Z</time></trkpt><trkpt lat="41.22651673896861" lon="9.384347834384897"><ele>72.39999999999999</ele><time>2026-05-01T08:36:18Z</time></trkpt><trkpt lat="41.226598056516536" lon="9.384292357319906"><ele>71.0</ele><time>2026-05-01T08:36:19.001Z</time></trkpt><trkpt lat="41.226700234120614" lon="9.384258438836847"><ele>71.0</ele><time>2026-05-01T08:36:20.001Z</time></trkpt><trkpt lat="41.22682000617419" lon="9.38423442872814"><ele>71.0</ele><time>2026-05-01T08:36:21.001Z</time></trkpt><trkpt lat="41.22694177819698" lon="9.384227826032502"><ele>71.0</ele><time>2026-05-01T08:36:22.001Z</time></trkpt><trkpt lat="41.22707702355714" lon="9.38424469657389"><ele>71.0</ele><time>2026-05-01T08:36:23.001Z</time></trkpt><trkpt lat="41.227218537482024" lon="9.38429802003154"><ele>68.75</ele><time>2026-05-01T08:36:24.001Z</time></trkpt><trkpt lat="41.22734808212336" lon="9.384371978766328"><ele>66.5</ele><time>2026-05-01T08:36:25.001Z</time></trkpt><trkpt lat="41.22747446400064" lon="9.384435580385242"><ele>64.25</ele><time>2026-05-01T08:36:26.001Z</time></trkpt><trkpt lat="41.22759796432784" lon="9.384468165263762"><ele>62.0</ele><time>2026-05-01T08:36:27.001Z</time></trkpt><trkpt lat="41.22772003895039" lon="9.384456412796396"><ele>62.0</ele><time>2026-05-01T08:36:28.001Z</time></trkpt><trkpt lat="41.227849062391755" lon="9.384396715985496"><ele>62.0</ele><time>2026-05-01T08:36:29.001Z</time></trkpt><trkpt lat="41.22799017235211" lon="9.384304696397583"><ele>62.0</ele><time>2026-05-01T08:36:30.001Z</time></trkpt><trkpt lat="41.22814695720295" lon="9.384205417490028"><ele>62.25</ele><time>2026-05-01T08:36:31.001Z</time></trkpt><trkpt lat="41.228293134893825" lon="9.38414471559489"><ele>62.5</ele><time>2026-05-01T08:36:32.001Z</time></trkpt><trkpt lat="41.22842734485408" lon="9.384104121379524"><ele>62.75</ele><time>2026-05-01T08:36:33.001Z</time></trkpt><trkpt lat="41.22854900574142" lon="9.384055694267413"><ele>63.0</ele><time>2026-05-01T08:36:34.001Z</time></trkpt><trkpt lat="41.22865119631847" lon="9.38398593571089"><ele>63.0</ele><time>2026-05-01T08:36:35.001Z</time></trkpt><trkpt lat="41.22873080518484" lon="9.383886465134125"><ele>63.0</ele><time>2026-05-01T08:36:36.001Z</time></trkpt><trkpt lat="41.228782654617206" lon="9.38376466314756"><ele>63.0</ele><time>2026-05-01T08:36:37.001Z</time></trkpt><trkpt lat="41.228803106760395" lon="9.383626249875245"><ele>63.0</ele><time>2026-05-01T08:36:38.001Z</time></trkpt><trkpt lat="41.228787772407976" lon="9.383492966189293"><ele>63.0</ele><time>2026-05-01T08:36:39.001Z</time></trkpt><trkpt lat="41.228739790153966" lon="9.383370122716702"><ele>60.0</ele><time>2026-05-01T08:36:40.001Z</time></trkpt><trkpt lat="41.22866010910063" lon="9.38325375690955"><ele>57.0</ele><time>2026-05-01T08:36:41.001Z</time></trkpt><trkpt lat="41.228559943371074" lon="9.383135866894044"><ele>54.0</ele><time>2026-05-01T08:36:42.001Z</time></trkpt><trkpt lat="41.22845615127384" lon="9.3830093698478"><ele>51.0</ele><time>2026-05-01T08:36:43.001Z</time></trkpt><trkpt lat="41.228361740866845" lon="9.382853606039157"><ele>50.5</ele><time>2026-05-01T08:36:44.001Z</time></trkpt><trkpt lat="41.228298259871906" lon="9.382682804465201"><ele>50.0</ele><time>2026-05-01T08:36:45.001Z</time></trkpt><trkpt lat="41.22823906874694" lon="9.38251551911554"><ele>49.5</ele><time>2026-05-01T08:36:46.001Z</time></trkpt><trkpt lat="41.22816154941787" lon="9.382370750234065"><ele>49.0</ele><time>2026-05-01T08:36:47.001Z</time></trkpt><trkpt lat="41.228053960605635" lon="9.382250911789727"><ele>44.0</ele><time>2026-05-01T08:36:48.001Z</time></trkpt><trkpt lat="41.227912487270466" lon="9.382139184847665"><ele>39.0</ele><time>2026-05-01T08:36:49.001Z</time></trkpt><trkpt lat="41.227756659544866" lon="9.38203300681337"><ele>34.0</ele><time>2026-05-01T08:36:50.001Z</time></trkpt><trkpt lat="41.22759179111541" lon="9.38192459461792"><ele>34.0</ele><time>2026-05-01T08:36:51.001Z</time></trkpt><trkpt lat="41.22741653156653" lon="9.38181655909662"><ele>34.0</ele><time>2026-05-01T08:36:52.001Z</time></trkpt><trkpt lat="41.22724492492422" lon="9.381709507855232"><ele>34.0</ele><time>2026-05-01T08:36:53.001Z</time></trkpt><trkpt lat="41.22707680702177" lon="9.381604530692771"><ele>31.333333333333336</ele><time>2026-05-01T08:36:54.001Z</time></trkpt><trkpt lat="41.22691659730033" lon="9.381503027829206"><ele>28.666666666666664</ele><time>2026-05-01T08:36:55.001Z</time></trkpt><trkpt lat="41.22675732538865" lon="9.381410966217105"><ele>26.0</ele><time>2026-05-01T08:36:56.001Z</time></trkpt><trkpt lat="41.22660388591161" lon="9.381320252124771"><ele>23.0</ele><time>2026-05-01T08:36:57.001Z</time></trkpt><trkpt lat="41.22645506861194" lon="9.381232727958142"><ele>20.0</ele><time>2026-05-01T08:36:58.001Z</time></trkpt><trkpt lat="41.22630887142523" lon="9.381147171232138"><ele>17.0</ele><time>2026-05-01T08:36:59.001Z</time></trkpt><trkpt lat="41.226160833148114" lon="9.381063822421902"><ele>17.0</ele><time>2026-05-01T08:37:00.001Z</time></trkpt><trkpt lat="41.22600978339655" lon="9.38098582561262"><ele>17.0</ele><time>2026-05-01T08:37:01.001Z</time></trkpt><trkpt lat="41.22585972630632" lon="9.380908451953736"><ele>17.0</ele><time>2026-05-01T08:37:02.001Z</time></trkpt><trkpt lat="41.225709588823115" lon="9.380828189691155"><ele>17.0</ele><time>2026-05-01T08:37:03.001Z</time></trkpt><trkpt lat="41.22555495958948" lon="9.380747521887244"><ele>17.0</ele><time>2026-05-01T08:37:04.001Z</time></trkpt><trkpt lat="41.22539842249" lon="9.380662208758014"><ele>17.0</ele><time>2026-05-01T08:37:05.001Z</time></trkpt><trkpt lat="41.225253139107956" lon="9.380583018528666"><ele>16.0</ele><time>2026-05-01T08:37:06.001Z</time></trkpt><trkpt lat="41.22511483610124" lon="9.380508218782577"><ele>15.0</ele><time>2026-05-01T08:37:07.001Z</time></trkpt><trkpt lat="41.224981234660675" lon="9.38043968164254"><ele>14.0</ele><time>2026-05-01T08:37:08.001Z</time></trkpt><trkpt lat="41.22484560186186" lon="9.38038698287942"><ele>13.0</ele><time>2026-05-01T08:37:09.001Z</time></trkpt><trkpt lat="41.2247110044079" lon="9.38035381570769"><ele>13.0</ele><time>2026-05-01T08:37:10.001Z</time></trkpt><trkpt lat="41.224572627118796" lon="9.380337235399773"><ele>13.0</ele><time>2026-05-01T08:37:11.001Z</time></trkpt><trkpt lat="41.2244401072505" lon="9.380337458400657"><ele>13.0</ele><time>2026-05-01T08:37:12.001Z</time></trkpt><trkpt lat="41.22431000010591" lon="9.38034536842089"><ele>13.0</ele><time>2026-05-01T08:37:13.001Z</time></trkpt><trkpt lat="41.22418455113602" lon="9.380359640924667"><ele>13.0</ele><time>2026-05-01T08:37:14.001Z</time></trkpt><trkpt lat="41.224065898514944" lon="9.380377535157736"><ele>13.0</ele><time>2026-05-01T08:37:15.001Z</time></trkpt><trkpt lat="41.22395387871048" lon="9.380394280659802"><ele>13.0</ele><time>2026-05-01T08:37:16.001Z</time></trkpt><trkpt lat="41.22384883408012" lon="9.38040151122134"><ele>13.0</ele><time>2026-05-01T08:37:17.001Z</time></trkpt><trkpt lat="41.223750317370545" lon="9.380398747064552"><ele>13.0</ele><time>2026-05-01T08:37:18.002Z</time></trkpt><trkpt lat="41.223662895192575" lon="9.380380535294906"><ele>12.999999999999998</ele><time>2026-05-01T08:37:19.002Z</time></trkpt><trkpt lat="41.22359577847803" lon="9.38036282097527"><ele>13.0</ele><time>2026-05-01T08:37:20.002Z</time></trkpt><trkpt lat="41.22352476097426" lon="9.38037750286661"><ele>13.0</ele><time>2026-05-01T08:41:53.002Z</time></trkpt><trkpt lat="41.223443065931214" lon="9.380388239702619"><ele>13.0</ele><time>2026-05-01T08:41:56.002Z</time></trkpt><trkpt lat="41.223374349797226" lon="9.380397270782405"><ele>12.999999999999998</ele><time>2026-05-01T08:41:58.002Z</time></trkpt><trkpt lat="41.22330082486404" lon="9.380406933855433"><ele>13.0</ele><time>2026-05-01T08:42:01.002Z</time></trkpt><trkpt lat="41.223302637377564" lon="9.380231599074468"><ele>13.0</ele><time>2026-05-01T08:42:15.001Z</time></trkpt><trkpt lat="41.22330824527721" lon="9.380131824514473"><ele>13.0</ele><time>2026-05-01T08:42:18.001Z</time></trkpt><trkpt lat="41.223362181570145" lon="9.380082813172105"><ele>13.0</ele><time>2026-05-01T08:42:20.001Z</time></trkpt><trkpt lat="41.22342284826971" lon="9.380058937438248"><ele>13.0</ele><time>2026-05-01T08:42:22.001Z</time></trkpt><trkpt lat="41.22349462549221" lon="9.380002441175542"><ele>13.0</ele><time>2026-05-01T08:42:25.001Z</time></trkpt><trkpt lat="41.22354995357865" lon="9.379930400593786"><ele>13.0</ele><time>2026-05-01T08:42:28.001Z</time></trkpt><trkpt lat="41.223587101943956" lon="9.379854937447401"><ele>13.0</ele><time>2026-05-01T08:42:36.001Z</time></trkpt><trkpt lat="41.22364164899215" lon="9.379804166499552"><ele>12.999999999999998</ele><time>2026-05-01T08:42:38.001Z</time></trkpt><trkpt lat="41.22370023694108" lon="9.379758624054505"><ele>13.0</ele><time>2026-05-01T08:42:40.001Z</time></trkpt><trkpt lat="41.22376238753582" lon="9.379736339339757"><ele>13.0</ele><time>2026-05-01T08:42:42.001Z</time></trkpt><trkpt lat="41.223849185835945" lon="9.379767151694814"><ele>13.0</ele><time>2026-05-01T08:42:44.001Z</time></trkpt><trkpt lat="41.22393323227326" lon="9.379796580293705"><ele>12.999999999999998</ele><time>2026-05-01T08:42:46.001Z</time></trkpt><trkpt lat="41.224022964981366" lon="9.379813660229702"><ele>13.0</ele><time>2026-05-01T08:42:48.001Z</time></trkpt><trkpt lat="41.22410947084479" lon="9.379842220706577"><ele>13.0</ele><time>2026-05-01T08:42:50.002Z</time></trkpt><trkpt lat="41.224195982511795" lon="9.379822668769757"><ele>13.0</ele><time>2026-05-01T08:42:52.002Z</time></trkpt><trkpt lat="41.22427634196771" lon="9.379852705571762"><ele>13.0</ele><time>2026-05-01T08:42:55.002Z</time></trkpt><trkpt lat="41.22433630499469" lon="9.379901545281587"><ele>13.0</ele><time>2026-05-01T08:43:02.002Z</time></trkpt><trkpt lat="41.22443568709847" lon="9.379883802684567"><ele>13.0</ele><time>2026-05-01T08:43:05.002Z</time></trkpt><trkpt lat="41.2245436444077" lon="9.37979261525144"><ele>12.999999999999998</ele><time>2026-05-01T08:43:07.002Z</time></trkpt><trkpt lat="41.22459561493223" lon="9.37973821309094"><ele>13.0</ele><time>2026-05-01T08:43:08.002Z</time></trkpt><trkpt lat="41.22466568428188" lon="9.379626257811834"><ele>13.0</ele><time>2026-05-01T08:43:10.002Z</time></trkpt><trkpt lat="41.2247096752277" lon="9.379500787195928"><ele>13.0</ele><time>2026-05-01T08:43:12.002Z</time></trkpt><trkpt lat="41.2247375915409" lon="9.379398867028188"><ele>12.999999999999998</ele><time>2026-05-01T08:43:15.002Z</time></trkpt><trkpt lat="41.224756530214144" lon="9.379315242742978"><ele>13.0</ele><time>2026-05-01T08:43:17.002Z</time></trkpt><trkpt lat="41.22476671340368" lon="9.37922855135983"><ele>12.333333333333332</ele><time>2026-05-01T08:43:19.002Z</time></trkpt><trkpt lat="41.224810712402174" lon="9.379156829117118"><ele>11.666666666666666</ele><time>2026-05-01T08:43:21.002Z</time></trkpt><trkpt lat="41.22484958427193" lon="9.379053928475013"><ele>11.0</ele><time>2026-05-01T08:43:23.002Z</time></trkpt><trkpt lat="41.224926772567976" lon="9.379006190847054"><ele>10.333333333333332</ele><time>2026-05-01T08:43:26.002Z</time></trkpt><trkpt lat="41.225013918684745" lon="9.378923633161882"><ele>9.666666666666666</ele><time>2026-05-01T08:43:28.002Z</time></trkpt><trkpt lat="41.22505671724121" lon="9.378838559901471"><ele>9.0</ele><time>2026-05-01T08:43:30.002Z</time></trkpt><trkpt lat="41.22510145282227" lon="9.378738041414753"><ele>8.666666666666666</ele><time>2026-05-01T08:43:33.002Z</time></trkpt><trkpt lat="41.22513632458938" lon="9.378666444293689"><ele>8.333333333333334</ele><time>2026-05-01T08:43:35.002Z</time></trkpt><trkpt lat="41.22518797037839" lon="9.378618000872528"><ele>8.0</ele><time>2026-05-01T08:43:37.002Z</time></trkpt><trkpt lat="41.225260581775004" lon="9.378596721979406"><ele>7.666666666666667</ele><time>2026-05-01T08:43:39.002Z</time></trkpt><trkpt lat="41.2253338752187" lon="9.378580863665537"><ele>7.333333333333334</ele><time>2026-05-01T08:43:41.002Z</time></trkpt><trkpt lat="41.22540121188469" lon="9.378583460358996"><ele>7.0</ele><time>2026-05-01T08:43:43.002Z</time></trkpt><trkpt lat="41.22550700836259" lon="9.378547534960635"><ele>7.0</ele><time>2026-05-01T08:43:45.001Z</time></trkpt><trkpt lat="41.22564399721639" lon="9.378485240131173"><ele>6.999999999999999</ele><time>2026-05-01T08:43:47.001Z</time></trkpt><trkpt lat="41.22571050484666" lon="9.378465912734324"><ele>6.999999999999999</ele><time>2026-05-01T08:43:48.001Z</time></trkpt><trkpt lat="41.225776128510944" lon="9.378464840749347"><ele>7.0</ele><time>2026-05-01T08:43:49.001Z</time></trkpt><trkpt lat="41.22587203974864" lon="9.378432744353852"><ele>7.0</ele><time>2026-05-01T08:43:51.001Z</time></trkpt><trkpt lat="41.22597213878764" lon="9.378432150316904"><ele>7.0</ele><time>2026-05-01T08:43:53.001Z</time></trkpt><trkpt lat="41.22606411296277" lon="9.378415114822781"><ele>6.999999999999999</ele><time>2026-05-01T08:43:55Z</time></trkpt><trkpt lat="41.226156147531206" lon="9.378378185699708"><ele>6.999999999999999</ele><time>2026-05-01T08:43:57Z</time></trkpt><trkpt lat="41.226233659633515" lon="9.378366283962157"><ele>7.0</ele><time>2026-05-01T08:43:59Z</time></trkpt><trkpt lat="41.226317837295184" lon="9.378362213697816"><ele>7.0</ele><time>2026-05-01T08:44:01Z</time></trkpt><trkpt lat="41.226422217033836" lon="9.378365725516902"><ele>6.8</ele><time>2026-05-01T08:44:03Z</time></trkpt><trkpt lat="41.22654592001264" lon="9.378364417320288"><ele>6.6</ele><time>2026-05-01T08:44:05Z</time></trkpt><trkpt lat="41.22661128564784" lon="9.37835444632302"><ele>6.3999999999999995</ele><time>2026-05-01T08:44:06Z</time></trkpt><trkpt lat="41.22672255758972" lon="9.378368932961159"><ele>6.199999999999999</ele><time>2026-05-01T08:44:08Z</time></trkpt><trkpt lat="41.22684738339528" lon="9.378366738764395"><ele>6.0</ele><time>2026-05-01T08:44:10Z</time></trkpt><trkpt lat="41.22692294182058" lon="9.37835210403735"><ele>6.0</ele><time>2026-05-01T08:44:11Z</time></trkpt><trkpt lat="41.22706420317547" lon="9.378353749042452"><ele>6.0</ele><time>2026-05-01T08:44:13Z</time></trkpt><trkpt lat="41.22713774807055" lon="9.378319839543144"><ele>6.0</ele><time>2026-05-01T08:44:14Z</time></trkpt><trkpt lat="41.227226553631965" lon="9.378259908032007"><ele>6.0</ele><time>2026-05-01T08:44:16Z</time></trkpt><trkpt lat="41.22731553542665" lon="9.378296578384099"><ele>6.0</ele><time>2026-05-01T08:44:18Z</time></trkpt><trkpt lat="41.22742817912386" lon="9.37830067611312"><ele>5.8</ele><time>2026-05-01T08:44:20Z</time></trkpt><trkpt lat="41.22754708072933" lon="9.378322027221492"><ele>5.6</ele><time>2026-05-01T08:44:22Z</time></trkpt><trkpt lat="41.22767443115625" lon="9.37833664578483"><ele>5.4</ele><time>2026-05-01T08:44:24Z</time></trkpt><trkpt lat="41.22778224838426" lon="9.37830618033943"><ele>5.2</ele><time>2026-05-01T08:44:26Z</time></trkpt><trkpt lat="41.22784324068667" lon="9.378277274086175"><ele>5.0</ele><time>2026-05-01T08:44:27Z</time></trkpt><trkpt lat="41.227938279283336" lon="9.378221307961173"><ele>5.0</ele><time>2026-05-01T08:44:29Z</time></trkpt><trkpt lat="41.228030728706365" lon="9.37824353688366"><ele>5.0</ele><time>2026-05-01T08:44:31Z</time></trkpt><trkpt lat="41.228139778592386" lon="9.378244897133259"><ele>5.0</ele><time>2026-05-01T08:44:33Z</time></trkpt><trkpt lat="41.22820416230019" lon="9.37821091920946"><ele>5.0</ele><time>2026-05-01T08:44:34Z</time></trkpt><trkpt lat="41.228289237626136" lon="9.378196087909506"><ele>5.0</ele><time>2026-05-01T08:44:35Z</time></trkpt><trkpt lat="41.22837191481209" lon="9.37818348145384"><ele>5.0</ele><time>2026-05-01T08:44:36Z</time></trkpt><trkpt lat="41.22844704730991" lon="9.378181084886503"><ele>5.333333333333334</ele><time>2026-05-01T08:44:37Z</time></trkpt><trkpt lat="41.22851338237616" lon="9.378173045337062"><ele>5.666666666666667</ele><time>2026-05-01T08:44:38Z</time></trkpt><trkpt lat="41.22863832214395" lon="9.378161129717238"><ele>6.0</ele><time>2026-05-01T08:44:40Z</time></trkpt><trkpt lat="41.22870730969131" lon="9.378147418623941"><ele>6.333333333333334</ele><time>2026-05-01T08:44:41Z</time></trkpt><trkpt lat="41.22877398425229" lon="9.378132912161314"><ele>6.666666666666667</ele><time>2026-05-01T08:44:42Z</time></trkpt><trkpt lat="41.22887621344127" lon="9.378099602579857"><ele>7.0</ele><time>2026-05-01T08:44:44Z</time></trkpt><trkpt lat="41.22897833596234" lon="9.378089110555196"><ele>7.0</ele><time>2026-05-01T08:44:46Z</time></trkpt><trkpt lat="41.22909520411758" lon="9.378096079245307"><ele>6.999999999999999</ele><time>2026-05-01T08:44:48Z</time></trkpt><trkpt lat="41.229197603612754" lon="9.378116218308788"><ele>6.999999999999999</ele><time>2026-05-01T08:44:50.001Z</time></trkpt><trkpt lat="41.229294496498234" lon="9.378092399546862"><ele>7.0</ele><time>2026-05-01T08:44:52.001Z</time></trkpt><trkpt lat="41.22938382880929" lon="9.37800398261323"><ele>7.0</ele><time>2026-05-01T08:44:54.001Z</time></trkpt><trkpt lat="41.22943752668731" lon="9.37789166720219"><ele>6.833333333333334</ele><time>2026-05-01T08:44:56.001Z</time></trkpt><trkpt lat="41.229480875522036" lon="9.377784484130263"><ele>6.666666666666667</ele><time>2026-05-01T08:44:58.001Z</time></trkpt><trkpt lat="41.22951047800716" lon="9.377695948536667"><ele>6.5</ele><time>2026-05-01T08:45:00.001Z</time></trkpt><trkpt lat="41.22952887266697" lon="9.377594717103978"><ele>6.333333333333334</ele><time>2026-05-01T08:45:02.001Z</time></trkpt><trkpt lat="41.2295164436822" lon="9.377482703741407"><ele>6.166666666666667</ele><time>2026-05-01T08:45:04.001Z</time></trkpt><trkpt lat="41.22945862521439" lon="9.377344237643507"><ele>6.0</ele><time>2026-05-01T08:45:06.001Z</time></trkpt><trkpt lat="41.229452509295406" lon="9.377249250511383"><ele>5.8</ele><time>2026-05-01T08:45:08.001Z</time></trkpt><trkpt lat="41.22943543688689" lon="9.377157506164579"><ele>5.6</ele><time>2026-05-01T08:46:57Z</time></trkpt><trkpt lat="41.22943087053855" lon="9.377058919538662"><ele>5.4</ele><time>2026-05-01T08:48:36Z</time></trkpt><trkpt lat="41.229410864532355" lon="9.376979302930506"><ele>5.2</ele><time>2026-05-01T08:48:38Z</time></trkpt><trkpt lat="41.22931753804734" lon="9.376915555405652"><ele>5.0</ele><time>2026-05-01T08:48:40Z</time></trkpt><trkpt lat="41.22918154598027" lon="9.376872045982916"><ele>5.0</ele><time>2026-05-01T08:48:42Z</time></trkpt><trkpt lat="41.229116517239405" lon="9.376852225457315"><ele>5.0</ele><time>2026-05-01T08:48:43Z</time></trkpt><trkpt lat="41.22901898590448" lon="9.376819313858139"><ele>5.0</ele><time>2026-05-01T08:48:45Z</time></trkpt><trkpt lat="41.22894993642301" lon="9.37678186597728"><ele>5.0</ele><time>2026-05-01T08:48:47Z</time></trkpt><trkpt lat="41.22887065449359" lon="9.376736952225661"><ele>5.0</ele><time>2026-05-01T08:48:50Z</time></trkpt><trkpt lat="41.228855371974554" lon="9.376628466617769"><ele>5.0</ele><time>2026-05-01T08:48:52Z</time></trkpt><trkpt lat="41.22882216819959" lon="9.37652898612126"><ele>4.833333333333334</ele><time>2026-05-01T08:48:54Z</time></trkpt><trkpt lat="41.2287863736077" lon="9.376423234219478"><ele>4.666666666666667</ele><time>2026-05-01T08:48:56.001Z</time></trkpt><trkpt lat="41.22880679913137" lon="9.376318064466938"><ele>4.5</ele><time>2026-05-01T08:48:58.001Z</time></trkpt><trkpt lat="41.228718315133015" lon="9.37625811728676"><ele>4.333333333333333</ele><time>2026-05-01T08:49:00.001Z</time></trkpt><trkpt lat="41.228676112127765" lon="9.376167821985227"><ele>4.166666666666666</ele><time>2026-05-01T08:49:03.001Z</time></trkpt><trkpt lat="41.228638140794274" lon="9.376068191323855"><ele>4.0</ele><time>2026-05-01T08:49:07.001Z</time></trkpt><trkpt lat="41.22859341591114" lon="9.376009265546346"><ele>3.9999999999999996</ele><time>2026-05-01T08:49:09.001Z</time></trkpt><trkpt lat="41.228605365387516" lon="9.375895195938096"><ele>4.0</ele><time>2026-05-01T08:49:12.001Z</time></trkpt><trkpt lat="41.22861810355099" lon="9.375812831984346"><ele>4.0</ele><time>2026-05-01T08:49:14.001Z</time></trkpt><trkpt lat="41.22869072095978" lon="9.375805823791012"><ele>4.0</ele><time>2026-05-01T08:49:17.001Z</time></trkpt><trkpt lat="41.2286496577718" lon="9.375681831710597"><ele>3.9999999999999996</ele><time>2026-05-01T08:51:19.001Z</time></trkpt><trkpt lat="41.228641222666774" lon="9.375588156705813"><ele>4.0</ele><time>2026-05-01T08:51:25.001Z</time></trkpt><trkpt lat="41.2286723978063" lon="9.375514624083102"><ele>4.0</ele><time>2026-05-01T08:51:34.001Z</time></trkpt><trkpt lat="41.22873937046385" lon="9.375514466405651"><ele>3.9999999999999996</ele><time>2026-05-01T08:51:44.001Z</time></trkpt><trkpt lat="41.22880735799246" lon="9.375493210911415"><ele>4.0</ele><time>2026-05-01T08:51:54.001Z</time></trkpt><trkpt lat="41.2287964568055" lon="9.375593257508433"><ele>4.0</ele><time>2026-05-01T08:53:17Z</time></trkpt><trkpt lat="41.22879955070844" lon="9.375507636897483"><ele>3.9999999999999996</ele><time>2026-05-01T08:55:07.999Z</time></trkpt><trkpt lat="41.22873420216169" lon="9.375524802176226"><ele>4.0</ele><time>2026-05-01T08:55:16Z</time></trkpt><trkpt lat="41.2286686457766" lon="9.37555968923289"><ele>4.0</ele><time>2026-05-01T08:55:28Z</time></trkpt><trkpt lat="41.228631739873" lon="9.375629425188642"><ele>3.9999999999999996</ele><time>2026-05-01T08:55:33Z</time></trkpt><trkpt lat="41.22864463763313" lon="9.375714516636695"><ele>4.0</ele><time>2026-05-01T08:55:38Z</time></trkpt><trkpt lat="41.22868258414567" lon="9.375785556784274"><ele>4.0</ele><time>2026-05-01T08:55:50Z</time></trkpt><trkpt lat="41.22867040205836" lon="9.375877086416695"><ele>4.0</ele><time>2026-05-01T08:58:15.002Z</time></trkpt><trkpt lat="41.228723449019526" lon="9.375974337031918"><ele>3.9999999999999996</ele><time>2026-05-01T08:58:18.002Z</time></trkpt><trkpt lat="41.22876557673436" lon="9.376063639384919"><ele>4.0</ele><time>2026-05-01T08:58:21.002Z</time></trkpt><trkpt lat="41.22877703083858" lon="9.37619172444336"><ele>3.9999999999999996</ele><time>2026-05-01T08:58:24.002Z</time></trkpt><trkpt lat="41.22877261384436" lon="9.376291331421747"><ele>4.0</ele><time>2026-05-01T08:58:26.002Z</time></trkpt><trkpt lat="41.22878332089368" lon="9.376403576370906"><ele>4.0</ele><time>2026-05-01T08:58:28.001Z</time></trkpt><trkpt lat="41.228823103725276" lon="9.376518184188528"><ele>4.0</ele><time>2026-05-01T08:58:30.001Z</time></trkpt><trkpt lat="41.22885936294823" lon="9.376645495130797"><ele>3.9999999999999996</ele><time>2026-05-01T08:58:32.001Z</time></trkpt><trkpt lat="41.22886688379446" lon="9.376753116297476"><ele>4.0</ele><time>2026-05-01T08:58:34.001Z</time></trkpt><trkpt lat="41.22891838281438" lon="9.376832948756427"><ele>4.2</ele><time>2026-05-01T08:58:36.001Z</time></trkpt><trkpt lat="41.22901212423545" lon="9.37685319850273"><ele>4.4</ele><time>2026-05-01T08:58:38.001Z</time></trkpt><trkpt lat="41.2291237845411" lon="9.376894658919165"><ele>4.6</ele><time>2026-05-01T08:58:40.001Z</time></trkpt><trkpt lat="41.22922804234212" lon="9.376921160209653"><ele>4.8</ele><time>2026-05-01T08:58:42.001Z</time></trkpt><trkpt lat="41.229323336012406" lon="9.376949047313326"><ele>5.0</ele><time>2026-05-01T08:58:44.001Z</time></trkpt><trkpt lat="41.2293831938908" lon="9.3770053676219"><ele>5.0</ele><time>2026-05-01T08:58:46.001Z</time></trkpt><trkpt lat="41.22943540545545" lon="9.377095896216874"><ele>5.0</ele><time>2026-05-01T08:58:49.001Z</time></trkpt><trkpt lat="41.22941886649895" lon="9.377257685765581"><ele>5.0</ele><time>2026-05-01T08:58:52.001Z</time></trkpt><trkpt lat="41.229432264176594" lon="9.377358840601287"><ele>5.0</ele><time>2026-05-01T08:58:54.001Z</time></trkpt><trkpt lat="41.22945702309033" lon="9.37745727473054"><ele>5.0</ele><time>2026-05-01T08:58:56.001Z</time></trkpt><trkpt lat="41.2294999854707" lon="9.377535798342702"><ele>5.0</ele><time>2026-05-01T08:58:58.001Z</time></trkpt><trkpt lat="41.229508214382406" lon="9.377632457255093"><ele>5.2</ele><time>2026-05-01T08:59:00.001Z</time></trkpt><trkpt lat="41.229477820909224" lon="9.377730641716658"><ele>5.4</ele><time>2026-05-01T08:59:02.001Z</time></trkpt><trkpt lat="41.22942116056778" lon="9.377857397893637"><ele>5.6</ele><time>2026-05-01T08:59:04.001Z</time></trkpt><trkpt lat="41.22934607579843" lon="9.377981930656677"><ele>5.8</ele><time>2026-05-01T08:59:06.001Z</time></trkpt><trkpt lat="41.22926607657004" lon="9.378067424265637"><ele>6.0</ele><time>2026-05-01T08:59:08.001Z</time></trkpt><trkpt lat="41.22915928583556" lon="9.378087616208356"><ele>6.166666666666667</ele><time>2026-05-01T08:59:10.001Z</time></trkpt><trkpt lat="41.229087567605" lon="9.37805991983225"><ele>6.333333333333334</ele><time>2026-05-01T08:59:11.001Z</time></trkpt><trkpt lat="41.22901014788479" lon="9.378056107230112"><ele>6.5</ele><time>2026-05-01T08:59:12.001Z</time></trkpt><trkpt lat="41.228930446758326" lon="9.37805511795776"><ele>6.666666666666667</ele><time>2026-05-01T08:59:13.001Z</time></trkpt><trkpt lat="41.22883463568308" lon="9.378069692626978"><ele>6.833333333333334</ele><time>2026-05-01T08:59:14.001Z</time></trkpt><trkpt lat="41.2287559522961" lon="9.378095805858909"><ele>7.0</ele><time>2026-05-01T08:59:15.001Z</time></trkpt><trkpt lat="41.22868699345763" lon="9.378130180572304"><ele>7.333333333333334</ele><time>2026-05-01T08:59:16.001Z</time></trkpt><trkpt lat="41.22859828394691" lon="9.378141381541285"><ele>7.666666666666667</ele><time>2026-05-01T08:59:17.001Z</time></trkpt><trkpt lat="41.22852450700668" lon="9.378148069977884"><ele>8.0</ele><time>2026-05-01T08:59:18.001Z</time></trkpt><trkpt lat="41.228450780194585" lon="9.378158276413801"><ele>8.333333333333334</ele><time>2026-05-01T08:59:19.001Z</time></trkpt><trkpt lat="41.228356885488445" lon="9.378162774918437"><ele>8.666666666666666</ele><time>2026-05-01T08:59:21.001Z</time></trkpt><trkpt lat="41.22827737616807" lon="9.378177021456688"><ele>9.0</ele><time>2026-05-01T08:59:23.001Z</time></trkpt><trkpt lat="41.22819362205048" lon="9.3781937703041"><ele>8.333333333333334</ele><time>2026-05-01T08:59:26.001Z</time></trkpt><trkpt lat="41.22810077029719" lon="9.378203459171246"><ele>7.666666666666667</ele><time>2026-05-01T08:59:29.001Z</time></trkpt><trkpt lat="41.22801978338401" lon="9.378198338717418"><ele>7.0</ele><time>2026-05-01T08:59:31.001Z</time></trkpt><trkpt lat="41.227927340917375" lon="9.378202522838942"><ele>6.333333333333334</ele><time>2026-05-01T08:59:33.001Z</time></trkpt><trkpt lat="41.22783084345893" lon="9.378256404556524"><ele>5.666666666666667</ele><time>2026-05-01T08:59:35.001Z</time></trkpt><trkpt lat="41.22775897474273" lon="9.378289218474958"><ele>5.0</ele><time>2026-05-01T08:59:37.001Z</time></trkpt><trkpt lat="41.22766251456328" lon="9.378301257155304"><ele>5.0</ele><time>2026-05-01T08:59:39.001Z</time></trkpt><trkpt lat="41.227543898335114" lon="9.378293076256254"><ele>5.0</ele><time>2026-05-01T08:59:41.001Z</time></trkpt><trkpt lat="41.22747441320205" lon="9.378281330624743"><ele>5.0</ele><time>2026-05-01T08:59:42.001Z</time></trkpt><trkpt lat="41.227408895741334" lon="9.378269245648852"><ele>5.0</ele><time>2026-05-01T08:59:43.001Z</time></trkpt><trkpt lat="41.22729763046951" lon="9.378247761907637"><ele>5.0</ele><time>2026-05-01T08:59:45.001Z</time></trkpt><trkpt lat="41.22720919495868" lon="9.37823517547393"><ele>5.2</ele><time>2026-05-01T08:59:47.001Z</time></trkpt><trkpt lat="41.227136346966" lon="9.378263593819524"><ele>5.4</ele><time>2026-05-01T08:59:48.002Z</time></trkpt><trkpt lat="41.227069139992096" lon="9.378309241804502"><ele>5.6</ele><time>2026-05-01T08:59:49.002Z</time></trkpt><trkpt lat="41.22694280300311" lon="9.378323623531"><ele>5.8</ele><time>2026-05-01T08:59:51.002Z</time></trkpt><trkpt lat="41.22683851530955" lon="9.378322449999446"><ele>6.0</ele><time>2026-05-01T08:59:53.002Z</time></trkpt><trkpt lat="41.2267531878597" lon="9.378346121121986"><ele>6.0</ele><time>2026-05-01T08:59:55.002Z</time></trkpt><trkpt lat="41.22668443349574" lon="9.37833985802041"><ele>6.0</ele><time>2026-05-01T08:59:57.002Z</time></trkpt><trkpt lat="41.226598814134825" lon="9.378342724177905"><ele>6.0</ele><time>2026-05-01T09:00:01.002Z</time></trkpt><trkpt lat="41.226523706049626" lon="9.37834898473114"><ele>6.0</ele><time>2026-05-01T09:00:04.002Z</time></trkpt><trkpt lat="41.22645968277832" lon="9.378330780746829"><ele>6.0</ele><time>2026-05-01T09:00:06.002Z</time></trkpt><trkpt lat="41.226388489903535" lon="9.378333391985723"><ele>6.0</ele><time>2026-05-01T09:00:08.002Z</time></trkpt><trkpt lat="41.22629113177957" lon="9.378338887213898"><ele>6.166666666666667</ele><time>2026-05-01T09:00:11.002Z</time></trkpt><trkpt lat="41.22622968368424" lon="9.378359397843965"><ele>6.333333333333334</ele><time>2026-05-01T09:00:13.002Z</time></trkpt><trkpt lat="41.22614787123945" lon="9.3783557452561"><ele>6.5</ele><time>2026-05-01T09:00:15.002Z</time></trkpt><trkpt lat="41.22606461947948" lon="9.378381046298944"><ele>6.666666666666667</ele><time>2026-05-01T09:00:17.002Z</time></trkpt><trkpt lat="41.22599330682696" lon="9.378398017523642"><ele>6.833333333333334</ele><time>2026-05-01T09:00:19.002Z</time></trkpt><trkpt lat="41.22591723752539" lon="9.378412820351585"><ele>7.0</ele><time>2026-05-01T09:00:21.002Z</time></trkpt><trkpt lat="41.22583780688769" lon="9.378412779625489"><ele>7.0</ele><time>2026-05-01T09:00:23.002Z</time></trkpt><trkpt lat="41.22573967160519" lon="9.378433606875058"><ele>6.999999999999999</ele><time>2026-05-01T09:00:25.002Z</time></trkpt><trkpt lat="41.225637261559875" lon="9.378459637147147"><ele>6.999999999999999</ele><time>2026-05-01T09:00:27.002Z</time></trkpt><trkpt lat="41.22554181343098" lon="9.378513052056022"><ele>7.0</ele><time>2026-05-01T09:00:29.002Z</time></trkpt><trkpt lat="41.2254501111957" lon="9.378532867984642"><ele>7.0</ele><time>2026-05-01T09:00:31.002Z</time></trkpt><trkpt lat="41.225364122133335" lon="9.378562315116845"><ele>7.0</ele><time>2026-05-01T09:00:33Z</time></trkpt><trkpt lat="41.22527245038486" lon="9.378567755411659"><ele>6.999999999999999</ele><time>2026-05-01T09:00:35Z</time></trkpt><trkpt lat="41.22517239428915" lon="9.378601028969124"><ele>6.999999999999999</ele><time>2026-05-01T09:00:37Z</time></trkpt><trkpt lat="41.225088736138396" lon="9.378690723917787"><ele>7.0</ele><time>2026-05-01T09:00:39Z</time></trkpt><trkpt lat="41.22503924603355" lon="9.378811670532757"><ele>7.0</ele><time>2026-05-01T09:00:41Z</time></trkpt><trkpt lat="41.225018541355524" lon="9.378895736610817"><ele>7.166666666666667</ele><time>2026-05-01T09:00:44Z</time></trkpt><trkpt lat="41.22494475000649" lon="9.378969538832715"><ele>7.333333333333334</ele><time>2026-05-01T09:00:54Z</time></trkpt><trkpt lat="41.22486017666482" lon="9.379017357722425"><ele>7.5</ele><time>2026-05-01T09:00:57Z</time></trkpt><trkpt lat="41.22480196291853" lon="9.379084704771278"><ele>7.666666666666666</ele><time>2026-05-01T09:00:59Z</time></trkpt><trkpt lat="41.22478230464661" lon="9.379171674990594"><ele>7.833333333333333</ele><time>2026-05-01T09:01:01Z</time></trkpt><trkpt lat="41.22473500627176" lon="9.379269066539589"><ele>8.0</ele><time>2026-05-01T09:01:04Z</time></trkpt><trkpt lat="41.22470978313161" lon="9.379372253932251"><ele>7.999999999999999</ele><time>2026-05-01T09:01:07.001Z</time></trkpt><trkpt lat="41.22468681517485" lon="9.379458339095295"><ele>8.0</ele><time>2026-05-01T09:01:09.001Z</time></trkpt><trkpt lat="41.22465560529482" lon="9.379562319175509"><ele>8.0</ele><time>2026-05-01T09:01:11.001Z</time></trkpt><trkpt lat="41.224621372701044" lon="9.37965886968289"><ele>8.0</ele><time>2026-05-01T09:01:13.001Z</time></trkpt><trkpt lat="41.224567252109736" lon="9.379725003123124"><ele>7.999999999999999</ele><time>2026-05-01T09:01:15.001Z</time></trkpt><trkpt lat="41.22448202749003" lon="9.379792827071846"><ele>8.0</ele><time>2026-05-01T09:01:17.001Z</time></trkpt><trkpt lat="41.22442711138883" lon="9.379846154657141"><ele>8.833333333333332</ele><time>2026-05-01T09:01:19.001Z</time></trkpt><trkpt lat="41.22435239223112" lon="9.379867013969108"><ele>9.666666666666666</ele><time>2026-05-01T09:01:22.001Z</time></trkpt><trkpt lat="41.22425176369376" lon="9.379800242178769"><ele>10.5</ele><time>2026-05-01T09:01:26.001Z</time></trkpt><trkpt lat="41.22417593410991" lon="9.379815177553677"><ele>11.333333333333332</ele><time>2026-05-01T09:01:28.001Z</time></trkpt><trkpt lat="41.2240867898049" lon="9.379821619849864"><ele>12.166666666666666</ele><time>2026-05-01T09:01:37.001Z</time></trkpt><trkpt lat="41.22401525693907" lon="9.379812001272935"><ele>13.0</ele><time>2026-05-01T09:01:38.001Z</time></trkpt><trkpt lat="41.223930206023994" lon="9.379789154272173"><ele>13.0</ele><time>2026-05-01T09:01:40.001Z</time></trkpt><trkpt lat="41.22386127481613" lon="9.379765369476223"><ele>13.0</ele><time>2026-05-01T09:01:42.001Z</time></trkpt><trkpt lat="41.22379791361843" lon="9.37974649490464"><ele>13.0</ele><time>2026-05-01T09:01:53.001Z</time></trkpt><trkpt lat="41.223733377242674" lon="9.379751169177734"><ele>13.0</ele><time>2026-05-01T09:01:58.001Z</time></trkpt><trkpt lat="41.2236665533" lon="9.379790495847855"><ele>13.0</ele><time>2026-05-01T09:02:05.001Z</time></trkpt><trkpt lat="41.223592127492545" lon="9.379846552720394"><ele>13.0</ele><time>2026-05-01T09:02:08.002Z</time></trkpt><trkpt lat="41.22353928551393" lon="9.379927088893846"><ele>13.0</ele><time>2026-05-01T09:02:11.002Z</time></trkpt><trkpt lat="41.22350004721227" lon="9.379998473333425"><ele>12.999999999999998</ele><time>2026-05-01T09:02:13.002Z</time></trkpt><trkpt lat="41.22339953284458" lon="9.380067882655931"><ele>13.0</ele><time>2026-05-01T09:02:15.002Z</time></trkpt><trkpt lat="41.22331335408592" lon="9.380122774454131"><ele>13.0</ele><time>2026-05-01T09:02:17.002Z</time></trkpt><trkpt lat="41.22328042041159" lon="9.380202168922578"><ele>13.0</ele><time>2026-05-01T09:02:19.002Z</time></trkpt><trkpt lat="41.22326432215022" lon="9.380311277279144"><ele>12.999999999999998</ele><time>2026-05-01T09:02:22.002Z</time></trkpt><trkpt lat="41.22326440500723" lon="9.380396129275164"><ele>13.0</ele><time>2026-05-01T09:05:14.001Z</time></trkpt><trkpt lat="41.22332985782954" lon="9.380463454644582"><ele>12.999999999999998</ele><time>2026-05-01T09:05:16.001Z</time></trkpt><trkpt lat="41.22339664432071" lon="9.38048673430754"><ele>13.0</ele><time>2026-05-01T09:05:17.001Z</time></trkpt><trkpt lat="41.22346584133998" lon="9.38049100327657"><ele>13.0</ele><time>2026-05-01T09:05:18.001Z</time></trkpt><trkpt lat="41.223529095137096" lon="9.38047836100758"><ele>13.0</ele><time>2026-05-01T09:05:19.001Z</time></trkpt><trkpt lat="41.22366530779439" lon="9.38045154503487"><ele>12.999999999999998</ele><time>2026-05-01T09:05:21.001Z</time></trkpt><trkpt lat="41.22376816099536" lon="9.380437217785211"><ele>13.0</ele><time>2026-05-01T09:05:22.001Z</time></trkpt><trkpt lat="41.223882644371926" lon="9.380421523608751"><ele>13.0</ele><time>2026-05-01T09:05:23.001Z</time></trkpt><trkpt lat="41.22401134232208" lon="9.380407925829816"><ele>13.0</ele><time>2026-05-01T09:05:24.001Z</time></trkpt><trkpt lat="41.22414770507423" lon="9.380389289741577"><ele>13.0</ele><time>2026-05-01T09:05:25.001Z</time></trkpt><trkpt lat="41.22428009659342" lon="9.380368973557976"><ele>13.0</ele><time>2026-05-01T09:05:26.001Z</time></trkpt><trkpt lat="41.22441484682941" lon="9.38035008456915"><ele>13.0</ele><time>2026-05-01T09:05:27.001Z</time></trkpt><trkpt lat="41.224565376907506" lon="9.380343888764232"><ele>13.0</ele><time>2026-05-01T09:05:28.001Z</time></trkpt><trkpt lat="41.22471971769256" lon="9.380363494599925"><ele>13.0</ele><time>2026-05-01T09:05:29.001Z</time></trkpt><trkpt lat="41.22488464234759" lon="9.380434828647054"><ele>12.333333333333332</ele><time>2026-05-01T09:05:30.001Z</time></trkpt><trkpt lat="41.2250761312116" lon="9.380501982682855"><ele>11.666666666666666</ele><time>2026-05-01T09:05:31.001Z</time></trkpt><trkpt lat="41.22525515003269" lon="9.380596988943147"><ele>11.0</ele><time>2026-05-01T09:05:32.001Z</time></trkpt><trkpt lat="41.22543696973462" lon="9.380715845590753"><ele>13.0</ele><time>2026-05-01T09:05:33.001Z</time></trkpt><trkpt lat="41.22561817146529" lon="9.380795107997152"><ele>15.0</ele><time>2026-05-01T09:05:34.001Z</time></trkpt><trkpt lat="41.2257904724848" lon="9.380892202601608"><ele>17.0</ele><time>2026-05-01T09:05:35.001Z</time></trkpt><trkpt lat="41.225959283729004" lon="9.380982958632954"><ele>17.0</ele><time>2026-05-01T09:05:36.001Z</time></trkpt><trkpt lat="41.22612213933935" lon="9.381070133720222"><ele>17.0</ele><time>2026-05-01T09:05:37.001Z</time></trkpt><trkpt lat="41.226284921461705" lon="9.381153804854312"><ele>17.0</ele><time>2026-05-01T09:05:38.001Z</time></trkpt><trkpt lat="41.22643437771951" lon="9.381258931199898"><ele>18.0</ele><time>2026-05-01T09:05:39.001Z</time></trkpt><trkpt lat="41.22658802993793" lon="9.38134711959367"><ele>19.0</ele><time>2026-05-01T09:05:40.001Z</time></trkpt><trkpt lat="41.22674836685022" lon="9.381419083377668"><ele>20.0</ele><time>2026-05-01T09:05:41.001Z</time></trkpt><trkpt lat="41.226898662273264" lon="9.38151437280321"><ele>22.0</ele><time>2026-05-01T09:05:42.001Z</time></trkpt><trkpt lat="41.22705533393817" lon="9.381607658033529"><ele>24.0</ele><time>2026-05-01T09:05:43.001Z</time></trkpt><trkpt lat="41.22721536145738" lon="9.38170803522789"><ele>26.0</ele><time>2026-05-01T09:05:44.001Z</time></trkpt><trkpt lat="41.227390200043835" lon="9.381814404548832"><ele>28.666666666666664</ele><time>2026-05-01T09:05:45.001Z</time></trkpt><trkpt lat="41.22756450412006" lon="9.381942388892975"><ele>31.333333333333336</ele><time>2026-05-01T09:05:46.001Z</time></trkpt><trkpt lat="41.22773211159174" lon="9.382048617370689"><ele>34.0</ele><time>2026-05-01T09:05:47.001Z</time></trkpt><trkpt lat="41.2278879263709" lon="9.382129744646981"><ele>34.75</ele><time>2026-05-01T09:05:48.001Z</time></trkpt><trkpt lat="41.22801558520875" lon="9.382236263789453"><ele>35.5</ele><time>2026-05-01T09:05:49.002Z</time></trkpt><trkpt lat="41.22812751688233" lon="9.382359872582487"><ele>36.25</ele><time>2026-05-01T09:05:50.002Z</time></trkpt><trkpt lat="41.22821529943615" lon="9.38250228310573"><ele>37.0</ele><time>2026-05-01T09:05:51.002Z</time></trkpt><trkpt lat="41.22825967357451" lon="9.382692097484679"><ele>40.0</ele><time>2026-05-01T09:05:52.002Z</time></trkpt><trkpt lat="41.22832537406935" lon="9.382872935244995"><ele>43.0</ele><time>2026-05-01T09:05:53.002Z</time></trkpt><trkpt lat="41.22841349617583" lon="9.383019362597498"><ele>46.0</ele><time>2026-05-01T09:05:54.002Z</time></trkpt><trkpt lat="41.22852419723959" lon="9.38315144377659"><ele>49.0</ele><time>2026-05-01T09:05:55.002Z</time></trkpt><trkpt lat="41.228619495681926" lon="9.383258434789068"><ele>49.400000000000006</ele><time>2026-05-01T09:05:56.002Z</time></trkpt><trkpt lat="41.22869887751436" lon="9.383359662540014"><ele>49.8</ele><time>2026-05-01T09:05:57.002Z</time></trkpt><trkpt lat="41.22876171636351" lon="9.383464383717497"><ele>50.2</ele><time>2026-05-01T09:05:58.002Z</time></trkpt><trkpt lat="41.228779232982745" lon="9.383593540326936"><ele>50.599999999999994</ele><time>2026-05-01T09:05:59.002Z</time></trkpt><trkpt lat="41.22875971400679" lon="9.383727629037512"><ele>51.0</ele><time>2026-05-01T09:06:00.002Z</time></trkpt><trkpt lat="41.228708690830246" lon="9.38384271293738"><ele>54.0</ele><time>2026-05-01T09:06:01.002Z</time></trkpt><trkpt lat="41.22863063775978" lon="9.383943526179507"><ele>57.0</ele><time>2026-05-01T09:06:02.002Z</time></trkpt><trkpt lat="41.22852307924754" lon="9.384031928218391"><ele>60.0</ele><time>2026-05-01T09:06:03.002Z</time></trkpt><trkpt lat="41.228399377809026" lon="9.384088251413306"><ele>63.0</ele><time>2026-05-01T09:06:04.002Z</time></trkpt><trkpt lat="41.22824994116121" lon="9.384139343638665"><ele>62.66666666666667</ele><time>2026-05-01T09:06:05.002Z</time></trkpt><trkpt lat="41.22809589994677" lon="9.384213053690235"><ele>62.333333333333336</ele><time>2026-05-01T09:06:06.002Z</time></trkpt><trkpt lat="41.22794106801508" lon="9.384304766341934"><ele>62.0</ele><time>2026-05-01T09:06:07.002Z</time></trkpt><trkpt lat="41.22779794790822" lon="9.384393266882537"><ele>62.0</ele><time>2026-05-01T09:06:08.002Z</time></trkpt><trkpt lat="41.22766741529997" lon="9.384434712509249"><ele>62.0</ele><time>2026-05-01T09:06:09.002Z</time></trkpt><trkpt lat="41.22753631178656" lon="9.384440578308723"><ele>62.0</ele><time>2026-05-01T09:06:10.002Z</time></trkpt><trkpt lat="41.22741061323324" lon="9.384399776756897"><ele>62.0</ele><time>2026-05-01T09:06:11.002Z</time></trkpt><trkpt lat="41.2272879056631" lon="9.384319283915794"><ele>64.25</ele><time>2026-05-01T09:06:12.002Z</time></trkpt><trkpt lat="41.22715583775803" lon="9.384247177470494"><ele>66.5</ele><time>2026-05-01T09:06:13.002Z</time></trkpt><trkpt lat="41.22701075474048" lon="9.384210004887695"><ele>68.75</ele><time>2026-05-01T09:06:14.002Z</time></trkpt><trkpt lat="41.226864019317944" lon="9.384192455121662"><ele>71.0</ele><time>2026-05-01T09:06:15.002Z</time></trkpt><trkpt lat="41.2267265364577" lon="9.38419340198613"><ele>71.0</ele><time>2026-05-01T09:06:16.002Z</time></trkpt><trkpt lat="41.22662145171062" lon="9.384215857677736"><ele>71.0</ele><time>2026-05-01T09:06:17.002Z</time></trkpt><trkpt lat="41.226539553636854" lon="9.384256590675355"><ele>71.0</ele><time>2026-05-01T09:06:18.002Z</time></trkpt><trkpt lat="41.22647603570654" lon="9.384302205273475"><ele>71.0</ele><time>2026-05-01T09:06:19.002Z</time></trkpt><trkpt lat="41.226399680171475" lon="9.384340215759153"><ele>71.0</ele><time>2026-05-01T09:06:21.002Z</time></trkpt><trkpt lat="41.22635344023257" lon="9.384401302103209"><ele>71.0</ele><time>2026-05-01T09:06:24.002Z</time></trkpt><trkpt lat="41.226345259207676" lon="9.38451545743995"><ele>72.39999999999999</ele><time>2026-05-01T09:08:00.001Z</time></trkpt><trkpt lat="41.22634235383176" lon="9.384684415347232"><ele>73.8</ele><time>2026-05-01T09:08:02.001Z</time></trkpt><trkpt lat="41.22633888289189" lon="9.38483495680166"><ele>75.19999999999999</ele><time>2026-05-01T09:08:04.001Z</time></trkpt><trkpt lat="41.22634968997595" lon="9.384929413356675"><ele>76.6</ele><time>2026-05-01T09:08:05.001Z</time></trkpt><trkpt lat="41.22637960009748" lon="9.38505173907369"><ele>78.0</ele><time>2026-05-01T09:08:06.001Z</time></trkpt><trkpt lat="41.226430288059774" lon="9.385176048744645"><ele>78.75</ele><time>2026-05-01T09:08:07.001Z</time></trkpt><trkpt lat="41.2265077045649" lon="9.385268004842825"><ele>79.5</ele><time>2026-05-01T09:08:08.001Z</time></trkpt><trkpt lat="41.226611216923146" lon="9.385323334982889"><ele>80.25</ele><time>2026-05-01T09:08:09.001Z</time></trkpt><trkpt lat="41.226738584280895" lon="9.385346752952788"><ele>81.0</ele><time>2026-05-01T09:08:10.001Z</time></trkpt><trkpt lat="41.22687513425416" lon="9.385346532532406"><ele>81.0</ele><time>2026-05-01T09:08:11.001Z</time></trkpt><trkpt lat="41.22701110398824" lon="9.385349542375492"><ele>81.0</ele><time>2026-05-01T09:08:12.001Z</time></trkpt><trkpt lat="41.22713368341825" lon="9.385435136284523"><ele>81.0</ele><time>2026-05-01T09:08:13.001Z</time></trkpt><trkpt lat="41.22725745056168" lon="9.385497960366669"><ele>81.0</ele><time>2026-05-01T09:08:14.001Z</time></trkpt><trkpt lat="41.22736378133692" lon="9.385546578838891"><ele>80.0</ele><time>2026-05-01T09:08:15.001Z</time></trkpt><trkpt lat="41.22749188692875" lon="9.385564929897116"><ele>79.0</ele><time>2026-05-01T09:08:16.001Z</time></trkpt><trkpt lat="41.22763889730016" lon="9.385548179722756"><ele>78.0</ele><time>2026-05-01T09:08:17.001Z</time></trkpt><trkpt lat="41.227793217339624" lon="9.38549987076611"><ele>77.0</ele><time>2026-05-01T09:08:18.001Z</time></trkpt><trkpt lat="41.22796192306113" lon="9.385430298960532"><ele>77.0</ele><time>2026-05-01T09:08:19.001Z</time></trkpt><trkpt lat="41.228122632394026" lon="9.38535684661211"><ele>77.0</ele><time>2026-05-01T09:08:20.001Z</time></trkpt><trkpt lat="41.22827603599521" lon="9.38529510666857"><ele>77.0</ele><time>2026-05-01T09:08:21.001Z</time></trkpt><trkpt lat="41.22841659085475" lon="9.385258344055886"><ele>79.33333333333334</ele><time>2026-05-01T09:08:22.001Z</time></trkpt><trkpt lat="41.228566096136525" lon="9.385238872394664"><ele>81.66666666666667</ele><time>2026-05-01T09:08:23.001Z</time></trkpt><trkpt lat="41.228727454884634" lon="9.38523239069873"><ele>84.0</ele><time>2026-05-01T09:08:24.001Z</time></trkpt><trkpt lat="41.22889837649423" lon="9.385228220259192"><ele>85.33333333333333</ele><time>2026-05-01T09:08:25.001Z</time></trkpt><trkpt lat="41.229061326305384" lon="9.385225200174707"><ele>86.66666666666666</ele><time>2026-05-01T09:08:26.001Z</time></trkpt><trkpt lat="41.229218118963345" lon="9.3852226399608"><ele>88.0</ele><time>2026-05-01T09:08:27.001Z</time></trkpt><trkpt lat="41.22936053350611" lon="9.385220806402266"><ele>88.0</ele><time>2026-05-01T09:08:28.001Z</time></trkpt><trkpt lat="41.22949311795587" lon="9.385220977079"><ele>88.0</ele><time>2026-05-01T09:08:29.001Z</time></trkpt><trkpt lat="41.229625493192486" lon="9.385228501888518"><ele>88.0</ele><time>2026-05-01T09:08:30.001Z</time></trkpt><trkpt lat="41.22974941991432" lon="9.385254147225037"><ele>88.0</ele><time>2026-05-01T09:08:31.001Z</time></trkpt><trkpt lat="41.229867251738426" lon="9.385317427979098"><ele>88.0</ele><time>2026-05-01T09:08:32.001Z</time></trkpt><trkpt lat="41.22997168157365" lon="9.385428436294996"><ele>88.0</ele><time>2026-05-01T09:08:33.001Z</time></trkpt><trkpt lat="41.23003023190792" lon="9.385597789314778"><ele>88.0</ele><time>2026-05-01T09:08:34.001Z</time></trkpt><trkpt lat="41.23009718704396" lon="9.385795766591002"><ele>88.0</ele><time>2026-05-01T09:08:35.001Z</time></trkpt><trkpt lat="41.23016278405767" lon="9.38601962888234"><ele>91.0</ele><time>2026-05-01T09:08:36.001Z</time></trkpt><trkpt lat="41.230203944909746" lon="9.386199857697974"><ele>94.0</ele><time>2026-05-01T09:08:37.001Z</time></trkpt><trkpt lat="41.230225634107484" lon="9.38639733933847"><ele>97.0</ele><time>2026-05-01T09:08:38.001Z</time></trkpt><trkpt lat="41.23024402810704" lon="9.386572628488992"><ele>100.0</ele><time>2026-05-01T09:08:39.001Z</time></trkpt><trkpt lat="41.230225592912156" lon="9.386742213947326"><ele>100.75</ele><time>2026-05-01T09:08:40.001Z</time></trkpt><trkpt lat="41.230187590275115" lon="9.3868936944874"><ele>101.5</ele><time>2026-05-01T09:08:41.001Z</time></trkpt><trkpt lat="41.23013322639029" lon="9.38703979931026"><ele>102.25</ele><time>2026-05-01T09:08:42.001Z</time></trkpt><trkpt lat="41.230074805921625" lon="9.387171505861605"><ele>103.0</ele><time>2026-05-01T09:08:43.001Z</time></trkpt><trkpt lat="41.230010872102724" lon="9.387306138884744"><ele>103.25</ele><time>2026-05-01T09:08:44.001Z</time></trkpt><trkpt lat="41.22992558116972" lon="9.387423857654873"><ele>103.5</ele><time>2026-05-01T09:08:45.001Z</time></trkpt><trkpt lat="41.229818313238994" lon="9.387512173328147"><ele>103.75</ele><time>2026-05-01T09:08:46.001Z</time></trkpt><trkpt lat="41.2297088309727" lon="9.38755515115811"><ele>104.0</ele><time>2026-05-01T09:08:47.001Z</time></trkpt><trkpt lat="41.22961342772703" lon="9.387581268043297"><ele>105.33333333333333</ele><time>2026-05-01T09:08:48.001Z</time></trkpt><trkpt lat="41.229516235346495" lon="9.3876213656016"><ele>106.66666666666666</ele><time>2026-05-01T09:08:49.001Z</time></trkpt><trkpt lat="41.22942743561314" lon="9.387627397251766"><ele>108.0</ele><time>2026-05-01T09:08:50.001Z</time></trkpt><trkpt lat="41.229349636545344" lon="9.387648835811314"><ele>109.33333333333334</ele><time>2026-05-01T09:08:51.001Z</time></trkpt><trkpt lat="41.22927337540616" lon="9.387669815246232"><ele>110.66666666666667</ele><time>2026-05-01T09:08:52.001Z</time></trkpt><trkpt lat="41.22918375133629" lon="9.387698510513108"><ele>112.0</ele><time>2026-05-01T09:08:54.002Z</time></trkpt><trkpt lat="41.22909525810405" lon="9.38774166638822"><ele>112.0</ele><time>2026-05-01T09:11:27.001Z</time></trkpt><trkpt lat="41.22901987631641" lon="9.387789648983675"><ele>111.99999999999999</ele><time>2026-05-01T09:11:28.001Z</time></trkpt><trkpt lat="41.22894618294265" lon="9.3878547635461"><ele>111.99999999999999</ele><time>2026-05-01T09:11:29.001Z</time></trkpt><trkpt lat="41.228856381396035" lon="9.387947276966312"><ele>112.0</ele><time>2026-05-01T09:11:30.001Z</time></trkpt><trkpt lat="41.228768417758026" lon="9.388059970621104"><ele>112.0</ele><time>2026-05-01T09:11:31.001Z</time></trkpt><trkpt lat="41.228690667719405" lon="9.388192013447014"><ele>113.0</ele><time>2026-05-01T09:11:32.001Z</time></trkpt><trkpt lat="41.228580881486614" lon="9.388295116255797"><ele>114.0</ele><time>2026-05-01T09:11:33.001Z</time></trkpt><trkpt lat="41.228467390701006" lon="9.388375326616503"><ele>115.0</ele><time>2026-05-01T09:11:34.001Z</time></trkpt><trkpt lat="41.22835802877939" lon="9.388445175334335"><ele>116.0</ele><time>2026-05-01T09:11:35.001Z</time></trkpt><trkpt lat="41.228234882978846" lon="9.38850337842662"><ele>117.0</ele><time>2026-05-01T09:11:36.001Z</time></trkpt><trkpt lat="41.22813714546255" lon="9.388602111054666"><ele>118.0</ele><time>2026-05-01T09:11:37.001Z</time></trkpt><trkpt lat="41.22805681514625" lon="9.38872870000069"><ele>119.0</ele><time>2026-05-01T09:11:38.001Z</time></trkpt><trkpt lat="41.228000010996716" lon="9.388896076021082"><ele>120.0</ele><time>2026-05-01T09:11:39.001Z</time></trkpt><trkpt lat="41.22797648130011" lon="9.389107352086237"><ele>120.0</ele><time>2026-05-01T09:11:40.001Z</time></trkpt><trkpt lat="41.22796006853645" lon="9.389306325988278"><ele>120.0</ele><time>2026-05-01T09:11:41.001Z</time></trkpt><trkpt lat="41.2279432511704" lon="9.389480401284812"><ele>120.0</ele><time>2026-05-01T09:11:42.001Z</time></trkpt><trkpt lat="41.22791899078671" lon="9.389635049071273"><ele>120.0</ele><time>2026-05-01T09:11:43.001Z</time></trkpt><trkpt lat="41.22786706920031" lon="9.38978209757879"><ele>117.0</ele><time>2026-05-01T09:11:44.001Z</time></trkpt><trkpt lat="41.2277785900052" lon="9.389925514245348"><ele>114.0</ele><time>2026-05-01T09:11:45.001Z</time></trkpt><trkpt lat="41.227672272186915" lon="9.390090741472454"><ele>111.0</ele><time>2026-05-01T09:11:46.001Z</time></trkpt><trkpt lat="41.227549447969864" lon="9.390274929951516"><ele>111.0</ele><time>2026-05-01T09:11:47.001Z</time></trkpt><trkpt lat="41.22743081039559" lon="9.390483933039127"><ele>111.0</ele><time>2026-05-01T09:11:48.001Z</time></trkpt><trkpt lat="41.22729735840976" lon="9.390655083706621"><ele>111.0</ele><time>2026-05-01T09:11:49.001Z</time></trkpt><trkpt lat="41.22718691516678" lon="9.390821665374908"><ele>111.5</ele><time>2026-05-01T09:11:50.001Z</time></trkpt><trkpt lat="41.227097846267824" lon="9.39097214701181"><ele>112.0</ele><time>2026-05-01T09:11:51.001Z</time></trkpt><trkpt lat="41.2269907738272" lon="9.391067837553804"><ele>112.5</ele><time>2026-05-01T09:11:52.001Z</time></trkpt><trkpt lat="41.2268753340051" lon="9.391137996281667"><ele>113.0</ele><time>2026-05-01T09:11:53.001Z</time></trkpt><trkpt lat="41.22676564729312" lon="9.391173068933568"><ele>113.0</ele><time>2026-05-01T09:11:54.001Z</time></trkpt><trkpt lat="41.22664440462361" lon="9.391177467587937"><ele>113.0</ele><time>2026-05-01T09:11:55.001Z</time></trkpt><trkpt lat="41.22651124127161" lon="9.39115692524758"><ele>113.0</ele><time>2026-05-01T09:11:56.001Z</time></trkpt><trkpt lat="41.22636859386475" lon="9.39113832804831"><ele>113.0</ele><time>2026-05-01T09:11:57.001Z</time></trkpt><trkpt lat="41.22622078244852" lon="9.391120336800284"><ele>115.33333333333333</ele><time>2026-05-01T09:11:58.001Z</time></trkpt><trkpt lat="41.22606624064972" lon="9.391099466293383"><ele>117.66666666666666</ele><time>2026-05-01T09:11:59.001Z</time></trkpt><trkpt lat="41.225905405863685" lon="9.391082725276485"><ele>120.0</ele><time>2026-05-01T09:12:00.001Z</time></trkpt><trkpt lat="41.2257363617516" lon="9.391082492659232"><ele>122.0</ele><time>2026-05-01T09:12:01.001Z</time></trkpt><trkpt lat="41.22557039997073" lon="9.391116962770475"><ele>124.0</ele><time>2026-05-01T09:12:02.001Z</time></trkpt><trkpt lat="41.22540886544416" lon="9.39118894185532"><ele>126.0</ele><time>2026-05-01T09:12:03.001Z</time></trkpt><trkpt lat="41.22525114083807" lon="9.391299501571506"><ele>123.66666666666666</ele><time>2026-05-01T09:12:04.001Z</time></trkpt><trkpt lat="41.225102717621354" lon="9.391436538275485"><ele>121.33333333333333</ele><time>2026-05-01T09:12:05.001Z</time></trkpt><trkpt lat="41.22498523292349" lon="9.391571379564224"><ele>119.0</ele><time>2026-05-01T09:12:06.001Z</time></trkpt><trkpt lat="41.224880710171945" lon="9.39172495023089"><ele>119.0</ele><time>2026-05-01T09:12:07.001Z</time></trkpt><trkpt lat="41.22476928346962" lon="9.391895885525056"><ele>119.0</ele><time>2026-05-01T09:12:08.001Z</time></trkpt><trkpt lat="41.22464151698363" lon="9.392056241448886"><ele>119.0</ele><time>2026-05-01T09:12:09.001Z</time></trkpt><trkpt lat="41.224508454025" lon="9.392182610920626"><ele>118.5</ele><time>2026-05-01T09:12:10.001Z</time></trkpt><trkpt lat="41.224384094799746" lon="9.392302576837324"><ele>118.0</ele><time>2026-05-01T09:12:11.001Z</time></trkpt><trkpt lat="41.224277371237186" lon="9.392429291486408"><ele>117.5</ele><time>2026-05-01T09:12:12.001Z</time></trkpt><trkpt lat="41.22417830921272" lon="9.39254995940478"><ele>117.0</ele><time>2026-05-01T09:12:13.001Z</time></trkpt><trkpt lat="41.22410935921137" lon="9.392711628740582"><ele>117.0</ele><time>2026-05-01T09:12:14.001Z</time></trkpt><trkpt lat="41.22406978431167" lon="9.392885077104737"><ele>117.0</ele><time>2026-05-01T09:12:15.001Z</time></trkpt><trkpt lat="41.22405799850712" lon="9.39307214406611"><ele>117.0</ele><time>2026-05-01T09:12:16.001Z</time></trkpt><trkpt lat="41.22408430333338" lon="9.393270905232878"><ele>117.0</ele><time>2026-05-01T09:12:17.001Z</time></trkpt><trkpt lat="41.22415417118876" lon="9.393464877369086"><ele>118.0</ele><time>2026-05-01T09:12:18.001Z</time></trkpt><trkpt lat="41.224186648411795" lon="9.393645304689535"><ele>119.0</ele><time>2026-05-01T09:12:19.001Z</time></trkpt><trkpt lat="41.22421737189301" lon="9.393794924882018"><ele>120.0</ele><time>2026-05-01T09:12:20.001Z</time></trkpt><trkpt lat="41.22419647346007" lon="9.393939611214968"><ele>121.0</ele><time>2026-05-01T09:12:21.001Z</time></trkpt><trkpt lat="41.22414082237283" lon="9.394055340760703"><ele>123.25</ele><time>2026-05-01T09:12:22.001Z</time></trkpt><trkpt lat="41.22404650542774" lon="9.394143002926743"><ele>125.5</ele><time>2026-05-01T09:12:23.001Z</time></trkpt><trkpt lat="41.223920570273485" lon="9.39421322473816"><ele>127.75</ele><time>2026-05-01T09:12:24.001Z</time></trkpt><trkpt lat="41.22377082601854" lon="9.39428592450162"><ele>130.0</ele><time>2026-05-01T09:12:25.001Z</time></trkpt><trkpt lat="41.22360332354261" lon="9.39436487824146"><ele>131.66666666666669</ele><time>2026-05-01T09:12:26.001Z</time></trkpt><trkpt lat="41.22342321582702" lon="9.394450427918377"><ele>133.33333333333334</ele><time>2026-05-01T09:12:27.001Z</time></trkpt><trkpt lat="41.223235006042884" lon="9.394535315766458"><ele>135.0</ele><time>2026-05-01T09:12:28.001Z</time></trkpt><trkpt lat="41.223074313679405" lon="9.394606096779826"><ele>134.75</ele><time>2026-05-01T09:12:29.001Z</time></trkpt><trkpt lat="41.22293382035301" lon="9.394678195382548"><ele>134.5</ele><time>2026-05-01T09:12:30.001Z</time></trkpt><trkpt lat="41.22281081262258" lon="9.394763862499167"><ele>134.25</ele><time>2026-05-01T09:12:31.001Z</time></trkpt><trkpt lat="41.2227035727904" lon="9.394871035632473"><ele>134.0</ele><time>2026-05-01T09:12:32.001Z</time></trkpt><trkpt lat="41.222607489910985" lon="9.394997766518339"><ele>134.0</ele><time>2026-05-01T09:12:33.001Z</time></trkpt><trkpt lat="41.222514112110815" lon="9.395127311869286"><ele>134.0</ele><time>2026-05-01T09:12:34.001Z</time></trkpt><trkpt lat="41.22245736678036" lon="9.395281919202056"><ele>134.0</ele><time>2026-05-01T09:12:35.001Z</time></trkpt><trkpt lat="41.22242699386275" lon="9.395446675328321"><ele>134.0</ele><time>2026-05-01T09:12:36.001Z</time></trkpt><trkpt lat="41.222417284627525" lon="9.395603225472374"><ele>133.75</ele><time>2026-05-01T09:12:37.001Z</time></trkpt><trkpt lat="41.222434274716754" lon="9.395765518507675"><ele>133.5</ele><time>2026-05-01T09:12:38.001Z</time></trkpt><trkpt lat="41.22249242825315" lon="9.395919225122134"><ele>133.25</ele><time>2026-05-01T09:12:39.001Z</time></trkpt><trkpt lat="41.22254627289109" lon="9.396080521384787"><ele>133.0</ele><time>2026-05-01T09:12:40.001Z</time></trkpt><trkpt lat="41.22260789044892" lon="9.396255231807828"><ele>130.66666666666669</ele><time>2026-05-01T09:12:41.001Z</time></trkpt><trkpt lat="41.222671397726984" lon="9.396457587603177"><ele>128.33333333333334</ele><time>2026-05-01T09:12:42.001Z</time></trkpt><trkpt lat="41.22271404796665" lon="9.396677606029897"><ele>126.0</ele><time>2026-05-01T09:12:43.001Z</time></trkpt><trkpt lat="41.22271524617718" lon="9.396909312629965"><ele>126.0</ele><time>2026-05-01T09:12:44.001Z</time></trkpt><trkpt lat="41.22271494993727" lon="9.397116291768658"><ele>126.0</ele><time>2026-05-01T09:12:45.001Z</time></trkpt><trkpt lat="41.22272695243331" lon="9.397303824656472"><ele>126.0</ele><time>2026-05-01T09:12:46.001Z</time></trkpt><trkpt lat="41.22269953007557" lon="9.397482613595175"><ele>126.0</ele><time>2026-05-01T09:12:47.001Z</time></trkpt><trkpt lat="41.22264164250355" lon="9.397639696683155"><ele>126.0</ele><time>2026-05-01T09:12:48.001Z</time></trkpt><trkpt lat="41.22255687504725" lon="9.397764065868154"><ele>126.0</ele><time>2026-05-01T09:12:49.001Z</time></trkpt><trkpt lat="41.22244956587007" lon="9.397844835924781"><ele>126.0</ele><time>2026-05-01T09:12:50.001Z</time></trkpt><trkpt lat="41.222334445754434" lon="9.397880804408333"><ele>126.0</ele><time>2026-05-01T09:12:51.001Z</time></trkpt><trkpt lat="41.22221314470663" lon="9.397871497272074"><ele>124.66666666666666</ele><time>2026-05-01T09:12:52.001Z</time></trkpt><trkpt lat="41.22206672133862" lon="9.397875373317897"><ele>123.33333333333333</ele><time>2026-05-01T09:12:53.001Z</time></trkpt><trkpt lat="41.22191239161078" lon="9.39789116900362"><ele>122.0</ele><time>2026-05-01T09:12:54.001Z</time></trkpt><trkpt lat="41.22174890584531" lon="9.397890291240284"><ele>122.0</ele><time>2026-05-01T09:12:55.001Z</time></trkpt><trkpt lat="41.22159097491745" lon="9.397892384148328"><ele>122.0</ele><time>2026-05-01T09:12:56.001Z</time></trkpt><trkpt lat="41.221448163548416" lon="9.397893217119062"><ele>122.0</ele><time>2026-05-01T09:12:57.001Z</time></trkpt><trkpt lat="41.22131462160725" lon="9.397908399538977"><ele>122.0</ele><time>2026-05-01T09:12:58.001Z</time></trkpt><trkpt lat="41.221189039356744" lon="9.39794590276565"><ele>123.0</ele><time>2026-05-01T09:12:59.001Z</time></trkpt><trkpt lat="41.2210667965565" lon="9.398016789101563"><ele>124.0</ele><time>2026-05-01T09:13:00.001Z</time></trkpt><trkpt lat="41.22094711085325" lon="9.398117856093515"><ele>125.0</ele><time>2026-05-01T09:13:01.001Z</time></trkpt><trkpt lat="41.22082673713787" lon="9.398235602570951"><ele>126.0</ele><time>2026-05-01T09:13:02.001Z</time></trkpt><trkpt lat="41.22069567224133" lon="9.39836423035334"><ele>122.66666666666666</ele><time>2026-05-01T09:13:03.001Z</time></trkpt><trkpt lat="41.22059210341858" lon="9.398542964464625"><ele>119.33333333333333</ele><time>2026-05-01T09:13:04.001Z</time></trkpt><trkpt lat="41.22051358161689" lon="9.398743762001095"><ele>116.0</ele><time>2026-05-01T09:13:05.001Z</time></trkpt><trkpt lat="41.220424769969206" lon="9.39890229424477"><ele>116.0</ele><time>2026-05-01T09:13:06.001Z</time></trkpt><trkpt lat="41.22037220802973" lon="9.399071018018864"><ele>116.0</ele><time>2026-05-01T09:13:07.001Z</time></trkpt><trkpt lat="41.22034538616476" lon="9.399249556811553"><ele>116.0</ele><time>2026-05-01T09:13:08.001Z</time></trkpt><trkpt lat="41.2203405662224" lon="9.3994372361527"><ele>116.0</ele><time>2026-05-01T09:13:09.001Z</time></trkpt><trkpt lat="41.22037314909149" lon="9.399612260118378"><ele>115.0</ele><time>2026-05-01T09:13:10.001Z</time></trkpt><trkpt lat="41.220402949967486" lon="9.399771291862727"><ele>114.0</ele><time>2026-05-01T09:13:11.001Z</time></trkpt><trkpt lat="41.220451434510444" lon="9.399910321043667"><ele>113.0</ele><time>2026-05-01T09:13:12.001Z</time></trkpt><trkpt lat="41.220518166526205" lon="9.400032715262231"><ele>112.0</ele><time>2026-05-01T09:13:13.001Z</time></trkpt><trkpt lat="41.220591002712" lon="9.40013621205657"><ele>114.6</ele><time>2026-05-01T09:13:14.001Z</time></trkpt><trkpt lat="41.220664092241094" lon="9.400223328253722"><ele>117.19999999999999</ele><time>2026-05-01T09:13:15.001Z</time></trkpt><trkpt lat="41.22073919094964" lon="9.400301494846657"><ele>119.8</ele><time>2026-05-01T09:13:16.001Z</time></trkpt><trkpt lat="41.22082750723667" lon="9.400367034923766"><ele>122.4</ele><time>2026-05-01T09:13:17.001Z</time></trkpt><trkpt lat="41.220926787387796" lon="9.400416258085162"><ele>125.0</ele><time>2026-05-01T09:13:18.001Z</time></trkpt><trkpt lat="41.221042984540915" lon="9.400450514452523"><ele>125.0</ele><time>2026-05-01T09:13:19Z</time></trkpt><trkpt lat="41.221175423657726" lon="9.400475657396159"><ele>125.0</ele><time>2026-05-01T09:13:20Z</time></trkpt><trkpt lat="41.221306481860104" lon="9.400499672933954"><ele>125.0</ele><time>2026-05-01T09:13:21Z</time></trkpt><trkpt lat="41.22142537221636" lon="9.400531141097199"><ele>125.0</ele><time>2026-05-01T09:13:22Z</time></trkpt><trkpt lat="41.22152804177772" lon="9.400561271386215"><ele>123.4</ele><time>2026-05-01T09:13:23Z</time></trkpt><trkpt lat="41.221614728595846" lon="9.400579137670245"><ele>121.8</ele><time>2026-05-01T09:13:24Z</time></trkpt><trkpt lat="41.22168249443183" lon="9.400592235862606"><ele>120.19999999999999</ele><time>2026-05-01T09:13:25Z</time></trkpt><trkpt lat="41.22177289052716" lon="9.400649668367109"><ele>118.6</ele><time>2026-05-01T09:13:27Z</time></trkpt><trkpt lat="41.221933975357395" lon="9.400563389258922"><ele>117.0</ele><time>2026-05-01T09:13:29Z</time></trkpt><trkpt lat="41.22202712823108" lon="9.400529622690561"><ele>117.0</ele><time>2026-05-01T09:13:30Z</time></trkpt><trkpt lat="41.222118255203135" lon="9.40053515488208"><ele>116.99999999999999</ele><time>2026-05-01T09:13:31Z</time></trkpt><trkpt lat="41.22219480290009" lon="9.400579932124366"><ele>116.99999999999999</ele><time>2026-05-01T09:13:32Z</time></trkpt><trkpt lat="41.22228336006435" lon="9.40066900487621"><ele>117.0</ele><time>2026-05-01T09:13:33Z</time></trkpt><trkpt lat="41.22236445315154" lon="9.40078246936828"><ele>117.0</ele><time>2026-05-01T09:13:34Z</time></trkpt><trkpt lat="41.2224201658207" lon="9.400919416877306"><ele>118.75</ele><time>2026-05-01T09:13:35Z</time></trkpt><trkpt lat="41.22245350196557" lon="9.401083907535734"><ele>120.5</ele><time>2026-05-01T09:13:36Z</time></trkpt><trkpt lat="41.2224477834392" lon="9.401265404948553"><ele>122.25</ele><time>2026-05-01T09:13:37Z</time></trkpt><trkpt lat="41.22247780908179" lon="9.401428214826744"><ele>124.0</ele><time>2026-05-01T09:13:38Z</time></trkpt><trkpt lat="41.22255032443459" lon="9.401591188247144"><ele>124.0</ele><time>2026-05-01T09:13:39Z</time></trkpt><trkpt lat="41.22263555559816" lon="9.401748995081228"><ele>124.0</ele><time>2026-05-01T09:13:40Z</time></trkpt><trkpt lat="41.2226870564548" lon="9.401919151148444"><ele>124.0</ele><time>2026-05-01T09:13:41Z</time></trkpt><trkpt lat="41.22273247238658" lon="9.402072905748115"><ele>124.0</ele><time>2026-05-01T09:13:42Z</time></trkpt><trkpt lat="41.222778722994136" lon="9.40220106575063"><ele>124.6</ele><time>2026-05-01T09:13:43Z</time></trkpt><trkpt lat="41.2228208860812" lon="9.402329520379466"><ele>125.2</ele><time>2026-05-01T09:13:44Z</time></trkpt><trkpt lat="41.22290704654563" lon="9.402423836520398"><ele>125.79999999999998</ele><time>2026-05-01T09:13:45Z</time></trkpt><trkpt lat="41.22301268434615" lon="9.40246360277554"><ele>126.39999999999999</ele><time>2026-05-01T09:13:46Z</time></trkpt><trkpt lat="41.223113283901476" lon="9.402438150602991"><ele>127.0</ele><time>2026-05-01T09:13:47Z</time></trkpt><trkpt lat="41.223202807783615" lon="9.402399493283482"><ele>127.19999999999999</ele><time>2026-05-01T09:13:48Z</time></trkpt><trkpt lat="41.22328010993439" lon="9.402335642899185"><ele>127.39999999999999</ele><time>2026-05-01T09:13:49Z</time></trkpt><trkpt lat="41.223346294640365" lon="9.402237223580661"><ele>127.60000000000001</ele><time>2026-05-01T09:13:50Z</time></trkpt><trkpt lat="41.223400504372805" lon="9.402103783948222"><ele>127.80000000000001</ele><time>2026-05-01T09:13:51Z</time></trkpt><trkpt lat="41.22346626399386" lon="9.401961826677288"><ele>128.0</ele><time>2026-05-01T09:13:52Z</time></trkpt><trkpt lat="41.22353313777018" lon="9.401853348638165"><ele>128.8</ele><time>2026-05-01T09:13:53Z</time></trkpt><trkpt lat="41.223599772535486" lon="9.40177011786849"><ele>129.60000000000002</ele><time>2026-05-01T09:13:54Z</time></trkpt><trkpt lat="41.22367221338836" lon="9.401701686866586"><ele>130.39999999999998</ele><time>2026-05-01T09:13:55Z</time></trkpt><trkpt lat="41.22376569288123" lon="9.401663845209624"><ele>131.2</ele><time>2026-05-01T09:13:56Z</time></trkpt><trkpt lat="41.22386537810717" lon="9.401651618175242"><ele>132.0</ele><time>2026-05-01T09:13:57Z</time></trkpt><trkpt lat="41.223995946256665" lon="9.401663017028461"><ele>132.0</ele><time>2026-05-01T09:13:58Z</time></trkpt><trkpt lat="41.22413860128871" lon="9.401709754853377"><ele>132.0</ele><time>2026-05-01T09:13:59Z</time></trkpt><trkpt lat="41.22430180167816" lon="9.401727017442743"><ele>132.0</ele><time>2026-05-01T09:14:00Z</time></trkpt><trkpt lat="41.22448320843995" lon="9.401716738212846"><ele>132.0</ele><time>2026-05-01T09:14:01Z</time></trkpt><trkpt lat="41.224645813093176" lon="9.401681712935758"><ele>132.0</ele><time>2026-05-01T09:14:02Z</time></trkpt><trkpt lat="41.22480787940714" lon="9.401686637923717"><ele>132.0</ele><time>2026-05-01T09:14:03Z</time></trkpt><trkpt lat="41.224979119231094" lon="9.401720696964118"><ele>132.33333333333334</ele><time>2026-05-01T09:14:04Z</time></trkpt><trkpt lat="41.22515647024033" lon="9.401772063102094"><ele>132.66666666666669</ele><time>2026-05-01T09:14:05Z</time></trkpt><trkpt lat="41.225323762117306" lon="9.401827810122697"><ele>133.0</ele><time>2026-05-01T09:14:06.001Z</time></trkpt><trkpt lat="41.225489142144866" lon="9.401879036794563"><ele>133.33333333333334</ele><time>2026-05-01T09:14:07.001Z</time></trkpt><trkpt lat="41.225650902965945" lon="9.401923625505418"><ele>133.66666666666666</ele><time>2026-05-01T09:14:08.001Z</time></trkpt><trkpt lat="41.22580031438041" lon="9.401966885688992"><ele>134.0</ele><time>2026-05-01T09:14:09.001Z</time></trkpt><trkpt lat="41.225938289901826" lon="9.40201119915321"><ele>134.0</ele><time>2026-05-01T09:14:10.001Z</time></trkpt><trkpt lat="41.226069145526004" lon="9.402048773044497"><ele>134.0</ele><time>2026-05-01T09:14:11.001Z</time></trkpt><trkpt lat="41.22619725034979" lon="9.402088332550791"><ele>134.0</ele><time>2026-05-01T09:14:12.001Z</time></trkpt><trkpt lat="41.22630259716933" lon="9.40213887154249"><ele>134.0</ele><time>2026-05-01T09:14:13.001Z</time></trkpt><trkpt lat="41.22638361786513" lon="9.402207642522741"><ele>132.83333333333331</ele><time>2026-05-01T09:14:14.001Z</time></trkpt><trkpt lat="41.22644174067753" lon="9.402302363088207"><ele>131.66666666666666</ele><time>2026-05-01T09:14:15.001Z</time></trkpt><trkpt lat="41.226467641584755" lon="9.402406869851077"><ele>130.5</ele><time>2026-05-01T09:14:16.001Z</time></trkpt><trkpt lat="41.22645887182687" lon="9.402509164364806"><ele>129.33333333333334</ele><time>2026-05-01T09:14:17.001Z</time></trkpt><trkpt lat="41.22642609364877" lon="9.402597899914984"><ele>128.16666666666669</ele><time>2026-05-01T09:14:18.001Z</time></trkpt><trkpt lat="41.226376103647674" lon="9.402682267863545"><ele>127.0</ele><time>2026-05-01T09:14:19.001Z</time></trkpt><trkpt lat="41.226311819753185" lon="9.40274428366935"><ele>127.0</ele><time>2026-05-01T09:14:20.001Z</time></trkpt><trkpt lat="41.226229046175376" lon="9.402789069404719"><ele>126.99999999999999</ele><time>2026-05-01T09:14:21.001Z</time></trkpt><trkpt lat="41.226135820525066" lon="9.402830572716402"><ele>126.99999999999999</ele><time>2026-05-01T09:14:22.001Z</time></trkpt><trkpt lat="41.22603889853907" lon="9.40286637655471"><ele>127.0</ele><time>2026-05-01T09:14:23.001Z</time></trkpt><trkpt lat="41.225943518202975" lon="9.402904838050805"><ele>127.0</ele><time>2026-05-01T09:14:24.001Z</time></trkpt><trkpt lat="41.225855104706525" lon="9.402941210563176"><ele>127.00000000000001</ele><time>2026-05-01T09:14:25.001Z</time></trkpt><trkpt lat="41.22577296756657" lon="9.402976640733241"><ele>127.0</ele><time>2026-05-01T09:14:26.001Z</time></trkpt><trkpt lat="41.22569411491082" lon="9.403004470074265"><ele>127.0</ele><time>2026-05-01T09:14:27.001Z</time></trkpt><trkpt lat="41.22561398921347" lon="9.403029772859997"><ele>127.0</ele><time>2026-05-01T09:14:28.001Z</time></trkpt><trkpt lat="41.22553159898518" lon="9.403056341352611"><ele>127.00000000000001</ele><time>2026-05-01T09:14:29.001Z</time></trkpt><trkpt lat="41.22546443478432" lon="9.403101222253047"><ele>127.0</ele><time>2026-05-01T09:14:30.001Z</time></trkpt><trkpt lat="41.2254037456448" lon="9.403142842686634"><ele>127.39999999999999</ele><time>2026-05-01T09:14:31.001Z</time></trkpt><trkpt lat="41.2253945311572" lon="9.403339277120763"><ele>127.79999999999998</ele><time>2026-05-01T09:14:33.001Z</time></trkpt><trkpt lat="41.22542888845379" lon="9.403432776678084"><ele>128.2</ele><time>2026-05-01T09:14:34.001Z</time></trkpt><trkpt lat="41.22551114438692" lon="9.403468655272036"><ele>128.6</ele><time>2026-05-01T09:14:35.001Z</time></trkpt><trkpt lat="41.225606420157135" lon="9.403504352971659"><ele>129.0</ele><time>2026-05-01T09:14:36.001Z</time></trkpt><trkpt lat="41.225715737670626" lon="9.403535849953897"><ele>129.0</ele><time>2026-05-01T09:14:37.001Z</time></trkpt><trkpt lat="41.22582524641491" lon="9.403567110426401"><ele>129.0</ele><time>2026-05-01T09:14:38.001Z</time></trkpt><trkpt lat="41.22592418253472" lon="9.403599442816043"><ele>129.0</ele><time>2026-05-01T09:14:39.001Z</time></trkpt><trkpt lat="41.2260072723472" lon="9.403657264249043"><ele>129.0</ele><time>2026-05-01T09:14:40.001Z</time></trkpt><trkpt lat="41.226086576298094" lon="9.403697549949783"><ele>129.0</ele><time>2026-05-01T09:14:41.001Z</time></trkpt><trkpt lat="41.22615995448384" lon="9.403741933070942"><ele>128.99999999999997</ele><time>2026-05-01T09:14:42.001Z</time></trkpt><trkpt lat="41.226228680335524" lon="9.403790207325297"><ele>129.0</ele><time>2026-05-01T09:14:43.001Z</time></trkpt><trkpt lat="41.22629907208996" lon="9.403836810747142"><ele>129.0</ele><time>2026-05-01T09:14:44.001Z</time></trkpt><trkpt lat="41.22636650394821" lon="9.403874374505069"><ele>129.0</ele><time>2026-05-01T09:14:45.001Z</time></trkpt><trkpt lat="41.2264338086695" lon="9.403906258348993"><ele>129.0</ele><time>2026-05-01T09:14:46.001Z</time></trkpt><trkpt lat="41.226501736879925" lon="9.403933438317868"><ele>128.99999999999997</ele><time>2026-05-01T09:14:47.001Z</time></trkpt><trkpt lat="41.226573794996234" lon="9.403933841873943"><ele>129.0</ele><time>2026-05-01T09:14:48.001Z</time></trkpt><trkpt lat="41.226657253654714" lon="9.403973941396485"><ele>129.0</ele><time>2026-05-01T09:14:49.001Z</time></trkpt><trkpt lat="41.22676019997879" lon="9.403997005874203"><ele>129.0</ele><time>2026-05-01T09:14:50.001Z</time></trkpt><trkpt lat="41.22687941571533" lon="9.404021914626885"><ele>129.0</ele><time>2026-05-01T09:14:51.001Z</time></trkpt><trkpt lat="41.22701728283823" lon="9.404029898322433"><ele>129.0</ele><time>2026-05-01T09:14:52.001Z</time></trkpt><trkpt lat="41.22715063643799" lon="9.40406175981857"><ele>129.0</ele><time>2026-05-01T09:14:53.001Z</time></trkpt><trkpt lat="41.227294531694476" lon="9.404091313719876"><ele>129.0</ele><time>2026-05-01T09:14:54.001Z</time></trkpt><trkpt lat="41.22743553934481" lon="9.404152920430406"><ele>129.0</ele><time>2026-05-01T09:14:55.001Z</time></trkpt><trkpt lat="41.22757853487639" lon="9.404209133345226"><ele>129.0</ele><time>2026-05-01T09:14:56.001Z</time></trkpt><trkpt lat="41.22772574649277" lon="9.404254504313702"><ele>129.5</ele><time>2026-05-01T09:14:57.001Z</time></trkpt><trkpt lat="41.22786001535608" lon="9.40431917501965"><ele>130.0</ele><time>2026-05-01T09:14:58.001Z</time></trkpt><trkpt lat="41.227987685290245" lon="9.404377748580544"><ele>130.5</ele><time>2026-05-01T09:14:59.001Z</time></trkpt><trkpt lat="41.22811009495109" lon="9.40443459045251"><ele>131.0</ele><time>2026-05-01T09:15:00.001Z</time></trkpt><trkpt lat="41.228228427172795" lon="9.404488501677227"><ele>131.5</ele><time>2026-05-01T09:15:01.001Z</time></trkpt><trkpt lat="41.22834213401696" lon="9.404538615719396"><ele>132.0</ele><time>2026-05-01T09:15:02.001Z</time></trkpt><trkpt lat="41.22845695390303" lon="9.404586102253388"><ele>132.5</ele><time>2026-05-01T09:15:03.001Z</time></trkpt><trkpt lat="41.228578219993466" lon="9.404613168936873"><ele>133.0</ele><time>2026-05-01T09:15:04.001Z</time></trkpt><trkpt lat="41.228699039419055" lon="9.404630420018723"><ele>133.0</ele><time>2026-05-01T09:15:05.001Z</time></trkpt><trkpt lat="41.228824304222705" lon="9.404642603137914"><ele>133.0</ele><time>2026-05-01T09:15:06.001Z</time></trkpt><trkpt lat="41.22895141629581" lon="9.404653066163135"><ele>133.0</ele><time>2026-05-01T09:15:07.001Z</time></trkpt><trkpt lat="41.22908085091969" lon="9.404663512160194"><ele>133.0</ele><time>2026-05-01T09:15:08.001Z</time></trkpt><trkpt lat="41.22920577053965" lon="9.40468736211037"><ele>129.25</ele><time>2026-05-01T09:15:09.001Z</time></trkpt><trkpt lat="41.229330356820434" lon="9.404727177543485"><ele>125.5</ele><time>2026-05-01T09:15:10.001Z</time></trkpt><trkpt lat="41.229460900527805" lon="9.40477256630099"><ele>121.75</ele><time>2026-05-01T09:15:11.001Z</time></trkpt><trkpt lat="41.22959900838447" lon="9.40480744381558"><ele>118.0</ele><time>2026-05-01T09:15:12.001Z</time></trkpt><trkpt lat="41.229749573934654" lon="9.404822482986804"><ele>116.0</ele><time>2026-05-01T09:15:13.001Z</time></trkpt><trkpt lat="41.22989926791722" lon="9.404817501004569"><ele>114.0</ele><time>2026-05-01T09:15:14.001Z</time></trkpt><trkpt lat="41.23004364084102" lon="9.404810210773652"><ele>112.0</ele><time>2026-05-01T09:15:15Z</time></trkpt><trkpt lat="41.23018939537988" lon="9.40481370026899"><ele>110.0</ele><time>2026-05-01T09:15:16Z</time></trkpt><trkpt lat="41.23033403713066" lon="9.40483590584138"><ele>110.0</ele><time>2026-05-01T09:15:17Z</time></trkpt><trkpt lat="41.23047975994684" lon="9.404883037482325"><ele>110.0</ele><time>2026-05-01T09:15:18Z</time></trkpt><trkpt lat="41.230612616753774" lon="9.404937193826587"><ele>110.0</ele><time>2026-05-01T09:15:19Z</time></trkpt><trkpt lat="41.230739841246844" lon="9.40498805468293"><ele>110.0</ele><time>2026-05-01T09:15:20Z</time></trkpt><trkpt lat="41.230859282035276" lon="9.405036441445189"><ele>109.2</ele><time>2026-05-01T09:15:21Z</time></trkpt><trkpt lat="41.230975097898025" lon="9.405082650069012"><ele>108.4</ele><time>2026-05-01T09:15:22Z</time></trkpt><trkpt lat="41.23108556900582" lon="9.405128256982445"><ele>107.6</ele><time>2026-05-01T09:15:23Z</time></trkpt><trkpt lat="41.2311865353353" lon="9.405179086543692"><ele>106.8</ele><time>2026-05-01T09:15:24Z</time></trkpt><trkpt lat="41.23127325613799" lon="9.40524093312432"><ele>106.0</ele><time>2026-05-01T09:15:25Z</time></trkpt><trkpt lat="41.231349991167846" lon="9.405322023473182"><ele>106.0</ele><time>2026-05-01T09:15:26Z</time></trkpt><trkpt lat="41.231421930718966" lon="9.405420158586516"><ele>106.0</ele><time>2026-05-01T09:15:27Z</time></trkpt><trkpt lat="41.231485798108125" lon="9.40553318019883"><ele>106.0</ele><time>2026-05-01T09:15:28Z</time></trkpt><trkpt lat="41.231553542392234" lon="9.40565322026947"><ele>106.0</ele><time>2026-05-01T09:15:29Z</time></trkpt><trkpt lat="41.23163062726188" lon="9.40577984047734"><ele>106.0</ele><time>2026-05-01T09:15:30Z</time></trkpt><trkpt lat="41.231714048965735" lon="9.405912788757101"><ele>105.66666666666667</ele><time>2026-05-01T09:15:31Z</time></trkpt><trkpt lat="41.23179931625141" lon="9.406055017706084"><ele>105.33333333333334</ele><time>2026-05-01T09:15:32Z</time></trkpt><trkpt lat="41.23187998934225" lon="9.406222670632319"><ele>105.0</ele><time>2026-05-01T09:15:33Z</time></trkpt><trkpt lat="41.23199048366248" lon="9.406383101597953"><ele>104.0</ele><time>2026-05-01T09:15:34Z</time></trkpt><trkpt lat="41.23211072197297" lon="9.406533344734244"><ele>103.0</ele><time>2026-05-01T09:15:35Z</time></trkpt><trkpt lat="41.232232233320794" lon="9.406672434565936"><ele>102.0</ele><time>2026-05-01T09:15:36Z</time></trkpt><trkpt lat="41.23235599991598" lon="9.406817059888429"><ele>102.25</ele><time>2026-05-01T09:15:37Z</time></trkpt><trkpt lat="41.23247056521336" lon="9.406950002897197"><ele>102.5</ele><time>2026-05-01T09:15:38Z</time></trkpt><trkpt lat="41.23257726097035" lon="9.40707285572285"><ele>102.75</ele><time>2026-05-01T09:15:39Z</time></trkpt><trkpt lat="41.23268339193846" lon="9.407176522800944"><ele>103.0</ele><time>2026-05-01T09:15:40Z</time></trkpt><trkpt lat="41.23277623436355" lon="9.40731149664164"><ele>103.0</ele><time>2026-05-01T09:15:41Z</time></trkpt><trkpt lat="41.2328594537282" lon="9.407470402637"><ele>103.0</ele><time>2026-05-01T09:15:42Z</time></trkpt><trkpt lat="41.23293143944159" lon="9.407649044873963"><ele>103.0</ele><time>2026-05-01T09:15:43Z</time></trkpt><trkpt lat="41.23302819169298" lon="9.407805858342336"><ele>103.0</ele><time>2026-05-01T09:15:44Z</time></trkpt><trkpt lat="41.233137458999984" lon="9.407941385850544"><ele>103.0</ele><time>2026-05-01T09:15:45Z</time></trkpt><trkpt lat="41.233250570554425" lon="9.408036511842287"><ele>103.0</ele><time>2026-05-01T09:15:46Z</time></trkpt><trkpt lat="41.23332717303947" lon="9.408140700581551"><ele>103.0</ele><time>2026-05-01T09:15:47Z</time></trkpt><trkpt lat="41.23339591400773" lon="9.40824674116761"><ele>102.0</ele><time>2026-05-01T09:15:48Z</time></trkpt><trkpt lat="41.23345633879732" lon="9.408343808110985"><ele>101.0</ele><time>2026-05-01T09:15:49Z</time></trkpt><trkpt lat="41.233513021217554" lon="9.40844100366364"><ele>100.0</ele><time>2026-05-01T09:15:50Z</time></trkpt><trkpt lat="41.233576216064456" lon="9.40852974084734"><ele>99.0</ele><time>2026-05-01T09:15:51Z</time></trkpt><trkpt lat="41.23365209153114" lon="9.408612170954994"><ele>98.0</ele><time>2026-05-01T09:15:52Z</time></trkpt><trkpt lat="41.233768373395925" lon="9.408660832125049"><ele>98.0</ele><time>2026-05-01T09:15:53Z</time></trkpt><trkpt lat="41.233892907850105" lon="9.408694906052435"><ele>98.0</ele><time>2026-05-01T09:15:54Z</time></trkpt><trkpt lat="41.23401389794147" lon="9.408715544393218"><ele>98.0</ele><time>2026-05-01T09:15:55Z</time></trkpt><trkpt lat="41.23412722951291" lon="9.408782788304396"><ele>98.0</ele><time>2026-05-01T09:15:56Z</time></trkpt><trkpt lat="41.23424061100792" lon="9.408866126081662"><ele>96.75</ele><time>2026-05-01T09:15:57Z</time></trkpt><trkpt lat="41.234342791794035" lon="9.408961643635461"><ele>95.5</ele><time>2026-05-01T09:15:58Z</time></trkpt><trkpt lat="41.23443741866571" lon="9.40906011700247"><ele>94.25</ele><time>2026-05-01T09:15:59Z</time></trkpt><trkpt lat="41.234527977912045" lon="9.409155725802473"><ele>93.0</ele><time>2026-05-01T09:16:00Z</time></trkpt><trkpt lat="41.23462263337806" lon="9.409259527691757"><ele>93.0</ele><time>2026-05-01T09:16:01Z</time></trkpt><trkpt lat="41.234704227036175" lon="9.409377657247873"><ele>93.0</ele><time>2026-05-01T09:16:02Z</time></trkpt><trkpt lat="41.23477809753988" lon="9.409501554617396"><ele>93.0</ele><time>2026-05-01T09:16:03Z</time></trkpt><trkpt lat="41.23484626893772" lon="9.40961986640157"><ele>93.0</ele><time>2026-05-01T09:16:04Z</time></trkpt><trkpt lat="41.23491990278262" lon="9.409725401443069"><ele>91.60000000000001</ele><time>2026-05-01T09:16:05Z</time></trkpt><trkpt lat="41.234999604336146" lon="9.409814023583143"><ele>90.2</ele><time>2026-05-01T09:16:06Z</time></trkpt><trkpt lat="41.235084389528026" lon="9.409885494719406"><ele>88.8</ele><time>2026-05-01T09:16:07Z</time></trkpt><trkpt lat="41.23517157438011" lon="9.40994282655279"><ele>87.4</ele><time>2026-05-01T09:16:08Z</time></trkpt><trkpt lat="41.23525926242617" lon="9.41000149586475"><ele>86.0</ele><time>2026-05-01T09:16:09Z</time></trkpt><trkpt lat="41.23535058063113" lon="9.41006708563488"><ele>86.0</ele><time>2026-05-01T09:16:10Z</time></trkpt><trkpt lat="41.23544395189761" lon="9.410132196243145"><ele>86.0</ele><time>2026-05-01T09:16:11Z</time></trkpt><trkpt lat="41.23553820912646" lon="9.410190183675297"><ele>86.0</ele><time>2026-05-01T09:16:12Z</time></trkpt><trkpt lat="41.235627598544006" lon="9.410254480244484"><ele>86.0</ele><time>2026-05-01T09:16:13Z</time></trkpt><trkpt lat="41.23571627582593" lon="9.41031516177995"><ele>86.0</ele><time>2026-05-01T09:16:14Z</time></trkpt><trkpt lat="41.23580448887477" lon="9.410375322502054"><ele>85.6</ele><time>2026-05-01T09:16:15Z</time></trkpt><trkpt lat="41.23587698587756" lon="9.410463129943404"><ele>85.19999999999999</ele><time>2026-05-01T09:16:16Z</time></trkpt><trkpt lat="41.23595230222391" lon="9.410542097334714"><ele>84.80000000000001</ele><time>2026-05-01T09:16:17Z</time></trkpt><trkpt lat="41.23604153787634" lon="9.410611900524662"><ele>84.4</ele><time>2026-05-01T09:16:18Z</time></trkpt><trkpt lat="41.23612190477377" lon="9.410706256762618"><ele>84.0</ele><time>2026-05-01T09:16:19Z</time></trkpt><trkpt lat="41.236202639104036" lon="9.410795563278537"><ele>82.4</ele><time>2026-05-01T09:16:20Z</time></trkpt><trkpt lat="41.236277071282196" lon="9.410886160160183"><ele>80.80000000000001</ele><time>2026-05-01T09:16:21Z</time></trkpt><trkpt lat="41.2363602695577" lon="9.41097958170684"><ele>79.19999999999999</ele><time>2026-05-01T09:16:22Z</time></trkpt><trkpt lat="41.23643965211935" lon="9.411074480876938"><ele>77.6</ele><time>2026-05-01T09:16:23Z</time></trkpt><trkpt lat="41.236520581351094" lon="9.411165146371514"><ele>76.0</ele><time>2026-05-01T09:16:24Z</time></trkpt><trkpt lat="41.23660460288169" lon="9.411252871042672"><ele>74.0</ele><time>2026-05-01T09:16:25Z</time></trkpt><trkpt lat="41.23668435834398" lon="9.4113290251297"><ele>72.0</ele><time>2026-05-01T09:16:26Z</time></trkpt><trkpt lat="41.23676497587019" lon="9.41140146525573"><ele>70.0</ele><time>2026-05-01T09:16:27Z</time></trkpt><trkpt lat="41.23684303113526" lon="9.411472057082271"><ele>68.0</ele><time>2026-05-01T09:16:28Z</time></trkpt><trkpt lat="41.236920456511754" lon="9.41154187287664"><ele>66.0</ele><time>2026-05-01T09:16:29Z</time></trkpt><trkpt lat="41.23699391741777" lon="9.41160893631591"><ele>66.0</ele><time>2026-05-01T09:16:30Z</time></trkpt><trkpt lat="41.2370688226293" lon="9.411675591244657"><ele>66.0</ele><time>2026-05-01T09:16:31Z</time></trkpt><trkpt lat="41.23714722496946" lon="9.411746648141829"><ele>66.0</ele><time>2026-05-01T09:16:32Z</time></trkpt><trkpt lat="41.2372356902779" lon="9.411827607018495"><ele>66.0</ele><time>2026-05-01T09:16:33Z</time></trkpt><trkpt lat="41.2373292696846" lon="9.411907308886411"><ele>66.0</ele><time>2026-05-01T09:16:34Z</time></trkpt><trkpt lat="41.237426810154616" lon="9.411993899089147"><ele>65.6</ele><time>2026-05-01T09:16:35Z</time></trkpt><trkpt lat="41.23752394577872" lon="9.412081144646077"><ele>65.19999999999999</ele><time>2026-05-01T09:16:36Z</time></trkpt><trkpt lat="41.23761614826127" lon="9.412166496982556"><ele>64.80000000000001</ele><time>2026-05-01T09:16:37Z</time></trkpt><trkpt lat="41.23770158010169" lon="9.412245183649645"><ele>64.4</ele><time>2026-05-01T09:16:38Z</time></trkpt><trkpt lat="41.237780678287" lon="9.412316116173347"><ele>64.0</ele><time>2026-05-01T09:16:39Z</time></trkpt><trkpt lat="41.237859957536294" lon="9.412386981772416"><ele>63.33333333333333</ele><time>2026-05-01T09:16:40Z</time></trkpt><trkpt lat="41.23792500538314" lon="9.412446095758305"><ele>62.666666666666664</ele><time>2026-05-01T09:16:41Z</time></trkpt><trkpt lat="41.237977273885306" lon="9.41249548196498"><ele>62.0</ele><time>2026-05-01T09:16:42Z</time></trkpt><trkpt lat="41.23806995916686" lon="9.4125901432127"><ele>61.33333333333333</ele><time>2026-05-01T09:16:44Z</time></trkpt><trkpt lat="41.238109140757416" lon="9.412670191360576"><ele>60.666666666666664</ele><time>2026-05-01T09:16:45Z</time></trkpt><trkpt lat="41.23816866564895" lon="9.412713000396753"><ele>60.0</ele><time>2026-05-01T09:16:46Z</time></trkpt><trkpt lat="41.238216110144066" lon="9.412772992712057"><ele>59.666666666666664</ele><time>2026-05-01T09:16:47Z</time></trkpt><trkpt lat="41.23827261408583" lon="9.412842841091098"><ele>59.33333333333333</ele><time>2026-05-01T09:16:48Z</time></trkpt><trkpt lat="41.238333014391834" lon="9.412919176743463"><ele>59.0</ele><time>2026-05-01T09:16:49Z</time></trkpt><trkpt lat="41.238392962828485" lon="9.4130005994172"><ele>58.666666666666664</ele><time>2026-05-01T09:16:50Z</time></trkpt><trkpt lat="41.23844950305053" lon="9.413087300860132"><ele>58.33333333333333</ele><time>2026-05-01T09:16:51Z</time></trkpt><trkpt lat="41.238502303374226" lon="9.413182217212409"><ele>58.0</ele><time>2026-05-01T09:16:52Z</time></trkpt><trkpt lat="41.23854923153331" lon="9.413282503421934"><ele>57.8</ele><time>2026-05-01T09:16:53Z</time></trkpt><trkpt lat="41.23858945215911" lon="9.413403597306049"><ele>57.599999999999994</ele><time>2026-05-01T09:16:54Z</time></trkpt><trkpt lat="41.23862226119608" lon="9.413539201476754"><ele>57.400000000000006</ele><time>2026-05-01T09:16:55Z</time></trkpt><trkpt lat="41.238653042605364" lon="9.413686057625798"><ele>57.2</ele><time>2026-05-01T09:16:56Z</time></trkpt><trkpt lat="41.23866792563231" lon="9.413843473868488"><ele>57.0</ele><time>2026-05-01T09:16:57Z</time></trkpt><trkpt lat="41.23870651037416" lon="9.413983864916045"><ele>55.400000000000006</ele><time>2026-05-01T09:16:58Z</time></trkpt><trkpt lat="41.238763288901794" lon="9.414111743021651"><ele>53.800000000000004</ele><time>2026-05-01T09:16:59.001Z</time></trkpt><trkpt lat="41.2388344716824" lon="9.41422266403626"><ele>52.2</ele><time>2026-05-01T09:17:00.001Z</time></trkpt><trkpt lat="41.23892309918596" lon="9.414309883768718"><ele>50.6</ele><time>2026-05-01T09:17:01.001Z</time></trkpt><trkpt lat="41.2390061292492" lon="9.414407051377454"><ele>49.0</ele><time>2026-05-01T09:17:02.001Z</time></trkpt><trkpt lat="41.23908259601062" lon="9.414499926492041"><ele>48.800000000000004</ele><time>2026-05-01T09:17:03.001Z</time></trkpt><trkpt lat="41.23915625756668" lon="9.414595759972892"><ele>48.6</ele><time>2026-05-01T09:17:04.001Z</time></trkpt><trkpt lat="41.23923085171549" lon="9.414682633692248"><ele>48.4</ele><time>2026-05-01T09:17:05.001Z</time></trkpt><trkpt lat="41.239300619781474" lon="9.414762278634887"><ele>48.2</ele><time>2026-05-01T09:17:06.001Z</time></trkpt><trkpt lat="41.23936977040584" lon="9.414840962947414"><ele>48.0</ele><time>2026-05-01T09:17:07.001Z</time></trkpt><trkpt lat="41.23942899841946" lon="9.414907900749164"><ele>47.285714285714285</ele><time>2026-05-01T09:17:08.001Z</time></trkpt><trkpt lat="41.239474962092" lon="9.414966585750742"><ele>46.57142857142857</ele><time>2026-05-01T09:17:09.001Z</time></trkpt><trkpt lat="41.23953549519305" lon="9.41505510809387"><ele>45.85714285714286</ele><time>2026-05-01T09:17:11.001Z</time></trkpt><trkpt lat="41.239583962886165" lon="9.415117306102173"><ele>45.14285714285714</ele><time>2026-05-01T09:18:30Z</time></trkpt><trkpt lat="41.23965909361297" lon="9.415173651202165"><ele>44.42857142857143</ele><time>2026-05-01T09:18:32Z</time></trkpt><trkpt lat="41.23970078519777" lon="9.415247183433719"><ele>43.714285714285715</ele><time>2026-05-01T09:18:33Z</time></trkpt><trkpt lat="41.23975470190061" lon="9.415310047493206"><ele>43.0</ele><time>2026-05-01T09:18:34Z</time></trkpt><trkpt lat="41.239819609617264" lon="9.415359654005012"><ele>43.0</ele><time>2026-05-01T09:18:35Z</time></trkpt><trkpt lat="41.23987951590606" lon="9.415435068439917"><ele>43.0</ele><time>2026-05-01T09:18:36Z</time></trkpt><trkpt lat="41.239955079877475" lon="9.415518983750465"><ele>43.0</ele><time>2026-05-01T09:18:37Z</time></trkpt><trkpt lat="41.24002696700337" lon="9.415627159459257"><ele>43.0</ele><time>2026-05-01T09:18:38.001Z</time></trkpt><trkpt lat="41.240114062949495" lon="9.41570151038445"><ele>43.0</ele><time>2026-05-01T09:18:39.001Z</time></trkpt><trkpt lat="41.240191434228855" lon="9.415796819761853"><ele>43.0</ele><time>2026-05-01T09:18:40.001Z</time></trkpt><trkpt lat="41.24027241344235" lon="9.41588642667039"><ele>43.0</ele><time>2026-05-01T09:18:41.001Z</time></trkpt><trkpt lat="41.240354436432874" lon="9.415985550252836"><ele>43.0</ele><time>2026-05-01T09:18:42.001Z</time></trkpt><trkpt lat="41.240445656237505" lon="9.416086113954304"><ele>43.0</ele><time>2026-05-01T09:18:43.001Z</time></trkpt><trkpt lat="41.24053498246022" lon="9.416193345893971"><ele>43.0</ele><time>2026-05-01T09:18:44.001Z</time></trkpt><trkpt lat="41.24062749866468" lon="9.416306057131848"><ele>43.0</ele><time>2026-05-01T09:18:45.001Z</time></trkpt><trkpt lat="41.240733291165355" lon="9.41642801247928"><ele>43.0</ele><time>2026-05-01T09:18:46.001Z</time></trkpt><trkpt lat="41.24083621563497" lon="9.41654716015576"><ele>43.0</ele><time>2026-05-01T09:18:47.001Z</time></trkpt><trkpt lat="41.24094672115411" lon="9.416678662310845"><ele>43.75</ele><time>2026-05-01T09:18:48.001Z</time></trkpt><trkpt lat="41.24105196870266" lon="9.416799724409996"><ele>44.5</ele><time>2026-05-01T09:18:49.001Z</time></trkpt><trkpt lat="41.241141089148535" lon="9.416921679703945"><ele>45.25</ele><time>2026-05-01T09:18:50.001Z</time></trkpt><trkpt lat="41.241211763225294" lon="9.417061914478317"><ele>46.0</ele><time>2026-05-01T09:18:51.001Z</time></trkpt><trkpt lat="41.241262208337844" lon="9.417227898463063"><ele>48.0</ele><time>2026-05-01T09:18:52.001Z</time></trkpt><trkpt lat="41.24129040189644" lon="9.417425622594063"><ele>50.0</ele><time>2026-05-01T09:18:53.001Z</time></trkpt><trkpt lat="41.24130628033796" lon="9.417652399995056"><ele>52.0</ele><time>2026-05-01T09:18:54.001Z</time></trkpt><trkpt lat="41.24130146860619" lon="9.41789059456975"><ele>52.666666666666664</ele><time>2026-05-01T09:18:55.001Z</time></trkpt><trkpt lat="41.241313155685695" lon="9.41813820202417"><ele>53.33333333333333</ele><time>2026-05-01T09:18:56.001Z</time></trkpt><trkpt lat="41.24132321680741" lon="9.41836850112653"><ele>54.0</ele><time>2026-05-01T09:18:57.001Z</time></trkpt><trkpt lat="41.24134628993336" lon="9.418577392348626"><ele>54.0</ele><time>2026-05-01T09:18:58.001Z</time></trkpt><trkpt lat="41.241359342768455" lon="9.41875964210894"><ele>54.0</ele><time>2026-05-01T09:18:59.001Z</time></trkpt><trkpt lat="41.241369843417296" lon="9.418928680235277"><ele>54.0</ele><time>2026-05-01T09:19:00.001Z</time></trkpt><trkpt lat="41.24140979045054" lon="9.419081044792152"><ele>54.0</ele><time>2026-05-01T09:19:01.001Z</time></trkpt><trkpt lat="41.24148211330346" lon="9.419212541559933"><ele>55.0</ele><time>2026-05-01T09:19:02.001Z</time></trkpt><trkpt lat="41.24156764961607" lon="9.419320487110006"><ele>56.0</ele><time>2026-05-01T09:19:03.001Z</time></trkpt><trkpt lat="41.24167405941976" lon="9.419408605174105"><ele>57.0</ele><time>2026-05-01T09:19:04.001Z</time></trkpt><trkpt lat="41.24178699708776" lon="9.419482790083576"><ele>58.0</ele><time>2026-05-01T09:19:05.001Z</time></trkpt><trkpt lat="41.24190135617149" lon="9.41955051934615"><ele>58.0</ele><time>2026-05-01T09:19:06.001Z</time></trkpt><trkpt lat="41.24202943589596" lon="9.419603089404736"><ele>58.0</ele><time>2026-05-01T09:19:07.001Z</time></trkpt><trkpt lat="41.24215347701834" lon="9.419686854507574"><ele>58.0</ele><time>2026-05-01T09:19:08.001Z</time></trkpt><trkpt lat="41.24227950725276" lon="9.419762708959725"><ele>58.0</ele><time>2026-05-01T09:19:09.001Z</time></trkpt><trkpt lat="41.24239342151586" lon="9.419833965335494"><ele>59.0</ele><time>2026-05-01T09:19:10.001Z</time></trkpt><trkpt lat="41.24249671134081" lon="9.419899386956777"><ele>60.0</ele><time>2026-05-01T09:19:11.001Z</time></trkpt><trkpt lat="41.24259095652821" lon="9.419963456302806"><ele>61.0</ele><time>2026-05-01T09:19:12.001Z</time></trkpt><trkpt lat="41.242685735892934" lon="9.420033648825628"><ele>62.0</ele><time>2026-05-01T09:19:13.001Z</time></trkpt><trkpt lat="41.242776580802925" lon="9.420110706563278"><ele>63.0</ele><time>2026-05-01T09:19:14.001Z</time></trkpt><trkpt lat="41.242867012955955" lon="9.42019446592462"><ele>63.0</ele><time>2026-05-01T09:19:15.001Z</time></trkpt><trkpt lat="41.24295832978396" lon="9.420283127409633"><ele>63.0</ele><time>2026-05-01T09:19:16.001Z</time></trkpt><trkpt lat="41.243041839298414" lon="9.420368571927709"><ele>63.0</ele><time>2026-05-01T09:19:17.001Z</time></trkpt><trkpt lat="41.243120683348536" lon="9.420452418135845"><ele>63.0</ele><time>2026-05-01T09:19:18.001Z</time></trkpt><trkpt lat="41.24318978698957" lon="9.420530935634455"><ele>63.0</ele><time>2026-05-01T09:19:19.001Z</time></trkpt><trkpt lat="41.24324852808637" lon="9.420600910177724"><ele>62.0</ele><time>2026-05-01T09:19:20.001Z</time></trkpt><trkpt lat="41.24329829455442" lon="9.420665880635696"><ele>61.0</ele><time>2026-05-01T09:19:21.001Z</time></trkpt><trkpt lat="41.24334328001004" lon="9.420730346380603"><ele>60.0</ele><time>2026-05-01T09:19:22.001Z</time></trkpt><trkpt lat="41.243393089382444" lon="9.420800985539596"><ele>59.0</ele><time>2026-05-01T09:19:23.001Z</time></trkpt><trkpt lat="41.24343819949016" lon="9.420867397689154"><ele>58.0</ele><time>2026-05-01T09:19:24.001Z</time></trkpt><trkpt lat="41.243514307916875" lon="9.420987079105544"><ele>57.0</ele><time>2026-05-01T09:19:26.001Z</time></trkpt><trkpt lat="41.24358614199607" lon="9.421100010846391"><ele>57.0</ele><time>2026-05-01T09:19:28Z</time></trkpt><trkpt lat="41.243653442957275" lon="9.421202856199434"><ele>57.0</ele><time>2026-05-01T09:19:30Z</time></trkpt><trkpt lat="41.24372144173883" lon="9.421305210746565"><ele>57.0</ele><time>2026-05-01T09:19:32Z</time></trkpt><trkpt lat="41.243784318792116" lon="9.421400797056037"><ele>57.0</ele><time>2026-05-01T09:19:34Z</time></trkpt><trkpt lat="41.243849453930174" lon="9.421498271024916"><ele>57.0</ele><time>2026-05-01T09:19:36Z</time></trkpt><trkpt lat="41.24391085822096" lon="9.421603288423881"><ele>56.166666666666664</ele><time>2026-05-01T09:19:38Z</time></trkpt><trkpt lat="41.24397116075437" lon="9.421703631832882"><ele>55.33333333333333</ele><time>2026-05-01T09:19:40Z</time></trkpt><trkpt lat="41.244025505864506" lon="9.421800513944122"><ele>54.5</ele><time>2026-05-01T09:19:42Z</time></trkpt><trkpt lat="41.24406923311758" lon="9.421893107167884"><ele>53.666666666666664</ele><time>2026-05-01T09:19:44Z</time></trkpt><trkpt lat="41.24411450413134" lon="9.421987098778049"><ele>52.83333333333333</ele><time>2026-05-01T09:19:46Z</time></trkpt><trkpt lat="41.24415521682316" lon="9.422063377526698"><ele>52.0</ele><time>2026-05-01T09:19:47Z</time></trkpt><trkpt lat="41.24419660077771" lon="9.422134785822553"><ele>51.0</ele><time>2026-05-01T09:19:48Z</time></trkpt><trkpt lat="41.24424543913233" lon="9.422208015163843"><ele>50.0</ele><time>2026-05-01T09:19:49Z</time></trkpt><trkpt lat="41.24431474766675" lon="9.422284712501883"><ele>49.0</ele><time>2026-05-01T09:19:50Z</time></trkpt><trkpt lat="41.2443991473855" lon="9.422347071449492"><ele>48.0</ele><time>2026-05-01T09:19:51Z</time></trkpt><trkpt lat="41.244491096648346" lon="9.422400557898271"><ele>47.0</ele><time>2026-05-01T09:19:52Z</time></trkpt><trkpt lat="41.24459611476574" lon="9.422462028618586"><ele>47.0</ele><time>2026-05-01T09:19:53Z</time></trkpt><trkpt lat="41.24471664406626" lon="9.42245799855078"><ele>47.0</ele><time>2026-05-01T09:19:54Z</time></trkpt><trkpt lat="41.244843324414404" lon="9.422466553019778"><ele>47.0</ele><time>2026-05-01T09:19:55Z</time></trkpt><trkpt lat="41.244978431536225" lon="9.422470840688634"><ele>47.0</ele><time>2026-05-01T09:19:56Z</time></trkpt><trkpt lat="41.24511348649126" lon="9.422468753903878"><ele>46.75</ele><time>2026-05-01T09:19:57Z</time></trkpt><trkpt lat="41.245248647889724" lon="9.422466974074306"><ele>46.5</ele><time>2026-05-01T09:19:58Z</time></trkpt><trkpt lat="41.24538278014679" lon="9.422484124663772"><ele>46.25</ele><time>2026-05-01T09:19:59Z</time></trkpt><trkpt lat="41.24552191873824" lon="9.422514841679332"><ele>46.0</ele><time>2026-05-01T09:20:00Z</time></trkpt><trkpt lat="41.24566718658795" lon="9.422557433052333"><ele>46.0</ele><time>2026-05-01T09:20:01Z</time></trkpt><trkpt lat="41.24581658366695" lon="9.422607968528457"><ele>46.0</ele><time>2026-05-01T09:20:02Z</time></trkpt><trkpt lat="41.24596314499244" lon="9.42266828734837"><ele>46.0</ele><time>2026-05-01T09:20:03Z</time></trkpt><trkpt lat="41.24610532224618" lon="9.422725613680917"><ele>46.0</ele><time>2026-05-01T09:20:04Z</time></trkpt><trkpt lat="41.246248811693974" lon="9.422782193848402"><ele>46.0</ele><time>2026-05-01T09:20:05Z</time></trkpt><trkpt lat="41.246374239868544" lon="9.42283613960382"><ele>46.0</ele><time>2026-05-01T09:20:06Z</time></trkpt><trkpt lat="41.24647971913809" lon="9.422879634145362"><ele>46.0</ele><time>2026-05-01T09:20:07Z</time></trkpt><trkpt lat="41.24665556026916" lon="9.422945620821645"><ele>46.0</ele><time>2026-05-01T09:20:08Z</time></trkpt><trkpt lat="41.246782138992636" lon="9.422994725565543"><ele>46.0</ele><time>2026-05-01T09:20:09Z</time></trkpt><trkpt lat="41.24690317033055" lon="9.423044275367571"><ele>46.0</ele><time>2026-05-01T09:20:10Z</time></trkpt><trkpt lat="41.247011438693896" lon="9.423087381112017"><ele>46.0</ele><time>2026-05-01T09:20:11Z</time></trkpt><trkpt lat="41.247124077976984" lon="9.423133627270321"><ele>46.0</ele><time>2026-05-01T09:20:12Z</time></trkpt><trkpt lat="41.247253253397936" lon="9.42321571203997"><ele>46.0</ele><time>2026-05-01T09:20:13Z</time></trkpt><trkpt lat="41.2473547528326" lon="9.423274724027541"><ele>46.0</ele><time>2026-05-01T09:20:14Z</time></trkpt><trkpt lat="41.24745902722069" lon="9.423334291199204"><ele>46.0</ele><time>2026-05-01T09:20:15Z</time></trkpt><trkpt lat="41.24756002484402" lon="9.423393898960008"><ele>46.199999999999996</ele><time>2026-05-01T09:20:16Z</time></trkpt><trkpt lat="41.24764998455475" lon="9.423464544926373"><ele>46.4</ele><time>2026-05-01T09:20:17Z</time></trkpt><trkpt lat="41.2477244871084" lon="9.423550331945432"><ele>46.6</ele><time>2026-05-01T09:20:18Z</time></trkpt><trkpt lat="41.247791502037096" lon="9.423646893773538"><ele>46.8</ele><time>2026-05-01T09:20:19Z</time></trkpt><trkpt lat="41.24784612811842" lon="9.423749308592846"><ele>47.0</ele><time>2026-05-01T09:20:20Z</time></trkpt><trkpt lat="41.24789047721673" lon="9.423864322022068"><ele>46.0</ele><time>2026-05-01T09:20:21Z</time></trkpt><trkpt lat="41.24791195676505" lon="9.423997740984733"><ele>45.0</ele><time>2026-05-01T09:20:22Z</time></trkpt><trkpt lat="41.24790530198037" lon="9.424129214862866"><ele>44.0</ele><time>2026-05-01T09:20:23Z</time></trkpt><trkpt lat="41.247873189378225" lon="9.424254694410893"><ele>43.0</ele><time>2026-05-01T09:20:24Z</time></trkpt><trkpt lat="41.24781877303027" lon="9.424343132184399"><ele>42.0</ele><time>2026-05-01T09:20:25Z</time></trkpt><trkpt lat="41.247742023894425" lon="9.42445106632173"><ele>42.0</ele><time>2026-05-01T09:20:26Z</time></trkpt><trkpt lat="41.24763759078898" lon="9.42459574078487"><ele>42.0</ele><time>2026-05-01T09:20:27Z</time></trkpt><trkpt lat="41.24754936964551" lon="9.42475189404683"><ele>42.0</ele><time>2026-05-01T09:20:28Z</time></trkpt><trkpt lat="41.24749293915315" lon="9.424920492712964"><ele>42.0</ele><time>2026-05-01T09:20:29Z</time></trkpt><trkpt lat="41.24741062864966" lon="9.425075313327156"><ele>40.666666666666664</ele><time>2026-05-01T09:20:30Z</time></trkpt><trkpt lat="41.24731501905653" lon="9.425278325121313"><ele>39.33333333333333</ele><time>2026-05-01T09:20:31Z</time></trkpt><trkpt lat="41.24723853794932" lon="9.425446746358842"><ele>38.0</ele><time>2026-05-01T09:20:32Z</time></trkpt><trkpt lat="41.24716392015324" lon="9.42560616787332"><ele>34.75</ele><time>2026-05-01T09:20:33Z</time></trkpt><trkpt lat="41.247092906284976" lon="9.425754553899207"><ele>31.5</ele><time>2026-05-01T09:20:34Z</time></trkpt><trkpt lat="41.24702809944267" lon="9.425887530639633"><ele>28.25</ele><time>2026-05-01T09:20:35Z</time></trkpt><trkpt lat="41.24696303334465" lon="9.426018668413581"><ele>25.0</ele><time>2026-05-01T09:20:36Z</time></trkpt><trkpt lat="41.24690642929785" lon="9.4261449007242"><ele>25.0</ele><time>2026-05-01T09:20:37Z</time></trkpt><trkpt lat="41.24686841127185" lon="9.426266159980582"><ele>25.0</ele><time>2026-05-01T09:20:38Z</time></trkpt><trkpt lat="41.246862662141275" lon="9.426388458795017"><ele>25.0</ele><time>2026-05-01T09:20:39.001Z</time></trkpt><trkpt lat="41.2468792711878" lon="9.426509774392361"><ele>25.0</ele><time>2026-05-01T09:20:40.001Z</time></trkpt><trkpt lat="41.24691478523223" lon="9.426616435843737"><ele>25.0</ele><time>2026-05-01T09:20:41.001Z</time></trkpt><trkpt lat="41.246969040826926" lon="9.42670774668509"><ele>24.8</ele><time>2026-05-01T09:20:42.001Z</time></trkpt><trkpt lat="41.24703576633999" lon="9.426783757712245"><ele>24.6</ele><time>2026-05-01T09:20:43.001Z</time></trkpt><trkpt lat="41.24710821112274" lon="9.42685647769959"><ele>24.4</ele><time>2026-05-01T09:20:44.001Z</time></trkpt><trkpt lat="41.247184806954884" lon="9.426924985991631"><ele>24.2</ele><time>2026-05-01T09:20:45.001Z</time></trkpt><trkpt lat="41.24727215661923" lon="9.426984647500277"><ele>24.0</ele><time>2026-05-01T09:20:46.001Z</time></trkpt><trkpt lat="41.24735941491424" lon="9.427033082175132"><ele>24.0</ele><time>2026-05-01T09:20:47.001Z</time></trkpt><trkpt lat="41.24745172300469" lon="9.427075395953452"><ele>24.0</ele><time>2026-05-01T09:20:48.001Z</time></trkpt><trkpt lat="41.247554639997766" lon="9.427110239514189"><ele>24.0</ele><time>2026-05-01T09:20:49.001Z</time></trkpt><trkpt lat="41.24765916048924" lon="9.42714461506266"><ele>24.0</ele><time>2026-05-01T09:20:50.001Z</time></trkpt><trkpt lat="41.24775696842385" lon="9.42717328600251"><ele>24.0</ele><time>2026-05-01T09:20:51.001Z</time></trkpt><trkpt lat="41.2478561920595" lon="9.427204991013701"><ele>22.166666666666668</ele><time>2026-05-01T09:20:52.001Z</time></trkpt><trkpt lat="41.247951216747936" lon="9.427235635580402"><ele>20.333333333333332</ele><time>2026-05-01T09:20:53.001Z</time></trkpt><trkpt lat="41.24804372739656" lon="9.42723175052594"><ele>18.5</ele><time>2026-05-01T09:20:54.001Z</time></trkpt><trkpt lat="41.248130703352906" lon="9.427208580955098"><ele>16.666666666666664</ele><time>2026-05-01T09:20:55.001Z</time></trkpt><trkpt lat="41.248209121382146" lon="9.42717971769248"><ele>14.833333333333332</ele><time>2026-05-01T09:20:56.001Z</time></trkpt><trkpt lat="41.248274368162775" lon="9.427176475967217"><ele>13.0</ele><time>2026-05-01T09:20:57.001Z</time></trkpt><trkpt lat="41.24837379432523" lon="9.427244402716136"><ele>12.166666666666666</ele><time>2026-05-01T09:20:59.001Z</time></trkpt><trkpt lat="41.24843938630283" lon="9.427309525206839"><ele>11.333333333333332</ele><time>2026-05-01T09:21:01.001Z</time></trkpt><trkpt lat="41.248531761029874" lon="9.427328399747758"><ele>10.5</ele><time>2026-05-01T09:21:04.001Z</time></trkpt><trkpt lat="41.248638668331566" lon="9.427291299123636"><ele>9.666666666666666</ele><time>2026-05-01T09:21:06.001Z</time></trkpt><trkpt lat="41.2487061768141" lon="9.427263199154691"><ele>8.833333333333332</ele><time>2026-05-01T09:21:07.001Z</time></trkpt><trkpt lat="41.24878623040633" lon="9.427229051125222"><ele>8.0</ele><time>2026-05-01T09:21:08.001Z</time></trkpt><trkpt lat="41.24888817791734" lon="9.42723450197605"><ele>8.0</ele><time>2026-05-01T09:21:09.001Z</time></trkpt><trkpt lat="41.248996745072766" lon="9.427211724051554"><ele>8.0</ele><time>2026-05-01T09:21:10.001Z</time></trkpt><trkpt lat="41.24911171163065" lon="9.42722621512489"><ele>8.0</ele><time>2026-05-01T09:21:11.001Z</time></trkpt><trkpt lat="41.24922034677881" lon="9.427277441660019"><ele>8.0</ele><time>2026-05-01T09:21:12.001Z</time></trkpt><trkpt lat="41.249333159370224" lon="9.427363439871101"><ele>8.0</ele><time>2026-05-01T09:21:13.001Z</time></trkpt><trkpt lat="41.249445240027974" lon="9.427461640100368"><ele>8.0</ele><time>2026-05-01T09:21:14.001Z</time></trkpt><trkpt lat="41.24954690751953" lon="9.427545193426417"><ele>8.0</ele><time>2026-05-01T09:21:15.001Z</time></trkpt><trkpt lat="41.24964303947435" lon="9.427625358971067"><ele>8.0</ele><time>2026-05-01T09:21:16.001Z</time></trkpt><trkpt lat="41.249724496178146" lon="9.42768919411478"><ele>11.8</ele><time>2026-05-01T09:21:17.001Z</time></trkpt><trkpt lat="41.24980234510555" lon="9.427767167175267"><ele>15.600000000000001</ele><time>2026-05-01T09:21:18.001Z</time></trkpt><trkpt lat="41.24988953041253" lon="9.427820621981036"><ele>19.400000000000002</ele><time>2026-05-01T09:21:19.001Z</time></trkpt><trkpt lat="41.24998786693783" lon="9.42786040351199"><ele>23.200000000000003</ele><time>2026-05-01T09:21:20.001Z</time></trkpt><trkpt lat="41.25009861391153" lon="9.427879295309154"><ele>27.0</ele><time>2026-05-01T09:21:21.001Z</time></trkpt><trkpt lat="41.25021552095885" lon="9.427918444996566"><ele>27.0</ele><time>2026-05-01T09:21:22.001Z</time></trkpt><trkpt lat="41.250350382741146" lon="9.427960661420398"><ele>27.0</ele><time>2026-05-01T09:21:23.001Z</time></trkpt><trkpt lat="41.25048790941275" lon="9.427991115364907"><ele>27.0</ele><time>2026-05-01T09:21:24.001Z</time></trkpt><trkpt lat="41.25062502044774" lon="9.428015136788026"><ele>27.0</ele><time>2026-05-01T09:21:25.001Z</time></trkpt><trkpt lat="41.25076427078241" lon="9.428037761770092"><ele>24.0</ele><time>2026-05-01T09:21:26.001Z</time></trkpt><trkpt lat="41.25090948103807" lon="9.428063653563356"><ele>21.0</ele><time>2026-05-01T09:21:27.001Z</time></trkpt><trkpt lat="41.25104168155766" lon="9.428099572152552"><ele>18.0</ele><time>2026-05-01T09:21:28.001Z</time></trkpt><trkpt lat="41.25116697416106" lon="9.428138609757493"><ele>15.0</ele><time>2026-05-01T09:21:29.001Z</time></trkpt><trkpt lat="41.25127802131092" lon="9.428156415071053"><ele>15.0</ele><time>2026-05-01T09:21:30.001Z</time></trkpt><trkpt lat="41.25138112995403" lon="9.428142735297394"><ele>15.0</ele><time>2026-05-01T09:21:31.001Z</time></trkpt><trkpt lat="41.2514881092499" lon="9.428098294047974"><ele>15.0</ele><time>2026-05-01T09:21:32.001Z</time></trkpt><trkpt lat="41.251594233685815" lon="9.428023939457239"><ele>15.0</ele><time>2026-05-01T09:21:33.001Z</time></trkpt><trkpt lat="41.25170923370504" lon="9.427917311897167"><ele>18.8</ele><time>2026-05-01T09:21:34.001Z</time></trkpt><trkpt lat="41.25182009766726" lon="9.427821786942824"><ele>22.6</ele><time>2026-05-01T09:21:35.001Z</time></trkpt><trkpt lat="41.25192033543899" lon="9.42773776206876"><ele>26.4</ele><time>2026-05-01T09:21:36.001Z</time></trkpt><trkpt lat="41.25201305464987" lon="9.427693005123313"><ele>30.2</ele><time>2026-05-01T09:21:37.001Z</time></trkpt><trkpt lat="41.25209167776802" lon="9.42768439149707"><ele>34.0</ele><time>2026-05-01T09:21:38.001Z</time></trkpt><trkpt lat="41.25217044155007" lon="9.427697773199554"><ele>34.0</ele><time>2026-05-01T09:21:39.001Z</time></trkpt><trkpt lat="41.25225628107522" lon="9.427737624835936"><ele>34.0</ele><time>2026-05-01T09:21:40.001Z</time></trkpt><trkpt lat="41.25233201437146" lon="9.427833221341313"><ele>34.0</ele><time>2026-05-01T09:21:41.001Z</time></trkpt><trkpt lat="41.252417136418046" lon="9.427950904047115"><ele>34.0</ele><time>2026-05-01T09:21:42.001Z</time></trkpt><trkpt lat="41.25251731733601" lon="9.428074496167001"><ele>31.4</ele><time>2026-05-01T09:21:43.001Z</time></trkpt><trkpt lat="41.25259073405013" lon="9.428195702296307"><ele>28.799999999999997</ele><time>2026-05-01T09:21:44.001Z</time></trkpt><trkpt lat="41.25267105586542" lon="9.428302442881993"><ele>26.200000000000003</ele><time>2026-05-01T09:21:45.001Z</time></trkpt><trkpt lat="41.2527490629432" lon="9.428378345373442"><ele>23.6</ele><time>2026-05-01T09:21:46.001Z</time></trkpt><trkpt lat="41.25282783411295" lon="9.428431726759886"><ele>21.0</ele><time>2026-05-01T09:21:47.001Z</time></trkpt><trkpt lat="41.25292513344693" lon="9.428463840576654"><ele>21.0</ele><time>2026-05-01T09:21:48.001Z</time></trkpt><trkpt lat="41.25303268248118" lon="9.428472257214784"><ele>21.0</ele><time>2026-05-01T09:21:49.001Z</time></trkpt><trkpt lat="41.253147309849005" lon="9.428440544675304"><ele>21.0</ele><time>2026-05-01T09:21:50.001Z</time></trkpt><trkpt lat="41.25327925618788" lon="9.428376974140035"><ele>21.0</ele><time>2026-05-01T09:21:51.001Z</time></trkpt><trkpt lat="41.25341836814129" lon="9.428295116159285"><ele>21.0</ele><time>2026-05-01T09:21:52.001Z</time></trkpt><trkpt lat="41.25355058423194" lon="9.428210237974215"><ele>21.0</ele><time>2026-05-01T09:21:53.001Z</time></trkpt><trkpt lat="41.253673626787275" lon="9.42813439122961"><ele>21.0</ele><time>2026-05-01T09:21:54.001Z</time></trkpt><trkpt lat="41.25379434775814" lon="9.428067083782143"><ele>21.0</ele><time>2026-05-01T09:21:55Z</time></trkpt><trkpt lat="41.25391195883413" lon="9.428011338435791"><ele>21.5</ele><time>2026-05-01T09:21:56Z</time></trkpt><trkpt lat="41.25402209852949" lon="9.427977980992875"><ele>22.0</ele><time>2026-05-01T09:21:57Z</time></trkpt><trkpt lat="41.254132406575" lon="9.427976177940078"><ele>22.5</ele><time>2026-05-01T09:21:58Z</time></trkpt><trkpt lat="41.25426162787919" lon="9.428000750079761"><ele>23.0</ele><time>2026-05-01T09:21:59Z</time></trkpt><trkpt lat="41.2544057745109" lon="9.428053846415184"><ele>19.333333333333336</ele><time>2026-05-01T09:22:00Z</time></trkpt><trkpt lat="41.254544176308805" lon="9.428100541752075"><ele>15.666666666666668</ele><time>2026-05-01T09:22:01Z</time></trkpt><trkpt lat="41.254694930863465" lon="9.428156237367832"><ele>12.0</ele><time>2026-05-01T09:22:02Z</time></trkpt><trkpt lat="41.25484563216227" lon="9.428214019549818"><ele>10.5</ele><time>2026-05-01T09:22:03Z</time></trkpt><trkpt lat="41.25497875439021" lon="9.428261732663403"><ele>9.0</ele><time>2026-05-01T09:22:04Z</time></trkpt><trkpt lat="41.25510086804011" lon="9.428295611442037"><ele>7.5</ele><time>2026-05-01T09:22:05Z</time></trkpt><trkpt lat="41.255218960135096" lon="9.428311071047784"><ele>6.0</ele><time>2026-05-01T09:22:06Z</time></trkpt><trkpt lat="41.2553231471136" lon="9.428291664489134"><ele>6.0</ele><time>2026-05-01T09:22:07Z</time></trkpt><trkpt lat="41.255417580430304" lon="9.42826393089745"><ele>6.0</ele><time>2026-05-01T09:22:08Z</time></trkpt><trkpt lat="41.25549074531343" lon="9.428154373303968"><ele>6.0</ele><time>2026-05-01T09:22:09Z</time></trkpt><trkpt lat="41.25556028128825" lon="9.428049706242012"><ele>6.0</ele><time>2026-05-01T09:22:10Z</time></trkpt><trkpt lat="41.255633677475046" lon="9.427909163330852"><ele>6.0</ele><time>2026-05-01T09:22:11Z</time></trkpt><trkpt lat="41.255711118470174" lon="9.42775941693736"><ele>7.5</ele><time>2026-05-01T09:22:12Z</time></trkpt><trkpt lat="41.255782260073445" lon="9.427613317015137"><ele>9.0</ele><time>2026-05-01T09:22:13Z</time></trkpt><trkpt lat="41.25584702070064" lon="9.427480356945203"><ele>10.5</ele><time>2026-05-01T09:22:14Z</time></trkpt><trkpt lat="41.25591001654695" lon="9.427353344478714"><ele>12.0</ele><time>2026-05-01T09:22:15Z</time></trkpt><trkpt lat="41.255977380921024" lon="9.427234800366932"><ele>15.2</ele><time>2026-05-01T09:22:16Z</time></trkpt><trkpt lat="41.2560535480146" lon="9.427128610113893"><ele>18.4</ele><time>2026-05-01T09:22:17Z</time></trkpt><trkpt lat="41.25613756751286" lon="9.427037053789197"><ele>21.599999999999998</ele><time>2026-05-01T09:22:18Z</time></trkpt><trkpt lat="41.25623016785519" lon="9.426953866939645"><ele>24.799999999999997</ele><time>2026-05-01T09:22:19Z</time></trkpt><trkpt lat="41.25633558270369" lon="9.426921993970641"><ele>28.0</ele><time>2026-05-01T09:22:20Z</time></trkpt><trkpt lat="41.25642907707025" lon="9.42685871729172"><ele>24.0</ele><time>2026-05-01T09:22:21Z</time></trkpt><trkpt lat="41.25651878789358" lon="9.426818401300281"><ele>19.999999999999996</ele><time>2026-05-01T09:22:22Z</time></trkpt><trkpt lat="41.25659967276945" lon="9.42674182044247"><ele>16.0</ele><time>2026-05-01T09:22:23Z</time></trkpt><trkpt lat="41.256663765516656" lon="9.426630198398463"><ele>12.0</ele><time>2026-05-01T09:22:24Z</time></trkpt><trkpt lat="41.256723933523396" lon="9.426490476793786"><ele>8.0</ele><time>2026-05-01T09:22:25Z</time></trkpt><trkpt lat="41.25679165799456" lon="9.426345960678393"><ele>11.0</ele><time>2026-05-01T09:22:26Z</time></trkpt><trkpt lat="41.256848028451934" lon="9.426188082171182"><ele>14.0</ele><time>2026-05-01T09:22:27Z</time></trkpt><trkpt lat="41.25689962709598" lon="9.4260431248561"><ele>17.0</ele><time>2026-05-01T09:22:28Z</time></trkpt><trkpt lat="41.25695167575347" lon="9.425896903513442"><ele>20.0</ele><time>2026-05-01T09:22:29Z</time></trkpt><trkpt lat="41.257000821952936" lon="9.425756779345361"><ele>20.0</ele><time>2026-05-01T09:22:30Z</time></trkpt><trkpt lat="41.25704461245114" lon="9.425597599735104"><ele>20.0</ele><time>2026-05-01T09:22:31Z</time></trkpt><trkpt lat="41.25707107998702" lon="9.425438456810605"><ele>20.0</ele><time>2026-05-01T09:22:32Z</time></trkpt><trkpt lat="41.257082460061014" lon="9.425258430218483"><ele>20.0</ele><time>2026-05-01T09:22:33Z</time></trkpt><trkpt lat="41.257079003572066" lon="9.425063001387873"><ele>21.25</ele><time>2026-05-01T09:22:34Z</time></trkpt><trkpt lat="41.25707630945253" lon="9.42486561195237"><ele>22.5</ele><time>2026-05-01T09:22:35Z</time></trkpt><trkpt lat="41.257082420840845" lon="9.424681242707878"><ele>23.75</ele><time>2026-05-01T09:22:36Z</time></trkpt><trkpt lat="41.257111380189514" lon="9.424516154635182"><ele>25.0</ele><time>2026-05-01T09:22:37Z</time></trkpt><trkpt lat="41.25715608994186" lon="9.424357222104845"><ele>26.0</ele><time>2026-05-01T09:22:38Z</time></trkpt><trkpt lat="41.25721136739815" lon="9.424189861306214"><ele>27.0</ele><time>2026-05-01T09:22:39Z</time></trkpt><trkpt lat="41.2572508790417" lon="9.424013643855305"><ele>28.0</ele><time>2026-05-01T09:22:40Z</time></trkpt><trkpt lat="41.25726367957333" lon="9.423845322726823"><ele>29.0</ele><time>2026-05-01T09:22:41Z</time></trkpt><trkpt lat="41.257268637908204" lon="9.423663518292628"><ele>29.0</ele><time>2026-05-01T09:22:42Z</time></trkpt><trkpt lat="41.257264311610825" lon="9.423460007107945"><ele>29.0</ele><time>2026-05-01T09:22:43Z</time></trkpt><trkpt lat="41.257270329235894" lon="9.423276056247252"><ele>29.0</ele><time>2026-05-01T09:22:44Z</time></trkpt><trkpt lat="41.25728985431984" lon="9.423096141992822"><ele>29.0</ele><time>2026-05-01T09:22:45Z</time></trkpt><trkpt lat="41.25730962135815" lon="9.422933793907358"><ele>28.25</ele><time>2026-05-01T09:22:46Z</time></trkpt><trkpt lat="41.257324151518326" lon="9.422771718617515"><ele>27.5</ele><time>2026-05-01T09:22:47Z</time></trkpt><trkpt lat="41.25733710292496" lon="9.422628140793107"><ele>26.75</ele><time>2026-05-01T09:22:48Z</time></trkpt><trkpt lat="41.25735135460626" lon="9.422481388716877"><ele>26.0</ele><time>2026-05-01T09:22:49Z</time></trkpt><trkpt lat="41.257368852730714" lon="9.422334004328249"><ele>26.0</ele><time>2026-05-01T09:22:50Z</time></trkpt><trkpt lat="41.257382966713834" lon="9.422188747508486"><ele>26.0</ele><time>2026-05-01T09:22:51Z</time></trkpt><trkpt lat="41.25738774922481" lon="9.422048984809951"><ele>26.0</ele><time>2026-05-01T09:22:52Z</time></trkpt><trkpt lat="41.25738271595404" lon="9.421916595758738"><ele>26.0</ele><time>2026-05-01T09:22:53Z</time></trkpt><trkpt lat="41.25737242927997" lon="9.421764914197716"><ele>26.0</ele><time>2026-05-01T09:22:54Z</time></trkpt><trkpt lat="41.257354085998394" lon="9.42160394042293"><ele>26.0</ele><time>2026-05-01T09:22:55Z</time></trkpt><trkpt lat="41.25734771184224" lon="9.421441274716232"><ele>26.0</ele><time>2026-05-01T09:22:56.001Z</time></trkpt><trkpt lat="41.257311130395784" lon="9.42124514771036"><ele>26.0</ele><time>2026-05-01T09:22:57.001Z</time></trkpt><trkpt lat="41.257298076375534" lon="9.421040234497546"><ele>26.0</ele><time>2026-05-01T09:22:58.001Z</time></trkpt><trkpt lat="41.25728050701036" lon="9.420858390863167"><ele>25.0</ele><time>2026-05-01T09:22:59.001Z</time></trkpt><trkpt lat="41.25726846986479" lon="9.420681937068414"><ele>24.0</ele><time>2026-05-01T09:23:00.001Z</time></trkpt><trkpt lat="41.25727611382872" lon="9.420514433279035"><ele>23.0</ele><time>2026-05-01T09:23:01.001Z</time></trkpt><trkpt lat="41.25729249827498" lon="9.42035883762175"><ele>22.0</ele><time>2026-05-01T09:23:02.001Z</time></trkpt><trkpt lat="41.25731118814064" lon="9.420225165361716"><ele>22.0</ele><time>2026-05-01T09:23:03.001Z</time></trkpt><trkpt lat="41.25732881733464" lon="9.420109664788345"><ele>22.0</ele><time>2026-05-01T09:23:04.001Z</time></trkpt><trkpt lat="41.257343851254085" lon="9.420003287651852"><ele>22.0</ele><time>2026-05-01T09:23:05.001Z</time></trkpt><trkpt lat="41.257351009842694" lon="9.419886357209935"><ele>22.0</ele><time>2026-05-01T09:23:06.001Z</time></trkpt><trkpt lat="41.25734440747675" lon="9.41974198877584"><ele>22.0</ele><time>2026-05-01T09:23:07.001Z</time></trkpt><trkpt lat="41.25734307688859" lon="9.419572876615764"><ele>19.666666666666664</ele><time>2026-05-01T09:23:08.001Z</time></trkpt><trkpt lat="41.25733109034681" lon="9.41937391497038"><ele>17.333333333333332</ele><time>2026-05-01T09:23:09.001Z</time></trkpt><trkpt lat="41.25730428895722" lon="9.419148212924204"><ele>15.0</ele><time>2026-05-01T09:23:10.001Z</time></trkpt><trkpt lat="41.25729625427851" lon="9.418932367800476"><ele>14.75</ele><time>2026-05-01T09:23:11.001Z</time></trkpt><trkpt lat="41.25728645466275" lon="9.418730032393547"><ele>14.5</ele><time>2026-05-01T09:23:12.001Z</time></trkpt><trkpt lat="41.257283220466725" lon="9.418542502508984"><ele>14.25</ele><time>2026-05-01T09:23:13.001Z</time></trkpt><trkpt lat="41.257269709507746" lon="9.418381900236112"><ele>14.0</ele><time>2026-05-01T09:23:14.001Z</time></trkpt><trkpt lat="41.257246951934455" lon="9.418247515646854"><ele>14.000000000000002</ele><time>2026-05-01T09:23:15.001Z</time></trkpt><trkpt lat="41.25720739254181" lon="9.418137976261328"><ele>14.0</ele><time>2026-05-01T09:23:16.001Z</time></trkpt><trkpt lat="41.257147205512574" lon="9.41805496042803"><ele>14.0</ele><time>2026-05-01T09:23:17.001Z</time></trkpt><trkpt lat="41.2570790444137" lon="9.418003143679066"><ele>14.0</ele><time>2026-05-01T09:23:18.001Z</time></trkpt><trkpt lat="41.256999097268924" lon="9.417987363341219"><ele>14.000000000000002</ele><time>2026-05-01T09:23:19.001Z</time></trkpt><trkpt lat="41.25691056712282" lon="9.41799274993005"><ele>14.0</ele><time>2026-05-01T09:23:20.001Z</time></trkpt><trkpt lat="41.25681854837789" lon="9.418000138532236"><ele>14.0</ele><time>2026-05-01T09:23:21.001Z</time></trkpt><trkpt lat="41.25671612394562" lon="9.418009407221598"><ele>13.999999999999998</ele><time>2026-05-01T09:23:22.001Z</time></trkpt><trkpt lat="41.256612327348286" lon="9.418015489000588"><ele>13.999999999999998</ele><time>2026-05-01T09:23:23.001Z</time></trkpt><trkpt lat="41.2565065795731" lon="9.418017997352162"><ele>14.0</ele><time>2026-05-01T09:23:24.001Z</time></trkpt><trkpt lat="41.25639134617603" lon="9.41802541945485"><ele>14.0</ele><time>2026-05-01T09:23:25.001Z</time></trkpt><trkpt lat="41.25626272445594" lon="9.418031113595212"><ele>14.0</ele><time>2026-05-01T09:23:26.001Z</time></trkpt><trkpt lat="41.25614771326181" lon="9.418039595639488"><ele>14.0</ele><time>2026-05-01T09:23:27.001Z</time></trkpt><trkpt lat="41.25603600226427" lon="9.418060694057864"><ele>14.0</ele><time>2026-05-01T09:23:28.001Z</time></trkpt><trkpt lat="41.2559262983538" lon="9.41810026738285"><ele>14.0</ele><time>2026-05-01T09:23:29.001Z</time></trkpt><trkpt lat="41.255811291817416" lon="9.418168620307165"><ele>14.0</ele><time>2026-05-01T09:23:30.001Z</time></trkpt><trkpt lat="41.255678579298795" lon="9.418260781831535"><ele>14.0</ele><time>2026-05-01T09:23:31.001Z</time></trkpt><trkpt lat="41.255550576746025" lon="9.418346200630682"><ele>14.0</ele><time>2026-05-01T09:23:32.001Z</time></trkpt><trkpt lat="41.25544264623756" lon="9.418414408679254"><ele>14.0</ele><time>2026-05-01T09:23:33.001Z</time></trkpt><trkpt lat="41.25533978927397" lon="9.418478496036169"><ele>13.000000000000002</ele><time>2026-05-01T09:23:34.001Z</time></trkpt><trkpt lat="41.25524610982385" lon="9.41848559008704"><ele>12.0</ele><time>2026-05-01T09:23:35.001Z</time></trkpt><trkpt lat="41.25514924576881" lon="9.41846586882526"><ele>11.0</ele><time>2026-05-01T09:23:36.001Z</time></trkpt><trkpt lat="41.25507209037343" lon="9.418392895637378"><ele>10.0</ele><time>2026-05-01T09:23:37.001Z</time></trkpt><trkpt lat="41.2550194340051" lon="9.418310159563156"><ele>9.0</ele><time>2026-05-01T09:23:38.001Z</time></trkpt><trkpt lat="41.25499195718298" lon="9.418217236390538"><ele>8.0</ele><time>2026-05-01T09:23:39.001Z</time></trkpt><trkpt lat="41.254987847219795" lon="9.418120690293852"><ele>8.0</ele><time>2026-05-01T09:23:40.001Z</time></trkpt><trkpt lat="41.25500477483849" lon="9.418014246126662"><ele>8.0</ele><time>2026-05-01T09:23:41.001Z</time></trkpt><trkpt lat="41.25504464579944" lon="9.417885395150826"><ele>8.0</ele><time>2026-05-01T09:23:42.001Z</time></trkpt><trkpt lat="41.25511041453002" lon="9.41774258517004"><ele>8.0</ele><time>2026-05-01T09:23:43.001Z</time></trkpt><trkpt lat="41.25519447285658" lon="9.417611148455986"><ele>8.0</ele><time>2026-05-01T09:23:44.001Z</time></trkpt><trkpt lat="41.25528791190643" lon="9.417494227055984"><ele>7.5</ele><time>2026-05-01T09:23:45.001Z</time></trkpt><trkpt lat="41.2553914867181" lon="9.417381649681634"><ele>7.0</ele><time>2026-05-01T09:23:46.001Z</time></trkpt><trkpt lat="41.25549726810704" lon="9.417273558121188"><ele>6.5</ele><time>2026-05-01T09:23:47.001Z</time></trkpt><trkpt lat="41.255595303778435" lon="9.417171778594907"><ele>6.0</ele><time>2026-05-01T09:23:48.001Z</time></trkpt><trkpt lat="41.25568802465752" lon="9.417075321434398"><ele>6.0</ele><time>2026-05-01T09:23:49.001Z</time></trkpt><trkpt lat="41.25576973479847" lon="9.416984517040182"><ele>6.0</ele><time>2026-05-01T09:23:50.001Z</time></trkpt><trkpt lat="41.25583914414367" lon="9.416891650738627"><ele>6.0</ele><time>2026-05-01T09:23:51.001Z</time></trkpt><trkpt lat="41.25588869714652" lon="9.41678514979249"><ele>6.0</ele><time>2026-05-01T09:23:52.001Z</time></trkpt><trkpt lat="41.25591774241562" lon="9.416670394780514"><ele>6.0</ele><time>2026-05-01T09:23:53.001Z</time></trkpt><trkpt lat="41.255935093196626" lon="9.41654581700393"><ele>6.0</ele><time>2026-05-01T09:23:54.001Z</time></trkpt><trkpt lat="41.255945442112555" lon="9.416409316534736"><ele>6.0</ele><time>2026-05-01T09:23:55.001Z</time></trkpt><trkpt lat="41.25595312980506" lon="9.416269026520348"><ele>6.0</ele><time>2026-05-01T09:23:56.001Z</time></trkpt><trkpt lat="41.25594636163923" lon="9.416140009785915"><ele>6.0</ele><time>2026-05-01T09:23:57.001Z</time></trkpt><trkpt lat="41.25591634146425" lon="9.416010578126405"><ele>6.0</ele><time>2026-05-01T09:23:58Z</time></trkpt><trkpt lat="41.255869190775144" lon="9.41587908394523"><ele>6.0</ele><time>2026-05-01T09:23:59Z</time></trkpt><trkpt lat="41.25581382336848" lon="9.4157540227935"><ele>6.0</ele><time>2026-05-01T09:24:00Z</time></trkpt><trkpt lat="41.25575235327986" lon="9.41564541342639"><ele>6.0</ele><time>2026-05-01T09:24:01Z</time></trkpt><trkpt lat="41.25568129712445" lon="9.415556240830256"><ele>6.0</ele><time>2026-05-01T09:24:02Z</time></trkpt><trkpt lat="41.255604100024854" lon="9.415501723779101"><ele>6.0</ele><time>2026-05-01T09:24:03Z</time></trkpt><trkpt lat="41.25551971949246" lon="9.415477546162437"><ele>6.0</ele><time>2026-05-01T09:24:04Z</time></trkpt><trkpt lat="41.25542634182068" lon="9.41549062226498"><ele>6.0</ele><time>2026-05-01T09:24:05Z</time></trkpt><trkpt lat="41.255327565452895" lon="9.415536133493688"><ele>6.0</ele><time>2026-05-01T09:24:06Z</time></trkpt><trkpt lat="41.25523319456466" lon="9.415581924711896"><ele>6.0</ele><time>2026-05-01T09:24:07Z</time></trkpt><trkpt lat="41.255139254713285" lon="9.415624847113452"><ele>6.0</ele><time>2026-05-01T09:24:08Z</time></trkpt><trkpt lat="41.2550500331118" lon="9.415652245813186"><ele>6.0</ele><time>2026-05-01T09:24:09Z</time></trkpt><trkpt lat="41.25495787712567" lon="9.415664223735154"><ele>6.0</ele><time>2026-05-01T09:24:10Z</time></trkpt><trkpt lat="41.25485679598232" lon="9.415665951538063"><ele>6.0</ele><time>2026-05-01T09:24:11Z</time></trkpt><trkpt lat="41.254757636369774" lon="9.415658398942607"><ele>6.0</ele><time>2026-05-01T09:24:12Z</time></trkpt><trkpt lat="41.25465960473767" lon="9.415650812370993"><ele>6.0</ele><time>2026-05-01T09:24:13Z</time></trkpt><trkpt lat="41.254560376701924" lon="9.41565095023947"><ele>5.8</ele><time>2026-05-01T09:24:14Z</time></trkpt><trkpt lat="41.25445992255761" lon="9.41564575674434"><ele>5.6</ele><time>2026-05-01T09:24:15Z</time></trkpt><trkpt lat="41.25436034420261" lon="9.415633799776563"><ele>5.4</ele><time>2026-05-01T09:24:16Z</time></trkpt><trkpt lat="41.25425903716553" lon="9.41561601341919"><ele>5.2</ele><time>2026-05-01T09:24:17Z</time></trkpt><trkpt lat="41.254152387791116" lon="9.415583297667798"><ele>5.0</ele><time>2026-05-01T09:24:18Z</time></trkpt><trkpt lat="41.25403722807486" lon="9.415540842144333"><ele>4.75</ele><time>2026-05-01T09:24:19Z</time></trkpt><trkpt lat="41.25391536721564" lon="9.4154866708444"><ele>4.5</ele><time>2026-05-01T09:24:20Z</time></trkpt><trkpt lat="41.25378105591796" lon="9.415424712645468"><ele>4.25</ele><time>2026-05-01T09:24:21Z</time></trkpt><trkpt lat="41.25364935493834" lon="9.415364052678227"><ele>4.0</ele><time>2026-05-01T09:24:22Z</time></trkpt><trkpt lat="41.253522738799376" lon="9.415304738604142"><ele>4.0</ele><time>2026-05-01T09:24:23Z</time></trkpt><trkpt lat="41.25340134742527" lon="9.415247453341012"><ele>4.0</ele><time>2026-05-01T09:24:24Z</time></trkpt><trkpt lat="41.25327688613635" lon="9.415193552876605"><ele>4.0</ele><time>2026-05-01T09:24:25Z</time></trkpt><trkpt lat="41.25315203843029" lon="9.415134376533214"><ele>4.0</ele><time>2026-05-01T09:24:26Z</time></trkpt><trkpt lat="41.25302693107314" lon="9.415070378359765"><ele>5.25</ele><time>2026-05-01T09:24:27Z</time></trkpt><trkpt lat="41.25289604446757" lon="9.415009739225171"><ele>6.5</ele><time>2026-05-01T09:24:28Z</time></trkpt><trkpt lat="41.252752333789324" lon="9.414974212452154"><ele>7.75</ele><time>2026-05-01T09:24:29Z</time></trkpt><trkpt lat="41.25259589210401" lon="9.414963659528427"><ele>9.0</ele><time>2026-05-01T09:24:30Z</time></trkpt><trkpt lat="41.25245111188619" lon="9.414971610725612"><ele>9.0</ele><time>2026-05-01T09:24:31Z</time></trkpt><trkpt lat="41.25231844406875" lon="9.415000550286804"><ele>9.0</ele><time>2026-05-01T09:24:32Z</time></trkpt><trkpt lat="41.2521925269144" lon="9.41505572267162"><ele>9.0</ele><time>2026-05-01T09:24:33Z</time></trkpt><trkpt lat="41.25206614170182" lon="9.41514628705805"><ele>9.0</ele><time>2026-05-01T09:24:34Z</time></trkpt><trkpt lat="41.25193437745336" lon="9.415273889579748"><ele>8.666666666666666</ele><time>2026-05-01T09:24:35Z</time></trkpt><trkpt lat="41.251795304092" lon="9.415418145848747"><ele>8.333333333333332</ele><time>2026-05-01T09:24:36Z</time></trkpt><trkpt lat="41.25164648878569" lon="9.415574013979858"><ele>8.0</ele><time>2026-05-01T09:24:37Z</time></trkpt><trkpt lat="41.25150614999431" lon="9.415722623746703"><ele>6.5</ele><time>2026-05-01T09:24:38Z</time></trkpt><trkpt lat="41.25138353366478" lon="9.415855468557975"><ele>5.0</ele><time>2026-05-01T09:24:39Z</time></trkpt><trkpt lat="41.25127002194351" lon="9.415959136532447"><ele>3.5</ele><time>2026-05-01T09:24:40Z</time></trkpt><trkpt lat="41.25116361628246" lon="9.416029320031104"><ele>2.0</ele><time>2026-05-01T09:24:41Z</time></trkpt><trkpt lat="41.25104259255612" lon="9.416068977242894"><ele>2.0</ele><time>2026-05-01T09:24:42Z</time></trkpt><trkpt lat="41.25092991596229" lon="9.416077108486032"><ele>2.0</ele><time>2026-05-01T09:24:43Z</time></trkpt><trkpt lat="41.250826823504944" lon="9.416061281124195"><ele>2.0</ele><time>2026-05-01T09:24:44Z</time></trkpt><trkpt lat="41.2507299457639" lon="9.416033934420838"><ele>2.0</ele><time>2026-05-01T09:24:45Z</time></trkpt><trkpt lat="41.25063655566687" lon="9.416003991938434"><ele>2.0</ele><time>2026-05-01T09:24:46Z</time></trkpt><trkpt lat="41.25055060094842" lon="9.41597434012477"><ele>2.5</ele><time>2026-05-01T09:24:47Z</time></trkpt><trkpt lat="41.25046890270844" lon="9.415945911484862"><ele>3.0</ele><time>2026-05-01T09:24:48Z</time></trkpt><trkpt lat="41.250398742911486" lon="9.415927768004325"><ele>3.5</ele><time>2026-05-01T09:24:49Z</time></trkpt><trkpt lat="41.25031397627475" lon="9.415899078534395"><ele>4.0</ele><time>2026-05-01T09:24:50Z</time></trkpt><trkpt lat="41.250237641233596" lon="9.415872093978347"><ele>4.5</ele><time>2026-05-01T09:24:51Z</time></trkpt><trkpt lat="41.250170930616676" lon="9.415840224670381"><ele>5.0</ele><time>2026-05-01T09:24:52Z</time></trkpt><trkpt lat="41.250091230079725" lon="9.415790268908806"><ele>5.0</ele><time>2026-05-01T09:24:53Z</time></trkpt><trkpt lat="41.250008129496486" lon="9.415725622006406"><ele>5.0</ele><time>2026-05-01T09:24:54Z</time></trkpt><trkpt lat="41.24990252021959" lon="9.415622990983529"><ele>5.0</ele><time>2026-05-01T09:24:55Z</time></trkpt><trkpt lat="41.249797641067765" lon="9.41551953017453"><ele>5.0</ele><time>2026-05-01T09:24:56Z</time></trkpt><trkpt lat="41.24969484685018" lon="9.415411174067474"><ele>5.0</ele><time>2026-05-01T09:24:57Z</time></trkpt><trkpt lat="41.24960275902196" lon="9.41531027535528"><ele>5.0</ele><time>2026-05-01T09:24:58Z</time></trkpt><trkpt lat="41.249514997801555" lon="9.415217256046706"><ele>5.0</ele><time>2026-05-01T09:24:59Z</time></trkpt><trkpt lat="41.24943909134942" lon="9.415126135738998"><ele>5.0</ele><time>2026-05-01T09:25:00Z</time></trkpt><trkpt lat="41.24937450828849" lon="9.415033902527455"><ele>5.0</ele><time>2026-05-01T09:25:01Z</time></trkpt><trkpt lat="41.2493270151935" lon="9.414928835635305"><ele>5.0</ele><time>2026-05-01T09:25:02Z</time></trkpt><trkpt lat="41.24928894122214" lon="9.414809079627041"><ele>5.0</ele><time>2026-05-01T09:25:03Z</time></trkpt><trkpt lat="41.24926131314329" lon="9.414681755499448"><ele>5.0</ele><time>2026-05-01T09:25:04Z</time></trkpt><trkpt lat="41.249249493535174" lon="9.41453647709591"><ele>5.0</ele><time>2026-05-01T09:25:05Z</time></trkpt><trkpt lat="41.24925317968215" lon="9.41437114589875"><ele>5.0</ele><time>2026-05-01T09:25:06Z</time></trkpt><trkpt lat="41.249274676286355" lon="9.414193408984538"><ele>4.75</ele><time>2026-05-01T09:25:07Z</time></trkpt><trkpt lat="41.24930087195487" lon="9.414006447086189"><ele>4.5</ele><time>2026-05-01T09:25:08Z</time></trkpt><trkpt lat="41.2493274038355" lon="9.41381161953723"><ele>4.25</ele><time>2026-05-01T09:25:09Z</time></trkpt><trkpt lat="41.249352809279934" lon="9.413626379129575"><ele>4.0</ele><time>2026-05-01T09:25:10Z</time></trkpt><trkpt lat="41.249374666449484" lon="9.413453233754902"><ele>4.75</ele><time>2026-05-01T09:25:11Z</time></trkpt><trkpt lat="41.24938320535922" lon="9.413286052143807"><ele>5.5</ele><time>2026-05-01T09:25:12Z</time></trkpt><trkpt lat="41.24936858313982" lon="9.413103616093348"><ele>6.25</ele><time>2026-05-01T09:25:13Z</time></trkpt><trkpt lat="41.24933014052332" lon="9.412898579708886"><ele>7.0</ele><time>2026-05-01T09:25:14Z</time></trkpt><trkpt lat="41.24928346567302" lon="9.412709700757336"><ele>7.0</ele><time>2026-05-01T09:25:15Z</time></trkpt><trkpt lat="41.24925031059633" lon="9.412542298756497"><ele>7.0</ele><time>2026-05-01T09:25:16Z</time></trkpt><trkpt lat="41.249243549896796" lon="9.41238110901929"><ele>7.0</ele><time>2026-05-01T09:25:17Z</time></trkpt><trkpt lat="41.24926761009356" lon="9.412214475302044"><ele>7.0</ele><time>2026-05-01T09:25:18Z</time></trkpt><trkpt lat="41.24931942252253" lon="9.412033437015848"><ele>9.666666666666668</ele><time>2026-05-01T09:25:19Z</time></trkpt><trkpt lat="41.24938202376282" lon="9.411832095581358"><ele>12.333333333333334</ele><time>2026-05-01T09:25:20Z</time></trkpt><trkpt lat="41.24944498742424" lon="9.411634343854864"><ele>15.0</ele><time>2026-05-01T09:25:21Z</time></trkpt><trkpt lat="41.249511670612314" lon="9.411425215150864"><ele>19.0</ele><time>2026-05-01T09:25:22Z</time></trkpt><trkpt lat="41.249572027165264" lon="9.411210114949176"><ele>23.0</ele><time>2026-05-01T09:25:23Z</time></trkpt><trkpt lat="41.24961413688292" lon="9.410990886505699"><ele>27.0</ele><time>2026-05-01T09:25:24Z</time></trkpt><trkpt lat="41.24963188019554" lon="9.410758781418176"><ele>27.0</ele><time>2026-05-01T09:25:25Z</time></trkpt><trkpt lat="41.249631633758675" lon="9.410536535926534"><ele>27.0</ele><time>2026-05-01T09:25:26Z</time></trkpt><trkpt lat="41.24964364234461" lon="9.410332986032797"><ele>27.0</ele><time>2026-05-01T09:25:27Z</time></trkpt><trkpt lat="41.24968028549046" lon="9.410165629467794"><ele>26.6</ele><time>2026-05-01T09:25:28Z</time></trkpt><trkpt lat="41.24973209095858" lon="9.410032395445366"><ele>26.200000000000003</ele><time>2026-05-01T09:25:29Z</time></trkpt><trkpt lat="41.24977095511291" lon="9.40991398164234"><ele>25.8</ele><time>2026-05-01T09:25:30Z</time></trkpt><trkpt lat="41.249774080540114" lon="9.409798706988946"><ele>25.4</ele><time>2026-05-01T09:25:31Z</time></trkpt><trkpt lat="41.24973677374961" lon="9.409688413396369"><ele>25.0</ele><time>2026-05-01T09:25:32Z</time></trkpt><trkpt lat="41.24966496705556" lon="9.4096077011068"><ele>24.25</ele><time>2026-05-01T09:25:33Z</time></trkpt><trkpt lat="41.24956226215462" lon="9.409570887202262"><ele>23.5</ele><time>2026-05-01T09:25:34Z</time></trkpt><trkpt lat="41.249425480182886" lon="9.409547782193064"><ele>22.75</ele><time>2026-05-01T09:25:35Z</time></trkpt><trkpt lat="41.24927875951714" lon="9.409505283651935"><ele>22.0</ele><time>2026-05-01T09:25:36Z</time></trkpt><trkpt lat="41.24914422481456" lon="9.409435989513272"><ele>22.0</ele><time>2026-05-01T09:25:37Z</time></trkpt><trkpt lat="41.24900780418703" lon="9.409365424293892"><ele>22.0</ele><time>2026-05-01T09:25:38Z</time></trkpt><trkpt lat="41.24887395584759" lon="9.409314356721906"><ele>22.0</ele><time>2026-05-01T09:25:39Z</time></trkpt><trkpt lat="41.24875838309668" lon="9.409283363027349"><ele>22.0</ele><time>2026-05-01T09:25:40Z</time></trkpt><trkpt lat="41.24864954599182" lon="9.409257644451394"><ele>23.400000000000002</ele><time>2026-05-01T09:25:41Z</time></trkpt><trkpt lat="41.24854133873829" lon="9.409230098332287"><ele>24.8</ele><time>2026-05-01T09:25:42Z</time></trkpt><trkpt lat="41.24843138150373" lon="9.40920612982614"><ele>26.2</ele><time>2026-05-01T09:25:43Z</time></trkpt><trkpt lat="41.24832551186586" lon="9.409181911360163"><ele>27.6</ele><time>2026-05-01T09:25:44Z</time></trkpt><trkpt lat="41.24822426169582" lon="9.409160778984779"><ele>29.0</ele><time>2026-05-01T09:25:45Z</time></trkpt><trkpt lat="41.24812190201299" lon="9.409137400055288"><ele>29.0</ele><time>2026-05-01T09:25:46Z</time></trkpt><trkpt lat="41.248016294019244" lon="9.409115041965181"><ele>29.0</ele><time>2026-05-01T09:25:47Z</time></trkpt><trkpt lat="41.247918668648644" lon="9.409093148321503"><ele>29.0</ele><time>2026-05-01T09:25:48Z</time></trkpt><trkpt lat="41.24782800897826" lon="9.409071054904505"><ele>29.0</ele><time>2026-05-01T09:25:49Z</time></trkpt><trkpt lat="41.24774368772976" lon="9.409050345871695"><ele>29.0</ele><time>2026-05-01T09:25:50Z</time></trkpt><trkpt lat="41.24766599237731" lon="9.409030555460959"><ele>29.0</ele><time>2026-05-01T09:25:51Z</time></trkpt><trkpt lat="41.24760140731429" lon="9.409010829655395"><ele>29.0</ele><time>2026-05-01T09:25:52Z</time></trkpt><trkpt lat="41.24751403938926" lon="9.408968931436473"><ele>29.0</ele><time>2026-05-01T09:25:54Z</time></trkpt><trkpt lat="41.247443662442336" lon="9.408941460142737"><ele>29.0</ele><time>2026-05-01T09:26:50Z</time></trkpt><trkpt lat="41.247357738595845" lon="9.408912126802711"><ele>29.0</ele><time>2026-05-01T09:26:52Z</time></trkpt><trkpt lat="41.247286991231014" lon="9.408741387319703"><ele>29.0</ele><time>2026-05-01T09:26:54Z</time></trkpt><trkpt lat="41.24725148684627" lon="9.408625997790315"><ele>29.0</ele><time>2026-05-01T09:26:55Z</time></trkpt><trkpt lat="41.247224184816176" lon="9.408494122841386"><ele>29.0</ele><time>2026-05-01T09:26:56Z</time></trkpt><trkpt lat="41.24720039318053" lon="9.408347998976547"><ele>29.0</ele><time>2026-05-01T09:26:57Z</time></trkpt><trkpt lat="41.24717957611805" lon="9.40819041944097"><ele>29.0</ele><time>2026-05-01T09:26:58Z</time></trkpt><trkpt lat="41.24716225210783" lon="9.408016947682363"><ele>27.25</ele><time>2026-05-01T09:26:59Z</time></trkpt><trkpt lat="41.24714065745389" lon="9.407847754438512"><ele>25.5</ele><time>2026-05-01T09:27:00Z</time></trkpt><trkpt lat="41.247100415409534" lon="9.407681354772869"><ele>23.75</ele><time>2026-05-01T09:27:01Z</time></trkpt><trkpt lat="41.24703165115792" lon="9.407513006327406"><ele>22.0</ele><time>2026-05-01T09:27:02Z</time></trkpt><trkpt lat="41.246937376677245" lon="9.40734474097523"><ele>22.0</ele><time>2026-05-01T09:27:03Z</time></trkpt><trkpt lat="41.24682974413821" lon="9.407175143090743"><ele>22.0</ele><time>2026-05-01T09:27:04Z</time></trkpt><trkpt lat="41.246726163472324" lon="9.407015157301439"><ele>22.0</ele><time>2026-05-01T09:27:05Z</time></trkpt><trkpt lat="41.24662617604625" lon="9.406849417960464"><ele>21.0</ele><time>2026-05-01T09:27:06Z</time></trkpt><trkpt lat="41.246538312059755" lon="9.406691001800827"><ele>20.0</ele><time>2026-05-01T09:27:07Z</time></trkpt><trkpt lat="41.24645167868061" lon="9.40654073587793"><ele>19.0</ele><time>2026-05-01T09:27:08Z</time></trkpt><trkpt lat="41.24636448528153" lon="9.406393500430527"><ele>18.0</ele><time>2026-05-01T09:27:09Z</time></trkpt><trkpt lat="41.246280035839504" lon="9.406253798996023"><ele>17.25</ele><time>2026-05-01T09:27:10Z</time></trkpt><trkpt lat="41.24619780050684" lon="9.406117062262636"><ele>16.5</ele><time>2026-05-01T09:27:11Z</time></trkpt><trkpt lat="41.24611898718983" lon="9.405985480429377"><ele>15.75</ele><time>2026-05-01T09:27:12Z</time></trkpt><trkpt lat="41.24604389887034" lon="9.405855324322514"><ele>15.0</ele><time>2026-05-01T09:27:13Z</time></trkpt><trkpt lat="41.24597072962003" lon="9.405728642875443"><ele>15.0</ele><time>2026-05-01T09:27:14Z</time></trkpt><trkpt lat="41.24589957106687" lon="9.40560447380577"><ele>15.0</ele><time>2026-05-01T09:27:15Z</time></trkpt><trkpt lat="41.2458281498734" lon="9.405485404914286"><ele>15.0</ele><time>2026-05-01T09:27:16Z</time></trkpt><trkpt lat="41.24575930828015" lon="9.405368573035737"><ele>15.0</ele><time>2026-05-01T09:27:17Z</time></trkpt><trkpt lat="41.245692444295706" lon="9.405255841836729"><ele>14.4</ele><time>2026-05-01T09:27:18Z</time></trkpt><trkpt lat="41.24563003338393" lon="9.405145165871227"><ele>13.8</ele><time>2026-05-01T09:27:19Z</time></trkpt><trkpt lat="41.24556617836995" lon="9.405032069782221"><ele>13.2</ele><time>2026-05-01T09:27:20Z</time></trkpt><trkpt lat="41.24550278667934" lon="9.404919867727784"><ele>12.6</ele><time>2026-05-01T09:27:21Z</time></trkpt><trkpt lat="41.245438989321904" lon="9.404809448820949"><ele>12.0</ele><time>2026-05-01T09:27:22Z</time></trkpt><trkpt lat="41.24537206329037" lon="9.404696739673387"><ele>10.75</ele><time>2026-05-01T09:27:23Z</time></trkpt><trkpt lat="41.24530659784725" lon="9.404573041578898"><ele>9.5</ele><time>2026-05-01T09:27:24Z</time></trkpt><trkpt lat="41.24522785123393" lon="9.404437967002194"><ele>8.25</ele><time>2026-05-01T09:27:25Z</time></trkpt><trkpt lat="41.24514381125568" lon="9.40430202693985"><ele>7.0</ele><time>2026-05-01T09:27:26Z</time></trkpt><trkpt lat="41.24505520350809" lon="9.404154439604149"><ele>7.0</ele><time>2026-05-01T09:27:27Z</time></trkpt><trkpt lat="41.24496007526196" lon="9.403996165887445"><ele>7.0</ele><time>2026-05-01T09:27:28Z</time></trkpt><trkpt lat="41.244861937499415" lon="9.403834141443472"><ele>7.0</ele><time>2026-05-01T09:27:29Z</time></trkpt><trkpt lat="41.24475570073773" lon="9.40368442259996"><ele>7.0</ele><time>2026-05-01T09:27:30Z</time></trkpt><trkpt lat="41.24463206819981" lon="9.403541343341226"><ele>7.0</ele><time>2026-05-01T09:27:31Z</time></trkpt><trkpt lat="41.244493390583536" lon="9.403419302428782"><ele>7.0</ele><time>2026-05-01T09:27:32Z</time></trkpt><trkpt lat="41.24436096841155" lon="9.403311677450882"><ele>7.0</ele><time>2026-05-01T09:27:33Z</time></trkpt><trkpt lat="41.24422439060779" lon="9.403201319545307"><ele>7.0</ele><time>2026-05-01T09:27:34Z</time></trkpt><trkpt lat="41.24407936507934" lon="9.403083870408928"><ele>7.0</ele><time>2026-05-01T09:27:35Z</time></trkpt><trkpt lat="41.24392595575948" lon="9.402959968640436"><ele>10.666666666666668</ele><time>2026-05-01T09:27:36Z</time></trkpt><trkpt lat="41.24376997516156" lon="9.402835602538701"><ele>14.333333333333334</ele><time>2026-05-01T09:27:37Z</time></trkpt><trkpt lat="41.2436095293625" lon="9.402710642927701"><ele>18.0</ele><time>2026-05-01T09:27:38Z</time></trkpt><trkpt lat="41.24345478731169" lon="9.402590608889668"><ele>18.0</ele><time>2026-05-01T09:27:39Z</time></trkpt><trkpt lat="41.243311868203456" lon="9.402478527445531"><ele>18.0</ele><time>2026-05-01T09:27:40Z</time></trkpt><trkpt lat="41.243179163134066" lon="9.40237252103102"><ele>18.0</ele><time>2026-05-01T09:27:41Z</time></trkpt><trkpt lat="41.2430549847331" lon="9.402271138770793"><ele>17.0</ele><time>2026-05-01T09:27:42Z</time></trkpt><trkpt lat="41.242938122401654" lon="9.402171447364916"><ele>16.0</ele><time>2026-05-01T09:27:43Z</time></trkpt><trkpt lat="41.24282721897003" lon="9.402072753064386"><ele>15.0</ele><time>2026-05-01T09:27:44Z</time></trkpt><trkpt lat="41.24271996537203" lon="9.40197464262001"><ele>14.0</ele><time>2026-05-01T09:27:45Z</time></trkpt><trkpt lat="41.24261897841164" lon="9.401876960060092"><ele>14.0</ele><time>2026-05-01T09:27:46Z</time></trkpt><trkpt lat="41.24251196963006" lon="9.401783390041624"><ele>14.0</ele><time>2026-05-01T09:27:47Z</time></trkpt><trkpt lat="41.24240980482945" lon="9.401691014085685"><ele>14.0</ele><time>2026-05-01T09:27:48Z</time></trkpt><trkpt lat="41.24231144273393" lon="9.401600579564368"><ele>14.0</ele><time>2026-05-01T09:27:49Z</time></trkpt><trkpt lat="41.24221598358431" lon="9.401520643201177"><ele>13.6</ele><time>2026-05-01T09:27:50Z</time></trkpt><trkpt lat="41.24212581803137" lon="9.401445739203657"><ele>13.2</ele><time>2026-05-01T09:27:50.999Z</time></trkpt><trkpt lat="41.24203535726726" lon="9.401375049058112"><ele>12.799999999999999</ele><time>2026-05-01T09:27:51.999Z</time></trkpt><trkpt lat="41.24193699467726" lon="9.401309399699718"><ele>12.399999999999999</ele><time>2026-05-01T09:27:52.999Z</time></trkpt><trkpt lat="41.241833925647036" lon="9.40124840509946"><ele>12.0</ele><time>2026-05-01T09:27:53.999Z</time></trkpt><trkpt lat="41.24172123852336" lon="9.40119642773092"><ele>12.0</ele><time>2026-05-01T09:27:54.999Z</time></trkpt><trkpt lat="41.24160852467062" lon="9.401149281080976"><ele>12.0</ele><time>2026-05-01T09:27:55.999Z</time></trkpt><trkpt lat="41.24150012522718" lon="9.401102048482949"><ele>12.0</ele><time>2026-05-01T09:27:56.999Z</time></trkpt><trkpt lat="41.241397264108905" lon="9.401057691162245"><ele>12.0</ele><time>2026-05-01T09:27:57.999Z</time></trkpt><trkpt lat="41.24130192406606" lon="9.401010067130025"><ele>12.0</ele><time>2026-05-01T09:27:58.999Z</time></trkpt><trkpt lat="41.24121340951414" lon="9.400962915815864"><ele>13.333333333333334</ele><time>2026-05-01T09:27:59.999Z</time></trkpt><trkpt lat="41.24113169855012" lon="9.400918285965934"><ele>14.666666666666668</ele><time>2026-05-01T09:28:00.999Z</time></trkpt><trkpt lat="41.241064113109644" lon="9.400882590097956"><ele>16.0</ele><time>2026-05-01T09:28:01.999Z</time></trkpt><trkpt lat="41.2409929621313" lon="9.40085652423709"><ele>17.333333333333336</ele><time>2026-05-01T09:28:03.999Z</time></trkpt><trkpt lat="41.24108749134589" lon="9.400873633688139"><ele>18.666666666666668</ele><time>2026-05-01T09:28:20Z</time></trkpt><trkpt lat="41.24120141944618" lon="9.400898334207062"><ele>20.0</ele><time>2026-05-01T09:28:22Z</time></trkpt><trkpt lat="41.24127120685817" lon="9.400978160409084"><ele>20.0</ele><time>2026-05-01T09:28:23Z</time></trkpt><trkpt lat="41.2413511013603" lon="9.401051296632563"><ele>20.0</ele><time>2026-05-01T09:28:24Z</time></trkpt><trkpt lat="41.241461016648174" lon="9.40110933688454"><ele>20.0</ele><time>2026-05-01T09:28:25Z</time></trkpt><trkpt lat="41.24157999317064" lon="9.4011546212913"><ele>20.0</ele><time>2026-05-01T09:28:26Z</time></trkpt><trkpt lat="41.24170112567052" lon="9.401239146486537"><ele>21.75</ele><time>2026-05-01T09:28:27Z</time></trkpt><trkpt lat="41.24182958311557" lon="9.401301220051433"><ele>23.5</ele><time>2026-05-01T09:28:28Z</time></trkpt><trkpt lat="41.2419645562071" lon="9.40135574932955"><ele>25.25</ele><time>2026-05-01T09:28:29Z</time></trkpt><trkpt lat="41.242078222097035" lon="9.401459771123124"><ele>27.0</ele><time>2026-05-01T09:28:30Z</time></trkpt><trkpt lat="41.24218967689606" lon="9.401553786753375"><ele>27.0</ele><time>2026-05-01T09:28:31Z</time></trkpt><trkpt lat="41.242291853573" lon="9.401641065700858"><ele>27.000000000000004</ele><time>2026-05-01T09:28:32Z</time></trkpt><trkpt lat="41.242385797872124" lon="9.40172191122652"><ele>27.000000000000004</ele><time>2026-05-01T09:28:33Z</time></trkpt><trkpt lat="41.24247247864839" lon="9.401797309360385"><ele>27.0</ele><time>2026-05-01T09:28:34Z</time></trkpt><trkpt lat="41.242552935964426" lon="9.401867362166014"><ele>27.0</ele><time>2026-05-01T09:28:35Z</time></trkpt><trkpt lat="41.24262889724308" lon="9.401934124933897"><ele>27.200000000000003</ele><time>2026-05-01T09:28:36Z</time></trkpt><trkpt lat="41.24270897554291" lon="9.402004506199383"><ele>27.400000000000002</ele><time>2026-05-01T09:28:37Z</time></trkpt><trkpt lat="41.24278961545907" lon="9.402075381092404"><ele>27.599999999999998</ele><time>2026-05-01T09:28:38Z</time></trkpt><trkpt lat="41.242870584168934" lon="9.402146545008334"><ele>27.799999999999997</ele><time>2026-05-01T09:28:39Z</time></trkpt><trkpt lat="41.24295401477751" lon="9.402219282083466"><ele>28.0</ele><time>2026-05-01T09:28:40Z</time></trkpt><trkpt lat="41.243050062431024" lon="9.402277313910728"><ele>25.5</ele><time>2026-05-01T09:28:41Z</time></trkpt><trkpt lat="41.24313815751232" lon="9.402353205738722"><ele>23.0</ele><time>2026-05-01T09:28:42Z</time></trkpt><trkpt lat="41.2432290163634" lon="9.402436281587587"><ele>20.5</ele><time>2026-05-01T09:28:43Z</time></trkpt><trkpt lat="41.24333308134091" lon="9.402524072907646"><ele>18.0</ele><time>2026-05-01T09:28:44Z</time></trkpt><trkpt lat="41.24344901901137" lon="9.402613570663206"><ele>18.0</ele><time>2026-05-01T09:28:45Z</time></trkpt><trkpt lat="41.243576480513035" lon="9.402711265275334"><ele>18.0</ele><time>2026-05-01T09:28:46Z</time></trkpt><trkpt lat="41.24370629394214" lon="9.402812090319246"><ele>18.0</ele><time>2026-05-01T09:28:47Z</time></trkpt><trkpt lat="41.24383102568653" lon="9.4029068615868"><ele>18.0</ele><time>2026-05-01T09:28:48Z</time></trkpt><trkpt lat="41.24395112740942" lon="9.403005456481605"><ele>15.25</ele><time>2026-05-01T09:28:49Z</time></trkpt><trkpt lat="41.24407512768093" lon="9.403105439155006"><ele>12.5</ele><time>2026-05-01T09:28:50Z</time></trkpt><trkpt lat="41.24418595709097" lon="9.40320285647166"><ele>9.75</ele><time>2026-05-01T09:28:51Z</time></trkpt><trkpt lat="41.244300054743256" lon="9.403297670997915"><ele>7.0</ele><time>2026-05-01T09:28:52Z</time></trkpt><trkpt lat="41.24440992823308" lon="9.40338484085677"><ele>7.0</ele><time>2026-05-01T09:28:53Z</time></trkpt><trkpt lat="41.24451740729135" lon="9.403471144088744"><ele>7.0</ele><time>2026-05-01T09:28:54Z</time></trkpt><trkpt lat="41.244622166910375" lon="9.403560089808744"><ele>7.0</ele><time>2026-05-01T09:28:55Z</time></trkpt><trkpt lat="41.24471911871543" lon="9.403663488843867"><ele>7.0</ele><time>2026-05-01T09:28:56Z</time></trkpt><trkpt lat="41.24480783797012" lon="9.403793967767946"><ele>7.0</ele><time>2026-05-01T09:28:57Z</time></trkpt><trkpt lat="41.24489815170509" lon="9.403946009242757"><ele>7.0</ele><time>2026-05-01T09:28:58Z</time></trkpt><trkpt lat="41.24499584825402" lon="9.404109853508292"><ele>7.0</ele><time>2026-05-01T09:28:59Z</time></trkpt><trkpt lat="41.24509791089998" lon="9.404283272587833"><ele>7.0</ele><time>2026-05-01T09:29:00Z</time></trkpt><trkpt lat="41.24520370925167" lon="9.40446440995403"><ele>7.0</ele><time>2026-05-01T09:29:01Z</time></trkpt><trkpt lat="41.24531489708535" lon="9.404652987500313"><ele>7.0</ele><time>2026-05-01T09:29:02Z</time></trkpt><trkpt lat="41.24542397715161" lon="9.404839192753627"><ele>8.333333333333334</ele><time>2026-05-01T09:29:03Z</time></trkpt><trkpt lat="41.24553657599253" lon="9.40502086910784"><ele>9.666666666666666</ele><time>2026-05-01T09:29:04Z</time></trkpt><trkpt lat="41.24564933235933" lon="9.405210599420956"><ele>11.0</ele><time>2026-05-01T09:29:05Z</time></trkpt><trkpt lat="41.24576073735905" lon="9.405401762178926"><ele>12.333333333333332</ele><time>2026-05-01T09:29:06Z</time></trkpt><trkpt lat="41.245870026145944" lon="9.40559096137172"><ele>13.666666666666666</ele><time>2026-05-01T09:29:07Z</time></trkpt><trkpt lat="41.24597619398469" lon="9.405773023816831"><ele>15.0</ele><time>2026-05-01T09:29:08Z</time></trkpt><trkpt lat="41.246078819118445" lon="9.405945356481379"><ele>15.0</ele><time>2026-05-01T09:29:09Z</time></trkpt><trkpt lat="41.24617487503218" lon="9.406109699445794"><ele>15.0</ele><time>2026-05-01T09:29:10Z</time></trkpt><trkpt lat="41.24626838598434" lon="9.40627439989596"><ele>15.0</ele><time>2026-05-01T09:29:11Z</time></trkpt><trkpt lat="41.24636337267139" lon="9.406434921391853"><ele>16.0</ele><time>2026-05-01T09:29:12Z</time></trkpt><trkpt lat="41.246462419902876" lon="9.406592612339988"><ele>17.0</ele><time>2026-05-01T09:29:13Z</time></trkpt><trkpt lat="41.24655907357795" lon="9.406757522489968"><ele>18.0</ele><time>2026-05-01T09:29:14Z</time></trkpt><trkpt lat="41.246653080552974" lon="9.406920290840917"><ele>18.0</ele><time>2026-05-01T09:29:15Z</time></trkpt><trkpt lat="41.24674476669503" lon="9.407078750182128"><ele>18.0</ele><time>2026-05-01T09:29:16Z</time></trkpt><trkpt lat="41.2468348752066" lon="9.407233824712447"><ele>18.0</ele><time>2026-05-01T09:29:17Z</time></trkpt><trkpt lat="41.24691699571029" lon="9.407378989528636"><ele>18.0</ele><time>2026-05-01T09:29:18Z</time></trkpt><trkpt lat="41.24699520610053" lon="9.407526316825212"><ele>19.0</ele><time>2026-05-01T09:29:19Z</time></trkpt><trkpt lat="41.24706150502614" lon="9.407682293467595"><ele>20.0</ele><time>2026-05-01T09:29:20Z</time></trkpt><trkpt lat="41.2471116697483" lon="9.407851856169382"><ele>21.0</ele><time>2026-05-01T09:29:21Z</time></trkpt><trkpt lat="41.247143955781766" lon="9.408036201716053"><ele>22.0</ele><time>2026-05-01T09:29:22Z</time></trkpt><trkpt lat="41.24716565196681" lon="9.408223784642956"><ele>23.400000000000002</ele><time>2026-05-01T09:29:23Z</time></trkpt><trkpt lat="41.24718351059806" lon="9.408387958554313"><ele>24.8</ele><time>2026-05-01T09:29:24Z</time></trkpt><trkpt lat="41.247208871671276" lon="9.408529898589927"><ele>26.2</ele><time>2026-05-01T09:29:25Z</time></trkpt><trkpt lat="41.24723942579123" lon="9.408653471138567"><ele>27.6</ele><time>2026-05-01T09:29:26Z</time></trkpt><trkpt lat="41.24726508266063" lon="9.408766553751596"><ele>29.0</ele><time>2026-05-01T09:29:27Z</time></trkpt><trkpt lat="41.24726383460725" lon="9.408850450584643"><ele>29.0</ele><time>2026-05-01T09:29:28Z</time></trkpt><trkpt lat="41.247280751111234" lon="9.408976435448608"><ele>29.0</ele><time>2026-05-01T09:29:31Z</time></trkpt><trkpt lat="41.247408593374296" lon="9.409012373223058"><ele>29.0</ele><time>2026-05-01T09:29:32Z</time></trkpt><trkpt lat="41.24749836184072" lon="9.409033679212435"><ele>29.0</ele><time>2026-05-01T09:29:33Z</time></trkpt><trkpt lat="41.247621493907324" lon="9.409070603174877"><ele>29.0</ele><time>2026-05-01T09:29:34Z</time></trkpt><trkpt lat="41.2477657421521" lon="9.409102215358114"><ele>29.0</ele><time>2026-05-01T09:29:35Z</time></trkpt><trkpt lat="41.24791734945022" lon="9.409135440263638"><ele>29.0</ele><time>2026-05-01T09:29:36Z</time></trkpt><trkpt lat="41.24804934001113" lon="9.409162856398977"><ele>29.0</ele><time>2026-05-01T09:29:37Z</time></trkpt><trkpt lat="41.24817532316738" lon="9.409189200716716"><ele>29.0</ele><time>2026-05-01T09:29:38Z</time></trkpt><trkpt lat="41.24829168705597" lon="9.409214651564982"><ele>29.0</ele><time>2026-05-01T09:29:39Z</time></trkpt><trkpt lat="41.24840398557459" lon="9.409217023502205"><ele>29.0</ele><time>2026-05-01T09:29:40Z</time></trkpt><trkpt lat="41.248505544803024" lon="9.409260751274937"><ele>29.0</ele><time>2026-05-01T09:29:41Z</time></trkpt><trkpt lat="41.248620630514296" lon="9.409261454189727"><ele>29.0</ele><time>2026-05-01T09:29:42Z</time></trkpt><trkpt lat="41.24874866591921" lon="9.40928347502248"><ele>29.0</ele><time>2026-05-01T09:29:43Z</time></trkpt><trkpt lat="41.24887307604214" lon="9.409314810705617"><ele>29.0</ele><time>2026-05-01T09:29:44Z</time></trkpt><trkpt lat="41.24900353254584" lon="9.409366632546316"><ele>29.0</ele><time>2026-05-01T09:29:45Z</time></trkpt><trkpt lat="41.24915476457453" lon="9.409482761684439"><ele>29.0</ele><time>2026-05-01T09:29:46Z</time></trkpt><trkpt lat="41.24930519153226" lon="9.4095549213113"><ele>28.2</ele><time>2026-05-01T09:29:47Z</time></trkpt><trkpt lat="41.24944172887154" lon="9.409588226053337"><ele>27.4</ele><time>2026-05-01T09:29:48Z</time></trkpt><trkpt lat="41.24955038059747" lon="9.409574311738831"><ele>26.6</ele><time>2026-05-01T09:29:49Z</time></trkpt><trkpt lat="41.249638441403505" lon="9.40960828529986"><ele>25.8</ele><time>2026-05-01T09:29:50Z</time></trkpt><trkpt lat="41.24969907713993" lon="9.409674184330726"><ele>25.0</ele><time>2026-05-01T09:29:51Z</time></trkpt><trkpt lat="41.249739184952155" lon="9.409764658317526"><ele>25.0</ele><time>2026-05-01T09:29:52Z</time></trkpt><trkpt lat="41.24974451787584" lon="9.409880984329623"><ele>25.0</ele><time>2026-05-01T09:29:53Z</time></trkpt><trkpt lat="41.24970744060843" lon="9.410008161288738"><ele>25.0</ele><time>2026-05-01T09:29:54Z</time></trkpt><trkpt lat="41.24965811026019" lon="9.41015986965639"><ele>25.0</ele><time>2026-05-01T09:29:55Z</time></trkpt><trkpt lat="41.24960728473215" lon="9.410332488536179"><ele>25.5</ele><time>2026-05-01T09:29:56Z</time></trkpt><trkpt lat="41.249620830820085" lon="9.410519164697677"><ele>26.0</ele><time>2026-05-01T09:29:57Z</time></trkpt><trkpt lat="41.24961814479037" lon="9.410712191867342"><ele>26.5</ele><time>2026-05-01T09:29:58Z</time></trkpt><trkpt lat="41.24960684225248" lon="9.410913844891299"><ele>27.0</ele><time>2026-05-01T09:29:59Z</time></trkpt><trkpt lat="41.24957237391017" lon="9.411119488838509"><ele>23.0</ele><time>2026-05-01T09:30:00Z</time></trkpt><trkpt lat="41.24951979597822" lon="9.411326410717132"><ele>19.0</ele><time>2026-05-01T09:30:01Z</time></trkpt><trkpt lat="41.24945702075763" lon="9.41153267857769"><ele>15.0</ele><time>2026-05-01T09:30:02Z</time></trkpt><trkpt lat="41.2493916021426" lon="9.41173500478108"><ele>15.0</ele><time>2026-05-01T09:30:03Z</time></trkpt><trkpt lat="41.24932771484579" lon="9.411918628980983"><ele>15.0</ele><time>2026-05-01T09:30:04Z</time></trkpt><trkpt lat="41.249270902407815" lon="9.41209212576918"><ele>15.0</ele><time>2026-05-01T09:30:05Z</time></trkpt><trkpt lat="41.24923701629849" lon="9.412265566780682"><ele>15.0</ele><time>2026-05-01T09:30:06Z</time></trkpt><trkpt lat="41.24920725967186" lon="9.41244458467807"><ele>12.666666666666666</ele><time>2026-05-01T09:30:07Z</time></trkpt><trkpt lat="41.249254161047446" lon="9.412637462517695"><ele>10.333333333333332</ele><time>2026-05-01T09:30:08Z</time></trkpt><trkpt lat="41.24929765173322" lon="9.412832669097014"><ele>8.0</ele><time>2026-05-01T09:30:09Z</time></trkpt><trkpt lat="41.24932303699311" lon="9.413021603378827"><ele>8.0</ele><time>2026-05-01T09:30:10Z</time></trkpt><trkpt lat="41.2493639766772" lon="9.413186679104232"><ele>8.0</ele><time>2026-05-01T09:30:11Z</time></trkpt><trkpt lat="41.24936196863743" lon="9.413370104760428"><ele>8.0</ele><time>2026-05-01T09:30:12Z</time></trkpt><trkpt lat="41.24934578092459" lon="9.413560167678611"><ele>8.0</ele><time>2026-05-01T09:30:13Z</time></trkpt><trkpt lat="41.2493225132533" lon="9.413749182973588"><ele>6.666666666666666</ele><time>2026-05-01T09:30:14Z</time></trkpt><trkpt lat="41.24929399858282" lon="9.413951925193686"><ele>5.333333333333333</ele><time>2026-05-01T09:30:15Z</time></trkpt><trkpt lat="41.24925879130388" lon="9.4141613416065"><ele>4.0</ele><time>2026-05-01T09:30:16Z</time></trkpt><trkpt lat="41.249233083302315" lon="9.41434734048139"><ele>4.0</ele><time>2026-05-01T09:30:17Z</time></trkpt><trkpt lat="41.24922437760845" lon="9.41453100915502"><ele>4.0</ele><time>2026-05-01T09:30:18Z</time></trkpt><trkpt lat="41.24922495488821" lon="9.414718266856989"><ele>4.0</ele><time>2026-05-01T09:30:19Z</time></trkpt><trkpt lat="41.24928342066844" lon="9.414884027599893"><ele>4.0</ele><time>2026-05-01T09:30:20Z</time></trkpt><trkpt lat="41.24935031263127" lon="9.41503202426347"><ele>4.333333333333333</ele><time>2026-05-01T09:30:21Z</time></trkpt><trkpt lat="41.249445470722975" lon="9.41516870946025"><ele>4.666666666666667</ele><time>2026-05-01T09:30:22Z</time></trkpt><trkpt lat="41.249567631939186" lon="9.41530456631429"><ele>5.0</ele><time>2026-05-01T09:30:23Z</time></trkpt><trkpt lat="41.249698507034076" lon="9.415446697800695"><ele>5.0</ele><time>2026-05-01T09:30:24Z</time></trkpt><trkpt lat="41.24982758535228" lon="9.41558649069971"><ele>5.0</ele><time>2026-05-01T09:30:25Z</time></trkpt><trkpt lat="41.249947613213976" lon="9.41570816422383"><ele>5.0</ele><time>2026-05-01T09:30:26Z</time></trkpt><trkpt lat="41.250068485090296" lon="9.415828122162466"><ele>5.0</ele><time>2026-05-01T09:30:27Z</time></trkpt><trkpt lat="41.25022347113131" lon="9.415881614260357"><ele>5.0</ele><time>2026-05-01T09:30:28Z</time></trkpt><trkpt lat="41.25038714723425" lon="9.415940249216183"><ele>5.0</ele><time>2026-05-01T09:30:29Z</time></trkpt><trkpt lat="41.2505506708363" lon="9.415997085444774"><ele>4.0</ele><time>2026-05-01T09:30:30Z</time></trkpt><trkpt lat="41.25071227760093" lon="9.416052369086692"><ele>3.0</ele><time>2026-05-01T09:30:31Z</time></trkpt><trkpt lat="41.25085811166005" lon="9.416089003740243"><ele>2.0</ele><time>2026-05-01T09:30:32Z</time></trkpt><trkpt lat="41.25099380365055" lon="9.416118330183572"><ele>2.0</ele><time>2026-05-01T09:30:33Z</time></trkpt><trkpt lat="41.25112731555121" lon="9.41608869054744"><ele>2.0</ele><time>2026-05-01T09:30:34Z</time></trkpt><trkpt lat="41.251249803358355" lon="9.41600130875725"><ele>2.0</ele><time>2026-05-01T09:30:35Z</time></trkpt><trkpt lat="41.251377362470336" lon="9.41589439735183"><ele>2.0</ele><time>2026-05-01T09:30:36Z</time></trkpt><trkpt lat="41.251502929865076" lon="9.415761929580745"><ele>2.6666666666666665</ele><time>2026-05-01T09:30:37Z</time></trkpt><trkpt lat="41.251635097900724" lon="9.415622989366732"><ele>3.333333333333333</ele><time>2026-05-01T09:30:38Z</time></trkpt><trkpt lat="41.25176937292245" lon="9.415483761981486"><ele>4.0</ele><time>2026-05-01T09:30:39Z</time></trkpt><trkpt lat="41.25190011920644" lon="9.41534200511347"><ele>4.0</ele><time>2026-05-01T09:30:40Z</time></trkpt><trkpt lat="41.25202639614454" lon="9.415211762436018"><ele>4.0</ele><time>2026-05-01T09:30:41Z</time></trkpt><trkpt lat="41.25215081940181" lon="9.415116083279736"><ele>4.0</ele><time>2026-05-01T09:30:42Z</time></trkpt><trkpt lat="41.25227217786587" lon="9.415053110008625"><ele>4.0</ele><time>2026-05-01T09:30:43Z</time></trkpt><trkpt lat="41.2524020291878" lon="9.415017463486386"><ele>5.25</ele><time>2026-05-01T09:30:44Z</time></trkpt><trkpt lat="41.252540375456356" lon="9.415003358501576"><ele>6.5</ele><time>2026-05-01T09:30:45Z</time></trkpt><trkpt lat="41.252678618372826" lon="9.41500888981294"><ele>7.75</ele><time>2026-05-01T09:30:46Z</time></trkpt><trkpt lat="41.252807974" lon="9.415023584270925"><ele>9.0</ele><time>2026-05-01T09:30:47Z</time></trkpt><trkpt lat="41.25293908594517" lon="9.41506514017977"><ele>9.0</ele><time>2026-05-01T09:30:48Z</time></trkpt><trkpt lat="41.25307625885163" lon="9.415122467458211"><ele>9.0</ele><time>2026-05-01T09:30:49Z</time></trkpt><trkpt lat="41.25321439664431" lon="9.415185564130152"><ele>9.0</ele><time>2026-05-01T09:30:50Z</time></trkpt><trkpt lat="41.25334718038036" lon="9.41524994894654"><ele>9.0</ele><time>2026-05-01T09:30:51Z</time></trkpt><trkpt lat="41.253479672518445" lon="9.415307137402706"><ele>8.0</ele><time>2026-05-01T09:30:52Z</time></trkpt><trkpt lat="41.253609467833165" lon="9.415360483858155"><ele>7.0</ele><time>2026-05-01T09:30:53Z</time></trkpt><trkpt lat="41.253731591654656" lon="9.415439541419552"><ele>6.0</ele><time>2026-05-01T09:30:54Z</time></trkpt><trkpt lat="41.25386887740461" lon="9.415481219658217"><ele>5.0</ele><time>2026-05-01T09:30:55Z</time></trkpt><trkpt lat="41.254004649897475" lon="9.415545312090694"><ele>5.0</ele><time>2026-05-01T09:30:56Z</time></trkpt><trkpt lat="41.254147100578095" lon="9.415606291316028"><ele>5.0</ele><time>2026-05-01T09:30:57Z</time></trkpt><trkpt lat="41.254296504552514" lon="9.415646343340773"><ele>5.0</ele><time>2026-05-01T09:30:58Z</time></trkpt><trkpt lat="41.25445093168811" lon="9.415686174059177"><ele>5.0</ele><time>2026-05-01T09:30:59Z</time></trkpt><trkpt lat="41.25461094799753" lon="9.41569305346681"><ele>5.0</ele><time>2026-05-01T09:31:00Z</time></trkpt><trkpt lat="41.254773909422596" lon="9.415699346656721"><ele>5.0</ele><time>2026-05-01T09:31:01Z</time></trkpt><trkpt lat="41.254944055101" lon="9.415698718330301"><ele>5.25</ele><time>2026-05-01T09:31:02Z</time></trkpt><trkpt lat="41.2551069606705" lon="9.415671116087433"><ele>5.5</ele><time>2026-05-01T09:31:03Z</time></trkpt><trkpt lat="41.255250572653765" lon="9.41561494875196"><ele>5.75</ele><time>2026-05-01T09:31:04Z</time></trkpt><trkpt lat="41.255376767999266" lon="9.415558232481779"><ele>6.0</ele><time>2026-05-01T09:31:05Z</time></trkpt><trkpt lat="41.255483459189755" lon="9.415503159452498"><ele>6.0</ele><time>2026-05-01T09:31:06Z</time></trkpt><trkpt lat="41.25558419479906" lon="9.41552855886049"><ele>6.0</ele><time>2026-05-01T09:31:07Z</time></trkpt><trkpt lat="41.25568048137806" lon="9.415597190021144"><ele>6.0</ele><time>2026-05-01T09:31:08Z</time></trkpt><trkpt lat="41.25576612238663" lon="9.415714691180199"><ele>6.0</ele><time>2026-05-01T09:31:09Z</time></trkpt><trkpt lat="41.25584026951683" lon="9.415860655519323"><ele>6.0</ele><time>2026-05-01T09:31:10Z</time></trkpt><trkpt lat="41.255889061442986" lon="9.416003608272513"><ele>6.0</ele><time>2026-05-01T09:31:11Z</time></trkpt><trkpt lat="41.2559178142701" lon="9.416162833739373"><ele>6.0</ele><time>2026-05-01T09:31:12Z</time></trkpt><trkpt lat="41.255924301472284" lon="9.416340766865966"><ele>6.0</ele><time>2026-05-01T09:31:13Z</time></trkpt><trkpt lat="41.25591153309033" lon="9.416519241670606"><ele>6.0</ele><time>2026-05-01T09:31:14Z</time></trkpt><trkpt lat="41.25588778167376" lon="9.416681794676085"><ele>6.0</ele><time>2026-05-01T09:31:15Z</time></trkpt><trkpt lat="41.25584722761073" lon="9.416825504562317"><ele>6.0</ele><time>2026-05-01T09:31:16Z</time></trkpt><trkpt lat="41.255774983706274" lon="9.41694648333052"><ele>6.0</ele><time>2026-05-01T09:31:17Z</time></trkpt><trkpt lat="41.25567330540878" lon="9.41705894465703"><ele>7.75</ele><time>2026-05-01T09:31:18Z</time></trkpt><trkpt lat="41.25556226783613" lon="9.417172221789857"><ele>9.5</ele><time>2026-05-01T09:31:19Z</time></trkpt><trkpt lat="41.25544322492295" lon="9.417289829880474"><ele>11.25</ele><time>2026-05-01T09:31:20Z</time></trkpt><trkpt lat="41.25532741522067" lon="9.417409599426717"><ele>13.0</ele><time>2026-05-01T09:31:21Z</time></trkpt><trkpt lat="41.25522153418813" lon="9.417528909536781"><ele>13.0</ele><time>2026-05-01T09:31:22Z</time></trkpt><trkpt lat="41.255120434541666" lon="9.417659807946576"><ele>13.0</ele><time>2026-05-01T09:31:23Z</time></trkpt><trkpt lat="41.25504203610686" lon="9.417811517229977"><ele>13.0</ele><time>2026-05-01T09:31:24Z</time></trkpt><trkpt lat="41.25498902911664" lon="9.417968248404188"><ele>13.0</ele><time>2026-05-01T09:31:25Z</time></trkpt><trkpt lat="41.25496087764994" lon="9.41811463340372"><ele>12.0</ele><time>2026-05-01T09:31:26Z</time></trkpt><trkpt lat="41.25496413290424" lon="9.418240952754342"><ele>11.0</ele><time>2026-05-01T09:31:27Z</time></trkpt><trkpt lat="41.25498488928621" lon="9.418360535816111"><ele>10.0</ele><time>2026-05-01T09:31:28Z</time></trkpt><trkpt lat="41.255057283803346" lon="9.418462519607035"><ele>9.0</ele><time>2026-05-01T09:31:29Z</time></trkpt><trkpt lat="41.255144421172915" lon="9.4185313088662"><ele>8.0</ele><time>2026-05-01T09:31:30Z</time></trkpt><trkpt lat="41.25524869454133" lon="9.418549357007441"><ele>8.0</ele><time>2026-05-01T09:31:31Z</time></trkpt><trkpt lat="41.25536218408202" lon="9.418510964381394"><ele>8.0</ele><time>2026-05-01T09:31:32Z</time></trkpt><trkpt lat="41.25546793114659" lon="9.418439129586059"><ele>8.0</ele><time>2026-05-01T09:31:33Z</time></trkpt><trkpt lat="41.25557813106171" lon="9.418359554647914"><ele>8.0</ele><time>2026-05-01T09:31:34Z</time></trkpt><trkpt lat="41.25569857528717" lon="9.418276815923187"><ele>9.5</ele><time>2026-05-01T09:31:35Z</time></trkpt><trkpt lat="41.255815661524586" lon="9.418196958632342"><ele>11.0</ele><time>2026-05-01T09:31:36Z</time></trkpt><trkpt lat="41.25592320062907" lon="9.418118234898262"><ele>12.5</ele><time>2026-05-01T09:31:37Z</time></trkpt><trkpt lat="41.256045925797125" lon="9.418077915639646"><ele>14.0</ele><time>2026-05-01T09:31:38Z</time></trkpt><trkpt lat="41.256178403448494" lon="9.41806014537708"><ele>14.0</ele><time>2026-05-01T09:31:39Z</time></trkpt><trkpt lat="41.256318693945694" lon="9.418050133768515"><ele>14.0</ele><time>2026-05-01T09:31:40Z</time></trkpt><trkpt lat="41.25645153553158" lon="9.418041062572057"><ele>14.0</ele><time>2026-05-01T09:31:41Z</time></trkpt><trkpt lat="41.256571872818746" lon="9.418030407805551"><ele>14.0</ele><time>2026-05-01T09:31:42Z</time></trkpt><trkpt lat="41.25667909106974" lon="9.418022011059993"><ele>14.000000000000002</ele><time>2026-05-01T09:31:43Z</time></trkpt><trkpt lat="41.2567765632993" lon="9.418019826392312"><ele>14.0</ele><time>2026-05-01T09:31:44Z</time></trkpt><trkpt lat="41.256863755098856" lon="9.418016575619221"><ele>14.0</ele><time>2026-05-01T09:31:45Z</time></trkpt><trkpt lat="41.25694971240321" lon="9.41801156460667"><ele>14.0</ele><time>2026-05-01T09:31:46Z</time></trkpt><trkpt lat="41.257041425234014" lon="9.418019997319016"><ele>14.000000000000002</ele><time>2026-05-01T09:31:47Z</time></trkpt><trkpt lat="41.257120216519375" lon="9.41806158036582"><ele>14.0</ele><time>2026-05-01T09:31:48Z</time></trkpt><trkpt lat="41.25718135526823" lon="9.418132251438633"><ele>14.000000000000002</ele><time>2026-05-01T09:31:49Z</time></trkpt><trkpt lat="41.25722768512435" lon="9.418231036010907"><ele>14.0</ele><time>2026-05-01T09:31:50Z</time></trkpt><trkpt lat="41.25723434706337" lon="9.418351652300716"><ele>14.0</ele><time>2026-05-01T09:31:51Z</time></trkpt><trkpt lat="41.257262916156435" lon="9.418469020011585"><ele>14.0</ele><time>2026-05-01T09:31:52Z</time></trkpt><trkpt lat="41.25726957144305" lon="9.418585919332093"><ele>14.000000000000002</ele><time>2026-05-01T09:31:53Z</time></trkpt><trkpt lat="41.25727311466231" lon="9.418691176356408"><ele>14.0</ele><time>2026-05-01T09:31:54Z</time></trkpt><trkpt lat="41.25727630552837" lon="9.41879059876128"><ele>14.166666666666668</ele><time>2026-05-01T09:31:55Z</time></trkpt><trkpt lat="41.257282055822294" lon="9.418886324343623"><ele>14.333333333333334</ele><time>2026-05-01T09:31:56Z</time></trkpt><trkpt lat="41.25728758476147" lon="9.418991129700093"><ele>14.5</ele><time>2026-05-01T09:31:57Z</time></trkpt><trkpt lat="41.25729345547468" lon="9.419092124109744"><ele>14.666666666666668</ele><time>2026-05-01T09:31:58Z</time></trkpt><trkpt lat="41.25729871257491" lon="9.41918142428358"><ele>14.833333333333334</ele><time>2026-05-01T09:31:59Z</time></trkpt><trkpt lat="41.25730126885188" lon="9.419336783747907"><ele>15.0</ele><time>2026-05-01T09:32:01Z</time></trkpt><trkpt lat="41.25731283834693" lon="9.41949732446697"><ele>15.0</ele><time>2026-05-01T09:32:03.001Z</time></trkpt><trkpt lat="41.25732101926449" lon="9.419585906315149"><ele>15.0</ele><time>2026-05-01T09:32:04.001Z</time></trkpt><trkpt lat="41.257322990955885" lon="9.419675419928577"><ele>15.0</ele><time>2026-05-01T09:32:05.001Z</time></trkpt><trkpt lat="41.257324496918116" lon="9.419762742210944"><ele>15.0</ele><time>2026-05-01T09:32:06.001Z</time></trkpt><trkpt lat="41.257320631005875" lon="9.4199294924271"><ele>15.0</ele><time>2026-05-01T09:32:08.001Z</time></trkpt><trkpt lat="41.25731458609901" lon="9.420019960585268"><ele>15.0</ele><time>2026-05-01T09:32:09.001Z</time></trkpt><trkpt lat="41.257305775234755" lon="9.420110583361273"><ele>16.4</ele><time>2026-05-01T09:32:10.001Z</time></trkpt><trkpt lat="41.25729830348486" lon="9.42019527071398"><ele>17.8</ele><time>2026-05-01T09:32:11.001Z</time></trkpt><trkpt lat="41.2572764036027" lon="9.420347975225445"><ele>19.200000000000003</ele><time>2026-05-01T09:32:13.001Z</time></trkpt><trkpt lat="41.25726217865788" lon="9.420522888197329"><ele>20.6</ele><time>2026-05-01T09:32:15.001Z</time></trkpt><trkpt lat="41.25725499094072" lon="9.420645034471452"><ele>22.0</ele><time>2026-05-01T09:32:16.001Z</time></trkpt><trkpt lat="41.257258674509686" lon="9.42078320933702"><ele>22.8</ele><time>2026-05-01T09:32:17.001Z</time></trkpt><trkpt lat="41.25726782811365" lon="9.420922560623735"><ele>23.6</ele><time>2026-05-01T09:32:18.001Z</time></trkpt><trkpt lat="41.25728203097325" lon="9.421072189811754"><ele>24.400000000000002</ele><time>2026-05-01T09:32:19.001Z</time></trkpt><trkpt lat="41.25729810744235" lon="9.421220209849656"><ele>25.200000000000003</ele><time>2026-05-01T09:32:20.001Z</time></trkpt><trkpt lat="41.25731080498724" lon="9.421362279654769"><ele>26.0</ele><time>2026-05-01T09:32:21.001Z</time></trkpt><trkpt lat="41.25732181191162" lon="9.421496035725472"><ele>25.999999999999996</ele><time>2026-05-01T09:32:22.001Z</time></trkpt><trkpt lat="41.25733405490729" lon="9.421621741893997"><ele>26.0</ele><time>2026-05-01T09:32:23Z</time></trkpt><trkpt lat="41.25734467774568" lon="9.421732135975041"><ele>26.0</ele><time>2026-05-01T09:32:24Z</time></trkpt><trkpt lat="41.25735534344959" lon="9.421832154209214"><ele>26.0</ele><time>2026-05-01T09:32:25Z</time></trkpt><trkpt lat="41.2573640203019" lon="9.421930168714942"><ele>25.999999999999996</ele><time>2026-05-01T09:32:26Z</time></trkpt><trkpt lat="41.25736593593904" lon="9.422030980421878"><ele>26.0</ele><time>2026-05-01T09:32:27Z</time></trkpt><trkpt lat="41.257363399475494" lon="9.422150565992142"><ele>26.0</ele><time>2026-05-01T09:32:28Z</time></trkpt><trkpt lat="41.25735232026893" lon="9.42229245109314"><ele>26.0</ele><time>2026-05-01T09:32:29Z</time></trkpt><trkpt lat="41.25733573917539" lon="9.422443786691098"><ele>26.0</ele><time>2026-05-01T09:32:30Z</time></trkpt><trkpt lat="41.25731969090796" lon="9.422579271314879"><ele>26.0</ele><time>2026-05-01T09:32:31Z</time></trkpt><trkpt lat="41.257306445747325" lon="9.422709097232646"><ele>26.0</ele><time>2026-05-01T09:32:32Z</time></trkpt><trkpt lat="41.25729513923837" lon="9.422832235538513"><ele>25.999999999999996</ele><time>2026-05-01T09:32:33Z</time></trkpt><trkpt lat="41.2572869305623" lon="9.422935760695452"><ele>26.0</ele><time>2026-05-01T09:32:34Z</time></trkpt><trkpt lat="41.25727537133992" lon="9.423082424851305"><ele>26.0</ele><time>2026-05-01T09:32:36Z</time></trkpt><trkpt lat="41.257255604063324" lon="9.423163873354438"><ele>26.0</ele><time>2026-05-01T09:32:38Z</time></trkpt><trkpt lat="41.25727662947654" lon="9.423069954214114"><ele>25.999999999999996</ele><time>2026-05-01T09:32:44Z</time></trkpt><trkpt lat="41.2573226641163" lon="9.422990002679319"><ele>26.0</ele><time>2026-05-01T09:32:46Z</time></trkpt><trkpt lat="41.257306832919745" lon="9.422811316215704"><ele>26.0</ele><time>2026-05-01T09:32:48Z</time></trkpt><trkpt lat="41.25732424520598" lon="9.422715193456114"><ele>26.0</ele><time>2026-05-01T09:32:49Z</time></trkpt><trkpt lat="41.25733928976911" lon="9.42258955545372"><ele>26.0</ele><time>2026-05-01T09:32:50Z</time></trkpt><trkpt lat="41.257352103362294" lon="9.422451576160384"><ele>26.0</ele><time>2026-05-01T09:32:51Z</time></trkpt><trkpt lat="41.25736632217464" lon="9.422301534408001"><ele>26.0</ele><time>2026-05-01T09:32:52Z</time></trkpt><trkpt lat="41.25737736930066" lon="9.422134025880537"><ele>26.25</ele><time>2026-05-01T09:32:53Z</time></trkpt><trkpt lat="41.257376331693074" lon="9.42196238976932"><ele>26.5</ele><time>2026-05-01T09:32:54Z</time></trkpt><trkpt lat="41.257364296059365" lon="9.421765288659426"><ele>26.75</ele><time>2026-05-01T09:32:55Z</time></trkpt><trkpt lat="41.25734666318793" lon="9.421561320306541"><ele>27.0</ele><time>2026-05-01T09:32:56Z</time></trkpt><trkpt lat="41.257327805115516" lon="9.421357727968624"><ele>26.75</ele><time>2026-05-01T09:32:57Z</time></trkpt><trkpt lat="41.257307530826765" lon="9.421161405797955"><ele>26.5</ele><time>2026-05-01T09:32:58Z</time></trkpt><trkpt lat="41.257289551944226" lon="9.420967090721234"><ele>26.25</ele><time>2026-05-01T09:32:59Z</time></trkpt><trkpt lat="41.25727706755781" lon="9.42079529173386"><ele>26.0</ele><time>2026-05-01T09:33:00Z</time></trkpt><trkpt lat="41.25727615179305" lon="9.420623837785044"><ele>25.0</ele><time>2026-05-01T09:33:01Z</time></trkpt><trkpt lat="41.25728980320587" lon="9.420426763995518"><ele>24.0</ele><time>2026-05-01T09:33:02Z</time></trkpt><trkpt lat="41.25730726205582" lon="9.420226826418492"><ele>23.0</ele><time>2026-05-01T09:33:03Z</time></trkpt><trkpt lat="41.25732481957773" lon="9.420042493944154"><ele>22.0</ele><time>2026-05-01T09:33:04Z</time></trkpt><trkpt lat="41.25733748364422" lon="9.419865286870168"><ele>22.0</ele><time>2026-05-01T09:33:05Z</time></trkpt><trkpt lat="41.25733896598331" lon="9.419688921103532"><ele>22.0</ele><time>2026-05-01T09:33:06Z</time></trkpt><trkpt lat="41.25733001998148" lon="9.419505300462411"><ele>22.0</ele><time>2026-05-01T09:33:07Z</time></trkpt><trkpt lat="41.257319728935244" lon="9.419321912640427"><ele>22.0</ele><time>2026-05-01T09:33:08Z</time></trkpt><trkpt lat="41.25731033585538" lon="9.419138826149254"><ele>20.25</ele><time>2026-05-01T09:33:09Z</time></trkpt><trkpt lat="41.25730114189496" lon="9.418952383486005"><ele>18.5</ele><time>2026-05-01T09:33:10Z</time></trkpt><trkpt lat="41.25729125620748" lon="9.418765451163381"><ele>16.75</ele><time>2026-05-01T09:33:11Z</time></trkpt><trkpt lat="41.25727923298515" lon="9.41859125011337"><ele>15.0</ele><time>2026-05-01T09:33:12Z</time></trkpt><trkpt lat="41.25726721764026" lon="9.418431666441043"><ele>14.833333333333334</ele><time>2026-05-01T09:33:13Z</time></trkpt><trkpt lat="41.25725355854482" lon="9.418295679302823"><ele>14.666666666666668</ele><time>2026-05-01T09:33:14Z</time></trkpt><trkpt lat="41.257226956477496" lon="9.418180614257786"><ele>14.5</ele><time>2026-05-01T09:33:15Z</time></trkpt><trkpt lat="41.2571804502617" lon="9.418095387802989"><ele>14.333333333333334</ele><time>2026-05-01T09:33:16Z</time></trkpt><trkpt lat="41.25711585109851" lon="9.418037695381292"><ele>14.166666666666668</ele><time>2026-05-01T09:33:17Z</time></trkpt><trkpt lat="41.257048159968434" lon="9.418002066229265"><ele>14.0</ele><time>2026-05-01T09:33:18Z</time></trkpt><trkpt lat="41.256981627445086" lon="9.417991461344146"><ele>14.0</ele><time>2026-05-01T09:33:19Z</time></trkpt><trkpt lat="41.25686168780187" lon="9.417993668323819"><ele>13.999999999999998</ele><time>2026-05-01T09:33:21Z</time></trkpt><trkpt lat="41.256768595685166" lon="9.417993892686523"><ele>13.999999999999998</ele><time>2026-05-01T09:33:23Z</time></trkpt><trkpt lat="41.256660957783595" lon="9.418020393493949"><ele>14.0</ele><time>2026-05-01T09:33:25Z</time></trkpt><trkpt lat="41.25658431810197" lon="9.418006640977776"><ele>14.0</ele><time>2026-05-01T09:33:26Z</time></trkpt><trkpt lat="41.2564955577335" lon="9.418031415613198"><ele>14.000000000000002</ele><time>2026-05-01T09:33:27Z</time></trkpt><trkpt lat="41.256419216701396" lon="9.418028900924451"><ele>14.0</ele><time>2026-05-01T09:33:28Z</time></trkpt><trkpt lat="41.2563456493267" lon="9.418027129407143"><ele>14.0</ele><time>2026-05-01T09:33:29Z</time></trkpt><trkpt lat="41.25627663048697" lon="9.41802959133288"><ele>14.0</ele><time>2026-05-01T09:33:30Z</time></trkpt><trkpt lat="41.25620122270304" lon="9.418035240093221"><ele>14.000000000000002</ele><time>2026-05-01T09:33:31Z</time></trkpt><trkpt lat="41.25613037805939" lon="9.418040925353166"><ele>14.0</ele><time>2026-05-01T09:33:32Z</time></trkpt><trkpt lat="41.25601347805142" lon="9.418055108537533"><ele>14.000000000000002</ele><time>2026-05-01T09:33:34Z</time></trkpt><trkpt lat="41.25591879221391" lon="9.418087336797006"><ele>14.0</ele><time>2026-05-01T09:33:36Z</time></trkpt><trkpt lat="41.255857877292755" lon="9.418120626399665"><ele>14.0</ele><time>2026-05-01T09:33:37Z</time></trkpt><trkpt lat="41.25578169623952" lon="9.41816786359409"><ele>14.0</ele><time>2026-05-01T09:33:38Z</time></trkpt><trkpt lat="41.255695276966875" lon="9.418232698018926"><ele>14.000000000000002</ele><time>2026-05-01T09:33:39Z</time></trkpt><trkpt lat="41.25561702774328" lon="9.418294342064753"><ele>14.0</ele><time>2026-05-01T09:33:40Z</time></trkpt><trkpt lat="41.25553161896965" lon="9.418353158910348"><ele>13.000000000000002</ele><time>2026-05-01T09:33:41Z</time></trkpt><trkpt lat="41.25544889264205" lon="9.41840626460085"><ele>12.0</ele><time>2026-05-01T09:33:42Z</time></trkpt><trkpt lat="41.25537235823266" lon="9.418456433250144"><ele>11.0</ele><time>2026-05-01T09:33:43Z</time></trkpt><trkpt lat="41.25529705968048" lon="9.418494563241508"><ele>10.0</ele><time>2026-05-01T09:33:44Z</time></trkpt><trkpt lat="41.25521254437426" lon="9.418495570534533"><ele>9.0</ele><time>2026-05-01T09:33:45Z</time></trkpt><trkpt lat="41.25512540121903" lon="9.41845489038624"><ele>8.0</ele><time>2026-05-01T09:33:46Z</time></trkpt><trkpt lat="41.255058289626945" lon="9.418394926995308"><ele>7.999999999999999</ele><time>2026-05-01T09:33:47Z</time></trkpt><trkpt lat="41.25501046021535" lon="9.41830958266885"><ele>8.0</ele><time>2026-05-01T09:33:48Z</time></trkpt><trkpt lat="41.25498374846651" lon="9.418214473730242"><ele>8.0</ele><time>2026-05-01T09:33:49Z</time></trkpt><trkpt lat="41.25498429643686" lon="9.418110737762786"><ele>8.0</ele><time>2026-05-01T09:33:50Z</time></trkpt><trkpt lat="41.25500451396819" lon="9.41800496557155"><ele>7.999999999999999</ele><time>2026-05-01T09:33:51Z</time></trkpt><trkpt lat="41.25503820369359" lon="9.417910949893065"><ele>8.0</ele><time>2026-05-01T09:33:52Z</time></trkpt><trkpt lat="41.255108561348116" lon="9.417813285504055"><ele>8.0</ele><time>2026-05-01T09:33:54Z</time></trkpt><trkpt lat="41.25503487023727" lon="9.417909588386228"><ele>8.0</ele><time>2026-05-01T09:34:22Z</time></trkpt><trkpt lat="41.25500580986203" lon="9.41800679488492"><ele>8.0</ele><time>2026-05-01T09:34:23Z</time></trkpt><trkpt lat="41.25496122110256" lon="9.41816160946167"><ele>8.0</ele><time>2026-05-01T09:34:24Z</time></trkpt><trkpt lat="41.25497310879421" lon="9.418285106157503"><ele>8.0</ele><time>2026-05-01T09:34:25Z</time></trkpt><trkpt lat="41.255018993888584" lon="9.418398178413629"><ele>8.0</ele><time>2026-05-01T09:34:26Z</time></trkpt><trkpt lat="41.25508414487318" lon="9.41847439918016"><ele>8.0</ele><time>2026-05-01T09:34:27Z</time></trkpt><trkpt lat="41.25516089314747" lon="9.418517768752071"><ele>8.0</ele><time>2026-05-01T09:34:28Z</time></trkpt><trkpt lat="41.255245882742315" lon="9.41852623066515"><ele>8.0</ele><time>2026-05-01T09:34:29Z</time></trkpt><trkpt lat="41.25534183397504" lon="9.418495799736709"><ele>8.0</ele><time>2026-05-01T09:34:30Z</time></trkpt><trkpt lat="41.25543925239305" lon="9.418433598249727"><ele>8.0</ele><time>2026-05-01T09:34:31Z</time></trkpt><trkpt lat="41.25553559639687" lon="9.418365683360191"><ele>8.0</ele><time>2026-05-01T09:34:32Z</time></trkpt><trkpt lat="41.2556278999319" lon="9.418303699730222"><ele>8.0</ele><time>2026-05-01T09:34:33Z</time></trkpt><trkpt lat="41.2557181315465" lon="9.418238310354084"><ele>8.0</ele><time>2026-05-01T09:34:34Z</time></trkpt><trkpt lat="41.25581732662374" lon="9.418173435190548"><ele>8.0</ele><time>2026-05-01T09:34:35Z</time></trkpt><trkpt lat="41.25591218916301" lon="9.418123024505741"><ele>9.2</ele><time>2026-05-01T09:34:36Z</time></trkpt><trkpt lat="41.25600408435997" lon="9.418090096226916"><ele>10.4</ele><time>2026-05-01T09:34:37Z</time></trkpt><trkpt lat="41.2561040607316" lon="9.418064406414867"><ele>11.599999999999998</ele><time>2026-05-01T09:34:38Z</time></trkpt><trkpt lat="41.256206515541145" lon="9.418053910938738"><ele>12.799999999999999</ele><time>2026-05-01T09:34:39Z</time></trkpt><trkpt lat="41.25630820057075" lon="9.418049112576394"><ele>14.0</ele><time>2026-05-01T09:34:40Z</time></trkpt><trkpt lat="41.25640744115538" lon="9.418043338502478"><ele>14.0</ele><time>2026-05-01T09:34:41Z</time></trkpt><trkpt lat="41.25650689723272" lon="9.418036265373315"><ele>13.999999999999998</ele><time>2026-05-01T09:34:42Z</time></trkpt><trkpt lat="41.25660580492074" lon="9.41803173118875"><ele>13.999999999999998</ele><time>2026-05-01T09:34:43Z</time></trkpt><trkpt lat="41.256700632104234" lon="9.418030927047253"><ele>14.0</ele><time>2026-05-01T09:34:44Z</time></trkpt><trkpt lat="41.25679118397256" lon="9.418027220644944"><ele>14.0</ele><time>2026-05-01T09:34:45Z</time></trkpt><trkpt lat="41.25687386999678" lon="9.418020387680212"><ele>14.000000000000002</ele><time>2026-05-01T09:34:46Z</time></trkpt><trkpt lat="41.256948411364895" lon="9.41801561219092"><ele>14.0</ele><time>2026-05-01T09:34:47Z</time></trkpt><trkpt lat="41.257016404616266" lon="9.418017596575018"><ele>14.0</ele><time>2026-05-01T09:34:48Z</time></trkpt><trkpt lat="41.25708058489815" lon="9.418037510736374"><ele>14.0</ele><time>2026-05-01T09:34:49Z</time></trkpt><trkpt lat="41.257177864442326" lon="9.418117635779561"><ele>14.000000000000002</ele><time>2026-05-01T09:34:51Z</time></trkpt><trkpt lat="41.2572282130131" lon="9.41823755787752"><ele>14.0</ele><time>2026-05-01T09:34:53Z</time></trkpt><trkpt lat="41.257254082347934" lon="9.418409471806324"><ele>14.0</ele><time>2026-05-01T09:34:55Z</time></trkpt><trkpt lat="41.25726206077148" lon="9.418514853186455"><ele>13.999999999999998</ele><time>2026-05-01T09:34:56Z</time></trkpt><trkpt lat="41.257267268147885" lon="9.418633417833112"><ele>13.999999999999998</ele><time>2026-05-01T09:34:57Z</time></trkpt><trkpt lat="41.25727445050554" lon="9.418761403415104"><ele>14.0</ele><time>2026-05-01T09:34:58Z</time></trkpt><trkpt lat="41.257285218987036" lon="9.418899492043542"><ele>14.0</ele><time>2026-05-01T09:34:59Z</time></trkpt><trkpt lat="41.25729260430241" lon="9.41904061480951"><ele>14.2</ele><time>2026-05-01T09:35:00Z</time></trkpt><trkpt lat="41.25729598589217" lon="9.419188342036216"><ele>14.399999999999999</ele><time>2026-05-01T09:35:01Z</time></trkpt><trkpt lat="41.25730365222603" lon="9.419335832299309"><ele>14.6</ele><time>2026-05-01T09:35:02Z</time></trkpt><trkpt lat="41.257308266956066" lon="9.419479119663064"><ele>14.8</ele><time>2026-05-01T09:35:03Z</time></trkpt><trkpt lat="41.25731285644602" lon="9.419617142057588"><ele>15.0</ele><time>2026-05-01T09:35:04Z</time></trkpt><trkpt lat="41.25731705596862" lon="9.419743649901807"><ele>16.166666666666668</ele><time>2026-05-01T09:35:05Z</time></trkpt><trkpt lat="41.257319635962325" lon="9.419867830462735"><ele>17.333333333333332</ele><time>2026-05-01T09:35:06Z</time></trkpt><trkpt lat="41.257313974717185" lon="9.419979665355896"><ele>18.5</ele><time>2026-05-01T09:35:07Z</time></trkpt><trkpt lat="41.257307816229826" lon="9.420082614825992"><ele>19.666666666666664</ele><time>2026-05-01T09:35:08Z</time></trkpt><trkpt lat="41.257298592650564" lon="9.420194932297953"><ele>20.833333333333332</ele><time>2026-05-01T09:35:09Z</time></trkpt><trkpt lat="41.257286811618606" lon="9.420308400731827"><ele>22.0</ele><time>2026-05-01T09:35:10Z</time></trkpt><trkpt lat="41.257274317836874" lon="9.420428492284351"><ele>24.6</ele><time>2026-05-01T09:35:11Z</time></trkpt><trkpt lat="41.25726429779681" lon="9.420548818219709"><ele>27.200000000000003</ele><time>2026-05-01T09:35:12Z</time></trkpt><trkpt lat="41.25725233753459" lon="9.420668787980544"><ele>29.8</ele><time>2026-05-01T09:35:13Z</time></trkpt><trkpt lat="41.25725725580079" lon="9.42078636898826"><ele>32.4</ele><time>2026-05-01T09:35:14Z</time></trkpt><trkpt lat="41.257263789180065" lon="9.420909772336913"><ele>35.0</ele><time>2026-05-01T09:35:15Z</time></trkpt><trkpt lat="41.25727424062868" lon="9.42104036485421"><ele>33.4</ele><time>2026-05-01T09:35:16Z</time></trkpt><trkpt lat="41.257287837775344" lon="9.421169017734679"><ele>31.8</ele><time>2026-05-01T09:35:17Z</time></trkpt><trkpt lat="41.257302891826384" lon="9.421303455390408"><ele>30.200000000000003</ele><time>2026-05-01T09:35:18Z</time></trkpt><trkpt lat="41.25731977190289" lon="9.421454499669103"><ele>28.6</ele><time>2026-05-01T09:35:19Z</time></trkpt><trkpt lat="41.25733645620991" lon="9.421620202991711"><ele>27.0</ele><time>2026-05-01T09:35:20Z</time></trkpt><trkpt lat="41.257351320928045" lon="9.421779763420208"><ele>27.0</ele><time>2026-05-01T09:35:21Z</time></trkpt><trkpt lat="41.257360506463925" lon="9.421942109745006"><ele>27.0</ele><time>2026-05-01T09:35:22Z</time></trkpt><trkpt lat="41.25736035657542" lon="9.422106414005166"><ele>27.0</ele><time>2026-05-01T09:35:23Z</time></trkpt><trkpt lat="41.25735036251051" lon="9.42228276319151"><ele>27.0</ele><time>2026-05-01T09:35:24Z</time></trkpt><trkpt lat="41.25733449914426" lon="9.422465644372485"><ele>26.75</ele><time>2026-05-01T09:35:25Z</time></trkpt><trkpt lat="41.25731705695041" lon="9.422638896411259"><ele>26.5</ele><time>2026-05-01T09:35:26Z</time></trkpt><trkpt lat="41.25730211232408" lon="9.422806554144254"><ele>26.25</ele><time>2026-05-01T09:35:27Z</time></trkpt><trkpt lat="41.25729064305639" lon="9.422975222320494"><ele>26.0</ele><time>2026-05-01T09:35:28Z</time></trkpt><trkpt lat="41.25725849636567" lon="9.423147057265792"><ele>26.75</ele><time>2026-05-01T09:35:29Z</time></trkpt><trkpt lat="41.25725829138374" lon="9.423310586517257"><ele>27.5</ele><time>2026-05-01T09:35:30Z</time></trkpt><trkpt lat="41.25725266302333" lon="9.423471529275309"><ele>28.25</ele><time>2026-05-01T09:35:31Z</time></trkpt><trkpt lat="41.257247607467875" lon="9.423634339234189"><ele>29.0</ele><time>2026-05-01T09:35:32Z</time></trkpt><trkpt lat="41.257243215103685" lon="9.423781427552003"><ele>29.2</ele><time>2026-05-01T09:35:33Z</time></trkpt><trkpt lat="41.25723545730186" lon="9.423915934465445"><ele>29.4</ele><time>2026-05-01T09:35:34Z</time></trkpt><trkpt lat="41.257216883311685" lon="9.424036879674725"><ele>29.6</ele><time>2026-05-01T09:35:35Z</time></trkpt><trkpt lat="41.25719034797779" lon="9.424153908968245"><ele>29.8</ele><time>2026-05-01T09:35:36Z</time></trkpt><trkpt lat="41.257155946001056" lon="9.42426058915202"><ele>30.0</ele><time>2026-05-01T09:35:37Z</time></trkpt><trkpt lat="41.257118776838645" lon="9.424370219930568"><ele>30.0</ele><time>2026-05-01T09:35:38Z</time></trkpt><trkpt lat="41.25708673810159" lon="9.424501609391488"><ele>30.0</ele><time>2026-05-01T09:35:39Z</time></trkpt><trkpt lat="41.257067223648605" lon="9.42465758995515"><ele>30.0</ele><time>2026-05-01T09:35:40Z</time></trkpt><trkpt lat="41.2570609707788" lon="9.424834540959704"><ele>30.0</ele><time>2026-05-01T09:35:41Z</time></trkpt><trkpt lat="41.25706524927372" lon="9.425018215131256"><ele>28.75</ele><time>2026-05-01T09:35:42Z</time></trkpt><trkpt lat="41.25706557617699" lon="9.425183544125801"><ele>27.5</ele><time>2026-05-01T09:35:43Z</time></trkpt><trkpt lat="41.2570601025329" lon="9.425339299807678"><ele>26.25</ele><time>2026-05-01T09:35:44Z</time></trkpt><trkpt lat="41.25704197242911" lon="9.425498756258328"><ele>25.0</ele><time>2026-05-01T09:35:45Z</time></trkpt><trkpt lat="41.257003466609554" lon="9.425659046491976"><ele>23.75</ele><time>2026-05-01T09:35:46Z</time></trkpt><trkpt lat="41.25695280672636" lon="9.425808294173908"><ele>22.5</ele><time>2026-05-01T09:35:47Z</time></trkpt><trkpt lat="41.25690126372623" lon="9.425945096606666"><ele>21.25</ele><time>2026-05-01T09:35:48Z</time></trkpt><trkpt lat="41.256849876960075" lon="9.426083922185853"><ele>20.0</ele><time>2026-05-01T09:35:49Z</time></trkpt><trkpt lat="41.25680089143715" lon="9.426225714251114"><ele>17.6</ele><time>2026-05-01T09:35:50Z</time></trkpt><trkpt lat="41.256755348905365" lon="9.426363358056403"><ele>15.2</ele><time>2026-05-01T09:35:51Z</time></trkpt><trkpt lat="41.25670643648983" lon="9.426496566987481"><ele>12.8</ele><time>2026-05-01T09:35:52Z</time></trkpt><trkpt lat="41.256649137145764" lon="9.426610979274809"><ele>10.4</ele><time>2026-05-01T09:35:53Z</time></trkpt><trkpt lat="41.25658385451184" lon="9.426707687082354"><ele>8.0</ele><time>2026-05-01T09:35:54Z</time></trkpt><trkpt lat="41.25650430108655" lon="9.42679248184293"><ele>8.8</ele><time>2026-05-01T09:35:55Z</time></trkpt><trkpt lat="41.25641588852913" lon="9.426834300513939"><ele>9.600000000000001</ele><time>2026-05-01T09:35:56Z</time></trkpt><trkpt lat="41.256309962207375" lon="9.426887399149859"><ele>10.399999999999999</ele><time>2026-05-01T09:35:57Z</time></trkpt><trkpt lat="41.25620100911521" lon="9.42694969962565"><ele>11.2</ele><time>2026-05-01T09:35:58Z</time></trkpt><trkpt lat="41.256100527005415" lon="9.427044798966836"><ele>12.0</ele><time>2026-05-01T09:35:59Z</time></trkpt><trkpt lat="41.25600673572415" lon="9.427160477321216"><ele>12.0</ele><time>2026-05-01T09:36:00Z</time></trkpt><trkpt lat="41.25591623759578" lon="9.427305209420643"><ele>12.0</ele><time>2026-05-01T09:36:01Z</time></trkpt><trkpt lat="41.25583210434607" lon="9.427472769190807"><ele>12.0</ele><time>2026-05-01T09:36:02Z</time></trkpt><trkpt lat="41.2557499733774" lon="9.4276450396221"><ele>12.0</ele><time>2026-05-01T09:36:03Z</time></trkpt><trkpt lat="41.25567483734296" lon="9.42779361092383"><ele>10.799999999999999</ele><time>2026-05-01T09:36:04Z</time></trkpt><trkpt lat="41.25560117422698" lon="9.427930720756144"><ele>9.6</ele><time>2026-05-01T09:36:05Z</time></trkpt><trkpt lat="41.255533262317556" lon="9.428055043181471"><ele>8.399999999999999</ele><time>2026-05-01T09:36:06Z</time></trkpt><trkpt lat="41.25546431313262" lon="9.428151754642355"><ele>7.199999999999999</ele><time>2026-05-01T09:36:07Z</time></trkpt><trkpt lat="41.255382593185445" lon="9.428219064712986"><ele>6.0</ele><time>2026-05-01T09:36:08Z</time></trkpt><trkpt lat="41.25527938688045" lon="9.428272928575945"><ele>6.0</ele><time>2026-05-01T09:36:09Z</time></trkpt><trkpt lat="41.2551710915453" lon="9.428288522599683"><ele>6.0</ele><time>2026-05-01T09:36:10Z</time></trkpt><trkpt lat="41.25505305267446" lon="9.428270155079057"><ele>6.0</ele><time>2026-05-01T09:36:11Z</time></trkpt><trkpt lat="41.254923139327886" lon="9.428226162317586"><ele>6.0</ele><time>2026-05-01T09:36:12Z</time></trkpt><trkpt lat="41.25479147157039" lon="9.428173277142479"><ele>8.0</ele><time>2026-05-01T09:36:13Z</time></trkpt><trkpt lat="41.2546482829369" lon="9.428124384402048"><ele>10.0</ele><time>2026-05-01T09:36:14Z</time></trkpt><trkpt lat="41.25449045186399" lon="9.428067212638126"><ele>12.0</ele><time>2026-05-01T09:36:15Z</time></trkpt><trkpt lat="41.25434774038625" lon="9.428018016683058"><ele>12.0</ele><time>2026-05-01T09:36:16Z</time></trkpt><trkpt lat="41.25422548874376" lon="9.42797840479771"><ele>12.0</ele><time>2026-05-01T09:36:17Z</time></trkpt><trkpt lat="41.254109162878294" lon="9.427953100364375"><ele>12.0</ele><time>2026-05-01T09:36:18Z</time></trkpt><trkpt lat="41.25399001737428" lon="9.427961245879168"><ele>12.0</ele><time>2026-05-01T09:36:19Z</time></trkpt><trkpt lat="41.25386874855349" lon="9.428012223035337"><ele>15.0</ele><time>2026-05-01T09:36:20Z</time></trkpt><trkpt lat="41.25372596565997" lon="9.428096089386742"><ele>18.0</ele><time>2026-05-01T09:36:21Z</time></trkpt><trkpt lat="41.25357314617834" lon="9.42818403479767"><ele>21.0</ele><time>2026-05-01T09:36:22Z</time></trkpt><trkpt lat="41.25342873702712" lon="9.428259280299214"><ele>21.0</ele><time>2026-05-01T09:36:23Z</time></trkpt><trkpt lat="41.2532965309062" lon="9.428328948329613"><ele>21.0</ele><time>2026-05-01T09:36:24Z</time></trkpt><trkpt lat="41.2531692534591" lon="9.428397022002464"><ele>21.0</ele><time>2026-05-01T09:36:25Z</time></trkpt><trkpt lat="41.25305113222745" lon="9.428437986981582"><ele>21.0</ele><time>2026-05-01T09:36:26Z</time></trkpt><trkpt lat="41.252942104148225" lon="9.428441462415714"><ele>21.0</ele><time>2026-05-01T09:36:27Z</time></trkpt><trkpt lat="41.2528456608118" lon="9.428402926099606"><ele>21.0</ele><time>2026-05-01T09:36:28Z</time></trkpt><trkpt lat="41.252754688684234" lon="9.428345678014159"><ele>21.0</ele><time>2026-05-01T09:36:29Z</time></trkpt><trkpt lat="41.252675995889525" lon="9.428262615361842"><ele>21.0</ele><time>2026-05-01T09:36:30Z</time></trkpt><trkpt lat="41.25259663147224" lon="9.428162834160759"><ele>21.0</ele><time>2026-05-01T09:36:31Z</time></trkpt><trkpt lat="41.25252053969779" lon="9.428049446800426"><ele>23.200000000000003</ele><time>2026-05-01T09:36:32Z</time></trkpt><trkpt lat="41.25244619975282" lon="9.427944239624631"><ele>25.400000000000002</ele><time>2026-05-01T09:36:33Z</time></trkpt><trkpt lat="41.25236404389098" lon="9.427831147388716"><ele>27.6</ele><time>2026-05-01T09:36:34Z</time></trkpt><trkpt lat="41.2522842039768" lon="9.427741252620109"><ele>29.8</ele><time>2026-05-01T09:36:35Z</time></trkpt><trkpt lat="41.25219598503647" lon="9.427687823440172"><ele>32.0</ele><time>2026-05-01T09:36:36Z</time></trkpt><trkpt lat="41.252096948144285" lon="9.427661789756138"><ele>32.4</ele><time>2026-05-01T09:36:37Z</time></trkpt><trkpt lat="41.25198869298905" lon="9.427680202843801"><ele>32.800000000000004</ele><time>2026-05-01T09:36:38Z</time></trkpt><trkpt lat="41.25188747526365" lon="9.42773212503084"><ele>33.2</ele><time>2026-05-01T09:36:39Z</time></trkpt><trkpt lat="41.25179397291068" lon="9.427809747952363"><ele>33.6</ele><time>2026-05-01T09:36:40Z</time></trkpt><trkpt lat="41.25170618846876" lon="9.427895276377454"><ele>34.0</ele><time>2026-05-01T09:36:41Z</time></trkpt><trkpt lat="41.251620698357264" lon="9.427967775269176"><ele>30.833333333333336</ele><time>2026-05-01T09:36:42Z</time></trkpt><trkpt lat="41.251534135869456" lon="9.428032440368428"><ele>27.666666666666668</ele><time>2026-05-01T09:36:43Z</time></trkpt><trkpt lat="41.25145141512261" lon="9.428089186175175"><ele>24.5</ele><time>2026-05-01T09:36:44Z</time></trkpt><trkpt lat="41.251371170672556" lon="9.428127631116734"><ele>21.333333333333336</ele><time>2026-05-01T09:36:45Z</time></trkpt><trkpt lat="41.25130055559975" lon="9.428142233343719"><ele>18.166666666666668</ele><time>2026-05-01T09:36:46Z</time></trkpt><trkpt lat="41.25122538182446" lon="9.42813856830358"><ele>15.0</ele><time>2026-05-01T09:36:47Z</time></trkpt><trkpt lat="41.2511568496442" lon="9.428121877984077"><ele>15.0</ele><time>2026-05-01T09:36:48Z</time></trkpt><trkpt lat="41.25109150980219" lon="9.42809734660594"><ele>15.0</ele><time>2026-05-01T09:36:49Z</time></trkpt><trkpt lat="41.251030003693046" lon="9.428068556859659"><ele>15.0</ele><time>2026-05-01T09:36:50Z</time></trkpt><trkpt lat="41.2509624606274" lon="9.428044336555002"><ele>15.0</ele><time>2026-05-01T09:36:51Z</time></trkpt><trkpt lat="41.250894571101725" lon="9.4280321517845"><ele>15.0</ele><time>2026-05-01T09:36:52Z</time></trkpt><trkpt lat="41.25081878618311" lon="9.428024793804891"><ele>15.0</ele><time>2026-05-01T09:36:53Z</time></trkpt><trkpt lat="41.25074364853578" lon="9.428021607353571"><ele>15.0</ele><time>2026-05-01T09:36:54Z</time></trkpt><trkpt lat="41.250670101731416" lon="9.428009875349693"><ele>13.5</ele><time>2026-05-01T09:36:55Z</time></trkpt><trkpt lat="41.25059279900355" lon="9.4279947972389"><ele>12.0</ele><time>2026-05-01T09:36:56Z</time></trkpt><trkpt lat="41.250517678751216" lon="9.427979099869372"><ele>10.5</ele><time>2026-05-01T09:36:57Z</time></trkpt><trkpt lat="41.25043340588607" lon="9.427957632073271"><ele>9.0</ele><time>2026-05-01T09:36:58Z</time></trkpt><trkpt lat="41.25034336123363" lon="9.42793492707951"><ele>7.5</ele><time>2026-05-01T09:36:59Z</time></trkpt><trkpt lat="41.250246586844455" lon="9.427908328722507"><ele>6.0</ele><time>2026-05-01T09:37:00Z</time></trkpt><trkpt lat="41.25014880553343" lon="9.427881177369496"><ele>6.4</ele><time>2026-05-01T09:37:01Z</time></trkpt><trkpt lat="41.25005039118057" lon="9.42784602961369"><ele>6.8</ele><time>2026-05-01T09:37:02Z</time></trkpt><trkpt lat="41.249955925104345" lon="9.427809495910706"><ele>7.200000000000001</ele><time>2026-05-01T09:37:03Z</time></trkpt><trkpt lat="41.24986721811054" lon="9.42776872848019"><ele>7.6000000000000005</ele><time>2026-05-01T09:37:04Z</time></trkpt><trkpt lat="41.249781316518025" lon="9.427713576152499"><ele>8.0</ele><time>2026-05-01T09:37:05Z</time></trkpt><trkpt lat="41.24968734879478" lon="9.427636595932876"><ele>7.999999999999999</ele><time>2026-05-01T09:37:06Z</time></trkpt><trkpt lat="41.2496040597449" lon="9.427564054836868"><ele>8.0</ele><time>2026-05-01T09:37:07Z</time></trkpt><trkpt lat="41.24951873277413" lon="9.427490839877484"><ele>8.0</ele><time>2026-05-01T09:37:08Z</time></trkpt><trkpt lat="41.24944352850688" lon="9.427424340581595"><ele>8.0</ele><time>2026-05-01T09:37:09Z</time></trkpt><trkpt lat="41.24937966458486" lon="9.42737285369039"><ele>7.999999999999999</ele><time>2026-05-01T09:37:10Z</time></trkpt><trkpt lat="41.24932698785537" lon="9.42732611745624"><ele>8.0</ele><time>2026-05-01T09:37:11Z</time></trkpt><trkpt lat="41.24926844020606" lon="9.427276466442606"><ele>8.0</ele><time>2026-05-01T09:37:12Z</time></trkpt><trkpt lat="41.249204818758216" lon="9.427232191431768"><ele>7.999999999999999</ele><time>2026-05-01T09:37:13Z</time></trkpt><trkpt lat="41.2491385412922" lon="9.427203453695302"><ele>8.0</ele><time>2026-05-01T09:37:14Z</time></trkpt><trkpt lat="41.2490708827049" lon="9.427186831401158"><ele>8.0</ele><time>2026-05-01T09:37:15Z</time></trkpt><trkpt lat="41.249000709395865" lon="9.427181926000857"><ele>7.999999999999999</ele><time>2026-05-01T09:37:16Z</time></trkpt><trkpt lat="41.24892834311738" lon="9.427188133797733"><ele>8.0</ele><time>2026-05-01T09:37:17Z</time></trkpt><trkpt lat="41.24885099017735" lon="9.427201510243467"><ele>8.0</ele><time>2026-05-01T09:37:18Z</time></trkpt><trkpt lat="41.248767808079776" lon="9.42721636982709"><ele>7.999999999999999</ele><time>2026-05-01T09:37:19Z</time></trkpt><trkpt lat="41.24868604187271" lon="9.42723812559887"><ele>8.0</ele><time>2026-05-01T09:37:20Z</time></trkpt><trkpt lat="41.248612998145" lon="9.427267614119707"><ele>8.0</ele><time>2026-05-01T09:37:21Z</time></trkpt><trkpt lat="41.24854283141805" lon="9.427319667233661"><ele>8.0</ele><time>2026-05-01T09:37:22Z</time></trkpt><trkpt lat="41.24847784193094" lon="9.427391381854825"><ele>7.999999999999999</ele><time>2026-05-01T09:37:23Z</time></trkpt><trkpt lat="41.248421656543755" lon="9.427468221508233"><ele>8.0</ele><time>2026-05-01T09:37:24Z</time></trkpt><trkpt lat="41.248366937800796" lon="9.427566270659943"><ele>7.999999999999999</ele><time>2026-05-01T09:37:25Z</time></trkpt><trkpt lat="41.24831183623785" lon="9.42767414038518"><ele>8.0</ele><time>2026-05-01T09:37:26Z</time></trkpt><trkpt lat="41.24826015641535" lon="9.427772654476076"><ele>8.0</ele><time>2026-05-01T09:37:27Z</time></trkpt><trkpt lat="41.24820533025117" lon="9.42786090535039"><ele>8.0</ele><time>2026-05-01T09:37:28Z</time></trkpt><trkpt lat="41.24815252138102" lon="9.427945922222586"><ele>7.999999999999999</ele><time>2026-05-01T09:37:29Z</time></trkpt><trkpt lat="41.24810528961715" lon="9.42802463588619"><ele>8.0</ele><time>2026-05-01T09:37:30Z</time></trkpt><trkpt lat="41.24805814738164" lon="9.428104000136074"><ele>7.499999999999999</ele><time>2026-05-01T09:37:31Z</time></trkpt><trkpt lat="41.24800537127004" lon="9.428178151763685"><ele>7.0</ele><time>2026-05-01T09:37:32Z</time></trkpt><trkpt lat="41.24794012595236" lon="9.428247595539363"><ele>6.5</ele><time>2026-05-01T09:37:33Z</time></trkpt><trkpt lat="41.24787075728406" lon="9.428305785659582"><ele>6.0</ele><time>2026-05-01T09:37:34Z</time></trkpt><trkpt lat="41.24780577785392" lon="9.428357496695458"><ele>5.5</ele><time>2026-05-01T09:37:35Z</time></trkpt><trkpt lat="41.24774347033843" lon="9.42840169182802"><ele>5.0</ele><time>2026-05-01T09:37:36Z</time></trkpt><trkpt lat="41.24767695597157" lon="9.428449533940018"><ele>5.0</ele><time>2026-05-01T09:37:37Z</time></trkpt><trkpt lat="41.24761352287475" lon="9.428499726077586"><ele>5.0</ele><time>2026-05-01T09:37:38Z</time></trkpt><trkpt lat="41.24754963237594" lon="9.428546309143382"><ele>5.0</ele><time>2026-05-01T09:37:39Z</time></trkpt><trkpt lat="41.24749117713009" lon="9.428586960991554"><ele>5.0</ele><time>2026-05-01T09:37:40Z</time></trkpt><trkpt lat="41.24739646731413" lon="9.42864773117824"><ele>5.0</ele><time>2026-05-01T09:37:42Z</time></trkpt><trkpt lat="41.24732169655708" lon="9.428707029148095"><ele>5.0</ele><time>2026-05-01T09:37:44Z</time></trkpt><trkpt lat="41.24725710157815" lon="9.428736426086589"><ele>5.333333333333334</ele><time>2026-05-01T09:37:46Z</time></trkpt><trkpt lat="41.247181337758484" lon="9.428771632595032"><ele>5.666666666666667</ele><time>2026-05-01T09:38:32Z</time></trkpt><trkpt lat="41.24711864899512" lon="9.428795663904673"><ele>6.0</ele><time>2026-05-01T09:38:35Z</time></trkpt><trkpt lat="41.24703667246029" lon="9.428866253516183"><ele>6.333333333333334</ele><time>2026-05-01T09:40:43Z</time></trkpt><trkpt lat="41.24696512817263" lon="9.42886071262031"><ele>6.666666666666667</ele><time>2026-05-01T09:40:44Z</time></trkpt><trkpt lat="41.24684919026986" lon="9.428809511323218"><ele>7.0</ele><time>2026-05-01T09:40:46Z</time></trkpt><trkpt lat="41.24678529615676" lon="9.428796437584769"><ele>7.0</ele><time>2026-05-01T09:40:47Z</time></trkpt><trkpt lat="41.24670723742153" lon="9.428776639326033"><ele>6.999999999999999</ele><time>2026-05-01T09:40:48Z</time></trkpt><trkpt lat="41.246608068683635" lon="9.428752567784377"><ele>6.999999999999999</ele><time>2026-05-01T09:40:49Z</time></trkpt><trkpt lat="41.24651101675859" lon="9.428729146169855"><ele>7.0</ele><time>2026-05-01T09:40:50Z</time></trkpt><trkpt lat="41.24641716433128" lon="9.428706496740576"><ele>7.0</ele><time>2026-05-01T09:40:51Z</time></trkpt><trkpt lat="41.24631972045433" lon="9.428681965134773"><ele>6.25</ele><time>2026-05-01T09:40:52Z</time></trkpt><trkpt lat="41.2462121565738" lon="9.428654754697446"><ele>5.5</ele><time>2026-05-01T09:40:53Z</time></trkpt><trkpt lat="41.246090335666416" lon="9.428623216264107"><ele>4.75</ele><time>2026-05-01T09:40:54Z</time></trkpt><trkpt lat="41.2459800096401" lon="9.428594647912147"><ele>4.0</ele><time>2026-05-01T09:40:55Z</time></trkpt><trkpt lat="41.24586811455459" lon="9.428585171867748"><ele>4.0</ele><time>2026-05-01T09:40:56Z</time></trkpt><trkpt lat="41.2457606508218" lon="9.42854396204542"><ele>4.0</ele><time>2026-05-01T09:40:57Z</time></trkpt><trkpt lat="41.24565047264382" lon="9.42850238886457"><ele>4.0</ele><time>2026-05-01T09:40:58Z</time></trkpt><trkpt lat="41.245538740014986" lon="9.42845642817706"><ele>4.0</ele><time>2026-05-01T09:40:59Z</time></trkpt><trkpt lat="41.24543848313896" lon="9.428397014271171"><ele>4.2</ele><time>2026-05-01T09:41:00Z</time></trkpt><trkpt lat="41.245357288438505" lon="9.428316327094976"><ele>4.4</ele><time>2026-05-01T09:41:01Z</time></trkpt><trkpt lat="41.24527772657842" lon="9.428256021457871"><ele>4.6</ele><time>2026-05-01T09:41:02Z</time></trkpt><trkpt lat="41.2451845440778" lon="9.42820877132883"><ele>4.8</ele><time>2026-05-01T09:41:03Z</time></trkpt><trkpt lat="41.24509257376039" lon="9.428190378301135"><ele>5.0</ele><time>2026-05-01T09:41:04Z</time></trkpt><trkpt lat="41.24500654504965" lon="9.4281928801204"><ele>5.0</ele><time>2026-05-01T09:41:05Z</time></trkpt><trkpt lat="41.244921267365974" lon="9.428216696309644"><ele>5.0</ele><time>2026-05-01T09:41:06Z</time></trkpt><trkpt lat="41.2448337272304" lon="9.428264486396701"><ele>5.0</ele><time>2026-05-01T09:41:07Z</time></trkpt><trkpt lat="41.24475665515491" lon="9.4283330119036"><ele>5.0</ele><time>2026-05-01T09:41:08Z</time></trkpt><trkpt lat="41.24467993948011" lon="9.428408839348096"><ele>5.0</ele><time>2026-05-01T09:41:09Z</time></trkpt><trkpt lat="41.24460342126929" lon="9.428485631940108"><ele>6.0</ele><time>2026-05-01T09:41:10Z</time></trkpt><trkpt lat="41.24452088971359" lon="9.42855847649276"><ele>7.0</ele><time>2026-05-01T09:41:11Z</time></trkpt><trkpt lat="41.24443799357875" lon="9.428616113443187"><ele>8.0</ele><time>2026-05-01T09:41:12Z</time></trkpt><trkpt lat="41.24435032831981" lon="9.428661265337535"><ele>9.0</ele><time>2026-05-01T09:41:13Z</time></trkpt><trkpt lat="41.24425833590876" lon="9.428687350233808"><ele>10.0</ele><time>2026-05-01T09:41:14Z</time></trkpt><trkpt lat="41.24416413302466" lon="9.428702134348113"><ele>10.0</ele><time>2026-05-01T09:41:15Z</time></trkpt><trkpt lat="41.244061848417175" lon="9.428709663695754"><ele>10.0</ele><time>2026-05-01T09:41:16Z</time></trkpt><trkpt lat="41.24396875794461" lon="9.428714473094141"><ele>10.0</ele><time>2026-05-01T09:41:17Z</time></trkpt><trkpt lat="41.24387267664374" lon="9.428723701663046"><ele>10.0</ele><time>2026-05-01T09:41:18Z</time></trkpt><trkpt lat="41.2437829117103" lon="9.428732906406582"><ele>10.0</ele><time>2026-05-01T09:41:19Z</time></trkpt><trkpt lat="41.24368598906799" lon="9.428743099532795"><ele>11.8</ele><time>2026-05-01T09:41:20Z</time></trkpt><trkpt lat="41.243580695359334" lon="9.428751565996762"><ele>13.6</ele><time>2026-05-01T09:41:21Z</time></trkpt><trkpt lat="41.243475377419976" lon="9.42874581080516"><ele>15.399999999999999</ele><time>2026-05-01T09:41:22Z</time></trkpt><trkpt lat="41.24338762427889" lon="9.428715875093367"><ele>17.2</ele><time>2026-05-01T09:41:23Z</time></trkpt><trkpt lat="41.24330371715926" lon="9.428665884489838"><ele>19.0</ele><time>2026-05-01T09:41:24Z</time></trkpt><trkpt lat="41.24323243273168" lon="9.428602435452568"><ele>19.0</ele><time>2026-05-01T09:41:25Z</time></trkpt><trkpt lat="41.24317539191434" lon="9.428526998378361"><ele>19.0</ele><time>2026-05-01T09:41:26Z</time></trkpt><trkpt lat="41.2431266506064" lon="9.42843041024256"><ele>19.0</ele><time>2026-05-01T09:41:27Z</time></trkpt><trkpt lat="41.24307626692191" lon="9.428324843598604"><ele>19.0</ele><time>2026-05-01T09:41:28Z</time></trkpt><trkpt lat="41.24301858298086" lon="9.428218312431834"><ele>19.0</ele><time>2026-05-01T09:41:29Z</time></trkpt><trkpt lat="41.24295312890148" lon="9.428108749166645"><ele>19.0</ele><time>2026-05-01T09:41:30Z</time></trkpt><trkpt lat="41.24288450017269" lon="9.427984583315336"><ele>19.0</ele><time>2026-05-01T09:41:31Z</time></trkpt><trkpt lat="41.242818904512916" lon="9.427868418008218"><ele>19.0</ele><time>2026-05-01T09:41:32Z</time></trkpt><trkpt lat="41.242756522430334" lon="9.427770406484303"><ele>19.0</ele><time>2026-05-01T09:41:33Z</time></trkpt><trkpt lat="41.242684080360426" lon="9.427688679240545"><ele>19.0</ele><time>2026-05-01T09:41:34Z</time></trkpt><trkpt lat="41.24260448383011" lon="9.427624888260254"><ele>19.0</ele><time>2026-05-01T09:41:35Z</time></trkpt><trkpt lat="41.24251544823995" lon="9.427584640366712"><ele>19.0</ele><time>2026-05-01T09:41:36Z</time></trkpt><trkpt lat="41.24241910240018" lon="9.427566076678836"><ele>19.0</ele><time>2026-05-01T09:41:37Z</time></trkpt><trkpt lat="41.24231493203533" lon="9.427568524229807"><ele>19.0</ele><time>2026-05-01T09:41:38Z</time></trkpt><trkpt lat="41.24220879095605" lon="9.427592951906652"><ele>19.0</ele><time>2026-05-01T09:41:39Z</time></trkpt><trkpt lat="41.242105608441086" lon="9.427628629832277"><ele>20.2</ele><time>2026-05-01T09:41:40Z</time></trkpt><trkpt lat="41.242001672906724" lon="9.427679802247857"><ele>21.4</ele><time>2026-05-01T09:41:41Z</time></trkpt><trkpt lat="41.24190373407805" lon="9.42774789022985"><ele>22.6</ele><time>2026-05-01T09:41:42Z</time></trkpt><trkpt lat="41.24181307568874" lon="9.427823496560444"><ele>23.8</ele><time>2026-05-01T09:41:43Z</time></trkpt><trkpt lat="41.24172246044587" lon="9.427898070636784"><ele>25.0</ele><time>2026-05-01T09:41:44Z</time></trkpt><trkpt lat="41.24163144886589" lon="9.427969546482137"><ele>26.4</ele><time>2026-05-01T09:41:45Z</time></trkpt><trkpt lat="41.24154233089544" lon="9.428035016912382"><ele>27.8</ele><time>2026-05-01T09:41:46Z</time></trkpt><trkpt lat="41.241452659347345" lon="9.428084449284933"><ele>29.200000000000003</ele><time>2026-05-01T09:41:47Z</time></trkpt><trkpt lat="41.241365937432974" lon="9.428105019260917"><ele>30.6</ele><time>2026-05-01T09:41:48Z</time></trkpt><trkpt lat="41.2412815207986" lon="9.428101640500671"><ele>32.0</ele><time>2026-05-01T09:41:49Z</time></trkpt><trkpt lat="41.24120249515248" lon="9.428079210496975"><ele>32.0</ele><time>2026-05-01T09:41:50Z</time></trkpt><trkpt lat="41.24112538321483" lon="9.428042320163117"><ele>32.0</ele><time>2026-05-01T09:41:51Z</time></trkpt><trkpt lat="41.24104959486947" lon="9.427985624015227"><ele>32.0</ele><time>2026-05-01T09:41:52Z</time></trkpt><trkpt lat="41.240976252419394" lon="9.427912355039663"><ele>32.0</ele><time>2026-05-01T09:41:53Z</time></trkpt><trkpt lat="41.24090138828182" lon="9.427834012610477"><ele>32.0</ele><time>2026-05-01T09:41:54Z</time></trkpt><trkpt lat="41.24081864714131" lon="9.427746755907686"><ele>31.8</ele><time>2026-05-01T09:41:55Z</time></trkpt><trkpt lat="41.24073077599177" lon="9.427662343900234"><ele>31.6</ele><time>2026-05-01T09:41:56Z</time></trkpt><trkpt lat="41.24064366565262" lon="9.427583385198384"><ele>31.400000000000002</ele><time>2026-05-01T09:41:57Z</time></trkpt><trkpt lat="41.24055286669584" lon="9.427502916239465"><ele>31.200000000000003</ele><time>2026-05-01T09:41:58Z</time></trkpt><trkpt lat="41.24046191084766" lon="9.427421377816303"><ele>31.0</ele><time>2026-05-01T09:41:59Z</time></trkpt><trkpt lat="41.24037016818439" lon="9.427337348929283"><ele>30.6</ele><time>2026-05-01T09:42:00Z</time></trkpt><trkpt lat="41.24027721468864" lon="9.427256103187368"><ele>30.200000000000003</ele><time>2026-05-01T09:42:01Z</time></trkpt><trkpt lat="41.24018527998326" lon="9.42718190528385"><ele>29.799999999999997</ele><time>2026-05-01T09:42:02Z</time></trkpt><trkpt lat="41.240090660627985" lon="9.42712047483375"><ele>29.4</ele><time>2026-05-01T09:42:03Z</time></trkpt><trkpt lat="41.23999154828104" lon="9.427080040155024"><ele>29.0</ele><time>2026-05-01T09:42:04Z</time></trkpt><trkpt lat="41.239888720348816" lon="9.42706332307017"><ele>28.25</ele><time>2026-05-01T09:42:05Z</time></trkpt><trkpt lat="41.23979017894395" lon="9.427010317907682"><ele>27.5</ele><time>2026-05-01T09:42:06Z</time></trkpt><trkpt lat="41.239664496873324" lon="9.426971525994947"><ele>26.75</ele><time>2026-05-01T09:42:07Z</time></trkpt><trkpt lat="41.239524223657156" lon="9.426928581898945"><ele>26.0</ele><time>2026-05-01T09:42:08Z</time></trkpt><trkpt lat="41.23940100419299" lon="9.426890662877142"><ele>26.0</ele><time>2026-05-01T09:42:09Z</time></trkpt><trkpt lat="41.23928391104642" lon="9.426846724331813"><ele>26.0</ele><time>2026-05-01T09:42:10Z</time></trkpt><trkpt lat="41.239179981571624" lon="9.426777067962517"><ele>26.0</ele><time>2026-05-01T09:42:11Z</time></trkpt><trkpt lat="41.2390831665755" lon="9.42669523960639"><ele>26.0</ele><time>2026-05-01T09:42:12Z</time></trkpt><trkpt lat="41.239003989973604" lon="9.426582377491217"><ele>25.75</ele><time>2026-05-01T09:42:13Z</time></trkpt><trkpt lat="41.23892153225413" lon="9.42645455190872"><ele>25.5</ele><time>2026-05-01T09:42:14Z</time></trkpt><trkpt lat="41.2388396612986" lon="9.426329079893105"><ele>25.25</ele><time>2026-05-01T09:42:15Z</time></trkpt><trkpt lat="41.23875448168072" lon="9.426195872178768"><ele>25.0</ele><time>2026-05-01T09:42:16Z</time></trkpt><trkpt lat="41.2386686684423" lon="9.426063155529018"><ele>25.0</ele><time>2026-05-01T09:42:17Z</time></trkpt><trkpt lat="41.23858372855391" lon="9.425930352815131"><ele>25.0</ele><time>2026-05-01T09:42:18Z</time></trkpt><trkpt lat="41.238501957948706" lon="9.425799844601222"><ele>25.0</ele><time>2026-05-01T09:42:19Z</time></trkpt><trkpt lat="41.23842087288809" lon="9.425670506582659"><ele>25.0</ele><time>2026-05-01T09:42:20Z</time></trkpt><trkpt lat="41.23834080039929" lon="9.425541705827987"><ele>25.75</ele><time>2026-05-01T09:42:21Z</time></trkpt><trkpt lat="41.23825995778044" lon="9.425413402358286"><ele>26.5</ele><time>2026-05-01T09:42:22Z</time></trkpt><trkpt lat="41.238171430458245" lon="9.425290691361988"><ele>27.25</ele><time>2026-05-01T09:42:23Z</time></trkpt><trkpt lat="41.23807658909504" lon="9.425176642442144"><ele>28.0</ele><time>2026-05-01T09:42:24Z</time></trkpt><trkpt lat="41.23796933898195" lon="9.425078834831398"><ele>28.75</ele><time>2026-05-01T09:42:25Z</time></trkpt><trkpt lat="41.237853939682985" lon="9.424999304193598"><ele>29.5</ele><time>2026-05-01T09:42:26Z</time></trkpt><trkpt lat="41.237731295703185" lon="9.424936383133307"><ele>30.25</ele><time>2026-05-01T09:42:27Z</time></trkpt><trkpt lat="41.23760386760728" lon="9.4248854307001"><ele>31.0</ele><time>2026-05-01T09:42:28Z</time></trkpt><trkpt lat="41.237474480518934" lon="9.424835537970171"><ele>31.0</ele><time>2026-05-01T09:42:29Z</time></trkpt><trkpt lat="41.23734486759828" lon="9.424786080418617"><ele>31.0</ele><time>2026-05-01T09:42:30Z</time></trkpt><trkpt lat="41.237218789570086" lon="9.42474090177921"><ele>31.0</ele><time>2026-05-01T09:42:31Z</time></trkpt><trkpt lat="41.237096847323045" lon="9.42469706445319"><ele>31.0</ele><time>2026-05-01T09:42:31.999Z</time></trkpt><trkpt lat="41.23698069691761" lon="9.424654651106502"><ele>33.2</ele><time>2026-05-01T09:42:32.999Z</time></trkpt><trkpt lat="41.236874713237086" lon="9.424613793969932"><ele>35.400000000000006</ele><time>2026-05-01T09:42:33.999Z</time></trkpt><trkpt lat="41.236769797719866" lon="9.424571698514463"><ele>37.6</ele><time>2026-05-01T09:42:34.999Z</time></trkpt><trkpt lat="41.236672777069835" lon="9.424534933762724"><ele>39.800000000000004</ele><time>2026-05-01T09:42:35.999Z</time></trkpt><trkpt lat="41.23658002429921" lon="9.424502247170134"><ele>42.0</ele><time>2026-05-01T09:42:36.999Z</time></trkpt><trkpt lat="41.236492529000635" lon="9.424470760007553"><ele>40.6</ele><time>2026-05-01T09:42:37.999Z</time></trkpt><trkpt lat="41.23640093430666" lon="9.424438833853582"><ele>39.2</ele><time>2026-05-01T09:42:38.999Z</time></trkpt><trkpt lat="41.2363063644198" lon="9.424408406282113"><ele>37.8</ele><time>2026-05-01T09:42:39.999Z</time></trkpt><trkpt lat="41.236217464312205" lon="9.424366489558315"><ele>36.4</ele><time>2026-05-01T09:42:40.999Z</time></trkpt><trkpt lat="41.23611647526002" lon="9.424329831286178"><ele>35.0</ele><time>2026-05-01T09:42:41.999Z</time></trkpt><trkpt lat="41.2359971029703" lon="9.424286512167493"><ele>35.0</ele><time>2026-05-01T09:42:42.999Z</time></trkpt><trkpt lat="41.23586370440231" lon="9.424238103037167"><ele>35.0</ele><time>2026-05-01T09:42:43.999Z</time></trkpt><trkpt lat="41.235738202512145" lon="9.424192559543114"><ele>35.0</ele><time>2026-05-01T09:42:44.999Z</time></trkpt><trkpt lat="41.235604203570276" lon="9.424166191971478"><ele>35.0</ele><time>2026-05-01T09:42:45.999Z</time></trkpt><trkpt lat="41.235478078209034" lon="9.424113643652568"><ele>33.5</ele><time>2026-05-01T09:42:46.999Z</time></trkpt><trkpt lat="41.23534745356009" lon="9.42406699253766"><ele>32.0</ele><time>2026-05-01T09:42:47.999Z</time></trkpt><trkpt lat="41.23521295260753" lon="9.424017603405792"><ele>30.5</ele><time>2026-05-01T09:42:48.999Z</time></trkpt><trkpt lat="41.23507486792403" lon="9.423967175659307"><ele>29.0</ele><time>2026-05-01T09:42:49.999Z</time></trkpt><trkpt lat="41.23493625401947" lon="9.423915922485829"><ele>27.75</ele><time>2026-05-01T09:42:50.999Z</time></trkpt><trkpt lat="41.23479978205443" lon="9.42386296490998"><ele>26.5</ele><time>2026-05-01T09:42:51.999Z</time></trkpt><trkpt lat="41.23466641047893" lon="9.423807213197145"><ele>25.25</ele><time>2026-05-01T09:42:52.999Z</time></trkpt><trkpt lat="41.234530635598226" lon="9.423751962683491"><ele>24.0</ele><time>2026-05-01T09:42:53.999Z</time></trkpt><trkpt lat="41.234394173471564" lon="9.42370065790758"><ele>23.75</ele><time>2026-05-01T09:42:54.999Z</time></trkpt><trkpt lat="41.234260985164084" lon="9.423653527836946"><ele>23.5</ele><time>2026-05-01T09:42:55.999Z</time></trkpt><trkpt lat="41.234136483199336" lon="9.42360710643259"><ele>23.25</ele><time>2026-05-01T09:42:56.999Z</time></trkpt><trkpt lat="41.23400614410515" lon="9.42355992684394"><ele>23.0</ele><time>2026-05-01T09:42:58Z</time></trkpt><trkpt lat="41.23387662770689" lon="9.423512067808907"><ele>22.0</ele><time>2026-05-01T09:42:59Z</time></trkpt><trkpt lat="41.233746683938946" lon="9.42346132975207"><ele>21.0</ele><time>2026-05-01T09:43:00Z</time></trkpt><trkpt lat="41.23361294006067" lon="9.423409987696834"><ele>20.0</ele><time>2026-05-01T09:43:01Z</time></trkpt><trkpt lat="41.23347540243858" lon="9.423355908946533"><ele>19.0</ele><time>2026-05-01T09:43:02Z</time></trkpt><trkpt lat="41.23333479470822" lon="9.423305543772807"><ele>19.0</ele><time>2026-05-01T09:43:03Z</time></trkpt><trkpt lat="41.23319176466182" lon="9.423253686334576"><ele>19.0</ele><time>2026-05-01T09:43:04Z</time></trkpt><trkpt lat="41.23305561496693" lon="9.423203109026478"><ele>19.0</ele><time>2026-05-01T09:43:05Z</time></trkpt><trkpt lat="41.23291671555502" lon="9.423152344138066"><ele>19.0</ele><time>2026-05-01T09:43:06Z</time></trkpt><trkpt lat="41.23277419145785" lon="9.423098315682884"><ele>18.666666666666664</ele><time>2026-05-01T09:43:07Z</time></trkpt><trkpt lat="41.232632571410335" lon="9.42304524281696"><ele>18.333333333333332</ele><time>2026-05-01T09:43:08Z</time></trkpt><trkpt lat="41.23248593239583" lon="9.422992349014999"><ele>18.0</ele><time>2026-05-01T09:43:09Z</time></trkpt><trkpt lat="41.23233463085178" lon="9.422939022459422"><ele>19.333333333333332</ele><time>2026-05-01T09:43:10Z</time></trkpt><trkpt lat="41.23218298807694" lon="9.422883535441706"><ele>20.666666666666664</ele><time>2026-05-01T09:43:11Z</time></trkpt><trkpt lat="41.23203129889901" lon="9.422825898627096"><ele>22.0</ele><time>2026-05-01T09:43:12Z</time></trkpt><trkpt lat="41.23188761319423" lon="9.422770127852585"><ele>22.0</ele><time>2026-05-01T09:43:13Z</time></trkpt><trkpt lat="41.23175851300834" lon="9.422719657757247"><ele>22.0</ele><time>2026-05-01T09:43:14Z</time></trkpt><trkpt lat="41.23164060791809" lon="9.42267127696314"><ele>22.0</ele><time>2026-05-01T09:43:15Z</time></trkpt><trkpt lat="41.23152311523685" lon="9.422616378962196"><ele>22.0</ele><time>2026-05-01T09:43:16Z</time></trkpt><trkpt lat="41.23141478118555" lon="9.422559110564883"><ele>22.5</ele><time>2026-05-01T09:43:17Z</time></trkpt><trkpt lat="41.231306340300364" lon="9.422494089366712"><ele>23.0</ele><time>2026-05-01T09:43:18Z</time></trkpt><trkpt lat="41.231195677207644" lon="9.422422370352493"><ele>23.5</ele><time>2026-05-01T09:43:19Z</time></trkpt><trkpt lat="41.23109006064884" lon="9.422348356650408"><ele>24.0</ele><time>2026-05-01T09:43:20Z</time></trkpt><trkpt lat="41.23098067420556" lon="9.422270431795294"><ele>24.0</ele><time>2026-05-01T09:43:21Z</time></trkpt><trkpt lat="41.23087177043624" lon="9.422193579749049"><ele>24.0</ele><time>2026-05-01T09:43:22Z</time></trkpt><trkpt lat="41.23077222559585" lon="9.422124746482758"><ele>24.0</ele><time>2026-05-01T09:43:23Z</time></trkpt><trkpt lat="41.23067862856162" lon="9.422057570465343"><ele>24.0</ele><time>2026-05-01T09:43:24Z</time></trkpt><trkpt lat="41.23059440780348" lon="9.421998401404297"><ele>24.0</ele><time>2026-05-01T09:43:25Z</time></trkpt><trkpt lat="41.230528414543826" lon="9.42196037834889"><ele>24.666666666666668</ele><time>2026-05-01T09:43:26Z</time></trkpt><trkpt lat="41.230426278467576" lon="9.421910464802336"><ele>25.333333333333336</ele><time>2026-05-01T09:43:28Z</time></trkpt><trkpt lat="41.230358622488716" lon="9.421884993174267"><ele>26.0</ele><time>2026-05-01T09:43:30Z</time></trkpt><trkpt lat="41.23034488490719" lon="9.421985663156443"><ele>26.666666666666668</ele><time>2026-05-01T09:43:33Z</time></trkpt><trkpt lat="41.230409392463066" lon="9.422024308008858"><ele>27.333333333333336</ele><time>2026-05-01T09:43:35Z</time></trkpt><trkpt lat="41.23048284538579" lon="9.422085838818584"><ele>28.0</ele><time>2026-05-01T09:43:38Z</time></trkpt><trkpt lat="41.23041911282644" lon="9.422188433486975"><ele>28.0</ele><time>2026-05-01T09:43:41Z</time></trkpt><trkpt lat="41.23041174739026" lon="9.422283106642228"><ele>28.0</ele><time>2026-05-01T09:43:43Z</time></trkpt><trkpt lat="41.230419347308754" lon="9.422369346472621"><ele>28.0</ele><time>2026-05-01T09:43:44Z</time></trkpt><trkpt lat="41.230408814890026" lon="9.422456197890858"><ele>28.0</ele><time>2026-05-01T09:43:45Z</time></trkpt><trkpt lat="41.23040360501419" lon="9.422548823353441"><ele>28.0</ele><time>2026-05-01T09:43:46Z</time></trkpt><trkpt lat="41.23040116430376" lon="9.422642226684783"><ele>28.0</ele><time>2026-05-01T09:43:47Z</time></trkpt><trkpt lat="41.2304019597884" lon="9.422740592403981"><ele>28.0</ele><time>2026-05-01T09:43:48Z</time></trkpt><trkpt lat="41.230407041106474" lon="9.422830641277"><ele>27.799999999999997</ele><time>2026-05-01T09:43:49Z</time></trkpt><trkpt lat="41.23042157978818" lon="9.422996173071127"><ele>27.599999999999998</ele><time>2026-05-01T09:43:51Z</time></trkpt><trkpt lat="41.23043709736249" lon="9.423091750507249"><ele>27.400000000000002</ele><time>2026-05-01T09:43:52Z</time></trkpt><trkpt lat="41.23045750795944" lon="9.423205149115079"><ele>27.200000000000003</ele><time>2026-05-01T09:43:53Z</time></trkpt><trkpt lat="41.23048317680785" lon="9.42333217504208"><ele>27.0</ele><time>2026-05-01T09:43:54Z</time></trkpt><trkpt lat="41.230513055989036" lon="9.423462023500901"><ele>27.0</ele><time>2026-05-01T09:43:55Z</time></trkpt><trkpt lat="41.23054661839799" lon="9.423591915382534"><ele>27.000000000000004</ele><time>2026-05-01T09:43:56Z</time></trkpt><trkpt lat="41.230577150712286" lon="9.423717374114265"><ele>27.000000000000004</ele><time>2026-05-01T09:43:57Z</time></trkpt><trkpt lat="41.230630049507006" lon="9.423837083110119"><ele>27.0</ele><time>2026-05-01T09:43:58Z</time></trkpt><trkpt lat="41.23068430154464" lon="9.423975588285305"><ele>27.0</ele><time>2026-05-01T09:43:59Z</time></trkpt><trkpt lat="41.23075018098892" lon="9.42409017909078"><ele>26.200000000000003</ele><time>2026-05-01T09:44:00Z</time></trkpt><trkpt lat="41.23081875385902" lon="9.424182135212499"><ele>25.400000000000002</ele><time>2026-05-01T09:44:01Z</time></trkpt><trkpt lat="41.23085737336905" lon="9.424288273878656"><ele>24.6</ele><time>2026-05-01T09:44:02Z</time></trkpt><trkpt lat="41.23087634234538" lon="9.424405016182696"><ele>23.799999999999997</ele><time>2026-05-01T09:44:03Z</time></trkpt><trkpt lat="41.230880227163304" lon="9.424525683428262"><ele>23.0</ele><time>2026-05-01T09:44:04Z</time></trkpt><trkpt lat="41.23087878466179" lon="9.424646854382056"><ele>22.666666666666668</ele><time>2026-05-01T09:44:05Z</time></trkpt><trkpt lat="41.2308740373986" lon="9.424763557012295"><ele>22.333333333333336</ele><time>2026-05-01T09:44:06Z</time></trkpt><trkpt lat="41.23086924008157" lon="9.424873882611573"><ele>22.0</ele><time>2026-05-01T09:44:07Z</time></trkpt><trkpt lat="41.23086679237478" lon="9.424978400436215"><ele>21.666666666666668</ele><time>2026-05-01T09:44:08Z</time></trkpt><trkpt lat="41.23086006689836" lon="9.425076974008949"><ele>21.333333333333332</ele><time>2026-05-01T09:44:09Z</time></trkpt><trkpt lat="41.23083235650253" lon="9.425158344494912"><ele>21.0</ele><time>2026-05-01T09:44:10Z</time></trkpt><trkpt lat="41.23079148162" lon="9.425228425082386"><ele>21.0</ele><time>2026-05-01T09:44:11Z</time></trkpt><trkpt lat="41.23073723860302" lon="9.42528173509716"><ele>21.0</ele><time>2026-05-01T09:44:12Z</time></trkpt><trkpt lat="41.230687214290754" lon="9.425337796409147"><ele>21.0</ele><time>2026-05-01T09:44:13Z</time></trkpt><trkpt lat="41.23064671646355" lon="9.425492570260957"><ele>21.0</ele><time>2026-05-01T09:44:15Z</time></trkpt><trkpt lat="41.23063564702646" lon="9.425589194424516"><ele>21.0</ele><time>2026-05-01T09:44:16Z</time></trkpt><trkpt lat="41.230683049304844" lon="9.425682290646629"><ele>21.0</ele><time>2026-05-01T09:44:17Z</time></trkpt><trkpt lat="41.23070929586175" lon="9.425767325476931"><ele>21.0</ele><time>2026-05-01T09:44:18Z</time></trkpt><trkpt lat="41.23073144535829" lon="9.425847873913039"><ele>21.0</ele><time>2026-05-01T09:44:19Z</time></trkpt><trkpt lat="41.230741748975454" lon="9.425999418401819"><ele>21.0</ele><time>2026-05-01T09:44:21Z</time></trkpt><trkpt lat="41.23070847848044" lon="9.426145575849809"><ele>21.0</ele><time>2026-05-01T09:44:23Z</time></trkpt><trkpt lat="41.23065598567966" lon="9.426284724496622"><ele>21.0</ele><time>2026-05-01T09:44:25Z</time></trkpt><trkpt lat="41.23057233888437" lon="9.426375506084481"><ele>21.0</ele><time>2026-05-01T09:44:27Z</time></trkpt><trkpt lat="41.23048933786411" lon="9.426402103677022"><ele>21.0</ele><time>2026-05-01T09:44:29Z</time></trkpt><trkpt lat="41.230378309596475" lon="9.426385825418366"><ele>21.0</ele><time>2026-05-01T09:44:31Z</time></trkpt><trkpt lat="41.230321541374465" lon="9.426424419497502"><ele>21.0</ele><time>2026-05-01T09:44:32Z</time></trkpt><trkpt lat="41.230285141834536" lon="9.42649531177712"><ele>21.0</ele><time>2026-05-01T09:44:33Z</time></trkpt><trkpt lat="41.23028099645613" lon="9.426584063089898"><ele>21.0</ele><time>2026-05-01T09:44:34Z</time></trkpt><trkpt lat="41.2302803876652" lon="9.426688596114596"><ele>21.0</ele><time>2026-05-01T09:44:35Z</time></trkpt><trkpt lat="41.23029744474607" lon="9.42677356331004"><ele>21.0</ele><time>2026-05-01T09:44:36Z</time></trkpt><trkpt lat="41.23033790265225" lon="9.426916856366843"><ele>21.0</ele><time>2026-05-01T09:44:37.999Z</time></trkpt><trkpt lat="41.23031101779975" lon="9.42706432453328"><ele>21.0</ele><time>2026-05-01T09:44:39.999Z</time></trkpt><trkpt lat="41.230236206698834" lon="9.427185881567068"><ele>21.0</ele><time>2026-05-01T09:44:41.999Z</time></trkpt><trkpt lat="41.23016431605029" lon="9.427313946335236"><ele>19.8</ele><time>2026-05-01T09:44:43.999Z</time></trkpt><trkpt lat="41.23010397263999" lon="9.427429593295823"><ele>18.6</ele><time>2026-05-01T09:44:45.999Z</time></trkpt><trkpt lat="41.23004757955687" lon="9.427514648838073"><ele>17.4</ele><time>2026-05-01T09:44:47.999Z</time></trkpt><trkpt lat="41.22998245323658" lon="9.427552492639526"><ele>16.2</ele><time>2026-05-01T09:45:24Z</time></trkpt><trkpt lat="41.2298673950819" lon="9.427519475263821"><ele>15.0</ele><time>2026-05-01T09:45:26Z</time></trkpt><trkpt lat="41.22975115930601" lon="9.42751098367481"><ele>15.0</ele><time>2026-05-01T09:45:28Z</time></trkpt><trkpt lat="41.229682827184824" lon="9.427487610181817"><ele>15.0</ele><time>2026-05-01T09:45:29Z</time></trkpt><trkpt lat="41.22960963958744" lon="9.427459024892823"><ele>15.0</ele><time>2026-05-01T09:45:30Z</time></trkpt><trkpt lat="41.22953251889106" lon="9.427425894891933"><ele>15.0</ele><time>2026-05-01T09:45:31Z</time></trkpt><trkpt lat="41.22946566507917" lon="9.427397296787262"><ele>15.0</ele><time>2026-05-01T09:45:32Z</time></trkpt><trkpt lat="41.22939688421404" lon="9.427374239534972"><ele>15.0</ele><time>2026-05-01T09:45:33Z</time></trkpt><trkpt lat="41.229331110871364" lon="9.427349834621793"><ele>15.0</ele><time>2026-05-01T09:45:34Z</time></trkpt><trkpt lat="41.22926939374893" lon="9.427328997207935"><ele>15.0</ele><time>2026-05-01T09:45:35Z</time></trkpt><trkpt lat="41.22920566912683" lon="9.427309873715346"><ele>15.0</ele><time>2026-05-01T09:45:36Z</time></trkpt><trkpt lat="41.229137347302256" lon="9.427287082848016"><ele>15.0</ele><time>2026-05-01T09:45:37Z</time></trkpt><trkpt lat="41.22906671794524" lon="9.427260519683047"><ele>15.0</ele><time>2026-05-01T09:45:38Z</time></trkpt><trkpt lat="41.22899971189909" lon="9.427247000522799"><ele>15.0</ele><time>2026-05-01T09:45:39Z</time></trkpt><trkpt lat="41.228931557011634" lon="9.427258495727619"><ele>15.0</ele><time>2026-05-01T09:45:40Z</time></trkpt><trkpt lat="41.22886063763211" lon="9.427279527995278"><ele>15.0</ele><time>2026-05-01T09:45:41Z</time></trkpt><trkpt lat="41.22879448643887" lon="9.427300417166984"><ele>15.333333333333334</ele><time>2026-05-01T09:45:42Z</time></trkpt><trkpt lat="41.22868190711739" lon="9.427327765943215"><ele>15.666666666666668</ele><time>2026-05-01T09:45:44Z</time></trkpt><trkpt lat="41.22855314438698" lon="9.427346820025324"><ele>16.0</ele><time>2026-05-01T09:45:46Z</time></trkpt><trkpt lat="41.228486577160076" lon="9.427357693471937"><ele>16.333333333333336</ele><time>2026-05-01T09:45:47Z</time></trkpt><trkpt lat="41.22841852947496" lon="9.427364447636112"><ele>16.666666666666668</ele><time>2026-05-01T09:45:48Z</time></trkpt><trkpt lat="41.22835542157181" lon="9.427368259737564"><ele>17.0</ele><time>2026-05-01T09:45:49Z</time></trkpt><trkpt lat="41.22824495652112" lon="9.427324462400886"><ele>17.5</ele><time>2026-05-01T09:45:51Z</time></trkpt><trkpt lat="41.22813573484126" lon="9.427295090995623"><ele>18.0</ele><time>2026-05-01T09:45:53Z</time></trkpt><trkpt lat="41.22802300928619" lon="9.427228472083982"><ele>18.5</ele><time>2026-05-01T09:45:55Z</time></trkpt><trkpt lat="41.22790941011919" lon="9.42715683600427"><ele>19.0</ele><time>2026-05-01T09:45:57Z</time></trkpt><trkpt lat="41.227789037421765" lon="9.427097065344016"><ele>19.0</ele><time>2026-05-01T09:45:59Z</time></trkpt><trkpt lat="41.227719606978646" lon="9.42708015134819"><ele>19.0</ele><time>2026-05-01T09:46:00Z</time></trkpt><trkpt lat="41.2276578971994" lon="9.427062125275597"><ele>19.0</ele><time>2026-05-01T09:46:01Z</time></trkpt><trkpt lat="41.227594171014715" lon="9.42700650418436"><ele>19.0</ele><time>2026-05-01T09:46:03Z</time></trkpt><trkpt lat="41.22759686527614" lon="9.426898901018221"><ele>19.0</ele><time>2026-05-01T09:46:05Z</time></trkpt><trkpt lat="41.22760528137589" lon="9.4267488341539"><ele>19.0</ele><time>2026-05-01T09:46:07Z</time></trkpt><trkpt lat="41.22762119731666" lon="9.426588492482976"><ele>19.0</ele><time>2026-05-01T09:46:09Z</time></trkpt><trkpt lat="41.227632881847434" lon="9.426420599474383"><ele>19.0</ele><time>2026-05-01T09:46:11Z</time></trkpt><trkpt lat="41.2276406796116" lon="9.426295598797282"><ele>19.0</ele><time>2026-05-01T09:46:13Z</time></trkpt><trkpt lat="41.227650576248834" lon="9.426211898947338"><ele>19.0</ele><time>2026-05-01T09:46:14Z</time></trkpt><trkpt lat="41.227656861338794" lon="9.42612598989064"><ele>19.0</ele><time>2026-05-01T09:46:15Z</time></trkpt><trkpt lat="41.22766736801381" lon="9.426017384960174"><ele>19.0</ele><time>2026-05-01T09:46:17Z</time></trkpt><trkpt lat="41.227726479590125" lon="9.42592744796569"><ele>19.6</ele><time>2026-05-01T09:46:51Z</time></trkpt><trkpt lat="41.22782967958949" lon="9.425891337926485"><ele>20.2</ele><time>2026-05-01T09:46:53Z</time></trkpt><trkpt lat="41.22789835206807" lon="9.425841496359737"><ele>20.8</ele><time>2026-05-01T09:46:55Z</time></trkpt><trkpt lat="41.22789217642456" lon="9.425707816882614"><ele>21.400000000000002</ele><time>2026-05-01T09:46:57Z</time></trkpt><trkpt lat="41.227883521721225" lon="9.425615125017112"><ele>22.0</ele><time>2026-05-01T09:46:58Z</time></trkpt><trkpt lat="41.227868492078294" lon="9.425459137570636"><ele>22.166666666666664</ele><time>2026-05-01T09:47:00Z</time></trkpt><trkpt lat="41.22786408752412" lon="9.425371734025585"><ele>22.333333333333332</ele><time>2026-05-01T09:47:01Z</time></trkpt><trkpt lat="41.22786363087114" lon="9.42528669146018"><ele>22.5</ele><time>2026-05-01T09:47:02Z</time></trkpt><trkpt lat="41.22787726188845" lon="9.425200124921059"><ele>22.666666666666668</ele><time>2026-05-01T09:47:03Z</time></trkpt><trkpt lat="41.22791286209994" lon="9.425056467641586"><ele>22.833333333333336</ele><time>2026-05-01T09:47:05Z</time></trkpt><trkpt lat="41.2279462837463" lon="9.424944376846524"><ele>23.0</ele><time>2026-05-01T09:47:07Z</time></trkpt><trkpt lat="41.227949034594445" lon="9.424843509366477"><ele>23.0</ele><time>2026-05-01T09:47:09Z</time></trkpt><trkpt lat="41.227922994258215" lon="9.424741784004244"><ele>23.0</ele><time>2026-05-01T09:47:13Z</time></trkpt><trkpt lat="41.227811919167124" lon="9.424758583340747"><ele>23.0</ele><time>2026-05-01T09:47:15Z</time></trkpt><trkpt lat="41.227749918493444" lon="9.42482039227555"><ele>23.0</ele><time>2026-05-01T09:47:16Z</time></trkpt><trkpt lat="41.2276726746821" lon="9.424882380254541"><ele>23.0</ele><time>2026-05-01T09:47:17Z</time></trkpt><trkpt lat="41.22758525309482" lon="9.42493357402741"><ele>23.0</ele><time>2026-05-01T09:47:18Z</time></trkpt><trkpt lat="41.22748255578521" lon="9.424969023823373"><ele>23.0</ele><time>2026-05-01T09:47:19Z</time></trkpt><trkpt lat="41.22738013065138" lon="9.424999246433229"><ele>23.0</ele><time>2026-05-01T09:47:20Z</time></trkpt><trkpt lat="41.22727895746725" lon="9.42503127009778"><ele>23.0</ele><time>2026-05-01T09:47:21Z</time></trkpt><trkpt lat="41.227181628401475" lon="9.425067882640077"><ele>23.0</ele><time>2026-05-01T09:47:22Z</time></trkpt><trkpt lat="41.227081224757505" lon="9.425130213544685"><ele>23.5</ele><time>2026-05-01T09:47:23Z</time></trkpt><trkpt lat="41.22698837206847" lon="9.425223993493931"><ele>24.0</ele><time>2026-05-01T09:47:24Z</time></trkpt><trkpt lat="41.226903255008565" lon="9.425336984857198"><ele>24.5</ele><time>2026-05-01T09:47:25Z</time></trkpt><trkpt lat="41.22682251289506" lon="9.42546877929424"><ele>25.0</ele><time>2026-05-01T09:47:26Z</time></trkpt><trkpt lat="41.22674722807997" lon="9.425601851230601"><ele>24.75</ele><time>2026-05-01T09:47:27Z</time></trkpt><trkpt lat="41.226674189143544" lon="9.425725429667933"><ele>24.5</ele><time>2026-05-01T09:47:28Z</time></trkpt><trkpt lat="41.22659800093329" lon="9.425829098998378"><ele>24.25</ele><time>2026-05-01T09:47:29Z</time></trkpt><trkpt lat="41.22650533869589" lon="9.425914399243087"><ele>24.0</ele><time>2026-05-01T09:47:30Z</time></trkpt><trkpt lat="41.226405384259074" lon="9.425981542314743"><ele>24.0</ele><time>2026-05-01T09:47:31Z</time></trkpt><trkpt lat="41.226301095662635" lon="9.426032512500814"><ele>24.0</ele><time>2026-05-01T09:47:32Z</time></trkpt><trkpt lat="41.22619906021349" lon="9.42607519977909"><ele>24.0</ele><time>2026-05-01T09:47:33Z</time></trkpt><trkpt lat="41.226106049141464" lon="9.426115450440065"><ele>24.0</ele><time>2026-05-01T09:47:34Z</time></trkpt><trkpt lat="41.22601701838799" lon="9.426153580630649"><ele>24.0</ele><time>2026-05-01T09:47:35Z</time></trkpt><trkpt lat="41.22593380412407" lon="9.426190145174038"><ele>24.0</ele><time>2026-05-01T09:47:36Z</time></trkpt><trkpt lat="41.22585077938756" lon="9.42622781529569"><ele>24.0</ele><time>2026-05-01T09:47:37Z</time></trkpt><trkpt lat="41.225762432861046" lon="9.426266935721992"><ele>24.0</ele><time>2026-05-01T09:47:38Z</time></trkpt><trkpt lat="41.22567415238915" lon="9.426306035761723"><ele>24.0</ele><time>2026-05-01T09:47:39Z</time></trkpt><trkpt lat="41.225581260780245" lon="9.426343876046195"><ele>24.0</ele><time>2026-05-01T09:47:40Z</time></trkpt><trkpt lat="41.22548537343023" lon="9.42638331511902"><ele>23.2</ele><time>2026-05-01T09:47:41Z</time></trkpt><trkpt lat="41.22539324542064" lon="9.426422343242344"><ele>22.4</ele><time>2026-05-01T09:47:42Z</time></trkpt><trkpt lat="41.22530226768459" lon="9.426461092063054"><ele>21.6</ele><time>2026-05-01T09:47:43Z</time></trkpt><trkpt lat="41.225209700303175" lon="9.426502006263389"><ele>20.8</ele><time>2026-05-01T09:47:44Z</time></trkpt><trkpt lat="41.2251202054674" lon="9.426541144698188"><ele>20.0</ele><time>2026-05-01T09:47:45Z</time></trkpt><trkpt lat="41.22503399762934" lon="9.426576543604304"><ele>20.0</ele><time>2026-05-01T09:47:46Z</time></trkpt><trkpt lat="41.22494867657044" lon="9.426612428756087"><ele>20.0</ele><time>2026-05-01T09:47:47Z</time></trkpt><trkpt lat="41.224869908636556" lon="9.42664909418202"><ele>20.0</ele><time>2026-05-01T09:47:48Z</time></trkpt><trkpt lat="41.2247911801457" lon="9.426688333146862"><ele>20.0</ele><time>2026-05-01T09:47:49Z</time></trkpt><trkpt lat="41.224714666979175" lon="9.426729308572021"><ele>20.0</ele><time>2026-05-01T09:47:50Z</time></trkpt><trkpt lat="41.22462857116209" lon="9.4267853374343"><ele>20.0</ele><time>2026-05-01T09:47:51Z</time></trkpt><trkpt lat="41.224538165267866" lon="9.426878450417245"><ele>20.25</ele><time>2026-05-01T09:47:52Z</time></trkpt><trkpt lat="41.22444581150324" lon="9.42699375727241"><ele>20.5</ele><time>2026-05-01T09:47:53Z</time></trkpt><trkpt lat="41.22436360652867" lon="9.427122395179007"><ele>20.75</ele><time>2026-05-01T09:47:54Z</time></trkpt><trkpt lat="41.22428638753189" lon="9.427242847257817"><ele>21.0</ele><time>2026-05-01T09:47:55Z</time></trkpt><trkpt lat="41.22425963518862" lon="9.42739438494373"><ele>20.0</ele><time>2026-05-01T09:47:56Z</time></trkpt><trkpt lat="41.22424559266694" lon="9.427544014416025"><ele>19.0</ele><time>2026-05-01T09:47:57Z</time></trkpt><trkpt lat="41.22425412195713" lon="9.427717236863788"><ele>18.0</ele><time>2026-05-01T09:47:58Z</time></trkpt><trkpt lat="41.22427710829679" lon="9.427922332408738"><ele>17.0</ele><time>2026-05-01T09:47:59Z</time></trkpt><trkpt lat="41.22430166969797" lon="9.428123814135038"><ele>16.0</ele><time>2026-05-01T09:48:00Z</time></trkpt><trkpt lat="41.22431905253489" lon="9.428312476954503"><ele>15.0</ele><time>2026-05-01T09:48:01Z</time></trkpt><trkpt lat="41.22433367546254" lon="9.428476812000659"><ele>14.0</ele><time>2026-05-01T09:48:02Z</time></trkpt><trkpt lat="41.22434208707222" lon="9.428636779309487"><ele>13.0</ele><time>2026-05-01T09:48:03Z</time></trkpt><trkpt lat="41.22433109395487" lon="9.428793474915835"><ele>12.0</ele><time>2026-05-01T09:48:04Z</time></trkpt><trkpt lat="41.224305014062494" lon="9.428940984585681"><ele>11.0</ele><time>2026-05-01T09:48:05Z</time></trkpt><trkpt lat="41.224266374194585" lon="9.429082660340791"><ele>10.0</ele><time>2026-05-01T09:48:06Z</time></trkpt><trkpt lat="41.224219789972615" lon="9.429220149984166"><ele>9.0</ele><time>2026-05-01T09:48:07Z</time></trkpt><trkpt lat="41.22417203630228" lon="9.429354724446311"><ele>9.0</ele><time>2026-05-01T09:48:08Z</time></trkpt><trkpt lat="41.22412806635612" lon="9.429488414468707"><ele>9.0</ele><time>2026-05-01T09:48:09Z</time></trkpt><trkpt lat="41.22408476954714" lon="9.429625363154717"><ele>9.0</ele><time>2026-05-01T09:48:10Z</time></trkpt><trkpt lat="41.22404122095738" lon="9.429761493552835"><ele>9.0</ele><time>2026-05-01T09:48:11Z</time></trkpt><trkpt lat="41.22399701891133" lon="9.429895549435942"><ele>9.0</ele><time>2026-05-01T09:48:12Z</time></trkpt><trkpt lat="41.22395194202767" lon="9.43002314401376"><ele>8.4</ele><time>2026-05-01T09:48:13Z</time></trkpt><trkpt lat="41.223903916255864" lon="9.43014931258988"><ele>7.800000000000001</ele><time>2026-05-01T09:48:14Z</time></trkpt><trkpt lat="41.22386115840395" lon="9.430274425610902"><ele>7.199999999999999</ele><time>2026-05-01T09:48:15Z</time></trkpt><trkpt lat="41.22382152889633" lon="9.430396755714598"><ele>6.6</ele><time>2026-05-01T09:48:16Z</time></trkpt><trkpt lat="41.223781910491724" lon="9.430517896669542"><ele>6.0</ele><time>2026-05-01T09:48:17Z</time></trkpt><trkpt lat="41.2237414767081" lon="9.430642368523284"><ele>5.2</ele><time>2026-05-01T09:48:18Z</time></trkpt><trkpt lat="41.22369924474759" lon="9.430765428757896"><ele>4.3999999999999995</ele><time>2026-05-01T09:48:19Z</time></trkpt><trkpt lat="41.22365822620921" lon="9.430888247919887"><ele>3.6</ele><time>2026-05-01T09:48:20Z</time></trkpt><trkpt lat="41.223615457844524" lon="9.431004703756368"><ele>2.8</ele><time>2026-05-01T09:48:21Z</time></trkpt><trkpt lat="41.22357178809573" lon="9.43111429753754"><ele>2.0</ele><time>2026-05-01T09:48:22Z</time></trkpt><trkpt lat="41.22352397182259" lon="9.431211204838586"><ele>1.9999999999999998</ele><time>2026-05-01T09:48:23Z</time></trkpt><trkpt lat="41.22346149882367" lon="9.431285564668803"><ele>2.0</ele><time>2026-05-01T09:48:24Z</time></trkpt><trkpt lat="41.22339390072131" lon="9.431333683721059"><ele>2.0</ele><time>2026-05-01T09:48:25Z</time></trkpt><trkpt lat="41.2233217711143" lon="9.431358302894443"><ele>2.0</ele><time>2026-05-01T09:48:26Z</time></trkpt><trkpt lat="41.223250658992185" lon="9.431350460592427"><ele>1.9999999999999998</ele><time>2026-05-01T09:48:27Z</time></trkpt><trkpt lat="41.223165777269244" lon="9.431321108527877"><ele>2.0</ele><time>2026-05-01T09:48:28Z</time></trkpt><trkpt lat="41.22306700558423" lon="9.431274299891761"><ele>2.2</ele><time>2026-05-01T09:48:29Z</time></trkpt><trkpt lat="41.22296846263552" lon="9.431242144072472"><ele>2.4000000000000004</ele><time>2026-05-01T09:48:30Z</time></trkpt><trkpt lat="41.222880211465494" lon="9.431241297663943"><ele>2.5999999999999996</ele><time>2026-05-01T09:48:31Z</time></trkpt><trkpt lat="41.22279440162434" lon="9.4312562242851"><ele>2.8</ele><time>2026-05-01T09:48:32Z</time></trkpt><trkpt lat="41.22272566701767" lon="9.431323466312369"><ele>3.0</ele><time>2026-05-01T09:48:33.001Z</time></trkpt><trkpt lat="41.222683947998725" lon="9.431430712279415"><ele>2.6</ele><time>2026-05-01T09:48:34.001Z</time></trkpt><trkpt lat="41.22263544382949" lon="9.431542997096106"><ele>2.1999999999999997</ele><time>2026-05-01T09:48:35.001Z</time></trkpt><trkpt lat="41.222581005836986" lon="9.431650914458055"><ele>1.8</ele><time>2026-05-01T09:48:36.001Z</time></trkpt><trkpt lat="41.222516323602854" lon="9.431733855438688"><ele>1.4</ele><time>2026-05-01T09:48:37.001Z</time></trkpt><trkpt lat="41.222441066466764" lon="9.431793796751645"><ele>1.0</ele><time>2026-05-01T09:48:38.001Z</time></trkpt><trkpt lat="41.22236510205876" lon="9.431842139724607"><ele>1.2000000000000002</ele><time>2026-05-01T09:48:39.001Z</time></trkpt><trkpt lat="41.22228168768243" lon="9.431897553276947"><ele>1.4000000000000001</ele><time>2026-05-01T09:48:40.001Z</time></trkpt><trkpt lat="41.222193308758115" lon="9.43196542292301"><ele>1.6</ele><time>2026-05-01T09:48:41.001Z</time></trkpt><trkpt lat="41.22211286763717" lon="9.432039867491463"><ele>1.8</ele><time>2026-05-01T09:48:42.001Z</time></trkpt><trkpt lat="41.22204051643958" lon="9.432123594437261"><ele>2.0</ele><time>2026-05-01T09:48:43.001Z</time></trkpt><trkpt lat="41.22197685427651" lon="9.432222072911618"><ele>1.9999999999999998</ele><time>2026-05-01T09:48:44.001Z</time></trkpt><trkpt lat="41.22193558491076" lon="9.432327517021044"><ele>2.0</ele><time>2026-05-01T09:48:45.001Z</time></trkpt><trkpt lat="41.221901483029264" lon="9.43243251544443"><ele>2.0</ele><time>2026-05-01T09:48:46.001Z</time></trkpt><trkpt lat="41.22187812846229" lon="9.43253917742302"><ele>2.0</ele><time>2026-05-01T09:48:47.001Z</time></trkpt><trkpt lat="41.221864710601416" lon="9.432639723315681"><ele>1.9999999999999998</ele><time>2026-05-01T09:48:48.001Z</time></trkpt><trkpt lat="41.22185279059882" lon="9.432737305916534"><ele>2.0</ele><time>2026-05-01T09:48:49.001Z</time></trkpt><trkpt lat="41.22184437406019" lon="9.432839180858092"><ele>2.0</ele><time>2026-05-01T09:48:50Z</time></trkpt><trkpt lat="41.221841892875865" lon="9.432933274263139"><ele>2.0</ele><time>2026-05-01T09:48:51Z</time></trkpt><trkpt lat="41.22181777773117" lon="9.4330414222488"><ele>2.0</ele><time>2026-05-01T09:48:53Z</time></trkpt><trkpt lat="41.22197374630556" lon="9.433052758228639"><ele>2.0</ele><time>2026-05-01T09:48:55Z</time></trkpt><trkpt lat="41.22208439739127" lon="9.43304954733662"><ele>2.0</ele><time>2026-05-01T09:48:57Z</time></trkpt><trkpt lat="41.222147441111474" lon="9.433035225289649"><ele>1.9999999999999998</ele><time>2026-05-01T09:48:58Z</time></trkpt><trkpt lat="41.222208947795096" lon="9.433014052733732"><ele>2.0</ele><time>2026-05-01T09:48:59Z</time></trkpt><trkpt lat="41.22227253927251" lon="9.432993239302391"><ele>2.0</ele><time>2026-05-01T09:49:00Z</time></trkpt><trkpt lat="41.22231412144872" lon="9.432929811157658"><ele>2.0</ele><time>2026-05-01T09:49:01Z</time></trkpt><trkpt lat="41.222396497941084" lon="9.43284501424637"><ele>1.9999999999999998</ele><time>2026-05-01T09:49:03Z</time></trkpt><trkpt lat="41.222467104546006" lon="9.432782432408544"><ele>2.0</ele><time>2026-05-01T09:49:05Z</time></trkpt><trkpt lat="41.22252716343406" lon="9.432729198574892"><ele>1.6666666666666665</ele><time>2026-05-01T09:49:07Z</time></trkpt><trkpt lat="41.222592352156326" lon="9.43273555259251"><ele>1.3333333333333333</ele><time>2026-05-01T09:49:08Z</time></trkpt><trkpt lat="41.22266891071508" lon="9.432735046771546"><ele>1.0</ele><time>2026-05-01T09:49:10Z</time></trkpt><trkpt lat="41.2227685026843" lon="9.432735046772587"><ele>0.6666666666666666</ele><time>2026-05-01T09:49:12Z</time></trkpt><trkpt lat="41.22284179352798" lon="9.432735046773049"><ele>0.3333333333333333</ele><time>2026-05-01T09:49:14Z</time></trkpt><trkpt lat="41.2229192952896" lon="9.432694048216115"><ele>0.0</ele><time>2026-05-01T09:49:54Z</time></trkpt><trkpt lat="41.22284062045358" lon="9.432669090201621"><ele>0.0</ele><time>2026-05-01T09:49:59Z</time></trkpt><trkpt lat="41.22277176784289" lon="9.432730495013463"><ele>0.0</ele><time>2026-05-01T09:50:00Z</time></trkpt><trkpt lat="41.222659392044996" lon="9.432730832277503"><ele>0.0</ele><time>2026-05-01T09:50:01Z</time></trkpt><trkpt lat="41.22259051835426" lon="9.432690148088613"><ele>0.0</ele><time>2026-05-01T09:50:02Z</time></trkpt><trkpt lat="41.222469188078485" lon="9.432731036814406"><ele>0.0</ele><time>2026-05-01T09:50:03Z</time></trkpt><trkpt lat="41.22235164057621" lon="9.43281682266397"><ele>0.4</ele><time>2026-05-01T09:50:04Z</time></trkpt><trkpt lat="41.22226259289032" lon="9.432926351609826"><ele>0.8</ele><time>2026-05-01T09:50:05Z</time></trkpt><trkpt lat="41.22218493674804" lon="9.432975966187792"><ele>1.2000000000000002</ele><time>2026-05-01T09:50:06.001Z</time></trkpt><trkpt lat="41.22210403169834" lon="9.432989336861034"><ele>1.6</ele><time>2026-05-01T09:50:07.001Z</time></trkpt><trkpt lat="41.22202715888566" lon="9.433014887088488"><ele>2.0</ele><time>2026-05-01T09:50:08.001Z</time></trkpt><trkpt lat="41.22193344087337" lon="9.432997470745448"><ele>2.0</ele><time>2026-05-01T09:50:10.001Z</time></trkpt><trkpt lat="41.221863026539346" lon="9.432979404685726"><ele>2.0</ele><time>2026-05-01T09:50:23.001Z</time></trkpt><trkpt lat="41.221806534733005" lon="9.433062436278954"><ele>2.0</ele><time>2026-05-01T09:50:25.001Z</time></trkpt><trkpt lat="41.22179690342252" lon="9.43321497804246"><ele>2.0</ele><time>2026-05-01T09:50:27.001Z</time></trkpt><trkpt lat="41.221775172257246" lon="9.433307590692072"><ele>2.0</ele><time>2026-05-01T09:50:29.001Z</time></trkpt><trkpt lat="41.2219228390481" lon="9.433372637506123"><ele>2.0</ele><time>2026-05-01T09:50:31.001Z</time></trkpt><trkpt lat="41.22202075096584" lon="9.433380170515953"><ele>2.0</ele><time>2026-05-01T09:50:32.001Z</time></trkpt><trkpt lat="41.22211955692373" lon="9.433402767193858"><ele>2.0</ele><time>2026-05-01T09:50:33.001Z</time></trkpt><trkpt lat="41.222228101026595" lon="9.433396313725357"><ele>2.0</ele><time>2026-05-01T09:50:34.001Z</time></trkpt><trkpt lat="41.22235101111873" lon="9.433358653538606"><ele>2.0</ele><time>2026-05-01T09:50:35.001Z</time></trkpt><trkpt lat="41.22247245087868" lon="9.433338780788011"><ele>1.75</ele><time>2026-05-01T09:50:36.001Z</time></trkpt><trkpt lat="41.222601989005604" lon="9.43332076672665"><ele>1.5</ele><time>2026-05-01T09:50:37.001Z</time></trkpt><trkpt lat="41.222733152698275" lon="9.433310757479589"><ele>1.25</ele><time>2026-05-01T09:50:38.001Z</time></trkpt><trkpt lat="41.22285849699863" lon="9.433310754014013"><ele>1.0</ele><time>2026-05-01T09:50:39.001Z</time></trkpt><trkpt lat="41.222972169052184" lon="9.433313764898191"><ele>0.9999999999999999</ele><time>2026-05-01T09:50:40.001Z</time></trkpt><trkpt lat="41.22307473077231" lon="9.43331505889802"><ele>1.0</ele><time>2026-05-01T09:50:41.001Z</time></trkpt><trkpt lat="41.2231691881929" lon="9.433313850117901"><ele>1.0</ele><time>2026-05-01T09:50:42.001Z</time></trkpt><trkpt lat="41.223254516042445" lon="9.43331492253773"><ele>1.0</ele><time>2026-05-01T09:50:43.001Z</time></trkpt><trkpt lat="41.223333733877524" lon="9.433314294958604"><ele>0.9999999999999999</ele><time>2026-05-01T09:50:44.001Z</time></trkpt><trkpt lat="41.22340461161216" lon="9.433311527308394"><ele>1.0</ele><time>2026-05-01T09:50:45.001Z</time></trkpt><trkpt lat="41.22352096283479" lon="9.433329636880327"><ele>1.3333333333333333</ele><time>2026-05-01T09:50:47.001Z</time></trkpt><trkpt lat="41.22361607203439" lon="9.433380480518439"><ele>1.6666666666666665</ele><time>2026-05-01T09:50:49.001Z</time></trkpt><trkpt lat="41.223658404575474" lon="9.433455382945539"><ele>2.0</ele><time>2026-05-01T09:50:50.001Z</time></trkpt><trkpt lat="41.22370857545997" lon="9.433521796327003"><ele>2.3333333333333335</ele><time>2026-05-01T09:50:51.001Z</time></trkpt><trkpt lat="41.2237594238062" lon="9.433592087684442"><ele>2.6666666666666665</ele><time>2026-05-01T09:50:52.001Z</time></trkpt><trkpt lat="41.22382047080705" lon="9.433674525094224"><ele>3.0</ele><time>2026-05-01T09:50:53.001Z</time></trkpt><trkpt lat="41.223878572270706" lon="9.433748744092847"><ele>3.0</ele><time>2026-05-01T09:50:54.001Z</time></trkpt><trkpt lat="41.22394046707957" lon="9.433818594722457"><ele>3.0</ele><time>2026-05-01T09:50:55.001Z</time></trkpt><trkpt lat="41.22401087169952" lon="9.433882541095786"><ele>3.0</ele><time>2026-05-01T09:50:56Z</time></trkpt><trkpt lat="41.22407505542435" lon="9.433958981442359"><ele>3.0</ele><time>2026-05-01T09:50:57Z</time></trkpt><trkpt lat="41.224149274397895" lon="9.434040411658088"><ele>3.0</ele><time>2026-05-01T09:50:58Z</time></trkpt><trkpt lat="41.22423676281846" lon="9.434121290193621"><ele>3.2</ele><time>2026-05-01T09:50:59Z</time></trkpt><trkpt lat="41.224322109022566" lon="9.434201388714474"><ele>3.4</ele><time>2026-05-01T09:51:00Z</time></trkpt><trkpt lat="41.2243989005159" lon="9.43427537781577"><ele>3.6000000000000005</ele><time>2026-05-01T09:51:01Z</time></trkpt><trkpt lat="41.224472076275504" lon="9.434346148605508"><ele>3.8000000000000003</ele><time>2026-05-01T09:51:02Z</time></trkpt><trkpt lat="41.2245398437362" lon="9.434412974638633"><ele>4.0</ele><time>2026-05-01T09:51:03Z</time></trkpt><trkpt lat="41.22460228419307" lon="9.434473667604685"><ele>3.9999999999999996</ele><time>2026-05-01T09:51:04Z</time></trkpt><trkpt lat="41.22466431762564" lon="9.434531415069"><ele>4.0</ele><time>2026-05-01T09:51:05Z</time></trkpt><trkpt lat="41.22472916287653" lon="9.434591105895574"><ele>4.0</ele><time>2026-05-01T09:51:06Z</time></trkpt><trkpt lat="41.22479566244511" lon="9.434655775682666"><ele>4.0</ele><time>2026-05-01T09:51:07Z</time></trkpt><trkpt lat="41.224865046919405" lon="9.4347277188039"><ele>3.9999999999999996</ele><time>2026-05-01T09:51:08Z</time></trkpt><trkpt lat="41.22493240550802" lon="9.434809583906612"><ele>4.0</ele><time>2026-05-01T09:51:09Z</time></trkpt><trkpt lat="41.22499139166942" lon="9.434902882448526"><ele>4.0</ele><time>2026-05-01T09:51:10Z</time></trkpt><trkpt lat="41.225046581478615" lon="9.435013413825073"><ele>4.0</ele><time>2026-05-01T09:51:11Z</time></trkpt><trkpt lat="41.225104947039036" lon="9.435128777090364"><ele>4.0</ele><time>2026-05-01T09:51:12Z</time></trkpt><trkpt lat="41.22516852763841" lon="9.43523885137602"><ele>4.0</ele><time>2026-05-01T09:51:13Z</time></trkpt><trkpt lat="41.22523744371719" lon="9.43534016006813"><ele>4.0</ele><time>2026-05-01T09:51:14Z</time></trkpt><trkpt lat="41.225312209310644" lon="9.43541626650107"><ele>3.6</ele><time>2026-05-01T09:51:15Z</time></trkpt><trkpt lat="41.225382778286296" lon="9.435508768933829"><ele>3.2</ele><time>2026-05-01T09:51:16Z</time></trkpt><trkpt lat="41.225473049115145" lon="9.435573724799372"><ele>2.8000000000000003</ele><time>2026-05-01T09:51:17Z</time></trkpt><trkpt lat="41.22557175312427" lon="9.435620220195785"><ele>2.4000000000000004</ele><time>2026-05-01T09:51:18Z</time></trkpt><trkpt lat="41.225665860137205" lon="9.435681619266665"><ele>2.0</ele><time>2026-05-01T09:51:19Z</time></trkpt><trkpt lat="41.22575743634356" lon="9.435737587570097"><ele>2.0</ele><time>2026-05-01T09:51:20Z</time></trkpt><trkpt lat="41.225842959319124" lon="9.435792128151668"><ele>2.0</ele><time>2026-05-01T09:51:21Z</time></trkpt><trkpt lat="41.22592638299637" lon="9.435844516741916"><ele>2.0</ele><time>2026-05-01T09:51:22Z</time></trkpt><trkpt lat="41.226014627952146" lon="9.435896902665316"><ele>2.0</ele><time>2026-05-01T09:51:23Z</time></trkpt><trkpt lat="41.22610791781723" lon="9.435957430268237"><ele>2.0</ele><time>2026-05-01T09:51:24Z</time></trkpt><trkpt lat="41.22621292664131" lon="9.43600969349081"><ele>2.0</ele><time>2026-05-01T09:51:25Z</time></trkpt><trkpt lat="41.22632446396252" lon="9.43605830088971"><ele>2.0</ele><time>2026-05-01T09:51:26Z</time></trkpt><trkpt lat="41.226442310799015" lon="9.436106546346766"><ele>2.0</ele><time>2026-05-01T09:51:27Z</time></trkpt><trkpt lat="41.2265569841812" lon="9.436147608513636"><ele>2.0</ele><time>2026-05-01T09:51:28Z</time></trkpt><trkpt lat="41.22666169676598" lon="9.436181877210917"><ele>2.6666666666666665</ele><time>2026-05-01T09:51:29Z</time></trkpt><trkpt lat="41.22675792512524" lon="9.436210564729956"><ele>3.333333333333333</ele><time>2026-05-01T09:51:30Z</time></trkpt><trkpt lat="41.2268454247722" lon="9.436231927356062"><ele>4.0</ele><time>2026-05-01T09:51:31Z</time></trkpt><trkpt lat="41.226930634437316" lon="9.436244068714107"><ele>4.666666666666667</ele><time>2026-05-01T09:51:32Z</time></trkpt><trkpt lat="41.22701431077222" lon="9.436261883604473"><ele>5.333333333333333</ele><time>2026-05-01T09:51:33Z</time></trkpt><trkpt lat="41.227098795121194" lon="9.436284172574455"><ele>6.0</ele><time>2026-05-01T09:51:34Z</time></trkpt><trkpt lat="41.22718804153279" lon="9.436303054547245"><ele>5.3999999999999995</ele><time>2026-05-01T09:51:35Z</time></trkpt><trkpt lat="41.22727991383934" lon="9.436322595732742"><ele>4.8</ele><time>2026-05-01T09:51:36Z</time></trkpt><trkpt lat="41.22737596248611" lon="9.436342197113703"><ele>4.199999999999999</ele><time>2026-05-01T09:51:37Z</time></trkpt><trkpt lat="41.22747466286368" lon="9.436365887532371"><ele>3.5999999999999996</ele><time>2026-05-01T09:51:38Z</time></trkpt><trkpt lat="41.22756631590575" lon="9.43639451373253"><ele>3.0</ele><time>2026-05-01T09:51:39Z</time></trkpt><trkpt lat="41.227654078197595" lon="9.436421568192117"><ele>2.8333333333333335</ele><time>2026-05-01T09:51:40Z</time></trkpt><trkpt lat="41.22773898493857" lon="9.436442553943056"><ele>2.6666666666666665</ele><time>2026-05-01T09:51:41Z</time></trkpt><trkpt lat="41.22781928185283" lon="9.436445586038895"><ele>2.5</ele><time>2026-05-01T09:51:42Z</time></trkpt><trkpt lat="41.227898434901235" lon="9.436435272184111"><ele>2.333333333333333</ele><time>2026-05-01T09:51:43Z</time></trkpt><trkpt lat="41.227978967161945" lon="9.436408768451903"><ele>2.1666666666666665</ele><time>2026-05-01T09:51:44Z</time></trkpt><trkpt lat="41.22805283833296" lon="9.436373011780926"><ele>2.0</ele><time>2026-05-01T09:51:45Z</time></trkpt><trkpt lat="41.22811938781457" lon="9.43632599716083"><ele>2.1666666666666665</ele><time>2026-05-01T09:51:46Z</time></trkpt><trkpt lat="41.22818495705192" lon="9.4362761920816"><ele>2.333333333333333</ele><time>2026-05-01T09:51:47Z</time></trkpt><trkpt lat="41.22824626032006" lon="9.436227351752576"><ele>2.5</ele><time>2026-05-01T09:51:48Z</time></trkpt><trkpt lat="41.22829857803747" lon="9.436180334063835"><ele>2.6666666666666665</ele><time>2026-05-01T09:51:49Z</time></trkpt><trkpt lat="41.22839801062623" lon="9.436112278407712"><ele>2.8333333333333335</ele><time>2026-05-01T09:51:51Z</time></trkpt><trkpt lat="41.22847613006768" lon="9.436056964265246"><ele>3.0</ele><time>2026-05-01T09:51:53Z</time></trkpt><trkpt lat="41.22855141885928" lon="9.435999478907213"><ele>3.0</ele><time>2026-05-01T09:51:56Z</time></trkpt><trkpt lat="41.228624573368386" lon="9.43599192156867"><ele>3.0</ele><time>2026-05-01T09:51:58Z</time></trkpt><trkpt lat="41.228699190306855" lon="9.43600066302012"><ele>3.0</ele><time>2026-05-01T09:52:00Z</time></trkpt><trkpt lat="41.228779040454185" lon="9.43602273345388"><ele>3.0</ele><time>2026-05-01T09:52:02Z</time></trkpt><trkpt lat="41.228868747695856" lon="9.436047848418042"><ele>3.0</ele><time>2026-05-01T09:52:04Z</time></trkpt><trkpt lat="41.22897897098471" lon="9.436076139559287"><ele>3.0</ele><time>2026-05-01T09:52:06Z</time></trkpt><trkpt lat="41.2290645112619" lon="9.43611039835125"><ele>2.4</ele><time>2026-05-01T09:52:08Z</time></trkpt><trkpt lat="41.22917264858311" lon="9.436170725947138"><ele>1.7999999999999998</ele><time>2026-05-01T09:52:10Z</time></trkpt><trkpt lat="41.229235739847674" lon="9.43621429432276"><ele>1.2</ele><time>2026-05-01T09:52:11Z</time></trkpt><trkpt lat="41.22933812539177" lon="9.436272716277196"><ele>0.6</ele><time>2026-05-01T09:52:13Z</time></trkpt><trkpt lat="41.229436788959234" lon="9.43628587721942"><ele>0.0</ele><time>2026-05-01T09:52:15Z</time></trkpt><trkpt lat="41.22954328845898" lon="9.43630402668668"><ele>0.0</ele><time>2026-05-01T09:52:17Z</time></trkpt><trkpt lat="41.229613831941585" lon="9.436314036386165"><ele>0.0</ele><time>2026-05-01T09:52:19Z</time></trkpt><trkpt lat="41.22952863241218" lon="9.436279537782436"><ele>0.0</ele><time>2026-05-01T09:52:36Z</time></trkpt><trkpt lat="41.22944559476586" lon="9.436330446325913"><ele>0.0</ele><time>2026-05-01T09:56:38Z</time></trkpt><trkpt lat="41.22951931210188" lon="9.436374375682444"><ele>0.0</ele><time>2026-05-01T09:56:41Z</time></trkpt><trkpt lat="41.22959377907114" lon="9.436341885127126"><ele>0.0</ele><time>2026-05-01T09:56:43Z</time></trkpt><trkpt lat="41.22967745720246" lon="9.436305877772025"><ele>0.0</ele><time>2026-05-01T09:56:45Z</time></trkpt><trkpt lat="41.22974680470657" lon="9.43630114388581"><ele>0.0</ele><time>2026-05-01T09:56:47Z</time></trkpt><trkpt lat="41.22987392837875" lon="9.436308227896653"><ele>0.0</ele><time>2026-05-01T09:56:49Z</time></trkpt><trkpt lat="41.22995425011356" lon="9.436305206437849"><ele>0.0</ele><time>2026-05-01T09:56:50Z</time></trkpt><trkpt lat="41.230019387817755" lon="9.436308601861919"><ele>0.0</ele><time>2026-05-01T09:56:51Z</time></trkpt><trkpt lat="41.230083031097976" lon="9.436314996268125"><ele>0.0</ele><time>2026-05-01T09:56:52Z</time></trkpt><trkpt lat="41.23015208770323" lon="9.436319572035547"><ele>0.16666666666666666</ele><time>2026-05-01T09:56:53Z</time></trkpt><trkpt lat="41.23023087063789" lon="9.436322510610243"><ele>0.3333333333333333</ele><time>2026-05-01T09:56:54Z</time></trkpt><trkpt lat="41.23029344648665" lon="9.436337405230507"><ele>0.5</ele><time>2026-05-01T09:56:55Z</time></trkpt><trkpt lat="41.23036820496708" lon="9.436388907958682"><ele>0.6666666666666666</ele><time>2026-05-01T09:56:57Z</time></trkpt><trkpt lat="41.23044828738956" lon="9.436476213218814"><ele>0.8333333333333333</ele><time>2026-05-01T09:56:59Z</time></trkpt><trkpt lat="41.23051089988864" lon="9.436568172562037"><ele>1.0</ele><time>2026-05-01T09:57:01Z</time></trkpt><trkpt lat="41.23058263173556" lon="9.436683940634396"><ele>1.2000000000000002</ele><time>2026-05-01T09:57:03Z</time></trkpt><trkpt lat="41.230656941136516" lon="9.436804385432758"><ele>1.4000000000000001</ele><time>2026-05-01T09:57:05Z</time></trkpt><trkpt lat="41.23072026640067" lon="9.43690125648435"><ele>1.6</ele><time>2026-05-01T09:57:07.001Z</time></trkpt><trkpt lat="41.230769713173196" lon="9.436998642823943"><ele>1.8</ele><time>2026-05-01T09:57:09.001Z</time></trkpt><trkpt lat="41.23081972177984" lon="9.437109046653113"><ele>2.0</ele><time>2026-05-01T09:57:11.001Z</time></trkpt><trkpt lat="41.230861823528265" lon="9.437216364677287"><ele>1.6</ele><time>2026-05-01T09:57:13.001Z</time></trkpt><trkpt lat="41.23088687945774" lon="9.437333403124109"><ele>1.2000000000000002</ele><time>2026-05-01T09:57:15Z</time></trkpt><trkpt lat="41.230913812839205" lon="9.437468188374531"><ele>0.8</ele><time>2026-05-01T09:57:17Z</time></trkpt><trkpt lat="41.23094333538702" lon="9.437607714805823"><ele>0.4</ele><time>2026-05-01T09:57:19Z</time></trkpt><trkpt lat="41.23097126563983" lon="9.437726437773714"><ele>0.0</ele><time>2026-05-01T09:57:21Z</time></trkpt><trkpt lat="41.230988159843044" lon="9.437839408170564"><ele>0.2</ele><time>2026-05-01T09:57:23Z</time></trkpt><trkpt lat="41.23101918051225" lon="9.43800039051825"><ele>0.4</ele><time>2026-05-01T09:57:25Z</time></trkpt><trkpt lat="41.23104490846872" lon="9.438141729908828"><ele>0.6000000000000001</ele><time>2026-05-01T09:57:27Z</time></trkpt><trkpt lat="41.23107840381348" lon="9.438284332533405"><ele>0.8</ele><time>2026-05-01T09:57:29Z</time></trkpt><trkpt lat="41.23110586697961" lon="9.438411526881344"><ele>1.0</ele><time>2026-05-01T09:57:31Z</time></trkpt><trkpt lat="41.231137902605354" lon="9.438527793817942"><ele>1.0</ele><time>2026-05-01T09:57:33Z</time></trkpt><trkpt lat="41.23117365021502" lon="9.438638216137429"><ele>1.0</ele><time>2026-05-01T09:57:35Z</time></trkpt><trkpt lat="41.23120713168624" lon="9.438745895569099"><ele>1.0</ele><time>2026-05-01T09:57:37Z</time></trkpt><trkpt lat="41.23127101070952" lon="9.438837938490106"><ele>1.0</ele><time>2026-05-01T09:57:40Z</time></trkpt><trkpt lat="41.231338076815526" lon="9.438879844406626"><ele>1.0</ele><time>2026-05-01T09:57:42Z</time></trkpt><trkpt lat="41.23127546854146" lon="9.438989542831347"><ele>1.6666666666666665</ele><time>2026-05-01T10:00:17Z</time></trkpt><trkpt lat="41.23121461058312" lon="9.439036333391053"><ele>2.3333333333333335</ele><time>2026-05-01T10:00:19Z</time></trkpt><trkpt lat="41.231137744715774" lon="9.43912348724656"><ele>3.0</ele><time>2026-05-01T10:00:21Z</time></trkpt><trkpt lat="41.23108509708001" lon="9.439183181337961"><ele>3.666666666666667</ele><time>2026-05-01T10:00:22Z</time></trkpt><trkpt lat="41.23100981918742" lon="9.439282520007334"><ele>4.333333333333334</ele><time>2026-05-01T10:00:24Z</time></trkpt><trkpt lat="41.23094125610685" lon="9.439376518412667"><ele>5.0</ele><time>2026-05-01T10:00:26Z</time></trkpt><trkpt lat="41.23086104026168" lon="9.439466839125659"><ele>5.0</ele><time>2026-05-01T10:00:28Z</time></trkpt><trkpt lat="41.230791706376685" lon="9.4395602082022"><ele>5.0</ele><time>2026-05-01T10:00:30Z</time></trkpt><trkpt lat="41.230734106511775" lon="9.439642454892073"><ele>5.0</ele><time>2026-05-01T10:00:32Z</time></trkpt><trkpt lat="41.230693064147005" lon="9.43979989069123"><ele>5.0</ele><time>2026-05-01T10:00:34Z</time></trkpt><trkpt lat="41.23067754362168" lon="9.439903738682933"><ele>5.0</ele><time>2026-05-01T10:00:35Z</time></trkpt><trkpt lat="41.23065838923083" lon="9.439995664214957"><ele>5.0</ele><time>2026-05-01T10:00:36Z</time></trkpt><trkpt lat="41.23064239350439" lon="9.440077570052106"><ele>5.0</ele><time>2026-05-01T10:00:37Z</time></trkpt><trkpt lat="41.23062027771632" lon="9.440179897905725"><ele>5.0</ele><time>2026-05-01T10:00:38Z</time></trkpt><trkpt lat="41.23060146049793" lon="9.440279576350914"><ele>5.0</ele><time>2026-05-01T10:00:39Z</time></trkpt><trkpt lat="41.2305826703168" lon="9.440366228785487"><ele>5.0</ele><time>2026-05-01T10:00:40Z</time></trkpt><trkpt lat="41.23056680728533" lon="9.44045734145042"><ele>5.0</ele><time>2026-05-01T10:00:41Z</time></trkpt><trkpt lat="41.23053594504283" lon="9.440537298507946"><ele>5.0</ele><time>2026-05-01T10:00:42Z</time></trkpt><trkpt lat="41.23053651261191" lon="9.4406228659723"><ele>4.6</ele><time>2026-05-01T10:00:43Z</time></trkpt><trkpt lat="41.23051530353846" lon="9.440758401452284"><ele>4.2</ele><time>2026-05-01T10:00:45Z</time></trkpt><trkpt lat="41.230540991356406" lon="9.440919842703774"><ele>3.8</ele><time>2026-05-01T10:00:47Z</time></trkpt><trkpt lat="41.23056429969344" lon="9.441000756718232"><ele>3.4</ele><time>2026-05-01T10:00:48Z</time></trkpt><trkpt lat="41.2306112595313" lon="9.44109858205794"><ele>3.0</ele><time>2026-05-01T10:00:49Z</time></trkpt><trkpt lat="41.230663437639585" lon="9.441181229212399"><ele>3.0</ele><time>2026-05-01T10:00:50Z</time></trkpt><trkpt lat="41.230715571423154" lon="9.441247950547469"><ele>3.0</ele><time>2026-05-01T10:00:51Z</time></trkpt><trkpt lat="41.230762501638694" lon="9.441308653110967"><ele>3.0</ele><time>2026-05-01T10:00:52Z</time></trkpt><trkpt lat="41.23081251583969" lon="9.441385568710478"><ele>3.0</ele><time>2026-05-01T10:00:53Z</time></trkpt><trkpt lat="41.230859352606096" lon="9.441453964584255"><ele>3.0</ele><time>2026-05-01T10:00:54Z</time></trkpt><trkpt lat="41.23095638134166" lon="9.441572146058306"><ele>3.0</ele><time>2026-05-01T10:00:56Z</time></trkpt><trkpt lat="41.231009714845456" lon="9.441626840182199"><ele>3.1428571428571423</ele><time>2026-05-01T10:00:57Z</time></trkpt><trkpt lat="41.231064542349856" lon="9.441679934482156"><ele>3.2857142857142856</ele><time>2026-05-01T10:00:58Z</time></trkpt><trkpt lat="41.23115909006532" lon="9.441781853148873"><ele>3.4285714285714284</ele><time>2026-05-01T10:01:00Z</time></trkpt><trkpt lat="41.231215101506535" lon="9.441821685849858"><ele>3.571428571428571</ele><time>2026-05-01T10:01:01Z</time></trkpt><trkpt lat="41.231272834346186" lon="9.441861941573617"><ele>3.714285714285714</ele><time>2026-05-01T10:01:02Z</time></trkpt><trkpt lat="41.23133403656181" lon="9.441881952694295"><ele>3.8571428571428568</ele><time>2026-05-01T10:01:03Z</time></trkpt><trkpt lat="41.23139176995126" lon="9.441920249151636"><ele>4.0</ele><time>2026-05-01T10:01:04Z</time></trkpt><trkpt lat="41.23150038744716" lon="9.441996867901366"><ele>3.9999999999999996</ele><time>2026-05-01T10:01:06Z</time></trkpt><trkpt lat="41.231570290617725" lon="9.44204781803798"><ele>4.0</ele><time>2026-05-01T10:01:07Z</time></trkpt><trkpt lat="41.231628401797096" lon="9.442087422187397"><ele>4.0</ele><time>2026-05-01T10:01:08Z</time></trkpt><trkpt lat="41.23169987658411" lon="9.442129626900002"><ele>4.0</ele><time>2026-05-01T10:01:09Z</time></trkpt><trkpt lat="41.23177029561984" lon="9.442173894857087"><ele>3.9999999999999996</ele><time>2026-05-01T10:01:10Z</time></trkpt><trkpt lat="41.23182922824411" lon="9.442206391168897"><ele>4.0</ele><time>2026-05-01T10:01:11Z</time></trkpt><trkpt lat="41.23193625328471" lon="9.442257818079918"><ele>4.0</ele><time>2026-05-01T10:01:13Z</time></trkpt><trkpt lat="41.23203888402629" lon="9.442297421907977"><ele>4.0</ele><time>2026-05-01T10:01:15Z</time></trkpt><trkpt lat="41.232160681468365" lon="9.442333094248047"><ele>4.0</ele><time>2026-05-01T10:01:17Z</time></trkpt><trkpt lat="41.232225987244654" lon="9.442347097681349"><ele>4.0</ele><time>2026-05-01T10:01:18Z</time></trkpt><trkpt lat="41.23229596073818" lon="9.442360368793205"><ele>4.0</ele><time>2026-05-01T10:01:19Z</time></trkpt><trkpt lat="41.23240397385384" lon="9.442375205804074"><ele>3.833333333333333</ele><time>2026-05-01T10:01:20Z</time></trkpt><trkpt lat="41.232482488344736" lon="9.442388789536418"><ele>3.6666666666666665</ele><time>2026-05-01T10:01:21Z</time></trkpt><trkpt lat="41.23254579359213" lon="9.442396380599066"><ele>3.5</ele><time>2026-05-01T10:01:22Z</time></trkpt><trkpt lat="41.232620634173266" lon="9.442402672212983"><ele>3.333333333333333</ele><time>2026-05-01T10:01:23Z</time></trkpt><trkpt lat="41.232724246017156" lon="9.44241007209895"><ele>3.1666666666666665</ele><time>2026-05-01T10:01:24Z</time></trkpt><trkpt lat="41.23281167502178" lon="9.442422113606435"><ele>3.0</ele><time>2026-05-01T10:01:25Z</time></trkpt><trkpt lat="41.23288754631831" lon="9.442430458384896"><ele>3.0</ele><time>2026-05-01T10:01:25.999Z</time></trkpt><trkpt lat="41.232955732230394" lon="9.44243512078328"><ele>3.0</ele><time>2026-05-01T10:01:26.999Z</time></trkpt><trkpt lat="41.23308927122613" lon="9.442450175005064"><ele>3.0</ele><time>2026-05-01T10:01:28.999Z</time></trkpt><trkpt lat="41.23315668037572" lon="9.442456044344594"><ele>3.0</ele><time>2026-05-01T10:01:29.999Z</time></trkpt><trkpt lat="41.23322231021025" lon="9.442461289095622"><ele>3.0</ele><time>2026-05-01T10:01:30.999Z</time></trkpt><trkpt lat="41.23331833466793" lon="9.442464442281231"><ele>3.0</ele><time>2026-05-01T10:01:32.999Z</time></trkpt><trkpt lat="41.233424789985996" lon="9.442476616019093"><ele>3.5999999999999996</ele><time>2026-05-01T10:01:34.999Z</time></trkpt><trkpt lat="41.23353638599425" lon="9.442489855801538"><ele>4.199999999999999</ele><time>2026-05-01T10:01:36.999Z</time></trkpt><trkpt lat="41.23362897269656" lon="9.442504397316563"><ele>4.8</ele><time>2026-05-01T10:01:38.999Z</time></trkpt><trkpt lat="41.233721388922824" lon="9.442511223573074"><ele>5.3999999999999995</ele><time>2026-05-01T10:01:40.999Z</time></trkpt><trkpt lat="41.233829085775426" lon="9.442521405699068"><ele>6.0</ele><time>2026-05-01T10:01:42.999Z</time></trkpt><trkpt lat="41.233894046895216" lon="9.442525425988213"><ele>5.999999999999999</ele><time>2026-05-01T10:01:43.999Z</time></trkpt><trkpt lat="41.233970346064815" lon="9.442535319575533"><ele>6.0</ele><time>2026-05-01T10:01:44.999Z</time></trkpt><trkpt lat="41.23404386759774" lon="9.442534654095569"><ele>6.0</ele><time>2026-05-01T10:01:45.999Z</time></trkpt><trkpt lat="41.23412067601678" lon="9.442534972984104"><ele>6.0</ele><time>2026-05-01T10:01:46.999Z</time></trkpt><trkpt lat="41.23419845139953" lon="9.442544192536428"><ele>6.0</ele><time>2026-05-01T10:01:47.999Z</time></trkpt><trkpt lat="41.23426331744564" lon="9.442554852737356"><ele>5.999999999999999</ele><time>2026-05-01T10:01:48.999Z</time></trkpt><trkpt lat="41.234328842478305" lon="9.442561299045243"><ele>6.0</ele><time>2026-05-01T10:01:49.999Z</time></trkpt><trkpt lat="41.23439833215771" lon="9.4425657573324"><ele>6.0</ele><time>2026-05-01T10:01:50.999Z</time></trkpt><trkpt lat="41.234466509247575" lon="9.44256828627739"><ele>6.0</ele><time>2026-05-01T10:01:51.999Z</time></trkpt><trkpt lat="41.23454085954251" lon="9.44256591112666"><ele>6.0</ele><time>2026-05-01T10:01:52.999Z</time></trkpt><trkpt lat="41.234654249625365" lon="9.442553454939171"><ele>6.0</ele><time>2026-05-01T10:01:54.999Z</time></trkpt><trkpt lat="41.23477208865826" lon="9.442535679130536"><ele>6.0</ele><time>2026-05-01T10:01:56.999Z</time></trkpt><trkpt lat="41.23488129419061" lon="9.44250362217599"><ele>5.5</ele><time>2026-05-01T10:01:58.999Z</time></trkpt><trkpt lat="41.234959241263944" lon="9.442472283793613"><ele>5.0</ele><time>2026-05-01T10:02:01Z</time></trkpt><trkpt lat="41.23504636357498" lon="9.442472220832665"><ele>4.5</ele><time>2026-05-01T10:02:03Z</time></trkpt><trkpt lat="41.23513764959841" lon="9.442499716791698"><ele>4.0</ele><time>2026-05-01T10:02:05Z</time></trkpt><trkpt lat="41.23521531722245" lon="9.44253209197565"><ele>3.5</ele><time>2026-05-01T10:02:07Z</time></trkpt><trkpt lat="41.235303600015975" lon="9.442508906933094"><ele>3.0</ele><time>2026-05-01T10:02:09Z</time></trkpt><trkpt lat="41.23537972829009" lon="9.442473006781654"><ele>2.9999999999999996</ele><time>2026-05-01T10:02:11Z</time></trkpt><trkpt lat="41.23544777119978" lon="9.442422882026893"><ele>3.0</ele><time>2026-05-01T10:02:14Z</time></trkpt><trkpt lat="41.2355050818901" lon="9.442382619968459"><ele>3.0</ele><time>2026-05-01T10:02:19Z</time></trkpt><trkpt lat="41.23557173455986" lon="9.442406469546391"><ele>3.0</ele><time>2026-05-01T10:04:25Z</time></trkpt><trkpt lat="41.235636662915965" lon="9.442421757517229"><ele>3.0</ele><time>2026-05-01T10:04:30Z</time></trkpt><trkpt lat="41.23570989814713" lon="9.442422194878839"><ele>2.9999999999999996</ele><time>2026-05-01T10:04:35Z</time></trkpt><trkpt lat="41.235773815154616" lon="9.442416015761436"><ele>3.0</ele><time>2026-05-01T10:04:40Z</time></trkpt><trkpt lat="41.235846072623296" lon="9.44242461180237"><ele>2.714285714285714</ele><time>2026-05-01T10:04:47Z</time></trkpt><trkpt lat="41.23590024674367" lon="9.442486569483957"><ele>2.4285714285714284</ele><time>2026-05-01T10:05:13Z</time></trkpt><trkpt lat="41.23596755898261" lon="9.44247808086064"><ele>2.142857142857143</ele><time>2026-05-01T10:05:19Z</time></trkpt><trkpt lat="41.23603512395955" lon="9.442450953838765"><ele>1.857142857142857</ele><time>2026-05-01T10:05:24Z</time></trkpt><trkpt lat="41.23610047960723" lon="9.442477499760066"><ele>1.5714285714285712</ele><time>2026-05-01T10:05:31Z</time></trkpt><trkpt lat="41.236166675387494" lon="9.442483949200165"><ele>1.2857142857142856</ele><time>2026-05-01T10:05:36.001Z</time></trkpt><trkpt lat="41.23622922837198" lon="9.442451561505823"><ele>1.0</ele><time>2026-05-01T10:05:40.999Z</time></trkpt><trkpt lat="41.23628948603408" lon="9.442481282664392"><ele>1.0</ele><time>2026-05-01T10:06:47Z</time></trkpt><trkpt lat="41.23622063412793" lon="9.442459845790381"><ele>0.9999999999999999</ele><time>2026-05-01T10:07:28.001Z</time></trkpt><trkpt lat="41.23615876003881" lon="9.44249650747038"><ele>1.0</ele><time>2026-05-01T10:07:34.001Z</time></trkpt><trkpt lat="41.23612452075022" lon="9.442587349210514"><ele>1.0</ele><time>2026-05-01T10:07:42.001Z</time></trkpt><trkpt lat="41.23609603424533" lon="9.442669570424377"><ele>0.9999999999999999</ele><time>2026-05-01T10:07:49.998Z</time></trkpt><trkpt lat="41.236035959840216" lon="9.442617462586346"><ele>1.0</ele><time>2026-05-01T10:07:56.998Z</time></trkpt><trkpt lat="41.23597949384028" lon="9.442550774253288"><ele>1.0</ele><time>2026-05-01T10:08:02.999Z</time></trkpt><trkpt lat="41.235913811361925" lon="9.442507760702616"><ele>1.0</ele><time>2026-05-01T10:08:08.999Z</time></trkpt><trkpt lat="41.23585704919524" lon="9.442452266996826"><ele>0.9999999999999999</ele><time>2026-05-01T10:08:13.999Z</time></trkpt><trkpt lat="41.23579647713419" lon="9.442420106690909"><ele>1.0</ele><time>2026-05-01T10:08:18.999Z</time></trkpt><trkpt lat="41.23572401910756" lon="9.442432108858421"><ele>1.0</ele><time>2026-05-01T10:08:27Z</time></trkpt><trkpt lat="41.235660124602695" lon="9.442441988277407"><ele>0.9999999999999999</ele><time>2026-05-01T10:08:32Z</time></trkpt><trkpt lat="41.23559215142986" lon="9.4424247064937"><ele>1.0</ele><time>2026-05-01T10:08:38Z</time></trkpt><trkpt lat="41.23553221191276" lon="9.442454335646225"><ele>1.0</ele><time>2026-05-01T10:08:45Z</time></trkpt><trkpt lat="41.235469020013035" lon="9.442368088187168"><ele>1.2000000000000002</ele><time>2026-05-01T10:11:11.001Z</time></trkpt><trkpt lat="41.235399463420755" lon="9.442277222215129"><ele>1.4000000000000001</ele><time>2026-05-01T10:11:13.001Z</time></trkpt><trkpt lat="41.23532574781438" lon="9.442185769436797"><ele>1.6</ele><time>2026-05-01T10:11:15.001Z</time></trkpt><trkpt lat="41.2352722432719" lon="9.442087343979622"><ele>1.8</ele><time>2026-05-01T10:11:17.001Z</time></trkpt><trkpt lat="41.235211160213" lon="9.441979701461916"><ele>2.0</ele><time>2026-05-01T10:11:19.001Z</time></trkpt><trkpt lat="41.235136332496225" lon="9.441867743702533"><ele>1.9999999999999998</ele><time>2026-05-01T10:11:21.001Z</time></trkpt><trkpt lat="41.23506050254076" lon="9.44177047269366"><ele>2.0</ele><time>2026-05-01T10:11:23.002Z</time></trkpt><trkpt lat="41.23500495859643" lon="9.441710221664682"><ele>2.0</ele><time>2026-05-01T10:11:24.002Z</time></trkpt><trkpt lat="41.2349431813491" lon="9.441638772053151"><ele>2.0</ele><time>2026-05-01T10:11:25.002Z</time></trkpt><trkpt lat="41.234895759185854" lon="9.441583708723895"><ele>1.9999999999999998</ele><time>2026-05-01T10:11:26.002Z</time></trkpt><trkpt lat="41.23483201420324" lon="9.441480216256988"><ele>2.0</ele><time>2026-05-01T10:11:28.002Z</time></trkpt><trkpt lat="41.234762776260126" lon="9.441340027390991"><ele>2.2</ele><time>2026-05-01T10:11:30.002Z</time></trkpt><trkpt lat="41.23470788002196" lon="9.441230253657553"><ele>2.4000000000000004</ele><time>2026-05-01T10:11:32.002Z</time></trkpt><trkpt lat="41.23465689703677" lon="9.441131376098516"><ele>2.5999999999999996</ele><time>2026-05-01T10:11:34.002Z</time></trkpt><trkpt lat="41.234617960856376" lon="9.441063924486679"><ele>2.8</ele><time>2026-05-01T10:11:35.002Z</time></trkpt><trkpt lat="41.234557862705714" lon="9.440939849275699"><ele>3.0</ele><time>2026-05-01T10:11:37.002Z</time></trkpt><trkpt lat="41.234510915089125" lon="9.440771060002175"><ele>3.0</ele><time>2026-05-01T10:11:39.002Z</time></trkpt><trkpt lat="41.234488066660624" lon="9.440674350445283"><ele>3.0</ele><time>2026-05-01T10:11:40.002Z</time></trkpt><trkpt lat="41.23445373040607" lon="9.440540346995645"><ele>3.0</ele><time>2026-05-01T10:11:42.002Z</time></trkpt><trkpt lat="41.234409913274625" lon="9.440439870057125"><ele>3.0</ele><time>2026-05-01T10:11:44.002Z</time></trkpt><trkpt lat="41.23436757969314" lon="9.44033943522368"><ele>3.0</ele><time>2026-05-01T10:11:46.002Z</time></trkpt><trkpt lat="41.234365424606345" lon="9.440239273841653"><ele>3.0</ele><time>2026-05-01T10:11:48.002Z</time></trkpt><trkpt lat="41.23438285922281" lon="9.440108985886676"><ele>3.5</ele><time>2026-05-01T10:11:50.002Z</time></trkpt><trkpt lat="41.23434759011247" lon="9.439942614402366"><ele>4.0</ele><time>2026-05-01T10:11:52.002Z</time></trkpt><trkpt lat="41.23432505969973" lon="9.43984431089297"><ele>4.5</ele><time>2026-05-01T10:11:53.002Z</time></trkpt><trkpt lat="41.234302403695345" lon="9.439753025911646"><ele>5.0</ele><time>2026-05-01T10:11:54.001Z</time></trkpt><trkpt lat="41.23427858691531" lon="9.43967029952761"><ele>5.5</ele><time>2026-05-01T10:11:55.001Z</time></trkpt><trkpt lat="41.23425047289045" lon="9.43958548743599"><ele>6.0</ele><time>2026-05-01T10:11:56.001Z</time></trkpt><trkpt lat="41.234196938301324" lon="9.439440856638214"><ele>6.4</ele><time>2026-05-01T10:11:58.001Z</time></trkpt><trkpt lat="41.23414934876595" lon="9.439330990025116"><ele>6.8</ele><time>2026-05-01T10:12:00.001Z</time></trkpt><trkpt lat="41.23409176985217" lon="9.439229761578677"><ele>7.200000000000001</ele><time>2026-05-01T10:12:03.001Z</time></trkpt><trkpt lat="41.234026969451804" lon="9.439174557238097"><ele>7.6000000000000005</ele><time>2026-05-01T10:12:05.001Z</time></trkpt><trkpt lat="41.233973148789744" lon="9.439042411922056"><ele>8.0</ele><time>2026-05-01T10:12:07.001Z</time></trkpt><trkpt lat="41.233925102585914" lon="9.438929106181533"><ele>7.857142857142857</ele><time>2026-05-01T10:12:09.001Z</time></trkpt><trkpt lat="41.23388930131696" lon="9.438845966123838"><ele>7.7142857142857135</ele><time>2026-05-01T10:12:10.001Z</time></trkpt><trkpt lat="41.233851413975245" lon="9.438770531323971"><ele>7.571428571428571</ele><time>2026-05-01T10:12:11.001Z</time></trkpt><trkpt lat="41.233811285053065" lon="9.43869899551572"><ele>7.428571428571429</ele><time>2026-05-01T10:12:12.001Z</time></trkpt><trkpt lat="41.23376552076698" lon="9.438633713082586"><ele>7.285714285714286</ele><time>2026-05-01T10:12:13.001Z</time></trkpt><trkpt lat="41.23371779522699" lon="9.438574578156404"><ele>7.142857142857142</ele><time>2026-05-01T10:12:14.001Z</time></trkpt><trkpt lat="41.23364355674685" lon="9.438488977702468"><ele>7.0</ele><time>2026-05-01T10:12:16.001Z</time></trkpt><trkpt lat="41.233574753646856" lon="9.438412274559639"><ele>7.0</ele><time>2026-05-01T10:12:18.001Z</time></trkpt><trkpt lat="41.23349590692643" lon="9.438331807996889"><ele>6.999999999999999</ele><time>2026-05-01T10:12:20.001Z</time></trkpt><trkpt lat="41.23337613415596" lon="9.438233532640195"><ele>6.999999999999999</ele><time>2026-05-01T10:12:22.001Z</time></trkpt><trkpt lat="41.23331604570607" lon="9.438188449152673"><ele>7.0</ele><time>2026-05-01T10:12:23.001Z</time></trkpt><trkpt lat="41.233260464254265" lon="9.438141992624814"><ele>7.0</ele><time>2026-05-01T10:12:24.001Z</time></trkpt><trkpt lat="41.233159457020825" lon="9.438072177753309"><ele>6.3999999999999995</ele><time>2026-05-01T10:12:26.001Z</time></trkpt><trkpt lat="41.233050984899016" lon="9.438039726387846"><ele>5.799999999999999</ele><time>2026-05-01T10:12:28.001Z</time></trkpt><trkpt lat="41.232984543308646" lon="9.438045416127773"><ele>5.2</ele><time>2026-05-01T10:12:29.001Z</time></trkpt><trkpt lat="41.23286244986195" lon="9.438094214425844"><ele>4.6</ele><time>2026-05-01T10:12:31.001Z</time></trkpt><trkpt lat="41.23275522099953" lon="9.438130502609262"><ele>4.0</ele><time>2026-05-01T10:12:33.001Z</time></trkpt><trkpt lat="41.23266149155778" lon="9.438138828975559"><ele>4.0</ele><time>2026-05-01T10:12:35.001Z</time></trkpt><trkpt lat="41.23255754958163" lon="9.438159444129788"><ele>4.0</ele><time>2026-05-01T10:12:37.001Z</time></trkpt><trkpt lat="41.232453537323224" lon="9.438192436048032"><ele>4.0</ele><time>2026-05-01T10:12:39.001Z</time></trkpt><trkpt lat="41.23238706145864" lon="9.438267101179468"><ele>4.0</ele><time>2026-05-01T10:12:41.001Z</time></trkpt><trkpt lat="41.23232089255704" lon="9.438362555513702"><ele>4.0</ele><time>2026-05-01T10:12:43.001Z</time></trkpt><trkpt lat="41.232253064293644" lon="9.438386185395785"><ele>3.833333333333333</ele><time>2026-05-01T10:12:45.001Z</time></trkpt><trkpt lat="41.232140024967116" lon="9.438359415294382"><ele>3.6666666666666665</ele><time>2026-05-01T10:12:47.001Z</time></trkpt><trkpt lat="41.23204557548609" lon="9.438371911499905"><ele>3.5</ele><time>2026-05-01T10:12:49.001Z</time></trkpt><trkpt lat="41.23197997319085" lon="9.438402919686105"><ele>3.333333333333333</ele><time>2026-05-01T10:12:50.001Z</time></trkpt><trkpt lat="41.231905435939964" lon="9.438442524931581"><ele>3.1666666666666665</ele><time>2026-05-01T10:12:51.001Z</time></trkpt><trkpt lat="41.231837644211026" lon="9.438492215479437"><ele>3.0</ele><time>2026-05-01T10:12:52.001Z</time></trkpt><trkpt lat="41.23177486024923" lon="9.438535273326165"><ele>3.0</ele><time>2026-05-01T10:12:53.001Z</time></trkpt><trkpt lat="41.23170714573956" lon="9.43857394337086"><ele>3.0</ele><time>2026-05-01T10:12:54.001Z</time></trkpt><trkpt lat="41.2315985050851" lon="9.438651962917522"><ele>3.0</ele><time>2026-05-01T10:12:56.001Z</time></trkpt><trkpt lat="41.23150912434423" lon="9.43874859979946"><ele>3.0</ele><time>2026-05-01T10:12:58.001Z</time></trkpt><trkpt lat="41.231437408800474" lon="9.438832978050257"><ele>3.0</ele><time>2026-05-01T10:13:00.001Z</time></trkpt><trkpt lat="41.2313336928279" lon="9.438814600073126"><ele>3.3333333333333335</ele><time>2026-05-01T10:13:01.001Z</time></trkpt><trkpt lat="41.23130315260989" lon="9.43890425347133"><ele>3.666666666666667</ele><time>2026-05-01T10:13:03.002Z</time></trkpt><trkpt lat="41.23123097344919" lon="9.439017779372131"><ele>4.0</ele><time>2026-05-01T10:13:05.002Z</time></trkpt><trkpt lat="41.23117367617271" lon="9.439082745408601"><ele>4.333333333333334</ele><time>2026-05-01T10:13:06.002Z</time></trkpt><trkpt lat="41.23111734041848" lon="9.439146621308693"><ele>4.666666666666667</ele><time>2026-05-01T10:13:07.002Z</time></trkpt><trkpt lat="41.23106812007889" lon="9.439202429392902"><ele>5.0</ele><time>2026-05-01T10:13:08.002Z</time></trkpt><trkpt lat="41.23101900917053" lon="9.439258113450572"><ele>5.0</ele><time>2026-05-01T10:13:09.002Z</time></trkpt><trkpt lat="41.23096292571704" lon="9.439323709670015"><ele>5.0</ele><time>2026-05-01T10:13:10.002Z</time></trkpt><trkpt lat="41.230893329116725" lon="9.439410296658474"><ele>5.0</ele><time>2026-05-01T10:13:12.002Z</time></trkpt><trkpt lat="41.23084320754996" lon="9.439473307038478"><ele>5.0</ele><time>2026-05-01T10:13:13.002Z</time></trkpt><trkpt lat="41.23078667504453" lon="9.439537711314763"><ele>5.0</ele><time>2026-05-01T10:13:14.002Z</time></trkpt><trkpt lat="41.23074189112134" lon="9.43960538094037"><ele>5.0</ele><time>2026-05-01T10:13:15.002Z</time></trkpt><trkpt lat="41.23070585418913" lon="9.439691149959053"><ele>5.0</ele><time>2026-05-01T10:13:16.002Z</time></trkpt><trkpt lat="41.2306839237715" lon="9.439848186219653"><ele>5.0</ele><time>2026-05-01T10:13:18.002Z</time></trkpt><trkpt lat="41.23065984912814" lon="9.439947074410822"><ele>5.0</ele><time>2026-05-01T10:13:19.002Z</time></trkpt><trkpt lat="41.230637235265306" lon="9.440074077009935"><ele>5.0</ele><time>2026-05-01T10:13:20.002Z</time></trkpt><trkpt lat="41.23062340624164" lon="9.440170793790454"><ele>5.0</ele><time>2026-05-01T10:13:21.002Z</time></trkpt><trkpt lat="41.230603609251055" lon="9.440260290807368"><ele>5.0</ele><time>2026-05-01T10:13:22.002Z</time></trkpt><trkpt lat="41.23058514504111" lon="9.440350352344884"><ele>4.6</ele><time>2026-05-01T10:13:23.002Z</time></trkpt><trkpt lat="41.23056600678438" lon="9.44046076588127"><ele>4.2</ele><time>2026-05-01T10:13:24.002Z</time></trkpt><trkpt lat="41.230537371519496" lon="9.440553374545534"><ele>3.8</ele><time>2026-05-01T10:13:25.002Z</time></trkpt><trkpt lat="41.230535439041624" lon="9.44064364574464"><ele>3.4</ele><time>2026-05-01T10:13:26.002Z</time></trkpt><trkpt lat="41.23052655981843" lon="9.440795968333308"><ele>3.0</ele><time>2026-05-01T10:13:28.002Z</time></trkpt><trkpt lat="41.23055921791313" lon="9.440952015843564"><ele>3.0</ele><time>2026-05-01T10:13:30.002Z</time></trkpt><trkpt lat="41.23058667950193" lon="9.441047695248928"><ele>3.0</ele><time>2026-05-01T10:13:31.002Z</time></trkpt><trkpt lat="41.23063620819446" lon="9.441149911250754"><ele>3.0</ele><time>2026-05-01T10:13:32.002Z</time></trkpt><trkpt lat="41.23068678519915" lon="9.441227654714536"><ele>3.0</ele><time>2026-05-01T10:13:33.002Z</time></trkpt><trkpt lat="41.2307371025074" lon="9.441287864528148"><ele>3.0</ele><time>2026-05-01T10:13:34.002Z</time></trkpt><trkpt lat="41.23081421746613" lon="9.44139892701198"><ele>3.0</ele><time>2026-05-01T10:13:36.002Z</time></trkpt><trkpt lat="41.23089936776369" lon="9.441506839969696"><ele>3.1666666666666665</ele><time>2026-05-01T10:13:38.002Z</time></trkpt><trkpt lat="41.23095484468503" lon="9.441574520814024"><ele>3.333333333333333</ele><time>2026-05-01T10:13:39.002Z</time></trkpt><trkpt lat="41.23103642918468" lon="9.441661521314398"><ele>3.5</ele><time>2026-05-01T10:13:40.002Z</time></trkpt><trkpt lat="41.231104793586226" lon="9.441723643114967"><ele>3.6666666666666665</ele><time>2026-05-01T10:13:41.002Z</time></trkpt><trkpt lat="41.23118254772628" lon="9.441776923014974"><ele>3.833333333333333</ele><time>2026-05-01T10:13:42.002Z</time></trkpt><trkpt lat="41.23125261980692" lon="9.441830607171147"><ele>4.0</ele><time>2026-05-01T10:13:43.002Z</time></trkpt><trkpt lat="41.2313157021087" lon="9.441870404731027"><ele>3.9999999999999996</ele><time>2026-05-01T10:13:44.002Z</time></trkpt><trkpt lat="41.23140225632552" lon="9.441926667782434"><ele>4.0</ele><time>2026-05-01T10:13:45.002Z</time></trkpt><trkpt lat="41.23146922644788" lon="9.441995647715833"><ele>4.0</ele><time>2026-05-01T10:13:46.002Z</time></trkpt><trkpt lat="41.23154836236346" lon="9.442026489559971"><ele>4.0</ele><time>2026-05-01T10:13:47.002Z</time></trkpt><trkpt lat="41.231615322900296" lon="9.442072894969678"><ele>3.9999999999999996</ele><time>2026-05-01T10:13:48.002Z</time></trkpt><trkpt lat="41.23168954130936" lon="9.44212001601437"><ele>4.0</ele><time>2026-05-01T10:13:49.002Z</time></trkpt><trkpt lat="41.23178800176334" lon="9.442182376678954"><ele>3.9999999999999996</ele><time>2026-05-01T10:13:50.002Z</time></trkpt><trkpt lat="41.231870932214484" lon="9.442228818669815"><ele>4.0</ele><time>2026-05-01T10:13:51.002Z</time></trkpt><trkpt lat="41.23194711965177" lon="9.44226522808997"><ele>4.0</ele><time>2026-05-01T10:13:52.002Z</time></trkpt><trkpt lat="41.232040993109386" lon="9.442290847368142"><ele>4.0</ele><time>2026-05-01T10:13:54.002Z</time></trkpt><trkpt lat="41.23211204953714" lon="9.442318703642739"><ele>3.9999999999999996</ele><time>2026-05-01T10:13:56.002Z</time></trkpt><trkpt lat="41.23217560840022" lon="9.442337303438856"><ele>4.0</ele><time>2026-05-01T10:13:58.003Z</time></trkpt><trkpt lat="41.23224318308343" lon="9.442356415126511"><ele>3.8000000000000003</ele><time>2026-05-01T10:14:00.001Z</time></trkpt><trkpt lat="41.23234113397203" lon="9.442371096119784"><ele>3.6000000000000005</ele><time>2026-05-01T10:14:02.001Z</time></trkpt><trkpt lat="41.232414986947816" lon="9.442384542128394"><ele>3.4</ele><time>2026-05-01T10:14:05.001Z</time></trkpt><trkpt lat="41.23250199746757" lon="9.442380844412433"><ele>3.2</ele><time>2026-05-01T10:14:09.001Z</time></trkpt><trkpt lat="41.232611748005695" lon="9.442402962658768"><ele>3.0</ele><time>2026-05-01T10:14:11.001Z</time></trkpt><trkpt lat="41.23270344630356" lon="9.44241107555202"><ele>3.0</ele><time>2026-05-01T10:14:13.001Z</time></trkpt><trkpt lat="41.232832933501534" lon="9.442426799453923"><ele>3.0</ele><time>2026-05-01T10:14:15.001Z</time></trkpt><trkpt lat="41.23291195317112" lon="9.442432794929701"><ele>3.0</ele><time>2026-05-01T10:14:16.001Z</time></trkpt><trkpt lat="41.23297863357099" lon="9.442432229163025"><ele>3.0</ele><time>2026-05-01T10:14:17.001Z</time></trkpt><trkpt lat="41.23309313634575" lon="9.44244787469462"><ele>3.0</ele><time>2026-05-01T10:14:19.001Z</time></trkpt><trkpt lat="41.23315816281411" lon="9.442456990078732"><ele>3.5999999999999996</ele><time>2026-05-01T10:14:20.001Z</time></trkpt><trkpt lat="41.233278342485136" lon="9.442466777661057"><ele>4.199999999999999</ele><time>2026-05-01T10:14:22.001Z</time></trkpt><trkpt lat="41.233398777152516" lon="9.442480559320078"><ele>4.8</ele><time>2026-05-01T10:14:24.001Z</time></trkpt><trkpt lat="41.23346403841061" lon="9.442487933857322"><ele>5.3999999999999995</ele><time>2026-05-01T10:14:25.001Z</time></trkpt><trkpt lat="41.23356598715693" lon="9.44250239904916"><ele>6.0</ele><time>2026-05-01T10:14:27.001Z</time></trkpt><trkpt lat="41.23367526056637" lon="9.442507388213828"><ele>6.0</ele><time>2026-05-01T10:14:29.001Z</time></trkpt><trkpt lat="41.23378819509517" lon="9.442518756223624"><ele>6.0</ele><time>2026-05-01T10:14:31.001Z</time></trkpt><trkpt lat="41.23391055945772" lon="9.442523529223358"><ele>6.0</ele><time>2026-05-01T10:14:33.001Z</time></trkpt><trkpt lat="41.23398544030879" lon="9.442526304662932"><ele>6.0</ele><time>2026-05-01T10:14:34.001Z</time></trkpt><trkpt lat="41.23405785104359" lon="9.442529067377164"><ele>6.0</ele><time>2026-05-01T10:14:35.001Z</time></trkpt><trkpt lat="41.23413043681333" lon="9.442534136712675"><ele>6.0</ele><time>2026-05-01T10:14:36.001Z</time></trkpt><trkpt lat="41.23420718452484" lon="9.442539145118479"><ele>6.0</ele><time>2026-05-01T10:14:37.001Z</time></trkpt><trkpt lat="41.234271125468595" lon="9.44254419097784"><ele>6.0</ele><time>2026-05-01T10:14:38.001Z</time></trkpt><trkpt lat="41.234387872202944" lon="9.442581063490483"><ele>6.0</ele><time>2026-05-01T10:14:40.001Z</time></trkpt><trkpt lat="41.234467131513796" lon="9.442585620037534"><ele>6.0</ele><time>2026-05-01T10:14:41.001Z</time></trkpt><trkpt lat="41.234536729383784" lon="9.442585766349108"><ele>6.0</ele><time>2026-05-01T10:14:42.001Z</time></trkpt><trkpt lat="41.23465433213833" lon="9.442554169236873"><ele>6.0</ele><time>2026-05-01T10:14:44.001Z</time></trkpt><trkpt lat="41.23472693522809" lon="9.44254358282523"><ele>6.0</ele><time>2026-05-01T10:14:45.001Z</time></trkpt><trkpt lat="41.23484086217357" lon="9.442515910013828"><ele>6.0</ele><time>2026-05-01T10:14:47.001Z</time></trkpt><trkpt lat="41.234938323041774" lon="9.442482320266079"><ele>6.0</ele><time>2026-05-01T10:14:49.001Z</time></trkpt><trkpt lat="41.23502005408416" lon="9.442462443386512"><ele>6.0</ele><time>2026-05-01T10:14:51.001Z</time></trkpt><trkpt lat="41.2351197714908" lon="9.442482690992986"><ele>5.5</ele><time>2026-05-01T10:14:53.001Z</time></trkpt><trkpt lat="41.23521797028904" lon="9.44251686505537"><ele>5.0</ele><time>2026-05-01T10:14:55.001Z</time></trkpt><trkpt lat="41.23529504422769" lon="9.442516241316557"><ele>4.5</ele><time>2026-05-01T10:14:57.001Z</time></trkpt><trkpt lat="41.23536219704829" lon="9.442472832865912"><ele>4.0</ele><time>2026-05-01T10:14:59.001Z</time></trkpt><trkpt lat="41.23543919432716" lon="9.442450359944285"><ele>3.5</ele><time>2026-05-01T10:15:02.001Z</time></trkpt><trkpt lat="41.23536628004248" lon="9.442455154083229"><ele>3.0</ele><time>2026-05-01T10:15:32.002Z</time></trkpt><trkpt lat="41.23529223287551" lon="9.442491943620643"><ele>3.0</ele><time>2026-05-01T10:15:34.002Z</time></trkpt><trkpt lat="41.23519612965322" lon="9.442497661025033"><ele>3.0</ele><time>2026-05-01T10:15:36.002Z</time></trkpt><trkpt lat="41.2350896980322" lon="9.442457640478699"><ele>3.0</ele><time>2026-05-01T10:15:38.002Z</time></trkpt><trkpt lat="41.234988588116686" lon="9.442454118355107"><ele>3.0</ele><time>2026-05-01T10:15:40.002Z</time></trkpt><trkpt lat="41.23489294576683" lon="9.442488592729907"><ele>3.0</ele><time>2026-05-01T10:15:42.002Z</time></trkpt><trkpt lat="41.234817995929525" lon="9.442520242013698"><ele>3.5</ele><time>2026-05-01T10:15:43.002Z</time></trkpt><trkpt lat="41.234754488314984" lon="9.44253843379459"><ele>4.0</ele><time>2026-05-01T10:15:44.002Z</time></trkpt><trkpt lat="41.23464584023562" lon="9.44255392088272"><ele>4.5</ele><time>2026-05-01T10:15:46.002Z</time></trkpt><trkpt lat="41.23458214278974" lon="9.442559629925388"><ele>5.0</ele><time>2026-05-01T10:15:47.002Z</time></trkpt><trkpt lat="41.234501960708975" lon="9.442555728388594"><ele>5.5</ele><time>2026-05-01T10:15:48.002Z</time></trkpt><trkpt lat="41.234421526742665" lon="9.442558963359255"><ele>6.0</ele><time>2026-05-01T10:15:49.002Z</time></trkpt><trkpt lat="41.23432872283665" lon="9.442528074119457"><ele>6.0</ele><time>2026-05-01T10:15:50.002Z</time></trkpt><trkpt lat="41.23423690547093" lon="9.442517986338514"><ele>6.0</ele><time>2026-05-01T10:15:51.002Z</time></trkpt><trkpt lat="41.23415362456325" lon="9.442524258048504"><ele>6.0</ele><time>2026-05-01T10:15:52.002Z</time></trkpt><trkpt lat="41.234072984078146" lon="9.44252103386795"><ele>6.0</ele><time>2026-05-01T10:15:53.002Z</time></trkpt><trkpt lat="41.233981462406085" lon="9.442496179869575"><ele>6.0</ele><time>2026-05-01T10:15:54.002Z</time></trkpt><trkpt lat="41.23390995032917" lon="9.442512163362478"><ele>6.0</ele><time>2026-05-01T10:15:55.002Z</time></trkpt><trkpt lat="41.2338391874359" lon="9.442502155955632"><ele>5.999999999999999</ele><time>2026-05-01T10:15:56.002Z</time></trkpt><trkpt lat="41.23377315965385" lon="9.442492195346375"><ele>6.0</ele><time>2026-05-01T10:15:57.002Z</time></trkpt><trkpt lat="41.23370742713461" lon="9.442487935047769"><ele>6.0</ele><time>2026-05-01T10:15:58.002Z</time></trkpt><trkpt lat="41.23364209769861" lon="9.442485129693358"><ele>6.0</ele><time>2026-05-01T10:15:59.002Z</time></trkpt><trkpt lat="41.233577651212755" lon="9.442482793211171"><ele>6.0</ele><time>2026-05-01T10:16:00.002Z</time></trkpt><trkpt lat="41.23351609472605" lon="9.442457007722963"><ele>5.999999999999999</ele><time>2026-05-01T10:16:01.002Z</time></trkpt><trkpt lat="41.23340354475466" lon="9.442455596214174"><ele>6.0</ele><time>2026-05-01T10:16:03.002Z</time></trkpt><trkpt lat="41.23328762064385" lon="9.44244417328489"><ele>6.0</ele><time>2026-05-01T10:16:05.001Z</time></trkpt><trkpt lat="41.23322438341057" lon="9.442445236107973"><ele>6.0</ele><time>2026-05-01T10:16:06.001Z</time></trkpt><trkpt lat="41.233134212339856" lon="9.44242031862343"><ele>6.0</ele><time>2026-05-01T10:16:07.001Z</time></trkpt><trkpt lat="41.23305104311727" lon="9.442412067471965"><ele>6.0</ele><time>2026-05-01T10:16:08.001Z</time></trkpt><trkpt lat="41.23295945611227" lon="9.442420170900785"><ele>6.0</ele><time>2026-05-01T10:16:09.001Z</time></trkpt><trkpt lat="41.2328768157635" lon="9.442414463614579"><ele>6.0</ele><time>2026-05-01T10:16:10.001Z</time></trkpt><trkpt lat="41.23279845282582" lon="9.442387008182791"><ele>5.666666666666667</ele><time>2026-05-01T10:16:11.001Z</time></trkpt><trkpt lat="41.232700203059494" lon="9.44237726089448"><ele>5.333333333333333</ele><time>2026-05-01T10:16:12.001Z</time></trkpt><trkpt lat="41.232610356932064" lon="9.442388728130705"><ele>5.0</ele><time>2026-05-01T10:16:13.001Z</time></trkpt><trkpt lat="41.23253273998516" lon="9.44237778530355"><ele>4.666666666666666</ele><time>2026-05-01T10:16:14.001Z</time></trkpt><trkpt lat="41.23245508703183" lon="9.442364072042615"><ele>4.333333333333333</ele><time>2026-05-01T10:16:15.001Z</time></trkpt><trkpt lat="41.23237677457092" lon="9.442355267421794"><ele>4.0</ele><time>2026-05-01T10:16:16.001Z</time></trkpt><trkpt lat="41.23230373025092" lon="9.442345619976754"><ele>4.0</ele><time>2026-05-01T10:16:17.001Z</time></trkpt><trkpt lat="41.23223999110575" lon="9.44233240497832"><ele>4.0</ele><time>2026-05-01T10:16:18.001Z</time></trkpt><trkpt lat="41.2321427638358" lon="9.44230017614631"><ele>4.0</ele><time>2026-05-01T10:16:20.001Z</time></trkpt><trkpt lat="41.2320570242315" lon="9.442260202742661"><ele>4.0</ele><time>2026-05-01T10:16:22.001Z</time></trkpt><trkpt lat="41.23193195551086" lon="9.442214658108194"><ele>4.0</ele><time>2026-05-01T10:16:24.001Z</time></trkpt><trkpt lat="41.23183507066435" lon="9.44217329484943"><ele>3.9999999999999996</ele><time>2026-05-01T10:16:25.001Z</time></trkpt><trkpt lat="41.23174226755304" lon="9.442122984040582"><ele>4.0</ele><time>2026-05-01T10:16:26.001Z</time></trkpt><trkpt lat="41.231638871676964" lon="9.442068113305671"><ele>4.0</ele><time>2026-05-01T10:16:27.001Z</time></trkpt><trkpt lat="41.23156726150892" lon="9.442030552293657"><ele>4.0</ele><time>2026-05-01T10:16:28.001Z</time></trkpt><trkpt lat="41.231503847227756" lon="9.4419848608435"><ele>3.9999999999999996</ele><time>2026-05-01T10:16:29.001Z</time></trkpt><trkpt lat="41.23143897094341" lon="9.44193870727071"><ele>4.0</ele><time>2026-05-01T10:16:30.001Z</time></trkpt><trkpt lat="41.231362514839866" lon="9.441890982571568"><ele>4.0</ele><time>2026-05-01T10:16:31.001Z</time></trkpt><trkpt lat="41.231300952842645" lon="9.441855346471115"><ele>4.0</ele><time>2026-05-01T10:16:32.001Z</time></trkpt><trkpt lat="41.2312424405664" lon="9.441813397806524"><ele>4.0</ele><time>2026-05-01T10:16:33.001Z</time></trkpt><trkpt lat="41.231132390950435" lon="9.441730524571687"><ele>4.0</ele><time>2026-05-01T10:16:35.001Z</time></trkpt><trkpt lat="41.23103109123324" lon="9.441644151270095"><ele>4.0</ele><time>2026-05-01T10:16:37.001Z</time></trkpt><trkpt lat="41.230948074383555" lon="9.441523848512878"><ele>3.9999999999999996</ele><time>2026-05-01T10:16:39.001Z</time></trkpt><trkpt lat="41.23086712308914" lon="9.441420669544009"><ele>4.0</ele><time>2026-05-01T10:16:41.001Z</time></trkpt><trkpt lat="41.230801318111475" lon="9.441358061223317"><ele>4.0</ele><time>2026-05-01T10:16:42.001Z</time></trkpt><trkpt lat="41.23075699992131" lon="9.441287933111472"><ele>4.0</ele><time>2026-05-01T10:16:43.001Z</time></trkpt><trkpt lat="41.230709872835575" lon="9.441213656532176"><ele>3.9999999999999996</ele><time>2026-05-01T10:16:44.001Z</time></trkpt><trkpt lat="41.23066352884811" lon="9.44114463076632"><ele>4.0</ele><time>2026-05-01T10:16:45.001Z</time></trkpt><trkpt lat="41.23061403334764" lon="9.441055889269304"><ele>3.6</ele><time>2026-05-01T10:16:46.001Z</time></trkpt><trkpt lat="41.23057399779931" lon="9.440970535874943"><ele>3.2</ele><time>2026-05-01T10:16:47.001Z</time></trkpt><trkpt lat="41.23054923699814" lon="9.440892556900897"><ele>2.8000000000000003</ele><time>2026-05-01T10:16:48.001Z</time></trkpt><trkpt lat="41.230533938186966" lon="9.440761083547976"><ele>2.4000000000000004</ele><time>2026-05-01T10:16:50.001Z</time></trkpt><trkpt lat="41.23054281869252" lon="9.440589696984148"><ele>2.0</ele><time>2026-05-01T10:16:52.001Z</time></trkpt><trkpt lat="41.230580326536575" lon="9.440488830399985"><ele>2.1666666666666665</ele><time>2026-05-01T10:16:53.001Z</time></trkpt><trkpt lat="41.230602552993886" lon="9.44037690275814"><ele>2.333333333333333</ele><time>2026-05-01T10:16:54.001Z</time></trkpt><trkpt lat="41.23062436032249" lon="9.440267085783754"><ele>2.5</ele><time>2026-05-01T10:16:55.001Z</time></trkpt><trkpt lat="41.230644962064694" lon="9.44016333996802"><ele>2.6666666666666665</ele><time>2026-05-01T10:16:56.001Z</time></trkpt><trkpt lat="41.230661378382955" lon="9.440080670911849"><ele>2.8333333333333335</ele><time>2026-05-01T10:16:57.001Z</time></trkpt><trkpt lat="41.230679913660744" lon="9.439987331377516"><ele>3.0</ele><time>2026-05-01T10:16:58.001Z</time></trkpt><trkpt lat="41.23070526160536" lon="9.439859684585105"><ele>3.4</ele><time>2026-05-01T10:16:59.001Z</time></trkpt><trkpt lat="41.23072424785627" lon="9.439779058789526"><ele>3.8</ele><time>2026-05-01T10:17:00.001Z</time></trkpt><trkpt lat="41.23075717531237" lon="9.439663598350943"><ele>4.2</ele><time>2026-05-01T10:17:02.001Z</time></trkpt><trkpt lat="41.230809777910565" lon="9.439569749197245"><ele>4.6</ele><time>2026-05-01T10:17:04.001Z</time></trkpt><trkpt lat="41.230897091609755" lon="9.439466409479857"><ele>5.0</ele><time>2026-05-01T10:17:06.001Z</time></trkpt><trkpt lat="41.23097517302809" lon="9.4393682492819"><ele>5.0</ele><time>2026-05-01T10:17:08.001Z</time></trkpt><trkpt lat="41.23103521848745" lon="9.439297826003054"><ele>5.0</ele><time>2026-05-01T10:17:09.001Z</time></trkpt><trkpt lat="41.23108763409399" lon="9.439238394955002"><ele>5.0</ele><time>2026-05-01T10:17:10.001Z</time></trkpt><trkpt lat="41.231140523537235" lon="9.43916241606508"><ele>5.0</ele><time>2026-05-01T10:17:11.001Z</time></trkpt><trkpt lat="41.23119026401551" lon="9.43911095033869"><ele>5.0</ele><time>2026-05-01T10:17:12.001Z</time></trkpt><trkpt lat="41.231269028783494" lon="9.439017625360757"><ele>5.0</ele><time>2026-05-01T10:17:14.001Z</time></trkpt><trkpt lat="41.23132551185596" lon="9.43893534304842"><ele>5.0</ele><time>2026-05-01T10:17:16.001Z</time></trkpt><trkpt lat="41.23133350771077" lon="9.438832325540732"><ele>5.0</ele><time>2026-05-01T10:17:18.001Z</time></trkpt><trkpt lat="41.23124303244608" lon="9.438771108698367"><ele>5.0</ele><time>2026-05-01T10:17:20.001Z</time></trkpt><trkpt lat="41.231201183689016" lon="9.438682135297144"><ele>5.0</ele><time>2026-05-01T10:17:22.001Z</time></trkpt><trkpt lat="41.23118827661646" lon="9.438580714784942"><ele>5.0</ele><time>2026-05-01T10:17:24.001Z</time></trkpt><trkpt lat="41.23116544094404" lon="9.438473270042644"><ele>5.0</ele><time>2026-05-01T10:17:26.001Z</time></trkpt><trkpt lat="41.231134187646276" lon="9.4383994661532"><ele>4.2</ele><time>2026-05-01T10:17:27.001Z</time></trkpt><trkpt lat="41.23109027624274" lon="9.438256617901182"><ele>3.4</ele><time>2026-05-01T10:17:29.001Z</time></trkpt><trkpt lat="41.23107456354238" lon="9.438123614148473"><ele>2.6</ele><time>2026-05-01T10:17:31.001Z</time></trkpt><trkpt lat="41.23102845194192" lon="9.43798956266759"><ele>1.8</ele><time>2026-05-01T10:17:33.001Z</time></trkpt><trkpt lat="41.231003513148345" lon="9.437862512151174"><ele>1.0</ele><time>2026-05-01T10:17:35.001Z</time></trkpt><trkpt lat="41.230978802222964" lon="9.437730596583071"><ele>0.8571428571428571</ele><time>2026-05-01T10:17:37.001Z</time></trkpt><trkpt lat="41.230954158101966" lon="9.437608829158798"><ele>0.7142857142857142</ele><time>2026-05-01T10:17:39.001Z</time></trkpt><trkpt lat="41.2309360715595" lon="9.43751027279449"><ele>0.5714285714285714</ele><time>2026-05-01T10:17:40.001Z</time></trkpt><trkpt lat="41.230930067031714" lon="9.437408350652035"><ele>0.42857142857142855</ele><time>2026-05-01T10:17:41.001Z</time></trkpt><trkpt lat="41.23091412814776" lon="9.437326836878212"><ele>0.2857142857142857</ele><time>2026-05-01T10:17:42.001Z</time></trkpt><trkpt lat="41.23088156792387" lon="9.437252452747215"><ele>0.14285714285714285</ele><time>2026-05-01T10:17:43.001Z</time></trkpt><trkpt lat="41.23086434924845" lon="9.437166639777615"><ele>0.0</ele><time>2026-05-01T10:17:44.001Z</time></trkpt><trkpt lat="41.23083651610109" lon="9.437079725515414"><ele>0.2</ele><time>2026-05-01T10:17:45.001Z</time></trkpt><trkpt lat="41.230777034006586" lon="9.436976557246872"><ele>0.4</ele><time>2026-05-01T10:17:46.002Z</time></trkpt><trkpt lat="41.230728228200526" lon="9.436888623744707"><ele>0.6000000000000001</ele><time>2026-05-01T10:17:47.002Z</time></trkpt><trkpt lat="41.23066074187701" lon="9.436764009549583"><ele>0.8</ele><time>2026-05-01T10:17:49.002Z</time></trkpt><trkpt lat="41.23057884387331" lon="9.436649652777021"><ele>1.0</ele><time>2026-05-01T10:17:51.002Z</time></trkpt><trkpt lat="41.23052353159506" lon="9.436551207312196"><ele>0.9999999999999999</ele><time>2026-05-01T10:17:53.002Z</time></trkpt><trkpt lat="41.23044623285622" lon="9.436452004988535"><ele>1.0</ele><time>2026-05-01T10:17:55.002Z</time></trkpt><trkpt lat="41.23038236784287" lon="9.43637700967227"><ele>1.0</ele><time>2026-05-01T10:17:57.002Z</time></trkpt><trkpt lat="41.2303072953091" lon="9.43633025934911"><ele>1.0</ele><time>2026-05-01T10:17:59.002Z</time></trkpt><trkpt lat="41.23023188968697" lon="9.436313006915357"><ele>0.9999999999999999</ele><time>2026-05-01T10:18:01.002Z</time></trkpt><trkpt lat="41.23013909428703" lon="9.436301545571869"><ele>1.0</ele><time>2026-05-01T10:18:03.002Z</time></trkpt><trkpt lat="41.23003137238534" lon="9.436274303787954"><ele>0.8</ele><time>2026-05-01T10:18:05.002Z</time></trkpt><trkpt lat="41.22992415466862" lon="9.436275324299553"><ele>0.6000000000000001</ele><time>2026-05-01T10:18:07.002Z</time></trkpt><trkpt lat="41.22981886098536" lon="9.436264108099387"><ele>0.4</ele><time>2026-05-01T10:18:09.002Z</time></trkpt><trkpt lat="41.22971891070992" lon="9.436271087692242"><ele>0.2</ele><time>2026-05-01T10:18:11Z</time></trkpt><trkpt lat="41.22959354268029" lon="9.43626605608545"><ele>0.0</ele><time>2026-05-01T10:18:13Z</time></trkpt><trkpt lat="41.229486643228306" lon="9.436249431454542"><ele>0.0</ele><time>2026-05-01T10:18:15Z</time></trkpt><trkpt lat="41.22938997131007" lon="9.43622423123395"><ele>0.0</ele><time>2026-05-01T10:18:17Z</time></trkpt><trkpt lat="41.22929238175893" lon="9.436170387027394"><ele>0.0</ele><time>2026-05-01T10:18:19Z</time></trkpt><trkpt lat="41.22919483826213" lon="9.436106697700396"><ele>0.0</ele><time>2026-05-01T10:18:21Z</time></trkpt><trkpt lat="41.22908960467278" lon="9.43606497544147"><ele>0.0</ele><time>2026-05-01T10:18:23Z</time></trkpt><trkpt lat="41.22897969195042" lon="9.436036970013847"><ele>0.5</ele><time>2026-05-01T10:18:25Z</time></trkpt><trkpt lat="41.22887099093697" lon="9.436012981616733"><ele>1.0</ele><time>2026-05-01T10:18:27Z</time></trkpt><trkpt lat="41.2287980486863" lon="9.435997694085659"><ele>1.5</ele><time>2026-05-01T10:18:28Z</time></trkpt><trkpt lat="41.228734721247676" lon="9.435982088856951"><ele>2.0</ele><time>2026-05-01T10:18:29Z</time></trkpt><trkpt lat="41.22866744137628" lon="9.435964471073598"><ele>2.5</ele><time>2026-05-01T10:18:30Z</time></trkpt><trkpt lat="41.22859321998457" lon="9.435966955324535"><ele>3.0</ele><time>2026-05-01T10:18:31Z</time></trkpt><trkpt lat="41.22852517437794" lon="9.435993509952477"><ele>3.0</ele><time>2026-05-01T10:18:32Z</time></trkpt><trkpt lat="41.2284409475535" lon="9.436040743048752"><ele>3.0</ele><time>2026-05-01T10:18:34Z</time></trkpt><trkpt lat="41.22837784364221" lon="9.436091408293718"><ele>3.0</ele><time>2026-05-01T10:18:36Z</time></trkpt><trkpt lat="41.228317308884506" lon="9.436136868794504"><ele>3.0</ele><time>2026-05-01T10:18:38Z</time></trkpt><trkpt lat="41.22825124083708" lon="9.436203403696796"><ele>3.0</ele><time>2026-05-01T10:18:40Z</time></trkpt><trkpt lat="41.22816795714206" lon="9.436266233962023"><ele>3.0</ele><time>2026-05-01T10:18:42Z</time></trkpt><trkpt lat="41.22810133232008" lon="9.436319133055946"><ele>2.8333333333333335</ele><time>2026-05-01T10:18:44Z</time></trkpt><trkpt lat="41.22800413031017" lon="9.43637911501544"><ele>2.6666666666666665</ele><time>2026-05-01T10:18:46Z</time></trkpt><trkpt lat="41.22793971898262" lon="9.436401296909455"><ele>2.5</ele><time>2026-05-01T10:18:47Z</time></trkpt><trkpt lat="41.22785476516899" lon="9.436410723555417"><ele>2.333333333333333</ele><time>2026-05-01T10:18:48Z</time></trkpt><trkpt lat="41.2277712328007" lon="9.436405244559616"><ele>2.1666666666666665</ele><time>2026-05-01T10:18:49Z</time></trkpt><trkpt lat="41.22768344999251" lon="9.43639611344767"><ele>2.0</ele><time>2026-05-01T10:18:50Z</time></trkpt><trkpt lat="41.227591622121544" lon="9.436372227285597"><ele>2.0</ele><time>2026-05-01T10:18:51Z</time></trkpt><trkpt lat="41.22748598718257" lon="9.436335411337266"><ele>2.0</ele><time>2026-05-01T10:18:52.001Z</time></trkpt><trkpt lat="41.22739001864761" lon="9.436305061675005"><ele>2.0</ele><time>2026-05-01T10:18:53.001Z</time></trkpt><trkpt lat="41.22729806846344" lon="9.436288524764205"><ele>2.0</ele><time>2026-05-01T10:18:54.001Z</time></trkpt><trkpt lat="41.22720716773481" lon="9.436282765222687"><ele>2.0</ele><time>2026-05-01T10:18:55.001Z</time></trkpt><trkpt lat="41.227121784540174" lon="9.436271439414487"><ele>2.571428571428571</ele><time>2026-05-01T10:18:56.001Z</time></trkpt><trkpt lat="41.227041091654314" lon="9.436253182675125"><ele>3.1428571428571423</ele><time>2026-05-01T10:18:57.001Z</time></trkpt><trkpt lat="41.226964798827844" lon="9.436233690749848"><ele>3.714285714285714</ele><time>2026-05-01T10:18:58.001Z</time></trkpt><trkpt lat="41.226894405778495" lon="9.436216078961998"><ele>4.285714285714286</ele><time>2026-05-01T10:18:59.001Z</time></trkpt><trkpt lat="41.22682552992429" lon="9.436201721896524"><ele>4.857142857142857</ele><time>2026-05-01T10:19:00.001Z</time></trkpt><trkpt lat="41.226756531664726" lon="9.436185385493818"><ele>5.428571428571428</ele><time>2026-05-01T10:19:01.001Z</time></trkpt><trkpt lat="41.22668826240525" lon="9.43616424413685"><ele>6.0</ele><time>2026-05-01T10:19:02.001Z</time></trkpt><trkpt lat="41.226616860535295" lon="9.436141379859036"><ele>6.0</ele><time>2026-05-01T10:19:03.001Z</time></trkpt><trkpt lat="41.2265429679666" lon="9.436117351978012"><ele>6.0</ele><time>2026-05-01T10:19:04.001Z</time></trkpt><trkpt lat="41.22646899023475" lon="9.4360895719027"><ele>6.0</ele><time>2026-05-01T10:19:05.001Z</time></trkpt><trkpt lat="41.22639449904157" lon="9.436060743992755"><ele>6.0</ele><time>2026-05-01T10:19:06.001Z</time></trkpt><trkpt lat="41.226315636520766" lon="9.436025319099384"><ele>6.0</ele><time>2026-05-01T10:19:07.001Z</time></trkpt><trkpt lat="41.22623996519118" lon="9.435990923636023"><ele>6.0</ele><time>2026-05-01T10:19:08.001Z</time></trkpt><trkpt lat="41.22616349577067" lon="9.435953621190329"><ele>5.333333333333333</ele><time>2026-05-01T10:19:09.001Z</time></trkpt><trkpt lat="41.226091127630575" lon="9.435916077661627"><ele>4.666666666666667</ele><time>2026-05-01T10:19:10.001Z</time></trkpt><trkpt lat="41.2260171666424" lon="9.435875195875472"><ele>4.0</ele><time>2026-05-01T10:19:11.001Z</time></trkpt><trkpt lat="41.22594459090569" lon="9.435831400839838"><ele>3.333333333333333</ele><time>2026-05-01T10:19:12.001Z</time></trkpt><trkpt lat="41.225874204955716" lon="9.435782262268932"><ele>2.6666666666666665</ele><time>2026-05-01T10:19:13.001Z</time></trkpt><trkpt lat="41.22580601019422" lon="9.435736537333936"><ele>2.0</ele><time>2026-05-01T10:19:14.001Z</time></trkpt><trkpt lat="41.225739260172205" lon="9.435696170606944"><ele>1.9999999999999998</ele><time>2026-05-01T10:19:15.001Z</time></trkpt><trkpt lat="41.22567260703392" lon="9.43565482844613"><ele>2.0</ele><time>2026-05-01T10:19:16.001Z</time></trkpt><trkpt lat="41.22560050748378" lon="9.435609211120305"><ele>2.0</ele><time>2026-05-01T10:19:17.001Z</time></trkpt><trkpt lat="41.22552919169251" lon="9.435564429876361"><ele>2.0</ele><time>2026-05-01T10:19:18.001Z</time></trkpt><trkpt lat="41.225458674483626" lon="9.435518810788318"><ele>1.9999999999999998</ele><time>2026-05-01T10:19:19.001Z</time></trkpt><trkpt lat="41.22539033733966" lon="9.435467991905242"><ele>2.0</ele><time>2026-05-01T10:19:20.001Z</time></trkpt><trkpt lat="41.22532381605599" lon="9.435408125937688"><ele>2.333333333333333</ele><time>2026-05-01T10:19:21.001Z</time></trkpt><trkpt lat="41.22526209802573" lon="9.43534118649092"><ele>2.6666666666666665</ele><time>2026-05-01T10:19:22.001Z</time></trkpt><trkpt lat="41.22521052784798" lon="9.435273711462273"><ele>3.0</ele><time>2026-05-01T10:19:23.001Z</time></trkpt><trkpt lat="41.225158574799856" lon="9.435193235838106"><ele>3.333333333333333</ele><time>2026-05-01T10:19:24.001Z</time></trkpt><trkpt lat="41.22511433082035" lon="9.435106975309585"><ele>3.6666666666666665</ele><time>2026-05-01T10:19:25.001Z</time></trkpt><trkpt lat="41.22507247343082" lon="9.435023016189893"><ele>4.0</ele><time>2026-05-01T10:19:26.001Z</time></trkpt><trkpt lat="41.22503716501234" lon="9.434936359512447"><ele>3.9999999999999996</ele><time>2026-05-01T10:19:27.001Z</time></trkpt><trkpt lat="41.22499988425703" lon="9.434852388971532"><ele>4.0</ele><time>2026-05-01T10:19:28.001Z</time></trkpt><trkpt lat="41.22494584823985" lon="9.434776278665057"><ele>4.0</ele><time>2026-05-01T10:19:29.001Z</time></trkpt><trkpt lat="41.22488100097751" lon="9.434709356519669"><ele>4.0</ele><time>2026-05-01T10:19:30.001Z</time></trkpt><trkpt lat="41.22480763407714" lon="9.434638645990896"><ele>3.9999999999999996</ele><time>2026-05-01T10:19:31.001Z</time></trkpt><trkpt lat="41.224739811525566" lon="9.434571902730724"><ele>4.0</ele><time>2026-05-01T10:19:32.001Z</time></trkpt><trkpt lat="41.224674555258666" lon="9.434505592026413"><ele>3.9999999999999996</ele><time>2026-05-01T10:19:33.001Z</time></trkpt><trkpt lat="41.22460665541677" lon="9.434439412896891"><ele>4.0</ele><time>2026-05-01T10:19:34.001Z</time></trkpt><trkpt lat="41.224535975797316" lon="9.434371655609041"><ele>4.0</ele><time>2026-05-01T10:19:35.001Z</time></trkpt><trkpt lat="41.224469217763755" lon="9.4343077106936"><ele>4.0</ele><time>2026-05-01T10:19:36.001Z</time></trkpt><trkpt lat="41.22440427731788" lon="9.434246543835798"><ele>3.9999999999999996</ele><time>2026-05-01T10:19:37.001Z</time></trkpt><trkpt lat="41.22434152215978" lon="9.434185250331424"><ele>4.0</ele><time>2026-05-01T10:19:38.001Z</time></trkpt><trkpt lat="41.22428169828902" lon="9.434130260657614"><ele>4.0</ele><time>2026-05-01T10:19:39.001Z</time></trkpt><trkpt lat="41.22422420197386" lon="9.434077439219049"><ele>4.0</ele><time>2026-05-01T10:19:40.001Z</time></trkpt><trkpt lat="41.22412905869143" lon="9.43398981770548"><ele>4.0</ele><time>2026-05-01T10:19:42.001Z</time></trkpt><trkpt lat="41.22407986816495" lon="9.433936405342177"><ele>4.0</ele><time>2026-05-01T10:19:43.001Z</time></trkpt><trkpt lat="41.22399506086152" lon="9.433831999953481"><ele>4.0</ele><time>2026-05-01T10:19:45.001Z</time></trkpt><trkpt lat="41.22391470748938" lon="9.433717342268947"><ele>3.833333333333333</ele><time>2026-05-01T10:19:47.001Z</time></trkpt><trkpt lat="41.22384295085926" lon="9.433607436519157"><ele>3.6666666666666665</ele><time>2026-05-01T10:19:49.001Z</time></trkpt><trkpt lat="41.223780613421106" lon="9.433525918929876"><ele>3.5</ele><time>2026-05-01T10:19:51.001Z</time></trkpt><trkpt lat="41.22373537748226" lon="9.433439525372444"><ele>3.333333333333333</ele><time>2026-05-01T10:20:26Z</time></trkpt><trkpt lat="41.22367003158142" lon="9.43338895089321"><ele>3.1666666666666665</ele><time>2026-05-01T10:20:28Z</time></trkpt><trkpt lat="41.22361261713886" lon="9.43335105162511"><ele>3.0</ele><time>2026-05-01T10:20:29Z</time></trkpt><trkpt lat="41.22349551039269" lon="9.433309198886668"><ele>3.0</ele><time>2026-05-01T10:20:31Z</time></trkpt><trkpt lat="41.22342610144701" lon="9.433296250316937"><ele>3.0</ele><time>2026-05-01T10:20:32Z</time></trkpt><trkpt lat="41.22330846001257" lon="9.433292065180252"><ele>3.0</ele><time>2026-05-01T10:20:34Z</time></trkpt><trkpt lat="41.22319114993027" lon="9.433297220795861"><ele>3.0</ele><time>2026-05-01T10:20:36Z</time></trkpt><trkpt lat="41.22312255514288" lon="9.433298325937326"><ele>3.0</ele><time>2026-05-01T10:20:37Z</time></trkpt><trkpt lat="41.22303945629793" lon="9.433290038058647"><ele>2.6</ele><time>2026-05-01T10:20:38Z</time></trkpt><trkpt lat="41.222944931193965" lon="9.433279193140937"><ele>2.1999999999999997</ele><time>2026-05-01T10:20:39Z</time></trkpt><trkpt lat="41.22285694724585" lon="9.4332760031331"><ele>1.8</ele><time>2026-05-01T10:20:40Z</time></trkpt><trkpt lat="41.22275556130562" lon="9.433278878328958"><ele>1.4</ele><time>2026-05-01T10:20:41Z</time></trkpt><trkpt lat="41.22265001898208" lon="9.433292838290718"><ele>1.0</ele><time>2026-05-01T10:20:42Z</time></trkpt><trkpt lat="41.22255432006718" lon="9.433290442665497"><ele>1.0</ele><time>2026-05-01T10:20:43Z</time></trkpt><trkpt lat="41.222457040910875" lon="9.433309124683337"><ele>1.0</ele><time>2026-05-01T10:20:44Z</time></trkpt><trkpt lat="41.222353899956296" lon="9.433331639769035"><ele>1.0</ele><time>2026-05-01T10:20:45Z</time></trkpt><trkpt lat="41.22226159885188" lon="9.433361402189387"><ele>1.0</ele><time>2026-05-01T10:20:46Z</time></trkpt><trkpt lat="41.22217631321233" lon="9.43337092967987"><ele>1.0</ele><time>2026-05-01T10:20:47Z</time></trkpt><trkpt lat="41.222094620589544" lon="9.433368770261247"><ele>1.2000000000000002</ele><time>2026-05-01T10:20:48Z</time></trkpt><trkpt lat="41.22202002950237" lon="9.433361789655562"><ele>1.4000000000000001</ele><time>2026-05-01T10:20:49Z</time></trkpt><trkpt lat="41.221956771765704" lon="9.433352059974593"><ele>1.6</ele><time>2026-05-01T10:20:50Z</time></trkpt><trkpt lat="41.221882601076096" lon="9.433339990316709"><ele>1.8</ele><time>2026-05-01T10:20:52Z</time></trkpt><trkpt lat="41.221812472626155" lon="9.43331722583268"><ele>2.0</ele><time>2026-05-01T10:20:57Z</time></trkpt><trkpt lat="41.221742203059875" lon="9.433549852428817"><ele>2.0</ele><time>2026-05-01T10:20:59Z</time></trkpt><trkpt lat="41.22171673520456" lon="9.433649622307671"><ele>2.0</ele><time>2026-05-01T10:21:00Z</time></trkpt><trkpt lat="41.22169955639036" lon="9.433779693438797"><ele>2.0</ele><time>2026-05-01T10:21:01Z</time></trkpt><trkpt lat="41.221698222567454" lon="9.433910558372988"><ele>2.0</ele><time>2026-05-01T10:21:02Z</time></trkpt><trkpt lat="41.221699409242895" lon="9.434039499862045"><ele>2.0</ele><time>2026-05-01T10:21:03Z</time></trkpt><trkpt lat="41.22170987696567" lon="9.434170950439087"><ele>2.2</ele><time>2026-05-01T10:21:04Z</time></trkpt><trkpt lat="41.22171999946834" lon="9.434301121599939"><ele>2.4000000000000004</ele><time>2026-05-01T10:21:05Z</time></trkpt><trkpt lat="41.22172765129509" lon="9.434428741569928"><ele>2.5999999999999996</ele><time>2026-05-01T10:21:06Z</time></trkpt><trkpt lat="41.221732115584096" lon="9.434556919570731"><ele>2.8</ele><time>2026-05-01T10:21:07Z</time></trkpt><trkpt lat="41.22173305661923" lon="9.43467143332682"><ele>3.0</ele><time>2026-05-01T10:21:08Z</time></trkpt><trkpt lat="41.22173554479142" lon="9.434784298984473"><ele>3.3333333333333335</ele><time>2026-05-01T10:21:09Z</time></trkpt><trkpt lat="41.221737063231686" lon="9.434891502338418"><ele>3.666666666666667</ele><time>2026-05-01T10:21:10Z</time></trkpt><trkpt lat="41.2217381074103" lon="9.43500800854079"><ele>4.0</ele><time>2026-05-01T10:21:11.001Z</time></trkpt><trkpt lat="41.221729454831305" lon="9.435126026671588"><ele>4.333333333333334</ele><time>2026-05-01T10:21:12.001Z</time></trkpt><trkpt lat="41.22170241536092" lon="9.435238402658273"><ele>4.666666666666667</ele><time>2026-05-01T10:21:13.001Z</time></trkpt><trkpt lat="41.22166669647026" lon="9.43533946789669"><ele>5.0</ele><time>2026-05-01T10:21:14.001Z</time></trkpt><trkpt lat="41.221618565932104" lon="9.435427676677017"><ele>5.0</ele><time>2026-05-01T10:21:15.001Z</time></trkpt><trkpt lat="41.22156380338312" lon="9.435501585846053"><ele>5.0</ele><time>2026-05-01T10:21:16.001Z</time></trkpt><trkpt lat="41.22149215652271" lon="9.435550195147504"><ele>5.0</ele><time>2026-05-01T10:21:17.001Z</time></trkpt><trkpt lat="41.221409390321796" lon="9.43558901172743"><ele>5.0</ele><time>2026-05-01T10:21:18.001Z</time></trkpt><trkpt lat="41.22131238396512" lon="9.435607925902712"><ele>5.0</ele><time>2026-05-01T10:21:19.001Z</time></trkpt><trkpt lat="41.221217362694674" lon="9.435622205586824"><ele>5.0</ele><time>2026-05-01T10:21:20.001Z</time></trkpt><trkpt lat="41.221133948361484" lon="9.435629010473292"><ele>5.0</ele><time>2026-05-01T10:21:21.001Z</time></trkpt><trkpt lat="41.2210533632235" lon="9.435637431525263"><ele>5.0</ele><time>2026-05-01T10:21:22.001Z</time></trkpt><trkpt lat="41.22097740980978" lon="9.435645399946504"><ele>5.0</ele><time>2026-05-01T10:21:23.001Z</time></trkpt><trkpt lat="41.22090912596371" lon="9.43565357058974"><ele>5.0</ele><time>2026-05-01T10:21:24.001Z</time></trkpt><trkpt lat="41.22077763944836" lon="9.435667538525447"><ele>5.0</ele><time>2026-05-01T10:21:26.001Z</time></trkpt><trkpt lat="41.22070225283554" lon="9.435676839983625"><ele>5.0</ele><time>2026-05-01T10:21:27.001Z</time></trkpt><trkpt lat="41.22062537568691" lon="9.435687950313074"><ele>5.666666666666667</ele><time>2026-05-01T10:21:28.001Z</time></trkpt><trkpt lat="41.22055168423848" lon="9.435700145177476"><ele>6.333333333333334</ele><time>2026-05-01T10:21:29.001Z</time></trkpt><trkpt lat="41.220477902954336" lon="9.435715483167634"><ele>7.0</ele><time>2026-05-01T10:21:30.001Z</time></trkpt><trkpt lat="41.22040897454825" lon="9.435731556639386"><ele>7.666666666666667</ele><time>2026-05-01T10:21:31.001Z</time></trkpt><trkpt lat="41.22034462927962" lon="9.435716865498538"><ele>8.333333333333334</ele><time>2026-05-01T10:21:32.001Z</time></trkpt><trkpt lat="41.22022321979995" lon="9.435731054689299"><ele>9.0</ele><time>2026-05-01T10:21:34.001Z</time></trkpt><trkpt lat="41.22015467211384" lon="9.435719868738031"><ele>9.0</ele><time>2026-05-01T10:21:35.001Z</time></trkpt><trkpt lat="41.2200502866486" lon="9.435675682545257"><ele>9.0</ele><time>2026-05-01T10:21:37.001Z</time></trkpt><trkpt lat="41.21996786819392" lon="9.435645011048964"><ele>9.0</ele><time>2026-05-01T10:21:39.001Z</time></trkpt><trkpt lat="41.219905836736324" lon="9.435668769722499"><ele>9.0</ele><time>2026-05-01T10:21:48.001Z</time></trkpt><trkpt lat="41.21985108215404" lon="9.435823607580348"><ele>9.0</ele><time>2026-05-01T10:21:51.001Z</time></trkpt><trkpt lat="41.21986353551987" lon="9.435911479076012"><ele>9.0</ele><time>2026-05-01T10:21:52.001Z</time></trkpt><trkpt lat="41.21986360608575" lon="9.436028059769326"><ele>9.0</ele><time>2026-05-01T10:21:53.001Z</time></trkpt><trkpt lat="41.21986251473313" lon="9.43616186870012"><ele>9.0</ele><time>2026-05-01T10:21:54.001Z</time></trkpt><trkpt lat="41.219862044756105" lon="9.436292810820726"><ele>9.0</ele><time>2026-05-01T10:21:55.001Z</time></trkpt><trkpt lat="41.21987242843582" lon="9.436451086875772"><ele>9.0</ele><time>2026-05-01T10:21:56.001Z</time></trkpt><trkpt lat="41.21987864122611" lon="9.436607525205876"><ele>8.8</ele><time>2026-05-01T10:21:57.001Z</time></trkpt><trkpt lat="41.219873199497776" lon="9.436754995376972"><ele>8.600000000000001</ele><time>2026-05-01T10:21:58.001Z</time></trkpt><trkpt lat="41.2198427557276" lon="9.436874326756747"><ele>8.4</ele><time>2026-05-01T10:21:59.001Z</time></trkpt><trkpt lat="41.21977628998619" lon="9.436966397351936"><ele>8.200000000000001</ele><time>2026-05-01T10:22:00.001Z</time></trkpt><trkpt lat="41.21967580736616" lon="9.437040670001306"><ele>8.0</ele><time>2026-05-01T10:22:01.001Z</time></trkpt><trkpt lat="41.2195518924576" lon="9.43711405589866"><ele>8.25</ele><time>2026-05-01T10:22:02.001Z</time></trkpt><trkpt lat="41.21942177755003" lon="9.437186754840443"><ele>8.5</ele><time>2026-05-01T10:22:03.001Z</time></trkpt><trkpt lat="41.21929313322649" lon="9.437273417891689"><ele>8.75</ele><time>2026-05-01T10:22:04.001Z</time></trkpt><trkpt lat="41.21916618305322" lon="9.437360470576186"><ele>9.0</ele><time>2026-05-01T10:22:05.001Z</time></trkpt><trkpt lat="41.219031016238766" lon="9.437446436106146"><ele>9.666666666666666</ele><time>2026-05-01T10:22:06.001Z</time></trkpt><trkpt lat="41.2188925227397" lon="9.43753394849381"><ele>10.333333333333332</ele><time>2026-05-01T10:22:07.001Z</time></trkpt><trkpt lat="41.21875890606236" lon="9.437618934209592"><ele>11.0</ele><time>2026-05-01T10:22:08.001Z</time></trkpt><trkpt lat="41.21862442289499" lon="9.43770357652467"><ele>11.0</ele><time>2026-05-01T10:22:09.001Z</time></trkpt><trkpt lat="41.21849036351499" lon="9.437788056408584"><ele>11.0</ele><time>2026-05-01T10:22:10.001Z</time></trkpt><trkpt lat="41.21836037627323" lon="9.43787079773373"><ele>11.0</ele><time>2026-05-01T10:22:11.001Z</time></trkpt><trkpt lat="41.21823692229716" lon="9.437950135708132"><ele>11.0</ele><time>2026-05-01T10:22:12.001Z</time></trkpt><trkpt lat="41.21812002008463" lon="9.438026837563237"><ele>10.600000000000001</ele><time>2026-05-01T10:22:13.001Z</time></trkpt><trkpt lat="41.21801850313891" lon="9.438096464510854"><ele>10.200000000000001</ele><time>2026-05-01T10:22:14.001Z</time></trkpt><trkpt lat="41.21791639612073" lon="9.43815193611745"><ele>9.8</ele><time>2026-05-01T10:22:15.001Z</time></trkpt><trkpt lat="41.21783263587743" lon="9.438233560261864"><ele>9.4</ele><time>2026-05-01T10:22:16.001Z</time></trkpt><trkpt lat="41.21776715831355" lon="9.438336991395207"><ele>9.0</ele><time>2026-05-01T10:22:17.001Z</time></trkpt><trkpt lat="41.21771465185525" lon="9.438453211056734"><ele>9.0</ele><time>2026-05-01T10:22:18.001Z</time></trkpt><trkpt lat="41.21768050541472" lon="9.43858435365532"><ele>9.0</ele><time>2026-05-01T10:22:19.001Z</time></trkpt><trkpt lat="41.21763320376306" lon="9.438705299262539"><ele>9.0</ele><time>2026-05-01T10:22:20.001Z</time></trkpt><trkpt lat="41.21758391340867" lon="9.4388222904047"><ele>9.0</ele><time>2026-05-01T10:22:21.001Z</time></trkpt><trkpt lat="41.217538721405525" lon="9.438931176275045"><ele>9.0</ele><time>2026-05-01T10:22:22.001Z</time></trkpt><trkpt lat="41.217487006415496" lon="9.439020670778495"><ele>8.0</ele><time>2026-05-01T10:22:23.001Z</time></trkpt><trkpt lat="41.21742589089723" lon="9.439092038891364"><ele>7.0</ele><time>2026-05-01T10:22:24.001Z</time></trkpt><trkpt lat="41.217354688744145" lon="9.439139969103717"><ele>6.0</ele><time>2026-05-01T10:22:25.001Z</time></trkpt><trkpt lat="41.217270112549855" lon="9.43916957785939"><ele>5.0</ele><time>2026-05-01T10:22:26.001Z</time></trkpt><trkpt lat="41.21717413447027" lon="9.439190558202233"><ele>4.0</ele><time>2026-05-01T10:22:27.001Z</time></trkpt><trkpt lat="41.21706826267252" lon="9.439213983097817"><ele>4.0</ele><time>2026-05-01T10:22:28.001Z</time></trkpt><trkpt lat="41.21696292792171" lon="9.439237045606294"><ele>4.0</ele><time>2026-05-01T10:22:29.001Z</time></trkpt><trkpt lat="41.216862595682606" lon="9.439257897074157"><ele>4.0</ele><time>2026-05-01T10:22:30.001Z</time></trkpt><trkpt lat="41.21676380328031" lon="9.43928176316769"><ele>4.0</ele><time>2026-05-01T10:22:31.001Z</time></trkpt><trkpt lat="41.21667820500208" lon="9.439307237036024"><ele>4.0</ele><time>2026-05-01T10:22:32.001Z</time></trkpt><trkpt lat="41.21661094947289" lon="9.439350840369556"><ele>3.9999999999999996</ele><time>2026-05-01T10:22:33.001Z</time></trkpt><trkpt lat="41.216540795344905" lon="9.439391279240802"><ele>4.0</ele><time>2026-05-01T10:22:34.001Z</time></trkpt><trkpt lat="41.2164974130528" lon="9.439491568777674"><ele>4.0</ele><time>2026-05-01T10:22:35.001Z</time></trkpt><trkpt lat="41.21647500910828" lon="9.439601479613142"><ele>4.0</ele><time>2026-05-01T10:22:36.001Z</time></trkpt><trkpt lat="41.21645588866693" lon="9.439713745659196"><ele>3.9999999999999996</ele><time>2026-05-01T10:22:37.001Z</time></trkpt><trkpt lat="41.216436935487316" lon="9.439836376284862"><ele>4.0</ele><time>2026-05-01T10:22:38.001Z</time></trkpt><trkpt lat="41.21641667345907" lon="9.439976126885297"><ele>3.2</ele><time>2026-05-01T10:22:39.001Z</time></trkpt><trkpt lat="41.21639881463116" lon="9.440103539628218"><ele>2.4000000000000004</ele><time>2026-05-01T10:22:40.001Z</time></trkpt><trkpt lat="41.216379209816964" lon="9.440232261040546"><ele>1.6</ele><time>2026-05-01T10:22:41.001Z</time></trkpt><trkpt lat="41.21635800507689" lon="9.440366224484022"><ele>0.8</ele><time>2026-05-01T10:22:42.001Z</time></trkpt><trkpt lat="41.21633720110034" lon="9.440497655742165"><ele>0.0</ele><time>2026-05-01T10:22:43.001Z</time></trkpt><trkpt lat="41.216316754376926" lon="9.4406268305203"><ele>0.0</ele><time>2026-05-01T10:22:44.001Z</time></trkpt><trkpt lat="41.21631403545404" lon="9.440747905322201"><ele>0.0</ele><time>2026-05-01T10:22:45.001Z</time></trkpt><trkpt lat="41.21628918200379" lon="9.440867080445116"><ele>0.0</ele><time>2026-05-01T10:22:46.001Z</time></trkpt><trkpt lat="41.21627222684861" lon="9.440985919076972"><ele>0.0</ele><time>2026-05-01T10:22:47.001Z</time></trkpt><trkpt lat="41.21625482973976" lon="9.44110503997556"><ele>0.0</ele><time>2026-05-01T10:22:48.001Z</time></trkpt><trkpt lat="41.216236020222084" lon="9.441223028915191"><ele>0.0</ele><time>2026-05-01T10:22:49.001Z</time></trkpt><trkpt lat="41.216203155425404" lon="9.441349565992494"><ele>0.0</ele><time>2026-05-01T10:22:50.001Z</time></trkpt><trkpt lat="41.21619955719238" lon="9.441475277802056"><ele>0.0</ele><time>2026-05-01T10:22:51.001Z</time></trkpt><trkpt lat="41.216178561461305" lon="9.441604581843238"><ele>0.0</ele><time>2026-05-01T10:22:52.001Z</time></trkpt><trkpt lat="41.21615649699989" lon="9.441734816201606"><ele>0.0</ele><time>2026-05-01T10:22:53.001Z</time></trkpt><trkpt lat="41.21613568509521" lon="9.441870280695076"><ele>0.0</ele><time>2026-05-01T10:22:54.001Z</time></trkpt><trkpt lat="41.21611368369858" lon="9.442005087895524"><ele>0.0</ele><time>2026-05-01T10:22:55.001Z</time></trkpt><trkpt lat="41.21609258951929" lon="9.44213034524255"><ele>0.0</ele><time>2026-05-01T10:22:56.001Z</time></trkpt><trkpt lat="41.21607413219598" lon="9.44223834896674"><ele>0.0</ele><time>2026-05-01T10:22:57.001Z</time></trkpt><trkpt lat="41.21606052057694" lon="9.442336451081468"><ele>0.0</ele><time>2026-05-01T10:22:58.001Z</time></trkpt><trkpt lat="41.216049082027425" lon="9.442434414554116"><ele>0.0</ele><time>2026-05-01T10:22:59.001Z</time></trkpt><trkpt lat="41.21602029111575" lon="9.442544910311618"><ele>0.0</ele><time>2026-05-01T10:23:00.001Z</time></trkpt><trkpt lat="41.216016041591935" lon="9.442676230947741"><ele>0.0</ele><time>2026-05-01T10:23:01.001Z</time></trkpt><trkpt lat="41.21599340829116" lon="9.442806286498723"><ele>0.0</ele><time>2026-05-01T10:23:02.001Z</time></trkpt><trkpt lat="41.21597309220154" lon="9.442948634367996"><ele>0.0</ele><time>2026-05-01T10:23:03.001Z</time></trkpt><trkpt lat="41.21594679225714" lon="9.443094845583373"><ele>0.0</ele><time>2026-05-01T10:23:04.001Z</time></trkpt><trkpt lat="41.21592427107162" lon="9.443246264277539"><ele>0.0</ele><time>2026-05-01T10:23:05.001Z</time></trkpt><trkpt lat="41.215902575431045" lon="9.443397275582514"><ele>0.0</ele><time>2026-05-01T10:23:06.001Z</time></trkpt><trkpt lat="41.215877675076534" lon="9.44354409554241"><ele>0.0</ele><time>2026-05-01T10:23:07.001Z</time></trkpt><trkpt lat="41.21585664898762" lon="9.443694015090678"><ele>0.0</ele><time>2026-05-01T10:23:08.001Z</time></trkpt><trkpt lat="41.21582864770438" lon="9.443853740905219"><ele>0.0</ele><time>2026-05-01T10:23:09.001Z</time></trkpt><trkpt lat="41.2158055673607" lon="9.444013085193244"><ele>0.0</ele><time>2026-05-01T10:23:10.001Z</time></trkpt><trkpt lat="41.21578228637192" lon="9.444170003842107"><ele>0.0</ele><time>2026-05-01T10:23:11.001Z</time></trkpt><trkpt lat="41.21575963578316" lon="9.44431871282208"><ele>0.0</ele><time>2026-05-01T10:23:12.001Z</time></trkpt><trkpt lat="41.21573633603179" lon="9.444462896388268"><ele>0.0</ele><time>2026-05-01T10:23:13.001Z</time></trkpt><trkpt lat="41.21570938219265" lon="9.444608579210541"><ele>0.0</ele><time>2026-05-01T10:23:14.001Z</time></trkpt><trkpt lat="41.21568689065094" lon="9.444756414682036"><ele>0.0</ele><time>2026-05-01T10:23:15.001Z</time></trkpt><trkpt lat="41.215664430241866" lon="9.444901278734688"><ele>0.0</ele><time>2026-05-01T10:23:16.001Z</time></trkpt><trkpt lat="41.21564247084471" lon="9.445049340402807"><ele>0.0</ele><time>2026-05-01T10:23:17.001Z</time></trkpt><trkpt lat="41.21561869598991" lon="9.44520073976829"><ele>0.0</ele><time>2026-05-01T10:23:18.001Z</time></trkpt><trkpt lat="41.21559319544112" lon="9.44535042794473"><ele>0.0</ele><time>2026-05-01T10:23:19.001Z</time></trkpt><trkpt lat="41.215572039296646" lon="9.445496653356562"><ele>0.0</ele><time>2026-05-01T10:23:20.001Z</time></trkpt><trkpt lat="41.215548867150254" lon="9.44563657242847"><ele>0.0</ele><time>2026-05-01T10:23:21.001Z</time></trkpt><trkpt lat="41.21552696329913" lon="9.445773229750138"><ele>0.0</ele><time>2026-05-01T10:23:22.001Z</time></trkpt><trkpt lat="41.21550717059725" lon="9.445904076962531"><ele>0.0</ele><time>2026-05-01T10:23:23.001Z</time></trkpt><trkpt lat="41.21548678580743" lon="9.446038851769657"><ele>0.0</ele><time>2026-05-01T10:23:24.001Z</time></trkpt><trkpt lat="41.21546544702376" lon="9.44616999385391"><ele>0.0</ele><time>2026-05-01T10:23:25.001Z</time></trkpt><trkpt lat="41.21544542220892" lon="9.446301592710174"><ele>0.0</ele><time>2026-05-01T10:23:26.001Z</time></trkpt><trkpt lat="41.215427296777584" lon="9.446432110949534"><ele>0.0</ele><time>2026-05-01T10:23:27.001Z</time></trkpt><trkpt lat="41.21540512266602" lon="9.446559296139208"><ele>0.0</ele><time>2026-05-01T10:23:28.001Z</time></trkpt><trkpt lat="41.21538469920291" lon="9.446690374218065"><ele>0.0</ele><time>2026-05-01T10:23:29.001Z</time></trkpt><trkpt lat="41.215363410559846" lon="9.446820293100759"><ele>0.0</ele><time>2026-05-01T10:23:30.001Z</time></trkpt><trkpt lat="41.215343091796534" lon="9.446951794658554"><ele>0.0</ele><time>2026-05-01T10:23:31.001Z</time></trkpt><trkpt lat="41.21532342492311" lon="9.44708482561578"><ele>0.0</ele><time>2026-05-01T10:23:32.001Z</time></trkpt><trkpt lat="41.215299010161715" lon="9.447219742734138"><ele>0.0</ele><time>2026-05-01T10:23:33.001Z</time></trkpt><trkpt lat="41.21527884934892" lon="9.447353046585796"><ele>0.0</ele><time>2026-05-01T10:23:34.001Z</time></trkpt><trkpt lat="41.21525859009223" lon="9.447485032556623"><ele>0.0</ele><time>2026-05-01T10:23:35.001Z</time></trkpt><trkpt lat="41.21523867568275" lon="9.44761343522549"><ele>0.25</ele><time>2026-05-01T10:23:36.001Z</time></trkpt><trkpt lat="41.215218679354805" lon="9.4477521704468"><ele>0.5</ele><time>2026-05-01T10:23:37.001Z</time></trkpt><trkpt lat="41.2151930631533" lon="9.447895418490964"><ele>0.75</ele><time>2026-05-01T10:23:38.001Z</time></trkpt><trkpt lat="41.2151700263545" lon="9.448053094509397"><ele>1.0</ele><time>2026-05-01T10:23:39.001Z</time></trkpt><trkpt lat="41.21514451278865" lon="9.448219210621989"><ele>1.5</ele><time>2026-05-01T10:23:40.001Z</time></trkpt><trkpt lat="41.215121489071244" lon="9.448372634392646"><ele>2.0</ele><time>2026-05-01T10:23:41.001Z</time></trkpt><trkpt lat="41.21509432312402" lon="9.448538478442822"><ele>2.5</ele><time>2026-05-01T10:23:42.001Z</time></trkpt><trkpt lat="41.21506980269267" lon="9.448691878546297"><ele>3.0</ele><time>2026-05-01T10:23:43.001Z</time></trkpt><trkpt lat="41.21504863682429" lon="9.448836788572784"><ele>3.0</ele><time>2026-05-01T10:23:44.001Z</time></trkpt><trkpt lat="41.21502892617113" lon="9.448972043800678"><ele>3.0</ele><time>2026-05-01T10:23:45.001Z</time></trkpt><trkpt lat="41.215008010167914" lon="9.449103697021307"><ele>3.0</ele><time>2026-05-01T10:23:46.001Z</time></trkpt><trkpt lat="41.21498648088553" lon="9.44923619585576"><ele>3.0</ele><time>2026-05-01T10:23:47.001Z</time></trkpt><trkpt lat="41.21496415217568" lon="9.44936104992926"><ele>3.0</ele><time>2026-05-01T10:23:48.001Z</time></trkpt><trkpt lat="41.214943901141915" lon="9.449489050371895"><ele>3.0</ele><time>2026-05-01T10:23:49.001Z</time></trkpt><trkpt lat="41.214923757820046" lon="9.449611740648727"><ele>3.0</ele><time>2026-05-01T10:23:50.001Z</time></trkpt><trkpt lat="41.214904309080026" lon="9.449741722966241"><ele>3.0</ele><time>2026-05-01T10:23:51.001Z</time></trkpt><trkpt lat="41.21488458077006" lon="9.449870184310603"><ele>3.0</ele><time>2026-05-01T10:23:52.001Z</time></trkpt><trkpt lat="41.214865172210374" lon="9.449983104546888"><ele>3.0</ele><time>2026-05-01T10:23:53.001Z</time></trkpt><trkpt lat="41.214849099191696" lon="9.450089596575207"><ele>3.1666666666666665</ele><time>2026-05-01T10:23:54.001Z</time></trkpt><trkpt lat="41.21483285369725" lon="9.450197869146223"><ele>3.333333333333333</ele><time>2026-05-01T10:23:55.001Z</time></trkpt><trkpt lat="41.21481914738098" lon="9.450310349108513"><ele>3.5</ele><time>2026-05-01T10:23:56.001Z</time></trkpt><trkpt lat="41.21478923469806" lon="9.450419212948098"><ele>3.6666666666666665</ele><time>2026-05-01T10:23:57.001Z</time></trkpt><trkpt lat="41.21477274966345" lon="9.450531506328959"><ele>3.833333333333333</ele><time>2026-05-01T10:23:58.001Z</time></trkpt><trkpt lat="41.21475634435365" lon="9.450640851626726"><ele>4.0</ele><time>2026-05-01T10:23:59.001Z</time></trkpt><trkpt lat="41.21473974940483" lon="9.450751460748544"><ele>4.333333333333333</ele><time>2026-05-01T10:24:00.001Z</time></trkpt><trkpt lat="41.21473706769933" lon="9.450860103191765"><ele>4.666666666666666</ele><time>2026-05-01T10:24:01.001Z</time></trkpt><trkpt lat="41.214719287963675" lon="9.450949782846761"><ele>5.0</ele><time>2026-05-01T10:24:02.001Z</time></trkpt><trkpt lat="41.2147034118854" lon="9.451048967001023"><ele>5.333333333333333</ele><time>2026-05-01T10:24:03.001Z</time></trkpt><trkpt lat="41.2146909152928" lon="9.45114531663899"><ele>5.666666666666667</ele><time>2026-05-01T10:24:04.001Z</time></trkpt><trkpt lat="41.21467216481548" lon="9.45127910681998"><ele>6.0</ele><time>2026-05-01T10:24:05.001Z</time></trkpt><trkpt lat="41.21463171214919" lon="9.451432240601958"><ele>6.5</ele><time>2026-05-01T10:24:06.001Z</time></trkpt><trkpt lat="41.21461944454827" lon="9.451614167622393"><ele>7.0</ele><time>2026-05-01T10:24:07.001Z</time></trkpt><trkpt lat="41.214590855972205" lon="9.45178900838845"><ele>7.5</ele><time>2026-05-01T10:24:08.001Z</time></trkpt><trkpt lat="41.21455825592389" lon="9.451990235213684"><ele>8.0</ele><time>2026-05-01T10:24:09.001Z</time></trkpt><trkpt lat="41.21451398485981" lon="9.452190899754218"><ele>8.75</ele><time>2026-05-01T10:24:10.001Z</time></trkpt><trkpt lat="41.21448594356046" lon="9.45236472236193"><ele>9.5</ele><time>2026-05-01T10:24:11.001Z</time></trkpt><trkpt lat="41.21445989905424" lon="9.452526167441663"><ele>10.25</ele><time>2026-05-01T10:24:12.001Z</time></trkpt><trkpt lat="41.21443490893809" lon="9.452684572703989"><ele>11.0</ele><time>2026-05-01T10:24:13.001Z</time></trkpt><trkpt lat="41.21441194334812" lon="9.452838989098568"><ele>11.0</ele><time>2026-05-01T10:24:14.001Z</time></trkpt><trkpt lat="41.214391376168834" lon="9.452977278865257"><ele>11.0</ele><time>2026-05-01T10:24:15.001Z</time></trkpt><trkpt lat="41.21438135264505" lon="9.453114638195073"><ele>11.0</ele><time>2026-05-01T10:24:16.001Z</time></trkpt><trkpt lat="41.214358548008896" lon="9.453241344699489"><ele>11.0</ele><time>2026-05-01T10:24:17.001Z</time></trkpt><trkpt lat="41.214324509322374" lon="9.453374406645903"><ele>11.0</ele><time>2026-05-01T10:24:18.001Z</time></trkpt><trkpt lat="41.2142816368659" lon="9.453506354639911"><ele>11.0</ele><time>2026-05-01T10:24:19.001Z</time></trkpt><trkpt lat="41.214231623188155" lon="9.45363268895443"><ele>11.0</ele><time>2026-05-01T10:24:20.001Z</time></trkpt><trkpt lat="41.21418003550709" lon="9.453751910571132"><ele>11.0</ele><time>2026-05-01T10:24:21.001Z</time></trkpt><trkpt lat="41.21412331969406" lon="9.453864533831"><ele>11.0</ele><time>2026-05-01T10:24:22.001Z</time></trkpt><trkpt lat="41.21406050365818" lon="9.45396491454945"><ele>11.0</ele><time>2026-05-01T10:24:23.001Z</time></trkpt><trkpt lat="41.213986789895955" lon="9.454056735211687"><ele>12.0</ele><time>2026-05-01T10:24:24.001Z</time></trkpt><trkpt lat="41.2139006086466" lon="9.454142245224247"><ele>13.0</ele><time>2026-05-01T10:24:25.002Z</time></trkpt><trkpt lat="41.21380840009654" lon="9.454233705855984"><ele>14.0</ele><time>2026-05-01T10:24:26.002Z</time></trkpt><trkpt lat="41.21370522803829" lon="9.454313147782319"><ele>15.0</ele><time>2026-05-01T10:24:27.002Z</time></trkpt><trkpt lat="41.21360038745204" lon="9.454383665315712"><ele>15.0</ele><time>2026-05-01T10:24:28.002Z</time></trkpt><trkpt lat="41.213489792552" lon="9.454446126528625"><ele>15.0</ele><time>2026-05-01T10:24:29.002Z</time></trkpt><trkpt lat="41.21337879785592" lon="9.454512735364444"><ele>15.0</ele><time>2026-05-01T10:24:30.002Z</time></trkpt><trkpt lat="41.213262910396715" lon="9.45456959539267"><ele>15.0</ele><time>2026-05-01T10:24:31.002Z</time></trkpt><trkpt lat="41.21312751022751" lon="9.454628274284003"><ele>14.5</ele><time>2026-05-01T10:24:32.002Z</time></trkpt><trkpt lat="41.21299984585733" lon="9.454687395195586"><ele>14.0</ele><time>2026-05-01T10:24:33.002Z</time></trkpt><trkpt lat="41.212865832786235" lon="9.454751687821354"><ele>13.5</ele><time>2026-05-01T10:24:34.002Z</time></trkpt><trkpt lat="41.21273324765842" lon="9.454814888485837"><ele>13.0</ele><time>2026-05-01T10:24:35.002Z</time></trkpt><trkpt lat="41.21260708634903" lon="9.454875978115137"><ele>13.0</ele><time>2026-05-01T10:24:36.002Z</time></trkpt><trkpt lat="41.21248252334604" lon="9.454935306174695"><ele>13.0</ele><time>2026-05-01T10:24:37.001Z</time></trkpt><trkpt lat="41.2123653809522" lon="9.455000410343398"><ele>13.0</ele><time>2026-05-01T10:24:38.001Z</time></trkpt><trkpt lat="41.212258681226366" lon="9.455056913095847"><ele>13.0</ele><time>2026-05-01T10:24:39.001Z</time></trkpt><trkpt lat="41.21215867927787" lon="9.45510865810563"><ele>13.4</ele><time>2026-05-01T10:24:40.001Z</time></trkpt><trkpt lat="41.2120637565809" lon="9.455162106281465"><ele>13.8</ele><time>2026-05-01T10:24:41.001Z</time></trkpt><trkpt lat="41.21196540492609" lon="9.455187543248526"><ele>14.2</ele><time>2026-05-01T10:24:42.001Z</time></trkpt><trkpt lat="41.211881855105645" lon="9.455248781291806"><ele>14.6</ele><time>2026-05-01T10:24:43.001Z</time></trkpt><trkpt lat="41.211794548706635" lon="9.455285574339465"><ele>15.0</ele><time>2026-05-01T10:24:44.001Z</time></trkpt><trkpt lat="41.21171088846521" lon="9.45532505850851"><ele>15.0</ele><time>2026-05-01T10:24:45.001Z</time></trkpt><trkpt lat="41.21163510148086" lon="9.455360427722239"><ele>15.0</ele><time>2026-05-01T10:24:46.001Z</time></trkpt><trkpt lat="41.211558547135105" lon="9.455397680298363"><ele>15.0</ele><time>2026-05-01T10:24:47.001Z</time></trkpt><trkpt lat="41.21147945514821" lon="9.455434087130003"><ele>15.0</ele><time>2026-05-01T10:24:48.001Z</time></trkpt><trkpt lat="41.21139882099711" lon="9.455470927283784"><ele>15.0</ele><time>2026-05-01T10:24:49.001Z</time></trkpt><trkpt lat="41.21132389466009" lon="9.455508957299148"><ele>15.0</ele><time>2026-05-01T10:24:50.001Z</time></trkpt><trkpt lat="41.21124934560699" lon="9.455546681528546"><ele>15.833333333333334</ele><time>2026-05-01T10:24:51.001Z</time></trkpt><trkpt lat="41.211178712550016" lon="9.455580373828676"><ele>16.666666666666668</ele><time>2026-05-01T10:24:52.001Z</time></trkpt><trkpt lat="41.211110100598006" lon="9.455612205610194"><ele>17.5</ele><time>2026-05-01T10:24:53.001Z</time></trkpt><trkpt lat="41.21104240022455" lon="9.455644768307423"><ele>18.333333333333336</ele><time>2026-05-01T10:24:54.001Z</time></trkpt><trkpt lat="41.21097062639937" lon="9.455684212841712"><ele>19.166666666666668</ele><time>2026-05-01T10:24:55.001Z</time></trkpt><trkpt lat="41.21089948527032" lon="9.455721412069611"><ele>20.0</ele><time>2026-05-01T10:24:56.001Z</time></trkpt><trkpt lat="41.21082231313344" lon="9.455755045077549"><ele>20.0</ele><time>2026-05-01T10:24:57.001Z</time></trkpt><trkpt lat="41.210742701428785" lon="9.455785609608373"><ele>20.0</ele><time>2026-05-01T10:24:58.001Z</time></trkpt><trkpt lat="41.210673651313904" lon="9.455850221461807"><ele>20.0</ele><time>2026-05-01T10:24:59.001Z</time></trkpt><trkpt lat="41.21061499272241" lon="9.455940145582728"><ele>20.0</ele><time>2026-05-01T10:25:00.001Z</time></trkpt><trkpt lat="41.21057508439222" lon="9.456057747743188"><ele>20.0</ele><time>2026-05-01T10:25:01.001Z</time></trkpt><trkpt lat="41.21055090428455" lon="9.456187716792202"><ele>21.0</ele><time>2026-05-01T10:25:02.001Z</time></trkpt><trkpt lat="41.21052809065609" lon="9.456344057998196"><ele>22.0</ele><time>2026-05-01T10:25:03.001Z</time></trkpt><trkpt lat="41.21050935665505" lon="9.456487812362141"><ele>23.0</ele><time>2026-05-01T10:25:04.001Z</time></trkpt><trkpt lat="41.21049062235516" lon="9.456639534076194"><ele>24.0</ele><time>2026-05-01T10:25:05.001Z</time></trkpt><trkpt lat="41.21047122116147" lon="9.45679966842214"><ele>24.0</ele><time>2026-05-01T10:25:06.001Z</time></trkpt><trkpt lat="41.21044999794531" lon="9.456974841546877"><ele>24.0</ele><time>2026-05-01T10:25:07.001Z</time></trkpt><trkpt lat="41.21044565297446" lon="9.457136266310261"><ele>24.0</ele><time>2026-05-01T10:25:08.001Z</time></trkpt><trkpt lat="41.210422487182655" lon="9.457292782311388"><ele>24.0</ele><time>2026-05-01T10:25:09.001Z</time></trkpt><trkpt lat="41.210399171792915" lon="9.457454947572906"><ele>23.5</ele><time>2026-05-01T10:25:10.001Z</time></trkpt><trkpt lat="41.21037188503562" lon="9.457621993964286"><ele>23.0</ele><time>2026-05-01T10:25:11.001Z</time></trkpt><trkpt lat="41.21035133738359" lon="9.457788747078764"><ele>22.5</ele><time>2026-05-01T10:25:12.001Z</time></trkpt><trkpt lat="41.210333621716245" lon="9.457954268674948"><ele>22.0</ele><time>2026-05-01T10:25:13.001Z</time></trkpt><trkpt lat="41.21031245246407" lon="9.458115529875904"><ele>22.0</ele><time>2026-05-01T10:25:14.001Z</time></trkpt><trkpt lat="41.21029064043332" lon="9.458277346031212"><ele>22.0</ele><time>2026-05-01T10:25:15.001Z</time></trkpt><trkpt lat="41.21027653657335" lon="9.458439434678233"><ele>22.0</ele><time>2026-05-01T10:25:16.001Z</time></trkpt><trkpt lat="41.21023722324714" lon="9.458618376757407"><ele>22.0</ele><time>2026-05-01T10:25:17.001Z</time></trkpt><trkpt lat="41.21022596481672" lon="9.458813301234828"><ele>22.0</ele><time>2026-05-01T10:25:18.001Z</time></trkpt><trkpt lat="41.21019796255555" lon="9.459004686217323"><ele>22.0</ele><time>2026-05-01T10:25:19.001Z</time></trkpt><trkpt lat="41.21017245093332" lon="9.459208163958353"><ele>22.0</ele><time>2026-05-01T10:25:20.001Z</time></trkpt><trkpt lat="41.21014386074635" lon="9.459408405547626"><ele>22.0</ele><time>2026-05-01T10:25:21.001Z</time></trkpt><trkpt lat="41.210121419436895" lon="9.459604325326653"><ele>22.0</ele><time>2026-05-01T10:25:22.001Z</time></trkpt><trkpt lat="41.21009951154593" lon="9.459783711387468"><ele>22.0</ele><time>2026-05-01T10:25:23.001Z</time></trkpt><trkpt lat="41.210075211890306" lon="9.459957804470971"><ele>22.0</ele><time>2026-05-01T10:25:24.001Z</time></trkpt><trkpt lat="41.21005615102578" lon="9.460132268043075"><ele>23.0</ele><time>2026-05-01T10:25:25.001Z</time></trkpt><trkpt lat="41.21003292187141" lon="9.460302574494468"><ele>24.0</ele><time>2026-05-01T10:25:26.001Z</time></trkpt><trkpt lat="41.2100108928106" lon="9.460471576840153"><ele>25.0</ele><time>2026-05-01T10:25:27.001Z</time></trkpt><trkpt lat="41.20999113761472" lon="9.460636074887868"><ele>26.0</ele><time>2026-05-01T10:25:28.001Z</time></trkpt><trkpt lat="41.209970105991786" lon="9.460789741151883"><ele>26.6</ele><time>2026-05-01T10:25:29.001Z</time></trkpt><trkpt lat="41.20994918174853" lon="9.460938682680052"><ele>27.200000000000003</ele><time>2026-05-01T10:25:30.001Z</time></trkpt><trkpt lat="41.209929331812404" lon="9.461086575327657"><ele>27.799999999999997</ele><time>2026-05-01T10:25:31.001Z</time></trkpt><trkpt lat="41.20990934185669" lon="9.461220574968621"><ele>28.4</ele><time>2026-05-01T10:25:32.001Z</time></trkpt><trkpt lat="41.20989393492835" lon="9.461358904561907"><ele>29.0</ele><time>2026-05-01T10:25:33.001Z</time></trkpt><trkpt lat="41.209880270446554" lon="9.461485847338867"><ele>29.666666666666664</ele><time>2026-05-01T10:25:34.001Z</time></trkpt><trkpt lat="41.209862854670384" lon="9.461611576665323"><ele>30.333333333333332</ele><time>2026-05-01T10:25:35.001Z</time></trkpt><trkpt lat="41.20984982204437" lon="9.461726403171385"><ele>31.0</ele><time>2026-05-01T10:25:36.001Z</time></trkpt><trkpt lat="41.209836635279586" lon="9.4618398733688"><ele>31.666666666666664</ele><time>2026-05-01T10:25:37.001Z</time></trkpt><trkpt lat="41.20982040526655" lon="9.461936223233025"><ele>32.333333333333336</ele><time>2026-05-01T10:25:38.001Z</time></trkpt><trkpt lat="41.20977854695813" lon="9.4620641906066"><ele>33.0</ele><time>2026-05-01T10:25:40.001Z</time></trkpt><trkpt lat="41.20965203013393" lon="9.462098666350869"><ele>33.285714285714285</ele><time>2026-05-01T10:25:42.001Z</time></trkpt><trkpt lat="41.209585474712306" lon="9.46208335176417"><ele>33.57142857142857</ele><time>2026-05-01T10:25:43.001Z</time></trkpt><trkpt lat="41.20952219310186" lon="9.46205861416035"><ele>33.85714285714286</ele><time>2026-05-01T10:25:44.001Z</time></trkpt><trkpt lat="41.209466667258226" lon="9.462009698363765"><ele>34.14285714285714</ele><time>2026-05-01T10:25:45.001Z</time></trkpt><trkpt lat="41.209408620137715" lon="9.461957677053352"><ele>34.42857142857143</ele><time>2026-05-01T10:25:46.001Z</time></trkpt><trkpt lat="41.20935403259768" lon="9.461905055542099"><ele>34.714285714285715</ele><time>2026-05-01T10:25:47.001Z</time></trkpt><trkpt lat="41.20929383085609" lon="9.46184865792616"><ele>35.0</ele><time>2026-05-01T10:25:48.001Z</time></trkpt><trkpt lat="41.20922297261823" lon="9.461795139905123"><ele>35.0</ele><time>2026-05-01T10:25:49.001Z</time></trkpt><trkpt lat="41.20914326019029" lon="9.461740133067106"><ele>35.0</ele><time>2026-05-01T10:25:50.001Z</time></trkpt><trkpt lat="41.209065178235235" lon="9.461685117172262"><ele>35.0</ele><time>2026-05-01T10:25:51.001Z</time></trkpt><trkpt lat="41.208998289581395" lon="9.46163550074178"><ele>35.0</ele><time>2026-05-01T10:25:52.001Z</time></trkpt><trkpt lat="41.20894234807928" lon="9.461583978432143"><ele>35.0</ele><time>2026-05-01T10:25:53.001Z</time></trkpt><trkpt lat="41.20887896380331" lon="9.461529759515166"><ele>35.0</ele><time>2026-05-01T10:25:54.001Z</time></trkpt><trkpt lat="41.20882050997023" lon="9.46147879680773"><ele>34.8</ele><time>2026-05-01T10:25:55.001Z</time></trkpt><trkpt lat="41.208765370455" lon="9.461432022788957"><ele>34.6</ele><time>2026-05-01T10:25:56.001Z</time></trkpt><trkpt lat="41.20867183752876" lon="9.461357316476352"><ele>34.4</ele><time>2026-05-01T10:25:58.001Z</time></trkpt><trkpt lat="41.20858339423123" lon="9.461289227104022"><ele>34.2</ele><time>2026-05-01T10:26:00.001Z</time></trkpt><trkpt lat="41.20849639717557" lon="9.461211749046067"><ele>34.0</ele><time>2026-05-01T10:26:02.001Z</time></trkpt><trkpt lat="41.2084002493362" lon="9.461126626508376"><ele>34.0</ele><time>2026-05-01T10:26:04.001Z</time></trkpt><trkpt lat="41.20833741322036" lon="9.46107874743547"><ele>34.0</ele><time>2026-05-01T10:26:05.001Z</time></trkpt><trkpt lat="41.2082745432699" lon="9.461034019966858"><ele>34.0</ele><time>2026-05-01T10:26:06.001Z</time></trkpt><trkpt lat="41.20821997539204" lon="9.460988545535661"><ele>34.0</ele><time>2026-05-01T10:26:07.001Z</time></trkpt><trkpt lat="41.20816967457025" lon="9.460937897180209"><ele>34.0</ele><time>2026-05-01T10:26:08.001Z</time></trkpt><trkpt lat="41.208075791890586" lon="9.460850615507242"><ele>34.0</ele><time>2026-05-01T10:26:10.001Z</time></trkpt><trkpt lat="41.208019400734955" lon="9.46080659518406"><ele>34.8</ele><time>2026-05-01T10:26:11.001Z</time></trkpt><trkpt lat="41.20795441479953" lon="9.460771372620952"><ele>35.599999999999994</ele><time>2026-05-01T10:26:12.001Z</time></trkpt><trkpt lat="41.207850554711534" lon="9.460683180248624"><ele>36.4</ele><time>2026-05-01T10:26:14.001Z</time></trkpt><trkpt lat="41.20775626120916" lon="9.46059999975044"><ele>37.199999999999996</ele><time>2026-05-01T10:26:16.001Z</time></trkpt><trkpt lat="41.20767269035579" lon="9.460524152286943"><ele>38.0</ele><time>2026-05-01T10:26:18.001Z</time></trkpt><trkpt lat="41.20759506244539" lon="9.460460420154735"><ele>37.199999999999996</ele><time>2026-05-01T10:26:20.001Z</time></trkpt><trkpt lat="41.20752257682352" lon="9.460405926281615"><ele>36.4</ele><time>2026-05-01T10:26:22.001Z</time></trkpt><trkpt lat="41.20744517007878" lon="9.460352643980382"><ele>35.599999999999994</ele><time>2026-05-01T10:26:24.001Z</time></trkpt><trkpt lat="41.207360007440606" lon="9.460307860427429"><ele>34.8</ele><time>2026-05-01T10:26:26.001Z</time></trkpt><trkpt lat="41.20724009852518" lon="9.460278008554141"><ele>34.0</ele><time>2026-05-01T10:26:28.001Z</time></trkpt><trkpt lat="41.20717383432821" lon="9.460244742644665"><ele>33.5</ele><time>2026-05-01T10:26:29.001Z</time></trkpt><trkpt lat="41.20711104184208" lon="9.460232558097058"><ele>33.0</ele><time>2026-05-01T10:26:30.001Z</time></trkpt><trkpt lat="41.207037346400526" lon="9.46021831470102"><ele>32.5</ele><time>2026-05-01T10:26:31.001Z</time></trkpt><trkpt lat="41.20694297872715" lon="9.46020125860263"><ele>32.0</ele><time>2026-05-01T10:26:32.001Z</time></trkpt><trkpt lat="41.20685390538068" lon="9.46019083630804"><ele>31.500000000000004</ele><time>2026-05-01T10:26:33.001Z</time></trkpt><trkpt lat="41.206762219902316" lon="9.460181543431585"><ele>31.0</ele><time>2026-05-01T10:26:34.001Z</time></trkpt><trkpt lat="41.20667305650604" lon="9.460177535500428"><ele>31.0</ele><time>2026-05-01T10:26:35.002Z</time></trkpt><trkpt lat="41.20657529972539" lon="9.460177535496985"><ele>31.0</ele><time>2026-05-01T10:26:36.002Z</time></trkpt><trkpt lat="41.20645982267464" lon="9.460182846238979"><ele>31.0</ele><time>2026-05-01T10:26:37.002Z</time></trkpt><trkpt lat="41.2063431927314" lon="9.460199444689207"><ele>31.0</ele><time>2026-05-01T10:26:38.002Z</time></trkpt><trkpt lat="41.20622293914785" lon="9.460218323327066"><ele>30.0</ele><time>2026-05-01T10:26:39.002Z</time></trkpt><trkpt lat="41.206111433883265" lon="9.460232353589072"><ele>29.0</ele><time>2026-05-01T10:26:40.002Z</time></trkpt><trkpt lat="41.206008312293875" lon="9.460259432851752"><ele>28.0</ele><time>2026-05-01T10:26:41.002Z</time></trkpt><trkpt lat="41.20590633280363" lon="9.460240127581619"><ele>27.0</ele><time>2026-05-01T10:26:42.002Z</time></trkpt><trkpt lat="41.205785564748254" lon="9.460191520042327"><ele>26.0</ele><time>2026-05-01T10:26:43.001Z</time></trkpt><trkpt lat="41.205668672238616" lon="9.460136711574275"><ele>24.0</ele><time>2026-05-01T10:26:44.001Z</time></trkpt><trkpt lat="41.20555421971533" lon="9.460080269038054"><ele>22.0</ele><time>2026-05-01T10:26:45.001Z</time></trkpt><trkpt lat="41.205439680927405" lon="9.460025260544906"><ele>20.0</ele><time>2026-05-01T10:26:46.001Z</time></trkpt><trkpt lat="41.20532996402732" lon="9.45996957197313"><ele>18.0</ele><time>2026-05-01T10:26:47.001Z</time></trkpt><trkpt lat="41.20521887991961" lon="9.45991497512738"><ele>18.0</ele><time>2026-05-01T10:26:48.001Z</time></trkpt><trkpt lat="41.20510174091676" lon="9.459858772176402"><ele>18.0</ele><time>2026-05-01T10:26:49.001Z</time></trkpt><trkpt lat="41.20497337684762" lon="9.459794746628042"><ele>18.0</ele><time>2026-05-01T10:26:50.001Z</time></trkpt><trkpt lat="41.2048427239179" lon="9.459726866889534"><ele>18.0</ele><time>2026-05-01T10:26:51.001Z</time></trkpt><trkpt lat="41.20471204210478" lon="9.459655572906842"><ele>17.0</ele><time>2026-05-01T10:26:52.001Z</time></trkpt><trkpt lat="41.204573942850004" lon="9.459582688531802"><ele>16.0</ele><time>2026-05-01T10:26:53.001Z</time></trkpt><trkpt lat="41.204428983360046" lon="9.459513509864088"><ele>15.0</ele><time>2026-05-01T10:26:54.001Z</time></trkpt><trkpt lat="41.20428796661775" lon="9.459444080621225"><ele>15.0</ele><time>2026-05-01T10:26:55.001Z</time></trkpt><trkpt lat="41.20415429882672" lon="9.45937475793684"><ele>15.0</ele><time>2026-05-01T10:26:56.001Z</time></trkpt><trkpt lat="41.20402479303263" lon="9.459305718611935"><ele>15.0</ele><time>2026-05-01T10:26:57.001Z</time></trkpt><trkpt lat="41.203899374633025" lon="9.459239539348982"><ele>15.0</ele><time>2026-05-01T10:26:58.001Z</time></trkpt><trkpt lat="41.203764120603466" lon="9.459167753684826"><ele>14.5</ele><time>2026-05-01T10:26:59.001Z</time></trkpt><trkpt lat="41.20362508536306" lon="9.459098783664786"><ele>14.0</ele><time>2026-05-01T10:27:00.001Z</time></trkpt><trkpt lat="41.203484923992" lon="9.459026420535869"><ele>13.5</ele><time>2026-05-01T10:27:01.001Z</time></trkpt><trkpt lat="41.20334972728567" lon="9.458955884747114"><ele>13.0</ele><time>2026-05-01T10:27:02.001Z</time></trkpt><trkpt lat="41.203217490227004" lon="9.45888801539219"><ele>12.25</ele><time>2026-05-01T10:27:03.001Z</time></trkpt><trkpt lat="41.20309311380954" lon="9.45881859413602"><ele>11.5</ele><time>2026-05-01T10:27:04.001Z</time></trkpt><trkpt lat="41.20297385107784" lon="9.458754499219937"><ele>10.75</ele><time>2026-05-01T10:27:05.001Z</time></trkpt><trkpt lat="41.202853915428385" lon="9.45868649030894"><ele>10.0</ele><time>2026-05-01T10:27:06.001Z</time></trkpt><trkpt lat="41.20273499261723" lon="9.45862612870745"><ele>9.75</ele><time>2026-05-01T10:27:07.001Z</time></trkpt><trkpt lat="41.202616436058584" lon="9.45856586744765"><ele>9.5</ele><time>2026-05-01T10:27:08.001Z</time></trkpt><trkpt lat="41.20249795860761" lon="9.458505666223932"><ele>9.25</ele><time>2026-05-01T10:27:09.001Z</time></trkpt><trkpt lat="41.202375252292214" lon="9.458446296324434"><ele>9.0</ele><time>2026-05-01T10:27:10.001Z</time></trkpt><trkpt lat="41.20225522537816" lon="9.45838145660801"><ele>8.5</ele><time>2026-05-01T10:27:11.001Z</time></trkpt><trkpt lat="41.20213348697657" lon="9.458324050805073"><ele>8.0</ele><time>2026-05-01T10:27:12.001Z</time></trkpt><trkpt lat="41.20201194400305" lon="9.458266247064138"><ele>7.5</ele><time>2026-05-01T10:27:13.001Z</time></trkpt><trkpt lat="41.201892365594404" lon="9.458204115750652"><ele>7.0</ele><time>2026-05-01T10:27:14.001Z</time></trkpt><trkpt lat="41.20177560678396" lon="9.458143189225115"><ele>7.0</ele><time>2026-05-01T10:27:15.001Z</time></trkpt><trkpt lat="41.201664240548" lon="9.458085880774126"><ele>7.0</ele><time>2026-05-01T10:27:16.001Z</time></trkpt><trkpt lat="41.2015559216303" lon="9.458029086142176"><ele>7.0</ele><time>2026-05-01T10:27:17.001Z</time></trkpt><trkpt lat="41.201446832242716" lon="9.457972963713809"><ele>7.0</ele><time>2026-05-01T10:27:18.001Z</time></trkpt><trkpt lat="41.20133840793422" lon="9.457916624920507"><ele>6.3999999999999995</ele><time>2026-05-01T10:27:19.001Z</time></trkpt><trkpt lat="41.201232453920724" lon="9.457864474890341"><ele>5.799999999999999</ele><time>2026-05-01T10:27:20.001Z</time></trkpt><trkpt lat="41.201132128411786" lon="9.457810315703625"><ele>5.2</ele><time>2026-05-01T10:27:21.001Z</time></trkpt><trkpt lat="41.20103233453718" lon="9.457757738021138"><ele>4.6</ele><time>2026-05-01T10:27:22.001Z</time></trkpt><trkpt lat="41.20093433981916" lon="9.457708195909069"><ele>4.0</ele><time>2026-05-01T10:27:23.001Z</time></trkpt><trkpt lat="41.20083520109326" lon="9.457665489664256"><ele>4.0</ele><time>2026-05-01T10:27:24.001Z</time></trkpt><trkpt lat="41.20073353105789" lon="9.457633137876027"><ele>4.0</ele><time>2026-05-01T10:27:25.001Z</time></trkpt><trkpt lat="41.2006346995088" lon="9.45761720757824"><ele>4.0</ele><time>2026-05-01T10:27:26.001Z</time></trkpt><trkpt lat="41.20053756634268" lon="9.457608449672238"><ele>4.0</ele><time>2026-05-01T10:27:27.001Z</time></trkpt><trkpt lat="41.200443391546884" lon="9.457607509026175"><ele>4.0</ele><time>2026-05-01T10:27:28.001Z</time></trkpt><trkpt lat="41.200351977910785" lon="9.457612391564618"><ele>4.0</ele><time>2026-05-01T10:27:29.001Z</time></trkpt><trkpt lat="41.20025837686305" lon="9.457617800388963"><ele>4.0</ele><time>2026-05-01T10:27:30.001Z</time></trkpt><trkpt lat="41.20017105080124" lon="9.457619650184167"><ele>4.0</ele><time>2026-05-01T10:27:31.001Z</time></trkpt><trkpt lat="41.20007598030754" lon="9.457629835010856"><ele>4.0</ele><time>2026-05-01T10:27:32.001Z</time></trkpt><trkpt lat="41.199977089533085" lon="9.457638715007263"><ele>4.0</ele><time>2026-05-01T10:27:33.001Z</time></trkpt><trkpt lat="41.199872060126864" lon="9.457647002477168"><ele>4.4</ele><time>2026-05-01T10:27:34.001Z</time></trkpt><trkpt lat="41.19976812850454" lon="9.457647883289265"><ele>4.800000000000001</ele><time>2026-05-01T10:27:35.001Z</time></trkpt><trkpt lat="41.19966048009083" lon="9.457641817765378"><ele>5.199999999999999</ele><time>2026-05-01T10:27:36.001Z</time></trkpt><trkpt lat="41.199548119444316" lon="9.457628246054204"><ele>5.6</ele><time>2026-05-01T10:27:37.001Z</time></trkpt><trkpt lat="41.19943733885158" lon="9.457610524835196"><ele>6.0</ele><time>2026-05-01T10:27:38.001Z</time></trkpt><trkpt lat="41.19932013650807" lon="9.457584707558265"><ele>6.0</ele><time>2026-05-01T10:27:39.001Z</time></trkpt><trkpt lat="41.19920410844876" lon="9.457552508784401"><ele>6.0</ele><time>2026-05-01T10:27:40.001Z</time></trkpt><trkpt lat="41.19909685874209" lon="9.457522411822032"><ele>6.0</ele><time>2026-05-01T10:27:41.001Z</time></trkpt><trkpt lat="41.19900188232725" lon="9.457494309297354"><ele>6.0</ele><time>2026-05-01T10:27:42.001Z</time></trkpt><trkpt lat="41.19891460277151" lon="9.457469806793352"><ele>6.0</ele><time>2026-05-01T10:27:43.001Z</time></trkpt><trkpt lat="41.19883837928819" lon="9.457442659624173"><ele>5.666666666666667</ele><time>2026-05-01T10:27:44.001Z</time></trkpt><trkpt lat="41.19877014672359" lon="9.457406926992494"><ele>5.333333333333333</ele><time>2026-05-01T10:27:45.001Z</time></trkpt><trkpt lat="41.19870360834296" lon="9.457411889470082"><ele>5.0</ele><time>2026-05-01T10:27:46.001Z</time></trkpt><trkpt lat="41.198644329057075" lon="9.45729637659531"><ele>4.666666666666666</ele><time>2026-05-01T10:27:47.001Z</time></trkpt><trkpt lat="41.1985741687386" lon="9.457222797629395"><ele>4.333333333333333</ele><time>2026-05-01T10:27:48.001Z</time></trkpt><trkpt lat="41.198499916503366" lon="9.457136201504849"><ele>4.0</ele><time>2026-05-01T10:27:49.001Z</time></trkpt><trkpt lat="41.19842696756034" lon="9.45703509478544"><ele>3.6</ele><time>2026-05-01T10:27:50.001Z</time></trkpt><trkpt lat="41.19836292171794" lon="9.456918111337862"><ele>3.2</ele><time>2026-05-01T10:27:51.001Z</time></trkpt><trkpt lat="41.19831163327667" lon="9.45680199817472"><ele>2.8000000000000003</ele><time>2026-05-01T10:27:52.001Z</time></trkpt><trkpt lat="41.19828788625108" lon="9.456677405094622"><ele>2.4000000000000004</ele><time>2026-05-01T10:27:53.001Z</time></trkpt><trkpt lat="41.1982725621477" lon="9.456540526510475"><ele>2.0</ele><time>2026-05-01T10:27:54.001Z</time></trkpt><trkpt lat="41.19826275400879" lon="9.456402532337831"><ele>2.0</ele><time>2026-05-01T10:27:55.001Z</time></trkpt><trkpt lat="41.19825184915878" lon="9.456261641061397"><ele>2.0</ele><time>2026-05-01T10:27:56.001Z</time></trkpt><trkpt lat="41.19823867923695" lon="9.456124760904107"><ele>2.0</ele><time>2026-05-01T10:27:57.001Z</time></trkpt><trkpt lat="41.19822397157493" lon="9.455989394210107"><ele>2.0</ele><time>2026-05-01T10:27:58.001Z</time></trkpt><trkpt lat="41.198200895085265" lon="9.455855222312271"><ele>2.0</ele><time>2026-05-01T10:27:59.001Z</time></trkpt><trkpt lat="41.19818931286837" lon="9.4557235154995"><ele>1.9999999999999998</ele><time>2026-05-01T10:28:00.001Z</time></trkpt><trkpt lat="41.19817670250459" lon="9.455608408279401"><ele>2.0</ele><time>2026-05-01T10:28:01.001Z</time></trkpt><trkpt lat="41.19816466614688" lon="9.455489898681176"><ele>2.0</ele><time>2026-05-01T10:28:02.001Z</time></trkpt><trkpt lat="41.1981528765818" lon="9.45537587102472"><ele>2.0</ele><time>2026-05-01T10:28:03.001Z</time></trkpt><trkpt lat="41.19814285313831" lon="9.455261775007191"><ele>1.9999999999999998</ele><time>2026-05-01T10:28:04.001Z</time></trkpt><trkpt lat="41.19812899521155" lon="9.455150236847997"><ele>2.0</ele><time>2026-05-01T10:28:05.001Z</time></trkpt><trkpt lat="41.19811599916638" lon="9.455046028415602"><ele>1.9999999999999998</ele><time>2026-05-01T10:28:06.001Z</time></trkpt><trkpt lat="41.19810832779438" lon="9.454952189373882"><ele>2.0</ele><time>2026-05-01T10:28:07.001Z</time></trkpt><trkpt lat="41.19810251274117" lon="9.454866192481362"><ele>2.0</ele><time>2026-05-01T10:28:08.001Z</time></trkpt><trkpt lat="41.1981120205808" lon="9.454718958590352"><ele>2.0</ele><time>2026-05-01T10:28:10.001Z</time></trkpt><trkpt lat="41.19815372152908" lon="9.454606169433124"><ele>1.9999999999999998</ele><time>2026-05-01T10:28:12.001Z</time></trkpt><trkpt lat="41.19819758389251" lon="9.45451894975459"><ele>2.0</ele><time>2026-05-01T10:28:14.001Z</time></trkpt><trkpt lat="41.19822604845491" lon="9.454409561301325"><ele>1.9999999999999998</ele><time>2026-05-01T10:28:17.001Z</time></trkpt><trkpt lat="41.19819370759373" lon="9.45449056130618"><ele>2.0</ele><time>2026-05-01T10:28:57.001Z</time></trkpt><trkpt lat="41.19814769844904" lon="9.454590619326192"><ele>2.0</ele><time>2026-05-01T10:28:59.001Z</time></trkpt><trkpt lat="41.19804530140019" lon="9.454672739902717"><ele>2.0</ele><time>2026-05-01T10:29:01.001Z</time></trkpt><trkpt lat="41.19799840419293" lon="9.454740318661475"><ele>1.9999999999999998</ele><time>2026-05-01T10:29:02.001Z</time></trkpt><trkpt lat="41.19794368587986" lon="9.45480778488765"><ele>2.0</ele><time>2026-05-01T10:29:03.001Z</time></trkpt><trkpt lat="41.19789660625675" lon="9.454870354233158"><ele>1.9999999999999998</ele><time>2026-05-01T10:29:04.001Z</time></trkpt><trkpt lat="41.19784940173688" lon="9.454934548799168"><ele>2.0</ele><time>2026-05-01T10:29:05.001Z</time></trkpt><trkpt lat="41.19779869000967" lon="9.45500764634744"><ele>2.0</ele><time>2026-05-01T10:29:06.001Z</time></trkpt><trkpt lat="41.19774417512549" lon="9.455091493989471"><ele>2.0</ele><time>2026-05-01T10:29:07.001Z</time></trkpt><trkpt lat="41.19768994400501" lon="9.45517868768985"><ele>1.9999999999999998</ele><time>2026-05-01T10:29:08.001Z</time></trkpt><trkpt lat="41.1976402024809" lon="9.455256236617513"><ele>2.0</ele><time>2026-05-01T10:29:09.001Z</time></trkpt><trkpt lat="41.19758917069331" lon="9.45533126319904"><ele>1.9999999999999998</ele><time>2026-05-01T10:29:10.001Z</time></trkpt><trkpt lat="41.19753608874206" lon="9.455409074748523"><ele>2.0</ele><time>2026-05-01T10:29:11.001Z</time></trkpt><trkpt lat="41.1974866531608" lon="9.45548154116681"><ele>2.0</ele><time>2026-05-01T10:29:12.001Z</time></trkpt><trkpt lat="41.19741031848552" lon="9.455593438265339"><ele>2.0</ele><time>2026-05-01T10:29:14.001Z</time></trkpt><trkpt lat="41.19736242008345" lon="9.455663651361979"><ele>1.9999999999999998</ele><time>2026-05-01T10:29:16.001Z</time></trkpt><trkpt lat="41.197307168227276" lon="9.45573783150632"><ele>2.0</ele><time>2026-05-01T10:29:24Z</time></trkpt><trkpt lat="41.19724259441269" lon="9.455847598116913"><ele>2.1666666666666665</ele><time>2026-05-01T10:29:26Z</time></trkpt><trkpt lat="41.19719853199618" lon="9.455917868609301"><ele>2.333333333333333</ele><time>2026-05-01T10:29:27Z</time></trkpt><trkpt lat="41.19711735416038" lon="9.456047330732781"><ele>2.5</ele><time>2026-05-01T10:29:29Z</time></trkpt><trkpt lat="41.19707402899104" lon="9.456115170492598"><ele>2.6666666666666665</ele><time>2026-05-01T10:29:30Z</time></trkpt><trkpt lat="41.19702367437549" lon="9.45619226068953"><ele>2.8333333333333335</ele><time>2026-05-01T10:29:31Z</time></trkpt><trkpt lat="41.19696546343758" lon="9.45628137841436"><ele>3.0</ele><time>2026-05-01T10:29:32Z</time></trkpt><trkpt lat="41.1969076638782" lon="9.456369866418132"><ele>3.1428571428571423</ele><time>2026-05-01T10:29:33Z</time></trkpt><trkpt lat="41.1968529221532" lon="9.4564530477577"><ele>3.2857142857142856</ele><time>2026-05-01T10:29:34Z</time></trkpt><trkpt lat="41.19680055374243" lon="9.456532285882481"><ele>3.4285714285714284</ele><time>2026-05-01T10:29:35Z</time></trkpt><trkpt lat="41.196752179368325" lon="9.456605480773456"><ele>3.571428571428571</ele><time>2026-05-01T10:29:36Z</time></trkpt><trkpt lat="41.19670833847357" lon="9.456671815972667"><ele>3.714285714285714</ele><time>2026-05-01T10:29:37Z</time></trkpt><trkpt lat="41.196664098140836" lon="9.456738755610068"><ele>3.8571428571428568</ele><time>2026-05-01T10:29:38Z</time></trkpt><trkpt lat="41.19661955177964" lon="9.456806913002275"><ele>4.0</ele><time>2026-05-01T10:29:39Z</time></trkpt><trkpt lat="41.196590003736965" lon="9.456885746556535"><ele>3.9999999999999996</ele><time>2026-05-01T10:29:40Z</time></trkpt><trkpt lat="41.19650975569784" lon="9.456977210032871"><ele>4.0</ele><time>2026-05-01T10:29:42Z</time></trkpt><trkpt lat="41.19646578824098" lon="9.457061476661467"><ele>4.0</ele><time>2026-05-01T10:29:45Z</time></trkpt><trkpt lat="41.19640710677242" lon="9.457116587789013"><ele>4.0</ele><time>2026-05-01T10:30:07Z</time></trkpt><trkpt lat="41.196372543861315" lon="9.457213680690792"><ele>3.9999999999999996</ele><time>2026-05-01T10:35:49Z</time></trkpt><trkpt lat="41.196329028240015" lon="9.457314533391415"><ele>4.0</ele><time>2026-05-01T10:35:51Z</time></trkpt><trkpt lat="41.19624685366505" lon="9.457304532463414"><ele>4.2</ele><time>2026-05-01T10:35:53Z</time></trkpt><trkpt lat="41.19612498428383" lon="9.457370967767629"><ele>4.4</ele><time>2026-05-01T10:35:55Z</time></trkpt><trkpt lat="41.19604558711309" lon="9.457404112411766"><ele>4.6</ele><time>2026-05-01T10:35:56Z</time></trkpt><trkpt lat="41.195979055171776" lon="9.457437859867293"><ele>4.8</ele><time>2026-05-01T10:35:57Z</time></trkpt><trkpt lat="41.195920086921234" lon="9.457471662588459"><ele>5.0</ele><time>2026-05-01T10:35:58Z</time></trkpt><trkpt lat="41.19578741003392" lon="9.457510244148711"><ele>5.0</ele><time>2026-05-01T10:36:00Z</time></trkpt><trkpt lat="41.19569541557598" lon="9.457545276848174"><ele>5.0</ele><time>2026-05-01T10:36:01Z</time></trkpt><trkpt lat="41.19561490073184" lon="9.457598726175851"><ele>5.0</ele><time>2026-05-01T10:36:02Z</time></trkpt><trkpt lat="41.19553088221361" lon="9.457626048582544"><ele>5.0</ele><time>2026-05-01T10:36:03Z</time></trkpt><trkpt lat="41.195444408210776" lon="9.45764318196416"><ele>5.0</ele><time>2026-05-01T10:36:04Z</time></trkpt><trkpt lat="41.195348281001756" lon="9.457654413441496"><ele>5.6</ele><time>2026-05-01T10:36:05Z</time></trkpt><trkpt lat="41.19524436459283" lon="9.45766233560783"><ele>6.2</ele><time>2026-05-01T10:36:06Z</time></trkpt><trkpt lat="41.19514002947313" lon="9.457674163527898"><ele>6.800000000000001</ele><time>2026-05-01T10:36:07Z</time></trkpt><trkpt lat="41.19503781302884" lon="9.457691025659107"><ele>7.4</ele><time>2026-05-01T10:36:08Z</time></trkpt><trkpt lat="41.194939288504685" lon="9.45770785755429"><ele>8.0</ele><time>2026-05-01T10:36:09Z</time></trkpt><trkpt lat="41.19484697741609" lon="9.45772229584232"><ele>8.833333333333332</ele><time>2026-05-01T10:36:10Z</time></trkpt><trkpt lat="41.19476164655383" lon="9.45772987337402"><ele>9.666666666666666</ele><time>2026-05-01T10:36:11Z</time></trkpt><trkpt lat="41.194682768573266" lon="9.457739681701534"><ele>10.5</ele><time>2026-05-01T10:36:12Z</time></trkpt><trkpt lat="41.19461092761032" lon="9.45773680855612"><ele>11.333333333333332</ele><time>2026-05-01T10:36:13Z</time></trkpt><trkpt lat="41.19454935863131" lon="9.457710062213984"><ele>12.166666666666666</ele><time>2026-05-01T10:36:14Z</time></trkpt><trkpt lat="41.194440998098734" lon="9.457599433782581"><ele>13.0</ele><time>2026-05-01T10:36:16Z</time></trkpt><trkpt lat="41.194393171146594" lon="9.457500986983861"><ele>13.0</ele><time>2026-05-01T10:36:17Z</time></trkpt><trkpt lat="41.194342463772855" lon="9.457388233433223"><ele>13.0</ele><time>2026-05-01T10:36:18Z</time></trkpt><trkpt lat="41.19428588980626" lon="9.457262753522729"><ele>13.0</ele><time>2026-05-01T10:36:19Z</time></trkpt><trkpt lat="41.19422753774637" lon="9.45714813687794"><ele>13.0</ele><time>2026-05-01T10:36:20Z</time></trkpt><trkpt lat="41.19417052551958" lon="9.45702937113486"><ele>13.0</ele><time>2026-05-01T10:36:21Z</time></trkpt><trkpt lat="41.19411110544737" lon="9.456910176137951"><ele>13.0</ele><time>2026-05-01T10:36:22Z</time></trkpt><trkpt lat="41.19405585413325" lon="9.456788513404886"><ele>13.0</ele><time>2026-05-01T10:36:23Z</time></trkpt><trkpt lat="41.19400268524676" lon="9.45666888104565"><ele>13.0</ele><time>2026-05-01T10:36:24Z</time></trkpt><trkpt lat="41.19395212980266" lon="9.456549356171525"><ele>13.0</ele><time>2026-05-01T10:36:25Z</time></trkpt><trkpt lat="41.193903056320416" lon="9.456432901252182"><ele>13.0</ele><time>2026-05-01T10:36:26Z</time></trkpt><trkpt lat="41.193856565721596" lon="9.456317279752938"><ele>12.833333333333332</ele><time>2026-05-01T10:36:27Z</time></trkpt><trkpt lat="41.19381505800223" lon="9.456205850483768"><ele>12.666666666666666</ele><time>2026-05-01T10:36:28Z</time></trkpt><trkpt lat="41.193762809911895" lon="9.456115431259784"><ele>12.5</ele><time>2026-05-01T10:36:29Z</time></trkpt><trkpt lat="41.19370162961564" lon="9.456051411477176"><ele>12.333333333333332</ele><time>2026-05-01T10:36:30Z</time></trkpt><trkpt lat="41.193635763443794" lon="9.456009516362961"><ele>12.166666666666666</ele><time>2026-05-01T10:36:31Z</time></trkpt><trkpt lat="41.19356111120595" lon="9.455990155930627"><ele>12.0</ele><time>2026-05-01T10:36:32Z</time></trkpt><trkpt lat="41.1934824117722" lon="9.455980975921408"><ele>12.0</ele><time>2026-05-01T10:36:33Z</time></trkpt><trkpt lat="41.19339926232731" lon="9.455981064224604"><ele>12.0</ele><time>2026-05-01T10:36:34Z</time></trkpt><trkpt lat="41.193313335505124" lon="9.455979703913354"><ele>12.0</ele><time>2026-05-01T10:36:35Z</time></trkpt><trkpt lat="41.19321474143283" lon="9.45598710747031"><ele>12.0</ele><time>2026-05-01T10:36:36Z</time></trkpt><trkpt lat="41.19310600202083" lon="9.455991102639745"><ele>12.0</ele><time>2026-05-01T10:36:37Z</time></trkpt><trkpt lat="41.19298997625318" lon="9.455993961606735"><ele>11.0</ele><time>2026-05-01T10:36:38Z</time></trkpt><trkpt lat="41.19286854842891" lon="9.455994995973109"><ele>10.0</ele><time>2026-05-01T10:36:39Z</time></trkpt><trkpt lat="41.192744318060484" lon="9.455993177564418"><ele>9.0</ele><time>2026-05-01T10:36:40Z</time></trkpt><trkpt lat="41.19262640091645" lon="9.455991584596893"><ele>8.0</ele><time>2026-05-01T10:36:41Z</time></trkpt><trkpt lat="41.192507397151" lon="9.455993592880237"><ele>8.0</ele><time>2026-05-01T10:36:42Z</time></trkpt><trkpt lat="41.19238620690257" lon="9.455993199058298"><ele>8.0</ele><time>2026-05-01T10:36:43Z</time></trkpt><trkpt lat="41.192263237045495" lon="9.455989898560784"><ele>8.0</ele><time>2026-05-01T10:36:44Z</time></trkpt><trkpt lat="41.192144622245635" lon="9.455988057520898"><ele>8.0</ele><time>2026-05-01T10:36:45Z</time></trkpt><trkpt lat="41.19202678883161" lon="9.455987213658622"><ele>8.4</ele><time>2026-05-01T10:36:46Z</time></trkpt><trkpt lat="41.19191026671716" lon="9.455988505560269"><ele>8.8</ele><time>2026-05-01T10:36:47Z</time></trkpt><trkpt lat="41.19179961601469" lon="9.455990901868429"><ele>9.2</ele><time>2026-05-01T10:36:48Z</time></trkpt><trkpt lat="41.191694963824816" lon="9.455993847045574"><ele>9.6</ele><time>2026-05-01T10:36:49Z</time></trkpt><trkpt lat="41.19159390260649" lon="9.45599929657012"><ele>10.0</ele><time>2026-05-01T10:36:50Z</time></trkpt><trkpt lat="41.19149110721108" lon="9.456005392668718"><ele>9.2</ele><time>2026-05-01T10:36:51Z</time></trkpt><trkpt lat="41.19138868788163" lon="9.456009952974924"><ele>8.4</ele><time>2026-05-01T10:36:52Z</time></trkpt><trkpt lat="41.191286137564425" lon="9.456014908028747"><ele>7.6</ele><time>2026-05-01T10:36:53Z</time></trkpt><trkpt lat="41.19118244680723" lon="9.456022978150493"><ele>6.8</ele><time>2026-05-01T10:36:54Z</time></trkpt><trkpt lat="41.191078941462905" lon="9.456027825634953"><ele>6.0</ele><time>2026-05-01T10:36:55Z</time></trkpt><trkpt lat="41.19097212969172" lon="9.456043916076974"><ele>6.0</ele><time>2026-05-01T10:36:56Z</time></trkpt><trkpt lat="41.190868055543795" lon="9.456057356256135"><ele>6.0</ele><time>2026-05-01T10:36:57Z</time></trkpt><trkpt lat="41.19076203299063" lon="9.45607029232031"><ele>6.0</ele><time>2026-05-01T10:36:58Z</time></trkpt><trkpt lat="41.190653477315024" lon="9.456083370568308"><ele>6.0</ele><time>2026-05-01T10:36:59Z</time></trkpt><trkpt lat="41.19054652273558" lon="9.456100210621114"><ele>6.0</ele><time>2026-05-01T10:37:00Z</time></trkpt><trkpt lat="41.1904427587256" lon="9.456111766278767"><ele>5.0</ele><time>2026-05-01T10:37:01Z</time></trkpt><trkpt lat="41.19034311216474" lon="9.456120048965568"><ele>3.9999999999999996</ele><time>2026-05-01T10:37:02Z</time></trkpt><trkpt lat="41.19024595861034" lon="9.456123789215878"><ele>3.0</ele><time>2026-05-01T10:37:03Z</time></trkpt><trkpt lat="41.19015133749262" lon="9.456126005332532"><ele>2.0</ele><time>2026-05-01T10:37:04Z</time></trkpt><trkpt lat="41.190060272561766" lon="9.45613455287165"><ele>1.0</ele><time>2026-05-01T10:37:05Z</time></trkpt><trkpt lat="41.18996647468316" lon="9.45614005840261"><ele>0.9999999999999999</ele><time>2026-05-01T10:37:06Z</time></trkpt><trkpt lat="41.18987834028153" lon="9.456153004188112"><ele>1.0</ele><time>2026-05-01T10:37:07Z</time></trkpt><trkpt lat="41.18979027528111" lon="9.456166711958096"><ele>1.0</ele><time>2026-05-01T10:37:08Z</time></trkpt><trkpt lat="41.18970192277186" lon="9.456179405285614"><ele>1.0</ele><time>2026-05-01T10:37:09Z</time></trkpt><trkpt lat="41.189617225791245" lon="9.456191860219121"><ele>0.9999999999999999</ele><time>2026-05-01T10:37:10Z</time></trkpt><trkpt lat="41.189533941186184" lon="9.456202210999894"><ele>1.0</ele><time>2026-05-01T10:37:11Z</time></trkpt><trkpt lat="41.18945144986877" lon="9.456212570809974"><ele>0.9999999999999999</ele><time>2026-05-01T10:37:12Z</time></trkpt><trkpt lat="41.18936658533836" lon="9.456224117475609"><ele>1.0</ele><time>2026-05-01T10:37:13Z</time></trkpt><trkpt lat="41.189283489803906" lon="9.456232229047421"><ele>1.0</ele><time>2026-05-01T10:37:14Z</time></trkpt><trkpt lat="41.18919651892982" lon="9.456232377914315"><ele>1.0</ele><time>2026-05-01T10:37:15Z</time></trkpt><trkpt lat="41.189109306956055" lon="9.456229209115797"><ele>0.9999999999999999</ele><time>2026-05-01T10:37:16Z</time></trkpt><trkpt lat="41.18902107147947" lon="9.456218379915288"><ele>1.0</ele><time>2026-05-01T10:37:17Z</time></trkpt><trkpt lat="41.188933025062155" lon="9.456200824709695"><ele>1.1666666666666665</ele><time>2026-05-01T10:37:18Z</time></trkpt><trkpt lat="41.18884506792678" lon="9.45618003830608"><ele>1.3333333333333333</ele><time>2026-05-01T10:37:19Z</time></trkpt><trkpt lat="41.188764328217054" lon="9.456161794867912"><ele>1.5</ele><time>2026-05-01T10:37:20Z</time></trkpt><trkpt lat="41.188682780926534" lon="9.456150506198698"><ele>1.6666666666666665</ele><time>2026-05-01T10:37:21Z</time></trkpt><trkpt lat="41.188600687600825" lon="9.456146103280451"><ele>1.8333333333333333</ele><time>2026-05-01T10:37:22Z</time></trkpt><trkpt lat="41.18850955601611" lon="9.45617178299509"><ele>2.0</ele><time>2026-05-01T10:37:23Z</time></trkpt><trkpt lat="41.18841834484982" lon="9.456198499327472"><ele>1.9999999999999998</ele><time>2026-05-01T10:37:24Z</time></trkpt><trkpt lat="41.18833084166392" lon="9.456225714954803"><ele>2.0</ele><time>2026-05-01T10:37:25Z</time></trkpt><trkpt lat="41.18824735646635" lon="9.4562529146073"><ele>2.0</ele><time>2026-05-01T10:37:26Z</time></trkpt><trkpt lat="41.18816226592574" lon="9.45628094443118"><ele>2.0</ele><time>2026-05-01T10:37:27Z</time></trkpt><trkpt lat="41.18807825036967" lon="9.456306977142868"><ele>1.9999999999999998</ele><time>2026-05-01T10:37:28Z</time></trkpt><trkpt lat="41.18799398651352" lon="9.456338318119327"><ele>2.0</ele><time>2026-05-01T10:37:29Z</time></trkpt><trkpt lat="41.187906760724104" lon="9.456371024491379"><ele>2.333333333333333</ele><time>2026-05-01T10:37:30Z</time></trkpt><trkpt lat="41.18781933258444" lon="9.456396691296089"><ele>2.6666666666666665</ele><time>2026-05-01T10:37:31Z</time></trkpt><trkpt lat="41.187733864102704" lon="9.456430598013927"><ele>3.0</ele><time>2026-05-01T10:37:32Z</time></trkpt><trkpt lat="41.18764681354458" lon="9.456448128287123"><ele>3.333333333333333</ele><time>2026-05-01T10:37:33Z</time></trkpt><trkpt lat="41.18756331444631" lon="9.456448561872516"><ele>3.6666666666666665</ele><time>2026-05-01T10:37:34Z</time></trkpt><trkpt lat="41.18748552239423" lon="9.456425307791092"><ele>4.0</ele><time>2026-05-01T10:37:35Z</time></trkpt><trkpt lat="41.187408421708085" lon="9.45639986088485"><ele>4.428571428571429</ele><time>2026-05-01T10:37:36Z</time></trkpt><trkpt lat="41.18733841328187" lon="9.456370482118139"><ele>4.857142857142857</ele><time>2026-05-01T10:37:37Z</time></trkpt><trkpt lat="41.187277327923354" lon="9.45634578742496"><ele>5.285714285714286</ele><time>2026-05-01T10:37:38Z</time></trkpt><trkpt lat="41.187214439580515" lon="9.456328628484385"><ele>5.714285714285714</ele><time>2026-05-01T10:37:39Z</time></trkpt><trkpt lat="41.18714361618255" lon="9.456339058795123"><ele>6.142857142857142</ele><time>2026-05-01T10:37:40Z</time></trkpt><trkpt lat="41.18707171787302" lon="9.456357041057231"><ele>6.571428571428571</ele><time>2026-05-01T10:37:41Z</time></trkpt><trkpt lat="41.186999204662996" lon="9.456377009363854"><ele>7.0</ele><time>2026-05-01T10:37:42Z</time></trkpt><trkpt lat="41.18692672294938" lon="9.456399428392771"><ele>7.000000000000001</ele><time>2026-05-01T10:37:43Z</time></trkpt><trkpt lat="41.18685083602901" lon="9.456423540651265"><ele>7.0</ele><time>2026-05-01T10:37:44Z</time></trkpt><trkpt lat="41.18677120201831" lon="9.456439736961359"><ele>7.0</ele><time>2026-05-01T10:37:45Z</time></trkpt><trkpt lat="41.18669371316933" lon="9.456457971784728"><ele>7.0</ele><time>2026-05-01T10:37:46Z</time></trkpt><trkpt lat="41.18661644745945" lon="9.456475261043352"><ele>7.000000000000001</ele><time>2026-05-01T10:37:47Z</time></trkpt><trkpt lat="41.18653896274446" lon="9.456497007419348"><ele>7.0</ele><time>2026-05-01T10:37:48Z</time></trkpt><trkpt lat="41.18645742310668" lon="9.456523150271112"><ele>7.666666666666667</ele><time>2026-05-01T10:37:49Z</time></trkpt><trkpt lat="41.186376154102184" lon="9.456550692830135"><ele>8.333333333333334</ele><time>2026-05-01T10:37:50Z</time></trkpt><trkpt lat="41.18629662870715" lon="9.456576433669452"><ele>9.0</ele><time>2026-05-01T10:37:51Z</time></trkpt><trkpt lat="41.18621189480227" lon="9.456591684388316"><ele>9.666666666666666</ele><time>2026-05-01T10:37:52Z</time></trkpt><trkpt lat="41.18612211499446" lon="9.456598975511604"><ele>10.333333333333332</ele><time>2026-05-01T10:37:53Z</time></trkpt><trkpt lat="41.186028405664366" lon="9.456597752805425"><ele>11.0</ele><time>2026-05-01T10:37:54Z</time></trkpt><trkpt lat="41.18593854028807" lon="9.456590011987869"><ele>11.0</ele><time>2026-05-01T10:37:55Z</time></trkpt><trkpt lat="41.1858536052815" lon="9.456576498857311"><ele>11.0</ele><time>2026-05-01T10:37:56Z</time></trkpt><trkpt lat="41.18577629756473" lon="9.456560410650512"><ele>11.0</ele><time>2026-05-01T10:37:57Z</time></trkpt><trkpt lat="41.185697330396124" lon="9.456545573740254"><ele>11.0</ele><time>2026-05-01T10:37:58Z</time></trkpt><trkpt lat="41.18562100652346" lon="9.456532642015896"><ele>11.0</ele><time>2026-05-01T10:37:59Z</time></trkpt><trkpt lat="41.185552045127395" lon="9.456521828268645"><ele>11.0</ele><time>2026-05-01T10:38:00Z</time></trkpt><trkpt lat="41.185489645736006" lon="9.456510729396527"><ele>10.833333333333332</ele><time>2026-05-01T10:38:01Z</time></trkpt><trkpt lat="41.18539618231604" lon="9.456522601392185"><ele>10.666666666666666</ele><time>2026-05-01T10:38:03Z</time></trkpt><trkpt lat="41.18530817256119" lon="9.456563012981144"><ele>10.5</ele><time>2026-05-01T10:38:05Z</time></trkpt><trkpt lat="41.185206386702895" lon="9.456652021347539"><ele>10.333333333333334</ele><time>2026-05-01T10:38:07Z</time></trkpt><trkpt lat="41.185152628148565" lon="9.456701439470196"><ele>10.166666666666668</ele><time>2026-05-01T10:38:08Z</time></trkpt><trkpt lat="41.185103966778435" lon="9.456772928175623"><ele>10.0</ele><time>2026-05-01T10:38:09Z</time></trkpt><trkpt lat="41.18503400321626" lon="9.4568217863201"><ele>10.0</ele><time>2026-05-01T10:38:10Z</time></trkpt><trkpt lat="41.18497931509567" lon="9.456915321489141"><ele>10.0</ele><time>2026-05-01T10:38:11Z</time></trkpt><trkpt lat="41.18493865637378" lon="9.457022246803389"><ele>10.0</ele><time>2026-05-01T10:38:12Z</time></trkpt><trkpt lat="41.184909239599186" lon="9.457134962761616"><ele>10.0</ele><time>2026-05-01T10:38:13Z</time></trkpt><trkpt lat="41.184881452696786" lon="9.457252437288501"><ele>10.0</ele><time>2026-05-01T10:38:14Z</time></trkpt><trkpt lat="41.18485669944634" lon="9.457357182135624"><ele>10.0</ele><time>2026-05-01T10:38:15Z</time></trkpt><trkpt lat="41.184832632604845" lon="9.457452216107217"><ele>10.142857142857142</ele><time>2026-05-01T10:38:16Z</time></trkpt><trkpt lat="41.18480384111731" lon="9.457546191560079"><ele>10.285714285714286</ele><time>2026-05-01T10:38:17Z</time></trkpt><trkpt lat="41.18476019734991" lon="9.45762963480028"><ele>10.428571428571429</ele><time>2026-05-01T10:38:18Z</time></trkpt><trkpt lat="41.184706012165485" lon="9.457686637287134"><ele>10.571428571428571</ele><time>2026-05-01T10:38:19Z</time></trkpt><trkpt lat="41.18463631255686" lon="9.457681968124316"><ele>10.714285714285714</ele><time>2026-05-01T10:38:20Z</time></trkpt><trkpt lat="41.18456683887425" lon="9.457650350766798"><ele>10.857142857142858</ele><time>2026-05-01T10:38:21Z</time></trkpt><trkpt lat="41.18449785761859" lon="9.457621673897338"><ele>11.0</ele><time>2026-05-01T10:38:22Z</time></trkpt><trkpt lat="41.184383181098056" lon="9.457591755869066"><ele>11.0</ele><time>2026-05-01T10:38:24Z</time></trkpt><trkpt lat="41.18429224554482" lon="9.4576067088308"><ele>11.0</ele><time>2026-05-01T10:38:26Z</time></trkpt><trkpt lat="41.184218324562885" lon="9.457653375201367"><ele>11.0</ele><time>2026-05-01T10:38:28Z</time></trkpt><trkpt lat="41.184138917184036" lon="9.457710699272292"><ele>11.0</ele><time>2026-05-01T10:38:30Z</time></trkpt><trkpt lat="41.184077260471994" lon="9.457789209344913"><ele>11.0</ele><time>2026-05-01T10:38:32Z</time></trkpt><trkpt lat="41.18402410391676" lon="9.457885170787435"><ele>11.0</ele><time>2026-05-01T10:38:34Z</time></trkpt><trkpt lat="41.18392744924209" lon="9.457936762170526"><ele>12.4</ele><time>2026-05-01T10:38:36Z</time></trkpt><trkpt lat="41.183839430832435" lon="9.458000625340194"><ele>13.8</ele><time>2026-05-01T10:38:38Z</time></trkpt><trkpt lat="41.18375794363065" lon="9.45807971286735"><ele>15.200000000000001</ele><time>2026-05-01T10:38:40Z</time></trkpt><trkpt lat="41.18366906400568" lon="9.458136664699358"><ele>16.6</ele><time>2026-05-01T10:38:42Z</time></trkpt><trkpt lat="41.183574517761805" lon="9.458182438878532"><ele>18.0</ele><time>2026-05-01T10:38:44Z</time></trkpt><trkpt lat="41.183481562631485" lon="9.458247876130736"><ele>18.0</ele><time>2026-05-01T10:38:46Z</time></trkpt><trkpt lat="41.18340505937295" lon="9.45829964724311"><ele>18.0</ele><time>2026-05-01T10:38:48Z</time></trkpt><trkpt lat="41.18332148694526" lon="9.458355230479155"><ele>18.0</ele><time>2026-05-01T10:38:50Z</time></trkpt><trkpt lat="41.183237854280165" lon="9.458410806746857"><ele>18.0</ele><time>2026-05-01T10:38:52Z</time></trkpt><trkpt lat="41.18314935112055" lon="9.458471457372559"><ele>18.0</ele><time>2026-05-01T10:38:54Z</time></trkpt><trkpt lat="41.18310101034485" lon="9.458541934200094"><ele>18.0</ele><time>2026-05-01T10:38:55Z</time></trkpt><trkpt lat="41.18307424670412" lon="9.458621444122517"><ele>16.6</ele><time>2026-05-01T10:38:56Z</time></trkpt><trkpt lat="41.18301338747616" lon="9.458750925593458"><ele>15.200000000000001</ele><time>2026-05-01T10:38:58Z</time></trkpt><trkpt lat="41.1829482618101" lon="9.458852090669783"><ele>13.8</ele><time>2026-05-01T10:39:00Z</time></trkpt><trkpt lat="41.18290600688702" lon="9.458944833198647"><ele>12.4</ele><time>2026-05-01T10:39:02Z</time></trkpt><trkpt lat="41.18288807506558" lon="9.459065548097058"><ele>11.0</ele><time>2026-05-01T10:39:05Z</time></trkpt><trkpt lat="41.18288443095302" lon="9.459186126645294"><ele>10.833333333333332</ele><time>2026-05-01T10:39:07Z</time></trkpt><trkpt lat="41.18290149608853" lon="9.459333263375674"><ele>10.666666666666666</ele><time>2026-05-01T10:39:09Z</time></trkpt><trkpt lat="41.18293818129707" lon="9.459407179395692"><ele>10.5</ele><time>2026-05-01T10:39:10Z</time></trkpt><trkpt lat="41.182988176681874" lon="9.45946831316816"><ele>10.333333333333334</ele><time>2026-05-01T10:39:11Z</time></trkpt><trkpt lat="41.18304053109655" lon="9.459515122510412"><ele>10.166666666666668</ele><time>2026-05-01T10:39:12Z</time></trkpt><trkpt lat="41.183154997434116" lon="9.459551352225152"><ele>10.0</ele><time>2026-05-01T10:39:14Z</time></trkpt><trkpt lat="41.18321082089877" lon="9.459668460612319"><ele>10.2</ele><time>2026-05-01T10:39:16Z</time></trkpt><trkpt lat="41.183218967365235" lon="9.459800125907874"><ele>10.4</ele><time>2026-05-01T10:39:18Z</time></trkpt><trkpt lat="41.183170985481084" lon="9.459944468883606"><ele>10.600000000000001</ele><time>2026-05-01T10:39:20Z</time></trkpt><trkpt lat="41.18310746293225" lon="9.459975486856857"><ele>10.8</ele><time>2026-05-01T10:39:21Z</time></trkpt><trkpt lat="41.1830245872223" lon="9.460013467577767"><ele>11.0</ele><time>2026-05-01T10:39:23Z</time></trkpt><trkpt lat="41.18296043510544" lon="9.4600786625851"><ele>11.0</ele><time>2026-05-01T10:39:25Z</time></trkpt><trkpt lat="41.182887981546074" lon="9.460157977110276"><ele>11.0</ele><time>2026-05-01T10:39:27Z</time></trkpt><trkpt lat="41.18284098172253" lon="9.460271580059937"><ele>11.0</ele><time>2026-05-01T10:39:29Z</time></trkpt><trkpt lat="41.18281777555875" lon="9.460368366039814"><ele>11.0</ele><time>2026-05-01T10:39:31Z</time></trkpt><trkpt lat="41.18277427330343" lon="9.460443442684936"><ele>11.0</ele><time>2026-05-01T10:39:34Z</time></trkpt><trkpt lat="41.18258587083454" lon="9.460420783508724"><ele>11.0</ele><time>2026-05-01T10:39:41Z</time></trkpt><trkpt lat="41.182514641632174" lon="9.46039692888956"><ele>11.0</ele><time>2026-05-01T10:39:43Z</time></trkpt><trkpt lat="41.182474499628384" lon="9.460325460947875"><ele>11.0</ele><time>2026-05-01T10:42:02Z</time></trkpt><trkpt lat="41.18247431827908" lon="9.460239559222389"><ele>11.0</ele><time>2026-05-01T10:42:38Z</time></trkpt><trkpt lat="41.182464897194976" lon="9.460147833707541"><ele>11.0</ele><time>2026-05-01T10:42:44Z</time></trkpt><trkpt lat="41.18247966728726" lon="9.460237877013132"><ele>11.0</ele><time>2026-05-01T10:43:07Z</time></trkpt><trkpt lat="41.18248699780688" lon="9.460324545810515"><ele>11.0</ele><time>2026-05-01T10:43:12Z</time></trkpt><trkpt lat="41.18246084849658" lon="9.460407341299826"><ele>11.0</ele><time>2026-05-01T10:43:27.998Z</time></trkpt><trkpt lat="41.18247959559569" lon="9.460314692963026"><ele>11.0</ele><time>2026-05-01T10:45:41.999Z</time></trkpt><trkpt lat="41.18247824051333" lon="9.460229923197193"><ele>11.0</ele><time>2026-05-01T10:45:54Z</time></trkpt><trkpt lat="41.18246407254402" lon="9.46013728179562"><ele>11.0</ele><time>2026-05-01T10:46:01Z</time></trkpt><trkpt lat="41.18246509705792" lon="9.460044648067457"><ele>11.0</ele><time>2026-05-01T10:46:07Z</time></trkpt><trkpt lat="41.18249979549222" lon="9.459974850054486"><ele>11.0</ele><time>2026-05-01T10:46:13Z</time></trkpt><trkpt lat="41.182450651540556" lon="9.459917728581775"><ele>11.0</ele><time>2026-05-01T10:46:20Z</time></trkpt><trkpt lat="41.18240730881823" lon="9.459856685349127"><ele>11.0</ele><time>2026-05-01T10:46:28Z</time></trkpt><trkpt lat="41.18236801478068" lon="9.459788341368462"><ele>11.0</ele><time>2026-05-01T10:46:56Z</time></trkpt><trkpt lat="41.18235123256972" lon="9.459704544535859"><ele>11.0</ele><time>2026-05-01T10:47:10.001Z</time></trkpt><trkpt lat="41.18230134187131" lon="9.45964751845415"><ele>11.0</ele><time>2026-05-01T10:47:21.001Z</time></trkpt><trkpt lat="41.182240785811985" lon="9.459606328410185"><ele>11.0</ele><time>2026-05-01T10:47:56.999Z</time></trkpt><trkpt lat="41.18220978440366" lon="9.459527553478164"><ele>11.0</ele><time>2026-05-01T10:48:03.999Z</time></trkpt><trkpt lat="41.18221806625965" lon="9.45944083766679"><ele>11.0</ele><time>2026-05-01T10:48:35Z</time></trkpt><trkpt lat="41.18223026177124" lon="9.459352910166611"><ele>1.0</ele><time>2026-05-01T10:48:39Z</time></trkpt><trkpt lat="41.18223173557679" lon="9.459441240952179"><ele>1.0</ele><time>2026-05-01T10:49:15Z</time></trkpt></trkseg></trk></gpx>